<?xml version="1.0" encoding="UTF-8" standalone="no" ?>
<gpx xmlns="http://www.topografix.com/GPX/1/1" xmlns:xsi="http://www.w3.org/2001/XMLSchema-instance" xsi:schemaLocation="http://www.topografix.com/GPX/1/1 http://www.topografix.com/GPX/1/1/gpx.xsd" version="1.1" creator="VisuGPX - https://www.visugpx.com">
  <metadata>
    <name>17/10/2020 rando cheval mezieres</name>
    <desc><![CDATA[File with points/tracks from Locus Map/3.48.2]]></desc>
  </metadata>
  <trk>
    <name><![CDATA[2020-10-17 09:35:18]]></name>
    <extensions>
      <line xmlns="http://www.topografix.com/GPX/gpx_style/0/2">
        <color>0000FF</color>
        <opacity>0.59</opacity>
        <width>6.0</width>
      </line>
    </extensions>
    <trkseg>
      <trkpt lat="49.78548" lon="3.40596">
        <ele>77.98</ele>
        <time>2020-10-17T07:35:19.999Z</time>
      </trkpt>
      <trkpt lat="49.78539" lon="3.40594">
        <ele>77.98</ele>
        <time>2020-10-17T07:37:17.830Z</time>
      </trkpt>
      <trkpt lat="49.78548" lon="3.40595">
        <ele>78.08</ele>
        <time>2020-10-17T07:38:14.999Z</time>
      </trkpt>
      <trkpt lat="49.78555" lon="3.40604">
        <ele>78.08</ele>
        <time>2020-10-17T07:38:22.999Z</time>
      </trkpt>
      <trkpt lat="49.78558" lon="3.40617">
        <ele>77.88</ele>
        <time>2020-10-17T07:38:38.999Z</time>
      </trkpt>
      <trkpt lat="49.78567" lon="3.40621">
        <ele>77.58</ele>
        <time>2020-10-17T07:39:03.999Z</time>
      </trkpt>
      <trkpt lat="49.78558" lon="3.40617">
        <ele>77.88</ele>
        <time>2020-10-17T07:39:44.031Z</time>
      </trkpt>
      <trkpt lat="49.7855" lon="3.40607">
        <ele>77.98</ele>
        <time>2020-10-17T07:39:52.999Z</time>
      </trkpt>
      <trkpt lat="49.78544" lon="3.40595">
        <ele>77.98</ele>
        <time>2020-10-17T07:40:00.999Z</time>
      </trkpt>
      <trkpt lat="49.78542" lon="3.40582">
        <ele>77.98</ele>
        <time>2020-10-17T07:40:09.736Z</time>
      </trkpt>
      <trkpt lat="49.7855" lon="3.40593">
        <ele>77.98</ele>
        <time>2020-10-17T07:42:25.999Z</time>
      </trkpt>
      <trkpt lat="49.78558" lon="3.40605">
        <ele>77.98</ele>
        <time>2020-10-17T07:44:32.999Z</time>
      </trkpt>
      <trkpt lat="49.78555" lon="3.40618">
        <ele>77.88</ele>
        <time>2020-10-17T07:46:40.999Z</time>
      </trkpt>
      <trkpt lat="49.78563" lon="3.40627">
        <ele>77.88</ele>
        <time>2020-10-17T07:47:13.999Z</time>
      </trkpt>
      <trkpt lat="49.78571" lon="3.40636">
        <ele>77.88</ele>
        <time>2020-10-17T07:47:22.999Z</time>
      </trkpt>
      <trkpt lat="49.78579" lon="3.40643">
        <ele>77.88</ele>
        <time>2020-10-17T07:47:31.999Z</time>
      </trkpt>
      <trkpt lat="49.78589" lon="3.40647">
        <ele>77.88</ele>
        <time>2020-10-17T07:47:39.294Z</time>
      </trkpt>
      <trkpt lat="49.78598" lon="3.40648">
        <ele>77.88</ele>
        <time>2020-10-17T07:47:45.817Z</time>
      </trkpt>
      <trkpt lat="49.78607" lon="3.40644">
        <ele>77.88</ele>
        <time>2020-10-17T07:47:52.792Z</time>
      </trkpt>
      <trkpt lat="49.78617" lon="3.40638">
        <ele>77.88</ele>
        <time>2020-10-17T07:47:58.999Z</time>
      </trkpt>
      <trkpt lat="49.78626" lon="3.40636">
        <ele>77.88</ele>
        <time>2020-10-17T07:48:05.999Z</time>
      </trkpt>
      <trkpt lat="49.78635" lon="3.40643">
        <ele>91.66</ele>
        <time>2020-10-17T07:48:14.999Z</time>
      </trkpt>
      <trkpt lat="49.78641" lon="3.40654">
        <ele>91.43</ele>
        <time>2020-10-17T07:48:20.999Z</time>
      </trkpt>
      <trkpt lat="49.78634" lon="3.40644">
        <ele>90.6</ele>
        <time>2020-10-17T07:48:32.999Z</time>
      </trkpt>
      <trkpt lat="49.78627" lon="3.40632">
        <ele>90.31</ele>
        <time>2020-10-17T07:48:39.999Z</time>
      </trkpt>
      <trkpt lat="49.78618" lon="3.40622">
        <ele>89.91</ele>
        <time>2020-10-17T07:48:46.674Z</time>
      </trkpt>
      <trkpt lat="49.78615" lon="3.40609">
        <ele>89.44</ele>
        <time>2020-10-17T07:48:52.999Z</time>
      </trkpt>
      <trkpt lat="49.78616" lon="3.40623">
        <ele>88.34</ele>
        <time>2020-10-17T07:49:29.535Z</time>
      </trkpt>
      <trkpt lat="49.78619" lon="3.40638">
        <ele>88.16</ele>
        <time>2020-10-17T07:49:38.999Z</time>
      </trkpt>
      <trkpt lat="49.7863" lon="3.40634">
        <ele>88.24</ele>
        <time>2020-10-17T07:50:32.999Z</time>
      </trkpt>
      <trkpt lat="49.78639" lon="3.40631">
        <ele>88.5</ele>
        <time>2020-10-17T07:50:49.999Z</time>
      </trkpt>
      <trkpt lat="49.7863" lon="3.40628">
        <ele>90.38</ele>
        <time>2020-10-17T07:51:21.557Z</time>
      </trkpt>
      <trkpt lat="49.78624" lon="3.40617">
        <ele>90.48</ele>
        <time>2020-10-17T07:51:26.973Z</time>
      </trkpt>
      <trkpt lat="49.78619" lon="3.40605">
        <ele>90.25</ele>
        <time>2020-10-17T07:51:37.999Z</time>
      </trkpt>
      <trkpt lat="49.78613" lon="3.40593">
        <ele>89.98</ele>
        <time>2020-10-17T07:51:43.974Z</time>
      </trkpt>
      <trkpt lat="49.78608" lon="3.40581">
        <ele>89.58</ele>
        <time>2020-10-17T07:51:51.999Z</time>
      </trkpt>
      <trkpt lat="49.786" lon="3.40565">
        <ele>89.3</ele>
        <time>2020-10-17T07:51:56.388Z</time>
      </trkpt>
      <trkpt lat="49.78593" lon="3.40554">
        <ele>89.09</ele>
        <time>2020-10-17T07:52:01.026Z</time>
      </trkpt>
      <trkpt lat="49.78587" lon="3.40539">
        <ele>88.61</ele>
        <time>2020-10-17T07:52:06.999Z</time>
      </trkpt>
      <trkpt lat="49.78584" lon="3.40524">
        <ele>87.96</ele>
        <time>2020-10-17T07:52:11.999Z</time>
      </trkpt>
      <trkpt lat="49.78583" lon="3.4051">
        <ele>87.12</ele>
        <time>2020-10-17T07:52:18.975Z</time>
      </trkpt>
      <trkpt lat="49.78582" lon="3.40496">
        <ele>86.45</ele>
        <time>2020-10-17T07:52:25.893Z</time>
      </trkpt>
      <trkpt lat="49.7858" lon="3.40482">
        <ele>85.92</ele>
        <time>2020-10-17T07:52:32.916Z</time>
      </trkpt>
      <trkpt lat="49.78576" lon="3.40466">
        <ele>85.48</ele>
        <time>2020-10-17T07:52:40.999Z</time>
      </trkpt>
      <trkpt lat="49.78572" lon="3.40453">
        <ele>85.07</ele>
        <time>2020-10-17T07:52:47.517Z</time>
      </trkpt>
      <trkpt lat="49.7857" lon="3.4044">
        <ele>84.89</ele>
        <time>2020-10-17T07:52:55.999Z</time>
      </trkpt>
      <trkpt lat="49.78565" lon="3.40427">
        <ele>84.91</ele>
        <time>2020-10-17T07:53:01.616Z</time>
      </trkpt>
      <trkpt lat="49.78559" lon="3.40413">
        <ele>84.87</ele>
        <time>2020-10-17T07:53:06.970Z</time>
      </trkpt>
      <trkpt lat="49.78554" lon="3.404">
        <ele>84.8</ele>
        <time>2020-10-17T07:53:11.296Z</time>
      </trkpt>
      <trkpt lat="49.7855" lon="3.40388">
        <ele>84.67</ele>
        <time>2020-10-17T07:53:17.456Z</time>
      </trkpt>
      <trkpt lat="49.78544" lon="3.40375">
        <ele>84.5</ele>
        <time>2020-10-17T07:53:24.310Z</time>
      </trkpt>
      <trkpt lat="49.7854" lon="3.40362">
        <ele>84.44</ele>
        <time>2020-10-17T07:53:31.513Z</time>
      </trkpt>
      <trkpt lat="49.78536" lon="3.40347">
        <ele>84.71</ele>
        <time>2020-10-17T07:53:38.627Z</time>
      </trkpt>
      <trkpt lat="49.7853" lon="3.40336">
        <ele>85.33</ele>
        <time>2020-10-17T07:53:44.749Z</time>
      </trkpt>
      <trkpt lat="49.78525" lon="3.40323">
        <ele>85.96</ele>
        <time>2020-10-17T07:53:51.999Z</time>
      </trkpt>
      <trkpt lat="49.78519" lon="3.4031">
        <ele>86.49</ele>
        <time>2020-10-17T07:53:58.468Z</time>
      </trkpt>
      <trkpt lat="49.78514" lon="3.40298">
        <ele>87.13</ele>
        <time>2020-10-17T07:54:05.999Z</time>
      </trkpt>
      <trkpt lat="49.7851" lon="3.40285">
        <ele>87.78</ele>
        <time>2020-10-17T07:54:10.999Z</time>
      </trkpt>
      <trkpt lat="49.78506" lon="3.40272">
        <ele>88.47</ele>
        <time>2020-10-17T07:54:15.554Z</time>
      </trkpt>
      <trkpt lat="49.78501" lon="3.40259">
        <ele>89.41</ele>
        <time>2020-10-17T07:54:22.999Z</time>
      </trkpt>
      <trkpt lat="49.78496" lon="3.40243">
        <ele>90.1</ele>
        <time>2020-10-17T07:54:29.047Z</time>
      </trkpt>
      <trkpt lat="49.78492" lon="3.40228">
        <ele>90.86</ele>
        <time>2020-10-17T07:54:36.999Z</time>
      </trkpt>
      <trkpt lat="49.78487" lon="3.40213">
        <ele>91.24</ele>
        <time>2020-10-17T07:54:43.490Z</time>
      </trkpt>
      <trkpt lat="49.78482" lon="3.402">
        <ele>91.39</ele>
        <time>2020-10-17T07:54:49.996Z</time>
      </trkpt>
      <trkpt lat="49.78479" lon="3.40187">
        <ele>70.68</ele>
        <time>2020-10-17T07:54:56.999Z</time>
      </trkpt>
      <trkpt lat="49.78475" lon="3.40174">
        <ele>82.18</ele>
        <time>2020-10-17T07:55:02.375Z</time>
      </trkpt>
      <trkpt lat="49.78471" lon="3.40161">
        <ele>88.84</ele>
        <time>2020-10-17T07:55:08.896Z</time>
      </trkpt>
      <trkpt lat="49.78468" lon="3.40147">
        <ele>89.28</ele>
        <time>2020-10-17T07:55:16.999Z</time>
      </trkpt>
      <trkpt lat="49.78463" lon="3.40134">
        <ele>89.28</ele>
        <time>2020-10-17T07:55:23.308Z</time>
      </trkpt>
      <trkpt lat="49.78458" lon="3.40121">
        <ele>89.28</ele>
        <time>2020-10-17T07:55:29.971Z</time>
      </trkpt>
      <trkpt lat="49.78452" lon="3.4011">
        <ele>89.28</ele>
        <time>2020-10-17T07:55:36.776Z</time>
      </trkpt>
      <trkpt lat="49.78446" lon="3.40097">
        <ele>82.19</ele>
        <time>2020-10-17T07:55:43.967Z</time>
      </trkpt>
      <trkpt lat="49.78443" lon="3.40082">
        <ele>70.86</ele>
        <time>2020-10-17T07:55:51.271Z</time>
      </trkpt>
      <trkpt lat="49.7844" lon="3.40067">
        <ele>70.68</ele>
        <time>2020-10-17T07:55:58.999Z</time>
      </trkpt>
      <trkpt lat="49.78434" lon="3.40055">
        <ele>75.18</ele>
        <time>2020-10-17T07:56:04.999Z</time>
      </trkpt>
      <trkpt lat="49.78427" lon="3.40046">
        <ele>73.39</ele>
        <time>2020-10-17T07:56:10.999Z</time>
      </trkpt>
      <trkpt lat="49.78418" lon="3.40038">
        <ele>73.38</ele>
        <time>2020-10-17T07:56:18.999Z</time>
      </trkpt>
      <trkpt lat="49.78411" lon="3.40027">
        <ele>73.38</ele>
        <time>2020-10-17T07:56:24.999Z</time>
      </trkpt>
      <trkpt lat="49.78403" lon="3.4002">
        <ele>74.98</ele>
        <time>2020-10-17T07:56:30.999Z</time>
      </trkpt>
      <trkpt lat="49.78398" lon="3.40008">
        <ele>74.98</ele>
        <time>2020-10-17T07:56:35.999Z</time>
      </trkpt>
      <trkpt lat="49.78393" lon="3.39995">
        <ele>74.98</ele>
        <time>2020-10-17T07:56:42.351Z</time>
      </trkpt>
      <trkpt lat="49.78387" lon="3.39984">
        <ele>74.98</ele>
        <time>2020-10-17T07:56:48.453Z</time>
      </trkpt>
      <trkpt lat="49.78383" lon="3.39971">
        <ele>74.98</ele>
        <time>2020-10-17T07:56:54.999Z</time>
      </trkpt>
      <trkpt lat="49.78379" lon="3.39958">
        <ele>74.98</ele>
        <time>2020-10-17T07:57:00.999Z</time>
      </trkpt>
      <trkpt lat="49.7838" lon="3.39941">
        <ele>71.09</ele>
        <time>2020-10-17T07:57:07.591Z</time>
      </trkpt>
      <trkpt lat="49.78376" lon="3.39928">
        <ele>71.08</ele>
        <time>2020-10-17T07:57:16.999Z</time>
      </trkpt>
      <trkpt lat="49.78371" lon="3.39916">
        <ele>71.08</ele>
        <time>2020-10-17T07:57:21.999Z</time>
      </trkpt>
      <trkpt lat="49.78365" lon="3.39902">
        <ele>71.08</ele>
        <time>2020-10-17T07:57:26.457Z</time>
      </trkpt>
      <trkpt lat="49.7836" lon="3.3989">
        <ele>71.09</ele>
        <time>2020-10-17T07:57:32.030Z</time>
      </trkpt>
      <trkpt lat="49.78356" lon="3.39877">
        <ele>71.09</ele>
        <time>2020-10-17T07:57:38.999Z</time>
      </trkpt>
      <trkpt lat="49.78352" lon="3.39864">
        <ele>71.09</ele>
        <time>2020-10-17T07:57:43.997Z</time>
      </trkpt>
      <trkpt lat="49.78349" lon="3.3985">
        <ele>71.09</ele>
        <time>2020-10-17T07:57:51.371Z</time>
      </trkpt>
      <trkpt lat="49.78348" lon="3.39836">
        <ele>71.09</ele>
        <time>2020-10-17T07:57:58.574Z</time>
      </trkpt>
      <trkpt lat="49.78346" lon="3.39822">
        <ele>71.09</ele>
        <time>2020-10-17T07:58:04.608Z</time>
      </trkpt>
      <trkpt lat="49.78344" lon="3.39807">
        <ele>77.16</ele>
        <time>2020-10-17T07:58:11.233Z</time>
      </trkpt>
      <trkpt lat="49.78342" lon="3.39793">
        <ele>76.67</ele>
        <time>2020-10-17T07:58:17.736Z</time>
      </trkpt>
      <trkpt lat="49.7834" lon="3.39779">
        <ele>76.46</ele>
        <time>2020-10-17T07:58:23.805Z</time>
      </trkpt>
      <trkpt lat="49.78336" lon="3.39765">
        <ele>76.4</ele>
        <time>2020-10-17T07:58:29.999Z</time>
      </trkpt>
      <trkpt lat="49.78333" lon="3.39751">
        <ele>76.39</ele>
        <time>2020-10-17T07:58:34.677Z</time>
      </trkpt>
      <trkpt lat="49.78329" lon="3.39738">
        <ele>76.47</ele>
        <time>2020-10-17T07:58:39.150Z</time>
      </trkpt>
      <trkpt lat="49.7832" lon="3.39722">
        <ele>76.49</ele>
        <time>2020-10-17T07:58:43.350Z</time>
      </trkpt>
      <trkpt lat="49.78312" lon="3.39708">
        <ele>76.58</ele>
        <time>2020-10-17T07:58:47.472Z</time>
      </trkpt>
      <trkpt lat="49.78305" lon="3.39698">
        <ele>76.64</ele>
        <time>2020-10-17T07:58:52.492Z</time>
      </trkpt>
      <trkpt lat="49.78297" lon="3.39692">
        <ele>76.68</ele>
        <time>2020-10-17T07:58:57.356Z</time>
      </trkpt>
      <trkpt lat="49.78289" lon="3.39683">
        <ele>77.03</ele>
        <time>2020-10-17T07:59:02.999Z</time>
      </trkpt>
      <trkpt lat="49.78283" lon="3.39673">
        <ele>77.45</ele>
        <time>2020-10-17T07:59:10.567Z</time>
      </trkpt>
      <trkpt lat="49.78277" lon="3.39662">
        <ele>78.02</ele>
        <time>2020-10-17T07:59:18.999Z</time>
      </trkpt>
      <trkpt lat="49.7827" lon="3.3965">
        <ele>70.99</ele>
        <time>2020-10-17T07:59:26.834Z</time>
      </trkpt>
      <trkpt lat="49.78264" lon="3.39639">
        <ele>70.99</ele>
        <time>2020-10-17T07:59:31.692Z</time>
      </trkpt>
      <trkpt lat="49.78259" lon="3.39628">
        <ele>70.99</ele>
        <time>2020-10-17T07:59:35.753Z</time>
      </trkpt>
      <trkpt lat="49.78256" lon="3.39615">
        <ele>70.99</ele>
        <time>2020-10-17T07:59:41.999Z</time>
      </trkpt>
      <trkpt lat="49.78252" lon="3.39602">
        <ele>70.99</ele>
        <time>2020-10-17T07:59:48.999Z</time>
      </trkpt>
      <trkpt lat="49.78249" lon="3.39588">
        <ele>70.99</ele>
        <time>2020-10-17T07:59:54.894Z</time>
      </trkpt>
      <trkpt lat="49.78246" lon="3.39576">
        <ele>72.59</ele>
        <time>2020-10-17T08:00:02.197Z</time>
      </trkpt>
      <trkpt lat="49.78242" lon="3.39562">
        <ele>75.49</ele>
        <time>2020-10-17T08:00:08.129Z</time>
      </trkpt>
      <trkpt lat="49.78238" lon="3.3955">
        <ele>75.49</ele>
        <time>2020-10-17T08:00:14.310Z</time>
      </trkpt>
      <trkpt lat="49.78232" lon="3.39538">
        <ele>75.49</ele>
        <time>2020-10-17T08:00:20.512Z</time>
      </trkpt>
      <trkpt lat="49.78228" lon="3.39524">
        <ele>75.49</ele>
        <time>2020-10-17T08:00:26.656Z</time>
      </trkpt>
      <trkpt lat="49.78223" lon="3.39512">
        <ele>75.49</ele>
        <time>2020-10-17T08:00:36.637Z</time>
      </trkpt>
      <trkpt lat="49.78214" lon="3.39507">
        <ele>81.49</ele>
        <time>2020-10-17T08:00:45.347Z</time>
      </trkpt>
      <trkpt lat="49.78205" lon="3.39508">
        <ele>81.49</ele>
        <time>2020-10-17T08:00:52.273Z</time>
      </trkpt>
      <trkpt lat="49.78196" lon="3.39508">
        <ele>81.49</ele>
        <time>2020-10-17T08:00:57.493Z</time>
      </trkpt>
      <trkpt lat="49.78186" lon="3.39508">
        <ele>81.49</ele>
        <time>2020-10-17T08:01:03.295Z</time>
      </trkpt>
      <trkpt lat="49.78176" lon="3.39507">
        <ele>81.49</ele>
        <time>2020-10-17T08:01:09.389Z</time>
      </trkpt>
      <trkpt lat="49.78167" lon="3.39502">
        <ele>81.49</ele>
        <time>2020-10-17T08:01:15.573Z</time>
      </trkpt>
      <trkpt lat="49.78159" lon="3.39495">
        <ele>81.49</ele>
        <time>2020-10-17T08:01:22.352Z</time>
      </trkpt>
      <trkpt lat="49.78155" lon="3.39482">
        <ele>81.29</ele>
        <time>2020-10-17T08:01:28.999Z</time>
      </trkpt>
      <trkpt lat="49.78148" lon="3.39471">
        <ele>81.29</ele>
        <time>2020-10-17T08:01:36.230Z</time>
      </trkpt>
      <trkpt lat="49.78142" lon="3.39461">
        <ele>81.29</ele>
        <time>2020-10-17T08:01:42.494Z</time>
      </trkpt>
      <trkpt lat="49.78135" lon="3.39452">
        <ele>81.29</ele>
        <time>2020-10-17T08:01:49.397Z</time>
      </trkpt>
      <trkpt lat="49.78127" lon="3.39442">
        <ele>81.29</ele>
        <time>2020-10-17T08:01:56.792Z</time>
      </trkpt>
      <trkpt lat="49.78121" lon="3.39431">
        <ele>81.29</ele>
        <time>2020-10-17T08:02:02.999Z</time>
      </trkpt>
      <trkpt lat="49.78114" lon="3.39421">
        <ele>81.29</ele>
        <time>2020-10-17T08:02:09.607Z</time>
      </trkpt>
      <trkpt lat="49.78108" lon="3.3941">
        <ele>81.29</ele>
        <time>2020-10-17T08:02:15.291Z</time>
      </trkpt>
      <trkpt lat="49.78104" lon="3.39398">
        <ele>81.29</ele>
        <time>2020-10-17T08:02:20.999Z</time>
      </trkpt>
      <trkpt lat="49.78103" lon="3.39383">
        <ele>81.29</ele>
        <time>2020-10-17T08:02:27.714Z</time>
      </trkpt>
      <trkpt lat="49.78097" lon="3.39371">
        <ele>81.29</ele>
        <time>2020-10-17T08:02:36.426Z</time>
      </trkpt>
      <trkpt lat="49.78091" lon="3.39361">
        <ele>82.17</ele>
        <time>2020-10-17T08:02:42.034Z</time>
      </trkpt>
      <trkpt lat="49.78084" lon="3.39349">
        <ele>82.61</ele>
        <time>2020-10-17T08:02:46.714Z</time>
      </trkpt>
      <trkpt lat="49.78077" lon="3.39338">
        <ele>83.1</ele>
        <time>2020-10-17T08:02:51.312Z</time>
      </trkpt>
      <trkpt lat="49.7807" lon="3.39329">
        <ele>83.77</ele>
        <time>2020-10-17T08:02:56.999Z</time>
      </trkpt>
      <trkpt lat="49.78063" lon="3.39318">
        <ele>84.3</ele>
        <time>2020-10-17T08:03:03.296Z</time>
      </trkpt>
      <trkpt lat="49.78058" lon="3.39306">
        <ele>84.8</ele>
        <time>2020-10-17T08:03:09.330Z</time>
      </trkpt>
      <trkpt lat="49.78053" lon="3.39295">
        <ele>84.68</ele>
        <time>2020-10-17T08:03:15.977Z</time>
      </trkpt>
      <trkpt lat="49.78047" lon="3.39283">
        <ele>73.59</ele>
        <time>2020-10-17T08:03:23.691Z</time>
      </trkpt>
      <trkpt lat="49.78041" lon="3.39272">
        <ele>73.59</ele>
        <time>2020-10-17T08:03:30.338Z</time>
      </trkpt>
      <trkpt lat="49.78037" lon="3.39257">
        <ele>67.74</ele>
        <time>2020-10-17T08:03:38.838Z</time>
      </trkpt>
      <trkpt lat="49.78033" lon="3.39244">
        <ele>65.79</ele>
        <time>2020-10-17T08:03:45.275Z</time>
      </trkpt>
      <trkpt lat="49.78028" lon="3.39232">
        <ele>65.79</ele>
        <time>2020-10-17T08:03:51.999Z</time>
      </trkpt>
      <trkpt lat="49.78023" lon="3.3922">
        <ele>65.79</ele>
        <time>2020-10-17T08:03:57.529Z</time>
      </trkpt>
      <trkpt lat="49.78017" lon="3.39208">
        <ele>65.79</ele>
        <time>2020-10-17T08:04:03.690Z</time>
      </trkpt>
      <trkpt lat="49.7801" lon="3.39198">
        <ele>65.79</ele>
        <time>2020-10-17T08:04:09.812Z</time>
      </trkpt>
      <trkpt lat="49.78003" lon="3.39189">
        <ele>69.69</ele>
        <time>2020-10-17T08:04:16.416Z</time>
      </trkpt>
      <trkpt lat="49.77995" lon="3.39182">
        <ele>69.69</ele>
        <time>2020-10-17T08:04:22.516Z</time>
      </trkpt>
      <trkpt lat="49.77987" lon="3.39173">
        <ele>69.69</ele>
        <time>2020-10-17T08:04:29.232Z</time>
      </trkpt>
      <trkpt lat="49.7798" lon="3.39163">
        <ele>69.69</ele>
        <time>2020-10-17T08:04:35.394Z</time>
      </trkpt>
      <trkpt lat="49.77976" lon="3.39152">
        <ele>65.79</ele>
        <time>2020-10-17T08:04:41.999Z</time>
      </trkpt>
      <trkpt lat="49.77969" lon="3.3914">
        <ele>65.99</ele>
        <time>2020-10-17T08:04:48.790Z</time>
      </trkpt>
      <trkpt lat="49.77962" lon="3.39129">
        <ele>65.99</ele>
        <time>2020-10-17T08:04:54.999Z</time>
      </trkpt>
      <trkpt lat="49.77956" lon="3.39117">
        <ele>65.8</ele>
        <time>2020-10-17T08:05:02.670Z</time>
      </trkpt>
      <trkpt lat="49.7795" lon="3.39105">
        <ele>65.79</ele>
        <time>2020-10-17T08:05:08.790Z</time>
      </trkpt>
      <trkpt lat="49.77941" lon="3.39103">
        <ele>65.79</ele>
        <time>2020-10-17T08:05:16.389Z</time>
      </trkpt>
      <trkpt lat="49.77933" lon="3.39093">
        <ele>65.79</ele>
        <time>2020-10-17T08:05:23.430Z</time>
      </trkpt>
      <trkpt lat="49.77926" lon="3.39082">
        <ele>65.79</ele>
        <time>2020-10-17T08:05:29.250Z</time>
      </trkpt>
      <trkpt lat="49.7792" lon="3.3907">
        <ele>65.79</ele>
        <time>2020-10-17T08:05:34.999Z</time>
      </trkpt>
      <trkpt lat="49.77913" lon="3.39062">
        <ele>65.79</ele>
        <time>2020-10-17T08:05:41.250Z</time>
      </trkpt>
      <trkpt lat="49.77905" lon="3.39052">
        <ele>65.49</ele>
        <time>2020-10-17T08:05:47.999Z</time>
      </trkpt>
      <trkpt lat="49.779" lon="3.3904">
        <ele>65.49</ele>
        <time>2020-10-17T08:05:54.410Z</time>
      </trkpt>
      <trkpt lat="49.77892" lon="3.39033">
        <ele>65.49</ele>
        <time>2020-10-17T08:06:02.999Z</time>
      </trkpt>
      <trkpt lat="49.77882" lon="3.39036">
        <ele>65.49</ele>
        <time>2020-10-17T08:06:09.668Z</time>
      </trkpt>
      <trkpt lat="49.77873" lon="3.39038">
        <ele>65.49</ele>
        <time>2020-10-17T08:06:13.999Z</time>
      </trkpt>
      <trkpt lat="49.77864" lon="3.39038">
        <ele>65.49</ele>
        <time>2020-10-17T08:06:18.999Z</time>
      </trkpt>
      <trkpt lat="49.77855" lon="3.39038">
        <ele>65.49</ele>
        <time>2020-10-17T08:06:24.999Z</time>
      </trkpt>
      <trkpt lat="49.7785" lon="3.39026">
        <ele>64.99</ele>
        <time>2020-10-17T08:06:57.312Z</time>
      </trkpt>
      <trkpt lat="49.77841" lon="3.39027">
        <ele>64.99</ele>
        <time>2020-10-17T08:07:23.999Z</time>
      </trkpt>
      <trkpt lat="49.77832" lon="3.39025">
        <ele>64.99</ele>
        <time>2020-10-17T08:07:34.815Z</time>
      </trkpt>
      <trkpt lat="49.77823" lon="3.39023">
        <ele>64.99</ele>
        <time>2020-10-17T08:07:44.999Z</time>
      </trkpt>
      <trkpt lat="49.77814" lon="3.39018">
        <ele>64.99</ele>
        <time>2020-10-17T08:07:53.171Z</time>
      </trkpt>
      <trkpt lat="49.77805" lon="3.39015">
        <ele>64.99</ele>
        <time>2020-10-17T08:07:59.050Z</time>
      </trkpt>
      <trkpt lat="49.77795" lon="3.39014">
        <ele>64.99</ele>
        <time>2020-10-17T08:08:04.999Z</time>
      </trkpt>
      <trkpt lat="49.77786" lon="3.39013">
        <ele>64.99</ele>
        <time>2020-10-17T08:08:10.786Z</time>
      </trkpt>
      <trkpt lat="49.77776" lon="3.39009">
        <ele>64.99</ele>
        <time>2020-10-17T08:08:16.999Z</time>
      </trkpt>
      <trkpt lat="49.77767" lon="3.39003">
        <ele>64.99</ele>
        <time>2020-10-17T08:08:23.970Z</time>
      </trkpt>
      <trkpt lat="49.77759" lon="3.38996">
        <ele>67.45</ele>
        <time>2020-10-17T08:08:29.973Z</time>
      </trkpt>
      <trkpt lat="49.77751" lon="3.38987">
        <ele>67.87</ele>
        <time>2020-10-17T08:08:35.047Z</time>
      </trkpt>
      <trkpt lat="49.77745" lon="3.38977">
        <ele>68.25</ele>
        <time>2020-10-17T08:08:39.999Z</time>
      </trkpt>
      <trkpt lat="49.77738" lon="3.38967">
        <ele>68.83</ele>
        <time>2020-10-17T08:08:45.237Z</time>
      </trkpt>
      <trkpt lat="49.77731" lon="3.38958">
        <ele>69.57</ele>
        <time>2020-10-17T08:08:50.336Z</time>
      </trkpt>
      <trkpt lat="49.77723" lon="3.38947">
        <ele>70.58</ele>
        <time>2020-10-17T08:08:56.999Z</time>
      </trkpt>
      <trkpt lat="49.77716" lon="3.38938">
        <ele>71.28</ele>
        <time>2020-10-17T08:09:02.999Z</time>
      </trkpt>
      <trkpt lat="49.77708" lon="3.38929">
        <ele>71.93</ele>
        <time>2020-10-17T08:09:09.053Z</time>
      </trkpt>
      <trkpt lat="49.77702" lon="3.38917">
        <ele>72.45</ele>
        <time>2020-10-17T08:09:15.697Z</time>
      </trkpt>
      <trkpt lat="49.77695" lon="3.38907">
        <ele>73.04</ele>
        <time>2020-10-17T08:09:23.472Z</time>
      </trkpt>
      <trkpt lat="49.77691" lon="3.38894">
        <ele>73.23</ele>
        <time>2020-10-17T08:09:29.990Z</time>
      </trkpt>
      <trkpt lat="49.77687" lon="3.3888">
        <ele>73.18</ele>
        <time>2020-10-17T08:09:36.753Z</time>
      </trkpt>
      <trkpt lat="49.77683" lon="3.38867">
        <ele>72.94</ele>
        <time>2020-10-17T08:09:42.317Z</time>
      </trkpt>
      <trkpt lat="49.7768" lon="3.38853">
        <ele>72.83</ele>
        <time>2020-10-17T08:09:47.436Z</time>
      </trkpt>
      <trkpt lat="49.77677" lon="3.38838">
        <ele>72.92</ele>
        <time>2020-10-17T08:09:53.239Z</time>
      </trkpt>
      <trkpt lat="49.77675" lon="3.38824">
        <ele>73.1</ele>
        <time>2020-10-17T08:09:59.394Z</time>
      </trkpt>
      <trkpt lat="49.77672" lon="3.3881">
        <ele>73.28</ele>
        <time>2020-10-17T08:10:05.999Z</time>
      </trkpt>
      <trkpt lat="49.77671" lon="3.38795">
        <ele>73.38</ele>
        <time>2020-10-17T08:10:11.172Z</time>
      </trkpt>
      <trkpt lat="49.77668" lon="3.38782">
        <ele>73.52</ele>
        <time>2020-10-17T08:10:17.252Z</time>
      </trkpt>
      <trkpt lat="49.77664" lon="3.38769">
        <ele>73.68</ele>
        <time>2020-10-17T08:10:23.450Z</time>
      </trkpt>
      <trkpt lat="49.77662" lon="3.38754">
        <ele>73.81</ele>
        <time>2020-10-17T08:10:29.112Z</time>
      </trkpt>
      <trkpt lat="49.77659" lon="3.38739">
        <ele>73.93</ele>
        <time>2020-10-17T08:10:35.287Z</time>
      </trkpt>
      <trkpt lat="49.77656" lon="3.38725">
        <ele>73.99</ele>
        <time>2020-10-17T08:10:41.847Z</time>
      </trkpt>
      <trkpt lat="49.77654" lon="3.38712">
        <ele>73.83</ele>
        <time>2020-10-17T08:10:47.999Z</time>
      </trkpt>
      <trkpt lat="49.7765" lon="3.38699">
        <ele>73.65</ele>
        <time>2020-10-17T08:10:52.658Z</time>
      </trkpt>
      <trkpt lat="49.77645" lon="3.38685">
        <ele>73.43</ele>
        <time>2020-10-17T08:10:57.219Z</time>
      </trkpt>
      <trkpt lat="49.77641" lon="3.38669">
        <ele>73.08</ele>
        <time>2020-10-17T08:11:01.592Z</time>
      </trkpt>
      <trkpt lat="49.77638" lon="3.38655">
        <ele>72.57</ele>
        <time>2020-10-17T08:11:05.712Z</time>
      </trkpt>
      <trkpt lat="49.77635" lon="3.38641">
        <ele>71.71</ele>
        <time>2020-10-17T08:11:10.755Z</time>
      </trkpt>
      <trkpt lat="49.77635" lon="3.38626">
        <ele>70.13</ele>
        <time>2020-10-17T08:11:18.451Z</time>
      </trkpt>
      <trkpt lat="49.77633" lon="3.38612">
        <ele>68.93</ele>
        <time>2020-10-17T08:11:24.999Z</time>
      </trkpt>
      <trkpt lat="49.77628" lon="3.38598">
        <ele>68.42</ele>
        <time>2020-10-17T08:11:29.614Z</time>
      </trkpt>
      <trkpt lat="49.77624" lon="3.38585">
        <ele>67.72</ele>
        <time>2020-10-17T08:11:35.928Z</time>
      </trkpt>
      <trkpt lat="49.77619" lon="3.38573">
        <ele>66.95</ele>
        <time>2020-10-17T08:11:44.516Z</time>
      </trkpt>
      <trkpt lat="49.77617" lon="3.38559">
        <ele>66.14</ele>
        <time>2020-10-17T08:11:53.307Z</time>
      </trkpt>
      <trkpt lat="49.77614" lon="3.38546">
        <ele>65.62</ele>
        <time>2020-10-17T08:12:00.491Z</time>
      </trkpt>
      <trkpt lat="49.77609" lon="3.38531">
        <ele>65.41</ele>
        <time>2020-10-17T08:12:05.633Z</time>
      </trkpt>
      <trkpt lat="49.77604" lon="3.38519">
        <ele>65.4</ele>
        <time>2020-10-17T08:12:11.999Z</time>
      </trkpt>
      <trkpt lat="49.77597" lon="3.38509">
        <ele>65.4</ele>
        <time>2020-10-17T08:12:17.999Z</time>
      </trkpt>
      <trkpt lat="49.77591" lon="3.38497">
        <ele>65.25</ele>
        <time>2020-10-17T08:12:27.598Z</time>
      </trkpt>
      <trkpt lat="49.77583" lon="3.38489">
        <ele>64.61</ele>
        <time>2020-10-17T08:12:35.533Z</time>
      </trkpt>
      <trkpt lat="49.77574" lon="3.38482">
        <ele>64.25</ele>
        <time>2020-10-17T08:12:41.456Z</time>
      </trkpt>
      <trkpt lat="49.77565" lon="3.3848">
        <ele>64</ele>
        <time>2020-10-17T08:12:47.855Z</time>
      </trkpt>
      <trkpt lat="49.77555" lon="3.38475">
        <ele>63.71</ele>
        <time>2020-10-17T08:12:54.058Z</time>
      </trkpt>
      <trkpt lat="49.77547" lon="3.38468">
        <ele>63.5</ele>
        <time>2020-10-17T08:12:59.140Z</time>
      </trkpt>
      <trkpt lat="49.7754" lon="3.3846">
        <ele>63.56</ele>
        <time>2020-10-17T08:13:04.999Z</time>
      </trkpt>
      <trkpt lat="49.77531" lon="3.38453">
        <ele>63.76</ele>
        <time>2020-10-17T08:13:11.298Z</time>
      </trkpt>
      <trkpt lat="49.77524" lon="3.38443">
        <ele>64.17</ele>
        <time>2020-10-17T08:13:16.132Z</time>
      </trkpt>
      <trkpt lat="49.77517" lon="3.38434">
        <ele>64.78</ele>
        <time>2020-10-17T08:13:22.999Z</time>
      </trkpt>
      <trkpt lat="49.77508" lon="3.38428">
        <ele>65.36</ele>
        <time>2020-10-17T08:13:28.708Z</time>
      </trkpt>
      <trkpt lat="49.775" lon="3.38421">
        <ele>66.19</ele>
        <time>2020-10-17T08:13:34.027Z</time>
      </trkpt>
      <trkpt lat="49.77492" lon="3.38413">
        <ele>66.98</ele>
        <time>2020-10-17T08:13:38.969Z</time>
      </trkpt>
      <trkpt lat="49.77483" lon="3.38406">
        <ele>67.55</ele>
        <time>2020-10-17T08:13:44.213Z</time>
      </trkpt>
      <trkpt lat="49.77474" lon="3.38401">
        <ele>68.02</ele>
        <time>2020-10-17T08:13:49.693Z</time>
      </trkpt>
      <trkpt lat="49.77467" lon="3.38392">
        <ele>68.77</ele>
        <time>2020-10-17T08:13:56.999Z</time>
      </trkpt>
      <trkpt lat="49.77459" lon="3.38385">
        <ele>69.31</ele>
        <time>2020-10-17T08:14:03.038Z</time>
      </trkpt>
      <trkpt lat="49.77452" lon="3.38374">
        <ele>69.69</ele>
        <time>2020-10-17T08:14:08.733Z</time>
      </trkpt>
      <trkpt lat="49.77446" lon="3.38362">
        <ele>69.86</ele>
        <time>2020-10-17T08:14:14.553Z</time>
      </trkpt>
      <trkpt lat="49.7744" lon="3.38352">
        <ele>69.93</ele>
        <time>2020-10-17T08:14:20.999Z</time>
      </trkpt>
      <trkpt lat="49.77435" lon="3.38339">
        <ele>69.8</ele>
        <time>2020-10-17T08:14:28.372Z</time>
      </trkpt>
      <trkpt lat="49.7743" lon="3.38327">
        <ele>69.67</ele>
        <time>2020-10-17T08:14:35.999Z</time>
      </trkpt>
      <trkpt lat="49.77423" lon="3.38318">
        <ele>69.6</ele>
        <time>2020-10-17T08:14:41.999Z</time>
      </trkpt>
      <trkpt lat="49.77417" lon="3.38308">
        <ele>69.64</ele>
        <time>2020-10-17T08:14:46.999Z</time>
      </trkpt>
      <trkpt lat="49.77412" lon="3.38295">
        <ele>69.74</ele>
        <time>2020-10-17T08:14:51.390Z</time>
      </trkpt>
      <trkpt lat="49.77406" lon="3.38283">
        <ele>69.77</ele>
        <time>2020-10-17T08:14:57.999Z</time>
      </trkpt>
      <trkpt lat="49.77401" lon="3.3827">
        <ele>69.73</ele>
        <time>2020-10-17T08:15:04.317Z</time>
      </trkpt>
      <trkpt lat="49.77396" lon="3.38258">
        <ele>70.02</ele>
        <time>2020-10-17T08:15:10.577Z</time>
      </trkpt>
      <trkpt lat="49.77392" lon="3.38246">
        <ele>70.55</ele>
        <time>2020-10-17T08:15:16.435Z</time>
      </trkpt>
      <trkpt lat="49.77388" lon="3.38233">
        <ele>72.27</ele>
        <time>2020-10-17T08:15:36.333Z</time>
      </trkpt>
      <trkpt lat="49.77382" lon="3.38222">
        <ele>73.14</ele>
        <time>2020-10-17T08:15:43.937Z</time>
      </trkpt>
      <trkpt lat="49.77376" lon="3.38212">
        <ele>73.5</ele>
        <time>2020-10-17T08:15:49.999Z</time>
      </trkpt>
      <trkpt lat="49.77369" lon="3.38202">
        <ele>73.82</ele>
        <time>2020-10-17T08:15:54.641Z</time>
      </trkpt>
      <trkpt lat="49.77362" lon="3.38192">
        <ele>74.17</ele>
        <time>2020-10-17T08:15:59.715Z</time>
      </trkpt>
      <trkpt lat="49.77355" lon="3.38181">
        <ele>74.36</ele>
        <time>2020-10-17T08:16:05.999Z</time>
      </trkpt>
      <trkpt lat="49.77349" lon="3.3817">
        <ele>74.41</ele>
        <time>2020-10-17T08:16:12.674Z</time>
      </trkpt>
      <trkpt lat="49.77346" lon="3.38157">
        <ele>73.9</ele>
        <time>2020-10-17T08:16:20.999Z</time>
      </trkpt>
      <trkpt lat="49.77341" lon="3.38144">
        <ele>73.78</ele>
        <time>2020-10-17T08:16:27.811Z</time>
      </trkpt>
      <trkpt lat="49.77336" lon="3.38131">
        <ele>73.82</ele>
        <time>2020-10-17T08:16:32.350Z</time>
      </trkpt>
      <trkpt lat="49.7733" lon="3.3812">
        <ele>73.85</ele>
        <time>2020-10-17T08:16:36.414Z</time>
      </trkpt>
      <trkpt lat="49.77323" lon="3.38112">
        <ele>73.98</ele>
        <time>2020-10-17T08:16:42.294Z</time>
      </trkpt>
      <trkpt lat="49.77322" lon="3.38097">
        <ele>74.34</ele>
        <time>2020-10-17T08:16:52.175Z</time>
      </trkpt>
      <trkpt lat="49.77329" lon="3.38087">
        <ele>74.52</ele>
        <time>2020-10-17T08:16:59.240Z</time>
      </trkpt>
      <trkpt lat="49.77335" lon="3.38077">
        <ele>74.9</ele>
        <time>2020-10-17T08:17:04.999Z</time>
      </trkpt>
      <trkpt lat="49.77342" lon="3.38066">
        <ele>75.34</ele>
        <time>2020-10-17T08:17:09.250Z</time>
      </trkpt>
      <trkpt lat="49.77348" lon="3.38055">
        <ele>75.81</ele>
        <time>2020-10-17T08:17:13.997Z</time>
      </trkpt>
      <trkpt lat="49.77352" lon="3.38042">
        <ele>76.18</ele>
        <time>2020-10-17T08:17:19.999Z</time>
      </trkpt>
      <trkpt lat="49.77357" lon="3.38029">
        <ele>76.46</ele>
        <time>2020-10-17T08:17:25.393Z</time>
      </trkpt>
      <trkpt lat="49.77361" lon="3.38016">
        <ele>76.78</ele>
        <time>2020-10-17T08:17:30.493Z</time>
      </trkpt>
      <trkpt lat="49.77364" lon="3.38001">
        <ele>77.13</ele>
        <time>2020-10-17T08:17:35.437Z</time>
      </trkpt>
      <trkpt lat="49.77366" lon="3.37988">
        <ele>77.45</ele>
        <time>2020-10-17T08:17:39.617Z</time>
      </trkpt>
      <trkpt lat="49.77367" lon="3.37971">
        <ele>77.9</ele>
        <time>2020-10-17T08:17:44.999Z</time>
      </trkpt>
      <trkpt lat="49.77367" lon="3.37956">
        <ele>78.46</ele>
        <time>2020-10-17T08:17:50.393Z</time>
      </trkpt>
      <trkpt lat="49.77368" lon="3.37942">
        <ele>79.09</ele>
        <time>2020-10-17T08:17:55.295Z</time>
      </trkpt>
      <trkpt lat="49.77368" lon="3.37926">
        <ele>79.57</ele>
        <time>2020-10-17T08:18:00.238Z</time>
      </trkpt>
      <trkpt lat="49.7737" lon="3.37912">
        <ele>80.11</ele>
        <time>2020-10-17T08:18:06.576Z</time>
      </trkpt>
      <trkpt lat="49.77373" lon="3.37898">
        <ele>80.96</ele>
        <time>2020-10-17T08:18:14.056Z</time>
      </trkpt>
      <trkpt lat="49.77376" lon="3.37884">
        <ele>82.26</ele>
        <time>2020-10-17T08:18:22.069Z</time>
      </trkpt>
      <trkpt lat="49.77379" lon="3.3787">
        <ele>83.27</ele>
        <time>2020-10-17T08:18:29.252Z</time>
      </trkpt>
      <trkpt lat="49.77381" lon="3.37856">
        <ele>84.27</ele>
        <time>2020-10-17T08:18:36.156Z</time>
      </trkpt>
      <trkpt lat="49.77384" lon="3.37842">
        <ele>85.24</ele>
        <time>2020-10-17T08:18:43.233Z</time>
      </trkpt>
      <trkpt lat="49.77388" lon="3.37828">
        <ele>85.87</ele>
        <time>2020-10-17T08:18:48.748Z</time>
      </trkpt>
      <trkpt lat="49.7739" lon="3.37813">
        <ele>86.32</ele>
        <time>2020-10-17T08:18:53.999Z</time>
      </trkpt>
      <trkpt lat="49.77392" lon="3.37799">
        <ele>86.85</ele>
        <time>2020-10-17T08:19:01.938Z</time>
      </trkpt>
      <trkpt lat="49.77397" lon="3.37787">
        <ele>87.08</ele>
        <time>2020-10-17T08:19:08.390Z</time>
      </trkpt>
      <trkpt lat="49.77401" lon="3.37774">
        <ele>87.32</ele>
        <time>2020-10-17T08:19:15.150Z</time>
      </trkpt>
      <trkpt lat="49.77402" lon="3.37758">
        <ele>87.3</ele>
        <time>2020-10-17T08:19:19.552Z</time>
      </trkpt>
      <trkpt lat="49.77408" lon="3.37746">
        <ele>87.1</ele>
        <time>2020-10-17T08:19:25.132Z</time>
      </trkpt>
      <trkpt lat="49.77412" lon="3.37733">
        <ele>86.73</ele>
        <time>2020-10-17T08:19:31.516Z</time>
      </trkpt>
      <trkpt lat="49.77413" lon="3.37719">
        <ele>86.52</ele>
        <time>2020-10-17T08:19:37.655Z</time>
      </trkpt>
      <trkpt lat="49.77417" lon="3.37704">
        <ele>86.25</ele>
        <time>2020-10-17T08:19:42.733Z</time>
      </trkpt>
      <trkpt lat="49.77421" lon="3.37692">
        <ele>85.8</ele>
        <time>2020-10-17T08:19:47.999Z</time>
      </trkpt>
      <trkpt lat="49.77426" lon="3.3768">
        <ele>85.42</ele>
        <time>2020-10-17T08:19:52.999Z</time>
      </trkpt>
      <trkpt lat="49.77429" lon="3.37662">
        <ele>85.13</ele>
        <time>2020-10-17T08:19:57.999Z</time>
      </trkpt>
      <trkpt lat="49.77433" lon="3.37647">
        <ele>85.08</ele>
        <time>2020-10-17T08:20:03.674Z</time>
      </trkpt>
      <trkpt lat="49.77434" lon="3.37634">
        <ele>85.17</ele>
        <time>2020-10-17T08:20:09.409Z</time>
      </trkpt>
      <trkpt lat="49.77436" lon="3.3762">
        <ele>85.36</ele>
        <time>2020-10-17T08:20:14.592Z</time>
      </trkpt>
      <trkpt lat="49.77439" lon="3.37606">
        <ele>85.57</ele>
        <time>2020-10-17T08:20:20.071Z</time>
      </trkpt>
      <trkpt lat="49.7744" lon="3.37592">
        <ele>85.74</ele>
        <time>2020-10-17T08:20:25.253Z</time>
      </trkpt>
      <trkpt lat="49.77444" lon="3.37579">
        <ele>86.1</ele>
        <time>2020-10-17T08:20:32.784Z</time>
      </trkpt>
      <trkpt lat="49.77444" lon="3.37564">
        <ele>86.39</ele>
        <time>2020-10-17T08:20:39.999Z</time>
      </trkpt>
      <trkpt lat="49.77446" lon="3.37549">
        <ele>86.61</ele>
        <time>2020-10-17T08:20:44.999Z</time>
      </trkpt>
      <trkpt lat="49.7745" lon="3.37536">
        <ele>86.93</ele>
        <time>2020-10-17T08:20:50.700Z</time>
      </trkpt>
      <trkpt lat="49.77455" lon="3.37524">
        <ele>87.22</ele>
        <time>2020-10-17T08:20:55.913Z</time>
      </trkpt>
      <trkpt lat="49.77459" lon="3.37511">
        <ele>87.6</ele>
        <time>2020-10-17T08:21:01.052Z</time>
      </trkpt>
      <trkpt lat="49.77462" lon="3.37498">
        <ele>88.01</ele>
        <time>2020-10-17T08:21:05.970Z</time>
      </trkpt>
      <trkpt lat="49.77469" lon="3.37488">
        <ele>88.35</ele>
        <time>2020-10-17T08:21:10.851Z</time>
      </trkpt>
      <trkpt lat="49.77476" lon="3.37478">
        <ele>88.63</ele>
        <time>2020-10-17T08:21:16.555Z</time>
      </trkpt>
      <trkpt lat="49.77483" lon="3.37468">
        <ele>89.05</ele>
        <time>2020-10-17T08:21:22.271Z</time>
      </trkpt>
      <trkpt lat="49.7749" lon="3.37457">
        <ele>89.51</ele>
        <time>2020-10-17T08:21:28.441Z</time>
      </trkpt>
      <trkpt lat="49.77497" lon="3.37445">
        <ele>89.88</ele>
        <time>2020-10-17T08:21:34.356Z</time>
      </trkpt>
      <trkpt lat="49.77502" lon="3.37435">
        <ele>90.31</ele>
        <time>2020-10-17T08:21:41.140Z</time>
      </trkpt>
      <trkpt lat="49.7751" lon="3.37427">
        <ele>90.73</ele>
        <time>2020-10-17T08:21:47.713Z</time>
      </trkpt>
      <trkpt lat="49.77518" lon="3.37417">
        <ele>91.02</ele>
        <time>2020-10-17T08:21:52.999Z</time>
      </trkpt>
      <trkpt lat="49.77526" lon="3.37407">
        <ele>91.07</ele>
        <time>2020-10-17T08:21:57.415Z</time>
      </trkpt>
      <trkpt lat="49.77534" lon="3.37397">
        <ele>91.06</ele>
        <time>2020-10-17T08:22:01.554Z</time>
      </trkpt>
      <trkpt lat="49.77542" lon="3.37386">
        <ele>91.02</ele>
        <time>2020-10-17T08:22:06.999Z</time>
      </trkpt>
      <trkpt lat="49.77551" lon="3.37382">
        <ele>91.42</ele>
        <time>2020-10-17T08:22:19.999Z</time>
      </trkpt>
      <trkpt lat="49.77558" lon="3.37371">
        <ele>91.71</ele>
        <time>2020-10-17T08:22:25.334Z</time>
      </trkpt>
      <trkpt lat="49.77565" lon="3.37361">
        <ele>91.84</ele>
        <time>2020-10-17T08:22:29.999Z</time>
      </trkpt>
      <trkpt lat="49.7757" lon="3.37349">
        <ele>91.97</ele>
        <time>2020-10-17T08:22:34.999Z</time>
      </trkpt>
      <trkpt lat="49.77575" lon="3.37337">
        <ele>92.11</ele>
        <time>2020-10-17T08:22:39.722Z</time>
      </trkpt>
      <trkpt lat="49.77581" lon="3.37324">
        <ele>92.26</ele>
        <time>2020-10-17T08:22:45.612Z</time>
      </trkpt>
      <trkpt lat="49.77588" lon="3.37314">
        <ele>92.47</ele>
        <time>2020-10-17T08:22:51.293Z</time>
      </trkpt>
      <trkpt lat="49.77594" lon="3.37302">
        <ele>92.59</ele>
        <time>2020-10-17T08:22:56.142Z</time>
      </trkpt>
      <trkpt lat="49.77602" lon="3.37291">
        <ele>92.7</ele>
        <time>2020-10-17T08:23:00.315Z</time>
      </trkpt>
      <trkpt lat="49.77608" lon="3.37281">
        <ele>92.78</ele>
        <time>2020-10-17T08:23:05.097Z</time>
      </trkpt>
      <trkpt lat="49.77615" lon="3.37271">
        <ele>93.15</ele>
        <time>2020-10-17T08:23:12.999Z</time>
      </trkpt>
      <trkpt lat="49.77621" lon="3.3726">
        <ele>93.56</ele>
        <time>2020-10-17T08:23:18.294Z</time>
      </trkpt>
      <trkpt lat="49.77628" lon="3.37251">
        <ele>94</ele>
        <time>2020-10-17T08:23:24.999Z</time>
      </trkpt>
      <trkpt lat="49.77634" lon="3.3724">
        <ele>94.35</ele>
        <time>2020-10-17T08:23:31.360Z</time>
      </trkpt>
      <trkpt lat="49.77641" lon="3.37229">
        <ele>94.66</ele>
        <time>2020-10-17T08:23:38.351Z</time>
      </trkpt>
      <trkpt lat="49.77647" lon="3.37218">
        <ele>95.05</ele>
        <time>2020-10-17T08:23:44.539Z</time>
      </trkpt>
      <trkpt lat="49.77653" lon="3.37205">
        <ele>95.68</ele>
        <time>2020-10-17T08:23:50.999Z</time>
      </trkpt>
      <trkpt lat="49.7766" lon="3.37196">
        <ele>96.82</ele>
        <time>2020-10-17T08:23:58.598Z</time>
      </trkpt>
      <trkpt lat="49.77669" lon="3.37191">
        <ele>97.92</ele>
        <time>2020-10-17T08:24:04.657Z</time>
      </trkpt>
      <trkpt lat="49.77678" lon="3.37184">
        <ele>99.11</ele>
        <time>2020-10-17T08:24:11.596Z</time>
      </trkpt>
      <trkpt lat="49.77682" lon="3.3717">
        <ele>99.93</ele>
        <time>2020-10-17T08:24:17.233Z</time>
      </trkpt>
      <trkpt lat="49.77688" lon="3.37158">
        <ele>100.65</ele>
        <time>2020-10-17T08:24:21.999Z</time>
      </trkpt>
      <trkpt lat="49.77693" lon="3.37146">
        <ele>101.14</ele>
        <time>2020-10-17T08:24:26.549Z</time>
      </trkpt>
      <trkpt lat="49.77699" lon="3.37134">
        <ele>101.74</ele>
        <time>2020-10-17T08:24:32.628Z</time>
      </trkpt>
      <trkpt lat="49.77705" lon="3.37122">
        <ele>102.28</ele>
        <time>2020-10-17T08:24:37.999Z</time>
      </trkpt>
      <trkpt lat="49.77711" lon="3.3711">
        <ele>102.64</ele>
        <time>2020-10-17T08:24:44.475Z</time>
      </trkpt>
      <trkpt lat="49.77717" lon="3.371">
        <ele>102.91</ele>
        <time>2020-10-17T08:24:49.999Z</time>
      </trkpt>
      <trkpt lat="49.77722" lon="3.37085">
        <ele>103.18</ele>
        <time>2020-10-17T08:24:55.616Z</time>
      </trkpt>
      <trkpt lat="49.77726" lon="3.37072">
        <ele>103.3</ele>
        <time>2020-10-17T08:25:00.918Z</time>
      </trkpt>
      <trkpt lat="49.77732" lon="3.37062">
        <ele>103.14</ele>
        <time>2020-10-17T08:25:08.575Z</time>
      </trkpt>
      <trkpt lat="49.77739" lon="3.37051">
        <ele>102.87</ele>
        <time>2020-10-17T08:25:15.531Z</time>
      </trkpt>
      <trkpt lat="49.77746" lon="3.37042">
        <ele>102.66</ele>
        <time>2020-10-17T08:25:23.319Z</time>
      </trkpt>
      <trkpt lat="49.77755" lon="3.37034">
        <ele>102.71</ele>
        <time>2020-10-17T08:25:31.999Z</time>
      </trkpt>
      <trkpt lat="49.77761" lon="3.37024">
        <ele>102.71</ele>
        <time>2020-10-17T08:25:37.211Z</time>
      </trkpt>
      <trkpt lat="49.77768" lon="3.37013">
        <ele>102.72</ele>
        <time>2020-10-17T08:25:42.614Z</time>
      </trkpt>
      <trkpt lat="49.77774" lon="3.37003">
        <ele>102.79</ele>
        <time>2020-10-17T08:25:49.013Z</time>
      </trkpt>
      <trkpt lat="49.77782" lon="3.36994">
        <ele>103.05</ele>
        <time>2020-10-17T08:25:55.694Z</time>
      </trkpt>
      <trkpt lat="49.7779" lon="3.36986">
        <ele>103.46</ele>
        <time>2020-10-17T08:26:01.999Z</time>
      </trkpt>
      <trkpt lat="49.77798" lon="3.36978">
        <ele>104.02</ele>
        <time>2020-10-17T08:26:07.999Z</time>
      </trkpt>
      <trkpt lat="49.77807" lon="3.36973">
        <ele>104.82</ele>
        <time>2020-10-17T08:26:14.398Z</time>
      </trkpt>
      <trkpt lat="49.77815" lon="3.36966">
        <ele>105.69</ele>
        <time>2020-10-17T08:26:20.508Z</time>
      </trkpt>
      <trkpt lat="49.77821" lon="3.36955">
        <ele>106.73</ele>
        <time>2020-10-17T08:26:27.377Z</time>
      </trkpt>
      <trkpt lat="49.77827" lon="3.36944">
        <ele>107.56</ele>
        <time>2020-10-17T08:26:33.454Z</time>
      </trkpt>
      <trkpt lat="49.77834" lon="3.36934">
        <ele>108.33</ele>
        <time>2020-10-17T08:26:39.555Z</time>
      </trkpt>
      <trkpt lat="49.77841" lon="3.36923">
        <ele>108.92</ele>
        <time>2020-10-17T08:26:45.136Z</time>
      </trkpt>
      <trkpt lat="49.77846" lon="3.36911">
        <ele>109.23</ele>
        <time>2020-10-17T08:26:50.677Z</time>
      </trkpt>
      <trkpt lat="49.77853" lon="3.36901">
        <ele>109.34</ele>
        <time>2020-10-17T08:26:55.999Z</time>
      </trkpt>
      <trkpt lat="49.7786" lon="3.36891">
        <ele>109.36</ele>
        <time>2020-10-17T08:27:00.999Z</time>
      </trkpt>
      <trkpt lat="49.77867" lon="3.36882">
        <ele>109.36</ele>
        <time>2020-10-17T08:27:06.418Z</time>
      </trkpt>
      <trkpt lat="49.77875" lon="3.36873">
        <ele>109.33</ele>
        <time>2020-10-17T08:27:11.975Z</time>
      </trkpt>
      <trkpt lat="49.77883" lon="3.36864">
        <ele>109.17</ele>
        <time>2020-10-17T08:27:18.999Z</time>
      </trkpt>
      <trkpt lat="49.77891" lon="3.36856">
        <ele>109.09</ele>
        <time>2020-10-17T08:27:25.999Z</time>
      </trkpt>
      <trkpt lat="49.779" lon="3.36848">
        <ele>109.45</ele>
        <time>2020-10-17T08:27:33.999Z</time>
      </trkpt>
      <trkpt lat="49.77908" lon="3.36841">
        <ele>109.86</ele>
        <time>2020-10-17T08:27:40.217Z</time>
      </trkpt>
      <trkpt lat="49.77914" lon="3.36831">
        <ele>110.37</ele>
        <time>2020-10-17T08:27:46.578Z</time>
      </trkpt>
      <trkpt lat="49.77921" lon="3.36821">
        <ele>110.87</ele>
        <time>2020-10-17T08:27:52.999Z</time>
      </trkpt>
      <trkpt lat="49.7793" lon="3.36816">
        <ele>111.1</ele>
        <time>2020-10-17T08:27:58.098Z</time>
      </trkpt>
      <trkpt lat="49.77936" lon="3.36805">
        <ele>111.35</ele>
        <time>2020-10-17T08:28:04.577Z</time>
      </trkpt>
      <trkpt lat="49.77944" lon="3.36794">
        <ele>111.61</ele>
        <time>2020-10-17T08:28:11.089Z</time>
      </trkpt>
      <trkpt lat="49.7795" lon="3.36783">
        <ele>111.77</ele>
        <time>2020-10-17T08:28:16.548Z</time>
      </trkpt>
      <trkpt lat="49.77955" lon="3.36771">
        <ele>111.93</ele>
        <time>2020-10-17T08:28:22.999Z</time>
      </trkpt>
      <trkpt lat="49.7796" lon="3.36758">
        <ele>111.98</ele>
        <time>2020-10-17T08:28:27.999Z</time>
      </trkpt>
      <trkpt lat="49.77965" lon="3.36746">
        <ele>111.97</ele>
        <time>2020-10-17T08:28:32.695Z</time>
      </trkpt>
      <trkpt lat="49.77972" lon="3.36736">
        <ele>111.89</ele>
        <time>2020-10-17T08:28:37.995Z</time>
      </trkpt>
      <trkpt lat="49.77978" lon="3.36725">
        <ele>111.78</ele>
        <time>2020-10-17T08:28:44.438Z</time>
      </trkpt>
      <trkpt lat="49.77985" lon="3.36715">
        <ele>111.46</ele>
        <time>2020-10-17T08:28:50.999Z</time>
      </trkpt>
      <trkpt lat="49.7799" lon="3.36703">
        <ele>111.05</ele>
        <time>2020-10-17T08:28:57.652Z</time>
      </trkpt>
      <trkpt lat="49.77997" lon="3.36693">
        <ele>110.54</ele>
        <time>2020-10-17T08:29:04.411Z</time>
      </trkpt>
      <trkpt lat="49.78004" lon="3.36683">
        <ele>110.07</ele>
        <time>2020-10-17T08:29:10.357Z</time>
      </trkpt>
      <trkpt lat="49.78011" lon="3.36675">
        <ele>109.73</ele>
        <time>2020-10-17T08:29:16.999Z</time>
      </trkpt>
      <trkpt lat="49.78017" lon="3.36664">
        <ele>109.56</ele>
        <time>2020-10-17T08:29:22.558Z</time>
      </trkpt>
      <trkpt lat="49.78025" lon="3.36655">
        <ele>109.38</ele>
        <time>2020-10-17T08:29:28.137Z</time>
      </trkpt>
      <trkpt lat="49.78031" lon="3.36645">
        <ele>109.21</ele>
        <time>2020-10-17T08:29:33.095Z</time>
      </trkpt>
      <trkpt lat="49.7804" lon="3.36637">
        <ele>109.1</ele>
        <time>2020-10-17T08:29:38.382Z</time>
      </trkpt>
      <trkpt lat="49.78046" lon="3.36626">
        <ele>109.04</ele>
        <time>2020-10-17T08:29:44.369Z</time>
      </trkpt>
      <trkpt lat="49.78053" lon="3.36615">
        <ele>108.98</ele>
        <time>2020-10-17T08:29:49.991Z</time>
      </trkpt>
      <trkpt lat="49.78061" lon="3.36605">
        <ele>108.78</ele>
        <time>2020-10-17T08:29:55.999Z</time>
      </trkpt>
      <trkpt lat="49.78068" lon="3.36596">
        <ele>108.53</ele>
        <time>2020-10-17T08:30:01.216Z</time>
      </trkpt>
      <trkpt lat="49.78075" lon="3.36586">
        <ele>108.16</ele>
        <time>2020-10-17T08:30:07.458Z</time>
      </trkpt>
      <trkpt lat="49.78081" lon="3.36576">
        <ele>107.72</ele>
        <time>2020-10-17T08:30:13.498Z</time>
      </trkpt>
      <trkpt lat="49.78089" lon="3.36566">
        <ele>107.27</ele>
        <time>2020-10-17T08:30:18.591Z</time>
      </trkpt>
      <trkpt lat="49.78093" lon="3.36554">
        <ele>106.84</ele>
        <time>2020-10-17T08:30:24.596Z</time>
      </trkpt>
      <trkpt lat="49.78099" lon="3.36543">
        <ele>106.35</ele>
        <time>2020-10-17T08:30:30.069Z</time>
      </trkpt>
      <trkpt lat="49.78106" lon="3.36533">
        <ele>105.91</ele>
        <time>2020-10-17T08:30:35.730Z</time>
      </trkpt>
      <trkpt lat="49.78114" lon="3.36523">
        <ele>105.37</ele>
        <time>2020-10-17T08:30:41.591Z</time>
      </trkpt>
      <trkpt lat="49.78121" lon="3.36513">
        <ele>104.78</ele>
        <time>2020-10-17T08:30:46.357Z</time>
      </trkpt>
      <trkpt lat="49.78128" lon="3.36502">
        <ele>104.08</ele>
        <time>2020-10-17T08:30:52.617Z</time>
      </trkpt>
      <trkpt lat="49.78134" lon="3.36491">
        <ele>103.31</ele>
        <time>2020-10-17T08:30:58.378Z</time>
      </trkpt>
      <trkpt lat="49.7814" lon="3.36481">
        <ele>102.55</ele>
        <time>2020-10-17T08:31:03.999Z</time>
      </trkpt>
      <trkpt lat="49.78148" lon="3.36471">
        <ele>102.02</ele>
        <time>2020-10-17T08:31:09.576Z</time>
      </trkpt>
      <trkpt lat="49.78155" lon="3.36463">
        <ele>101.54</ele>
        <time>2020-10-17T08:31:14.999Z</time>
      </trkpt>
      <trkpt lat="49.78163" lon="3.36454">
        <ele>101.25</ele>
        <time>2020-10-17T08:31:20.270Z</time>
      </trkpt>
      <trkpt lat="49.7817" lon="3.36445">
        <ele>101.15</ele>
        <time>2020-10-17T08:31:28.674Z</time>
      </trkpt>
      <trkpt lat="49.78178" lon="3.36435">
        <ele>101.05</ele>
        <time>2020-10-17T08:31:35.498Z</time>
      </trkpt>
      <trkpt lat="49.78185" lon="3.36426">
        <ele>101.04</ele>
        <time>2020-10-17T08:31:40.369Z</time>
      </trkpt>
      <trkpt lat="49.78192" lon="3.36416">
        <ele>101.05</ele>
        <time>2020-10-17T08:31:45.999Z</time>
      </trkpt>
      <trkpt lat="49.78199" lon="3.36407">
        <ele>101.11</ele>
        <time>2020-10-17T08:31:51.911Z</time>
      </trkpt>
      <trkpt lat="49.78206" lon="3.36397">
        <ele>101.23</ele>
        <time>2020-10-17T08:31:58.112Z</time>
      </trkpt>
      <trkpt lat="49.78213" lon="3.36387">
        <ele>101.38</ele>
        <time>2020-10-17T08:32:04.150Z</time>
      </trkpt>
      <trkpt lat="49.7822" lon="3.36377">
        <ele>101.42</ele>
        <time>2020-10-17T08:32:09.414Z</time>
      </trkpt>
      <trkpt lat="49.78228" lon="3.36369">
        <ele>101.46</ele>
        <time>2020-10-17T08:32:14.628Z</time>
      </trkpt>
      <trkpt lat="49.78237" lon="3.36367">
        <ele>101.62</ele>
        <time>2020-10-17T08:32:22.674Z</time>
      </trkpt>
      <trkpt lat="49.78244" lon="3.36359">
        <ele>101.78</ele>
        <time>2020-10-17T08:32:28.792Z</time>
      </trkpt>
      <trkpt lat="49.78252" lon="3.36351">
        <ele>102.14</ele>
        <time>2020-10-17T08:32:34.711Z</time>
      </trkpt>
      <trkpt lat="49.78259" lon="3.36342">
        <ele>102.44</ele>
        <time>2020-10-17T08:32:39.414Z</time>
      </trkpt>
      <trkpt lat="49.78266" lon="3.36331">
        <ele>102.64</ele>
        <time>2020-10-17T08:32:44.665Z</time>
      </trkpt>
      <trkpt lat="49.78272" lon="3.36322">
        <ele>102.71</ele>
        <time>2020-10-17T08:32:49.107Z</time>
      </trkpt>
      <trkpt lat="49.78278" lon="3.3631">
        <ele>102.58</ele>
        <time>2020-10-17T08:32:53.999Z</time>
      </trkpt>
      <trkpt lat="49.78285" lon="3.36299">
        <ele>102.43</ele>
        <time>2020-10-17T08:32:59.836Z</time>
      </trkpt>
      <trkpt lat="49.78291" lon="3.36288">
        <ele>102.24</ele>
        <time>2020-10-17T08:33:06.999Z</time>
      </trkpt>
      <trkpt lat="49.78297" lon="3.36276">
        <ele>102.07</ele>
        <time>2020-10-17T08:33:12.999Z</time>
      </trkpt>
      <trkpt lat="49.78302" lon="3.36263">
        <ele>102.11</ele>
        <time>2020-10-17T08:33:19.999Z</time>
      </trkpt>
      <trkpt lat="49.78308" lon="3.36251">
        <ele>102.92</ele>
        <time>2020-10-17T08:33:27.230Z</time>
      </trkpt>
      <trkpt lat="49.78313" lon="3.3624">
        <ele>103.99</ele>
        <time>2020-10-17T08:33:33.999Z</time>
      </trkpt>
      <trkpt lat="49.78319" lon="3.36227">
        <ele>104.84</ele>
        <time>2020-10-17T08:33:40.569Z</time>
      </trkpt>
      <trkpt lat="49.78326" lon="3.36215">
        <ele>105.6</ele>
        <time>2020-10-17T08:33:46.655Z</time>
      </trkpt>
      <trkpt lat="49.78332" lon="3.36202">
        <ele>106.19</ele>
        <time>2020-10-17T08:33:52.788Z</time>
      </trkpt>
      <trkpt lat="49.7834" lon="3.36193">
        <ele>106.79</ele>
        <time>2020-10-17T08:33:58.242Z</time>
      </trkpt>
      <trkpt lat="49.78347" lon="3.36183">
        <ele>107.37</ele>
        <time>2020-10-17T08:34:04.070Z</time>
      </trkpt>
      <trkpt lat="49.78355" lon="3.36174">
        <ele>107.89</ele>
        <time>2020-10-17T08:34:10.490Z</time>
      </trkpt>
      <trkpt lat="49.78363" lon="3.36165">
        <ele>108.38</ele>
        <time>2020-10-17T08:34:16.476Z</time>
      </trkpt>
      <trkpt lat="49.78372" lon="3.36158">
        <ele>108.91</ele>
        <time>2020-10-17T08:34:22.054Z</time>
      </trkpt>
      <trkpt lat="49.7838" lon="3.3615">
        <ele>109.37</ele>
        <time>2020-10-17T08:34:27.999Z</time>
      </trkpt>
      <trkpt lat="49.78389" lon="3.36145">
        <ele>109.65</ele>
        <time>2020-10-17T08:34:32.648Z</time>
      </trkpt>
      <trkpt lat="49.78398" lon="3.36143">
        <ele>110.04</ele>
        <time>2020-10-17T08:34:38.628Z</time>
      </trkpt>
      <trkpt lat="49.78407" lon="3.36138">
        <ele>110.54</ele>
        <time>2020-10-17T08:34:45.312Z</time>
      </trkpt>
      <trkpt lat="49.78418" lon="3.36137">
        <ele>110.94</ele>
        <time>2020-10-17T08:34:51.999Z</time>
      </trkpt>
      <trkpt lat="49.78427" lon="3.36134">
        <ele>110.92</ele>
        <time>2020-10-17T08:34:57.155Z</time>
      </trkpt>
      <trkpt lat="49.78436" lon="3.36131">
        <ele>110.79</ele>
        <time>2020-10-17T08:35:02.999Z</time>
      </trkpt>
      <trkpt lat="49.78445" lon="3.36126">
        <ele>110.58</ele>
        <time>2020-10-17T08:35:08.708Z</time>
      </trkpt>
      <trkpt lat="49.78454" lon="3.36121">
        <ele>110.3</ele>
        <time>2020-10-17T08:35:15.096Z</time>
      </trkpt>
      <trkpt lat="49.78463" lon="3.36116">
        <ele>110.16</ele>
        <time>2020-10-17T08:35:21.126Z</time>
      </trkpt>
      <trkpt lat="49.78471" lon="3.36111">
        <ele>110.17</ele>
        <time>2020-10-17T08:35:26.812Z</time>
      </trkpt>
      <trkpt lat="49.78481" lon="3.36106">
        <ele>110.12</ele>
        <time>2020-10-17T08:35:33.492Z</time>
      </trkpt>
      <trkpt lat="49.78489" lon="3.36101">
        <ele>110.04</ele>
        <time>2020-10-17T08:35:40.999Z</time>
      </trkpt>
      <trkpt lat="49.78498" lon="3.36096">
        <ele>109.77</ele>
        <time>2020-10-17T08:35:46.999Z</time>
      </trkpt>
      <trkpt lat="49.78506" lon="3.36091">
        <ele>109.34</ele>
        <time>2020-10-17T08:35:52.999Z</time>
      </trkpt>
      <trkpt lat="49.78515" lon="3.36086">
        <ele>108.84</ele>
        <time>2020-10-17T08:35:59.688Z</time>
      </trkpt>
      <trkpt lat="49.78524" lon="3.3608">
        <ele>107.81</ele>
        <time>2020-10-17T08:36:06.999Z</time>
      </trkpt>
      <trkpt lat="49.78531" lon="3.3607">
        <ele>106.59</ele>
        <time>2020-10-17T08:36:14.515Z</time>
      </trkpt>
      <trkpt lat="49.78539" lon="3.36063">
        <ele>105.46</ele>
        <time>2020-10-17T08:36:20.768Z</time>
      </trkpt>
      <trkpt lat="49.78549" lon="3.3606">
        <ele>104.22</ele>
        <time>2020-10-17T08:36:26.369Z</time>
      </trkpt>
      <trkpt lat="49.78558" lon="3.36055">
        <ele>102.98</ele>
        <time>2020-10-17T08:36:33.553Z</time>
      </trkpt>
      <trkpt lat="49.78567" lon="3.3605">
        <ele>101.94</ele>
        <time>2020-10-17T08:36:39.536Z</time>
      </trkpt>
      <trkpt lat="49.78576" lon="3.36054">
        <ele>101.02</ele>
        <time>2020-10-17T08:36:45.456Z</time>
      </trkpt>
      <trkpt lat="49.78585" lon="3.36049">
        <ele>99.89</ele>
        <time>2020-10-17T08:36:52.769Z</time>
      </trkpt>
      <trkpt lat="49.78594" lon="3.36044">
        <ele>99.27</ele>
        <time>2020-10-17T08:36:57.689Z</time>
      </trkpt>
      <trkpt lat="49.78602" lon="3.36037">
        <ele>98.71</ele>
        <time>2020-10-17T08:37:02.992Z</time>
      </trkpt>
      <trkpt lat="49.7861" lon="3.36028">
        <ele>98.07</ele>
        <time>2020-10-17T08:37:09.068Z</time>
      </trkpt>
      <trkpt lat="49.78618" lon="3.36021">
        <ele>97.44</ele>
        <time>2020-10-17T08:37:15.088Z</time>
      </trkpt>
      <trkpt lat="49.78626" lon="3.36014">
        <ele>96.93</ele>
        <time>2020-10-17T08:37:20.732Z</time>
      </trkpt>
      <trkpt lat="49.78635" lon="3.36007">
        <ele>96.14</ele>
        <time>2020-10-17T08:37:27.999Z</time>
      </trkpt>
      <trkpt lat="49.78643" lon="3.36">
        <ele>95.48</ele>
        <time>2020-10-17T08:37:34.085Z</time>
      </trkpt>
      <trkpt lat="49.78651" lon="3.35993">
        <ele>94.74</ele>
        <time>2020-10-17T08:37:40.674Z</time>
      </trkpt>
      <trkpt lat="49.7866" lon="3.35985">
        <ele>93.89</ele>
        <time>2020-10-17T08:37:47.637Z</time>
      </trkpt>
      <trkpt lat="49.78668" lon="3.35977">
        <ele>93.22</ele>
        <time>2020-10-17T08:37:54.668Z</time>
      </trkpt>
      <trkpt lat="49.78676" lon="3.3597">
        <ele>92.61</ele>
        <time>2020-10-17T08:38:00.999Z</time>
      </trkpt>
      <trkpt lat="49.78685" lon="3.35963">
        <ele>91.92</ele>
        <time>2020-10-17T08:38:07.266Z</time>
      </trkpt>
      <trkpt lat="49.78692" lon="3.35955">
        <ele>91.16</ele>
        <time>2020-10-17T08:38:13.374Z</time>
      </trkpt>
      <trkpt lat="49.78701" lon="3.35948">
        <ele>90.25</ele>
        <time>2020-10-17T08:38:20.468Z</time>
      </trkpt>
      <trkpt lat="49.78708" lon="3.3594">
        <ele>89.46</ele>
        <time>2020-10-17T08:38:26.999Z</time>
      </trkpt>
      <trkpt lat="49.78718" lon="3.35934">
        <ele>89</ele>
        <time>2020-10-17T08:38:33.295Z</time>
      </trkpt>
      <trkpt lat="49.78726" lon="3.35927">
        <ele>88.56</ele>
        <time>2020-10-17T08:38:38.999Z</time>
      </trkpt>
      <trkpt lat="49.78734" lon="3.35922">
        <ele>88.15</ele>
        <time>2020-10-17T08:38:45.357Z</time>
      </trkpt>
      <trkpt lat="49.78743" lon="3.35915">
        <ele>87.68</ele>
        <time>2020-10-17T08:38:51.475Z</time>
      </trkpt>
      <trkpt lat="49.78752" lon="3.3591">
        <ele>87.21</ele>
        <time>2020-10-17T08:38:57.628Z</time>
      </trkpt>
      <trkpt lat="49.78761" lon="3.35904">
        <ele>86.74</ele>
        <time>2020-10-17T08:39:04.053Z</time>
      </trkpt>
      <trkpt lat="49.78768" lon="3.35896">
        <ele>86.42</ele>
        <time>2020-10-17T08:39:09.835Z</time>
      </trkpt>
      <trkpt lat="49.78776" lon="3.35888">
        <ele>86.16</ele>
        <time>2020-10-17T08:39:15.431Z</time>
      </trkpt>
      <trkpt lat="49.78784" lon="3.35879">
        <ele>85.92</ele>
        <time>2020-10-17T08:39:20.809Z</time>
      </trkpt>
      <trkpt lat="49.78791" lon="3.35869">
        <ele>85.62</ele>
        <time>2020-10-17T08:39:26.849Z</time>
      </trkpt>
      <trkpt lat="49.788" lon="3.35862">
        <ele>85.45</ele>
        <time>2020-10-17T08:39:33.609Z</time>
      </trkpt>
      <trkpt lat="49.78808" lon="3.35854">
        <ele>85.58</ele>
        <time>2020-10-17T08:39:39.999Z</time>
      </trkpt>
      <trkpt lat="49.78816" lon="3.35846">
        <ele>85.64</ele>
        <time>2020-10-17T08:39:46.192Z</time>
      </trkpt>
      <trkpt lat="49.78824" lon="3.3584">
        <ele>85.35</ele>
        <time>2020-10-17T08:39:52.238Z</time>
      </trkpt>
      <trkpt lat="49.78832" lon="3.35832">
        <ele>84.59</ele>
        <time>2020-10-17T08:39:58.999Z</time>
      </trkpt>
      <trkpt lat="49.7884" lon="3.35825">
        <ele>83.8</ele>
        <time>2020-10-17T08:40:04.533Z</time>
      </trkpt>
      <trkpt lat="49.7885" lon="3.3582">
        <ele>82.8</ele>
        <time>2020-10-17T08:40:10.999Z</time>
      </trkpt>
      <trkpt lat="49.78858" lon="3.35813">
        <ele>82.04</ele>
        <time>2020-10-17T08:40:16.377Z</time>
      </trkpt>
      <trkpt lat="49.78867" lon="3.35808">
        <ele>81.12</ele>
        <time>2020-10-17T08:40:21.999Z</time>
      </trkpt>
      <trkpt lat="49.78876" lon="3.35804">
        <ele>80.42</ele>
        <time>2020-10-17T08:40:27.133Z</time>
      </trkpt>
      <trkpt lat="49.78885" lon="3.35799">
        <ele>79.97</ele>
        <time>2020-10-17T08:40:31.651Z</time>
      </trkpt>
      <trkpt lat="49.78897" lon="3.35794">
        <ele>79.63</ele>
        <time>2020-10-17T08:40:35.999Z</time>
      </trkpt>
      <trkpt lat="49.78906" lon="3.35792">
        <ele>79.51</ele>
        <time>2020-10-17T08:40:40.221Z</time>
      </trkpt>
      <trkpt lat="49.78915" lon="3.35787">
        <ele>79.56</ele>
        <time>2020-10-17T08:40:45.674Z</time>
      </trkpt>
      <trkpt lat="49.78925" lon="3.35782">
        <ele>79.88</ele>
        <time>2020-10-17T08:40:51.266Z</time>
      </trkpt>
      <trkpt lat="49.78934" lon="3.3578">
        <ele>80.27</ele>
        <time>2020-10-17T08:40:56.094Z</time>
      </trkpt>
      <trkpt lat="49.78942" lon="3.35773">
        <ele>80.74</ele>
        <time>2020-10-17T08:41:01.999Z</time>
      </trkpt>
      <trkpt lat="49.78949" lon="3.35764">
        <ele>81.08</ele>
        <time>2020-10-17T08:41:07.147Z</time>
      </trkpt>
      <trkpt lat="49.78957" lon="3.35757">
        <ele>81.37</ele>
        <time>2020-10-17T08:41:12.032Z</time>
      </trkpt>
      <trkpt lat="49.78966" lon="3.3575">
        <ele>81.63</ele>
        <time>2020-10-17T08:41:18.795Z</time>
      </trkpt>
      <trkpt lat="49.78975" lon="3.35745">
        <ele>81.89</ele>
        <time>2020-10-17T08:41:24.336Z</time>
      </trkpt>
      <trkpt lat="49.78983" lon="3.35736">
        <ele>82.69</ele>
        <time>2020-10-17T08:41:29.999Z</time>
      </trkpt>
      <trkpt lat="49.78992" lon="3.35729">
        <ele>84.39</ele>
        <time>2020-10-17T08:41:37.999Z</time>
      </trkpt>
      <trkpt lat="49.79" lon="3.35734">
        <ele>85.84</ele>
        <time>2020-10-17T08:41:43.999Z</time>
      </trkpt>
      <trkpt lat="49.79008" lon="3.35726">
        <ele>87.73</ele>
        <time>2020-10-17T08:41:51.748Z</time>
      </trkpt>
      <trkpt lat="49.79017" lon="3.35719">
        <ele>90.02</ele>
        <time>2020-10-17T08:41:58.999Z</time>
      </trkpt>
      <trkpt lat="49.79026" lon="3.35714">
        <ele>91.15</ele>
        <time>2020-10-17T08:42:03.834Z</time>
      </trkpt>
      <trkpt lat="49.79035" lon="3.35709">
        <ele>92.3</ele>
        <time>2020-10-17T08:42:08.737Z</time>
      </trkpt>
      <trkpt lat="49.79044" lon="3.35705">
        <ele>93.74</ele>
        <time>2020-10-17T08:42:14.715Z</time>
      </trkpt>
      <trkpt lat="49.79053" lon="3.35698">
        <ele>95.04</ele>
        <time>2020-10-17T08:42:21.332Z</time>
      </trkpt>
      <trkpt lat="49.7906" lon="3.3569">
        <ele>95.86</ele>
        <time>2020-10-17T08:42:27.835Z</time>
      </trkpt>
      <trkpt lat="49.79069" lon="3.35684">
        <ele>96.62</ele>
        <time>2020-10-17T08:42:35.951Z</time>
      </trkpt>
      <trkpt lat="49.79077" lon="3.35677">
        <ele>97.12</ele>
        <time>2020-10-17T08:42:42.171Z</time>
      </trkpt>
      <trkpt lat="49.79084" lon="3.35669">
        <ele>97.35</ele>
        <time>2020-10-17T08:42:47.431Z</time>
      </trkpt>
      <trkpt lat="49.79093" lon="3.35663">
        <ele>97.64</ele>
        <time>2020-10-17T08:42:59.999Z</time>
      </trkpt>
      <trkpt lat="49.79097" lon="3.35676">
        <ele>97.33</ele>
        <time>2020-10-17T08:43:35.999Z</time>
      </trkpt>
      <trkpt lat="49.79104" lon="3.35665">
        <ele>100.26</ele>
        <time>2020-10-17T08:43:53.999Z</time>
      </trkpt>
      <trkpt lat="49.79105" lon="3.3565">
        <ele>100.95</ele>
        <time>2020-10-17T08:43:58.190Z</time>
      </trkpt>
      <trkpt lat="49.79112" lon="3.35641">
        <ele>101.38</ele>
        <time>2020-10-17T08:44:03.410Z</time>
      </trkpt>
      <trkpt lat="49.79119" lon="3.3563">
        <ele>101.65</ele>
        <time>2020-10-17T08:44:08.999Z</time>
      </trkpt>
      <trkpt lat="49.79125" lon="3.35619">
        <ele>101.85</ele>
        <time>2020-10-17T08:44:13.999Z</time>
      </trkpt>
      <trkpt lat="49.79132" lon="3.35608">
        <ele>102.08</ele>
        <time>2020-10-17T08:44:19.776Z</time>
      </trkpt>
      <trkpt lat="49.79139" lon="3.35598">
        <ele>102.4</ele>
        <time>2020-10-17T08:44:25.989Z</time>
      </trkpt>
      <trkpt lat="49.79146" lon="3.35588">
        <ele>102.69</ele>
        <time>2020-10-17T08:44:32.291Z</time>
      </trkpt>
      <trkpt lat="49.79153" lon="3.35579">
        <ele>102.87</ele>
        <time>2020-10-17T08:44:36.570Z</time>
      </trkpt>
      <trkpt lat="49.79161" lon="3.35571">
        <ele>103.23</ele>
        <time>2020-10-17T08:44:42.272Z</time>
      </trkpt>
      <trkpt lat="49.79169" lon="3.35564">
        <ele>103.68</ele>
        <time>2020-10-17T08:44:48.999Z</time>
      </trkpt>
      <trkpt lat="49.79176" lon="3.35555">
        <ele>104.2</ele>
        <time>2020-10-17T08:44:54.999Z</time>
      </trkpt>
      <trkpt lat="49.79184" lon="3.35549">
        <ele>104.66</ele>
        <time>2020-10-17T08:45:00.253Z</time>
      </trkpt>
      <trkpt lat="49.79193" lon="3.35542">
        <ele>105.26</ele>
        <time>2020-10-17T08:45:06.565Z</time>
      </trkpt>
      <trkpt lat="49.79201" lon="3.35535">
        <ele>105.99</ele>
        <time>2020-10-17T08:45:12.999Z</time>
      </trkpt>
      <trkpt lat="49.7921" lon="3.3553">
        <ele>106.56</ele>
        <time>2020-10-17T08:45:18.999Z</time>
      </trkpt>
      <trkpt lat="49.79218" lon="3.35523">
        <ele>106.95</ele>
        <time>2020-10-17T08:45:24.636Z</time>
      </trkpt>
      <trkpt lat="49.79226" lon="3.35515">
        <ele>107.28</ele>
        <time>2020-10-17T08:45:30.833Z</time>
      </trkpt>
      <trkpt lat="49.79234" lon="3.35506">
        <ele>107.61</ele>
        <time>2020-10-17T08:45:36.829Z</time>
      </trkpt>
      <trkpt lat="49.79241" lon="3.35497">
        <ele>107.96</ele>
        <time>2020-10-17T08:45:43.188Z</time>
      </trkpt>
      <trkpt lat="49.79247" lon="3.35486">
        <ele>108.24</ele>
        <time>2020-10-17T08:45:48.642Z</time>
      </trkpt>
      <trkpt lat="49.79252" lon="3.35473">
        <ele>108.52</ele>
        <time>2020-10-17T08:45:55.812Z</time>
      </trkpt>
      <trkpt lat="49.79256" lon="3.3546">
        <ele>108.63</ele>
        <time>2020-10-17T08:46:03.999Z</time>
      </trkpt>
      <trkpt lat="49.7926" lon="3.35447">
        <ele>108.43</ele>
        <time>2020-10-17T08:46:10.295Z</time>
      </trkpt>
      <trkpt lat="49.79263" lon="3.35434">
        <ele>107.98</ele>
        <time>2020-10-17T08:46:17.153Z</time>
      </trkpt>
      <trkpt lat="49.79266" lon="3.35419">
        <ele>107.53</ele>
        <time>2020-10-17T08:46:24.550Z</time>
      </trkpt>
      <trkpt lat="49.7927" lon="3.35406">
        <ele>107.32</ele>
        <time>2020-10-17T08:46:29.372Z</time>
      </trkpt>
      <trkpt lat="49.79276" lon="3.35393">
        <ele>107.25</ele>
        <time>2020-10-17T08:46:33.999Z</time>
      </trkpt>
      <trkpt lat="49.79283" lon="3.35382">
        <ele>107.28</ele>
        <time>2020-10-17T08:46:38.175Z</time>
      </trkpt>
      <trkpt lat="49.79291" lon="3.35372">
        <ele>107.36</ele>
        <time>2020-10-17T08:46:43.568Z</time>
      </trkpt>
      <trkpt lat="49.79299" lon="3.35366">
        <ele>107.39</ele>
        <time>2020-10-17T08:46:49.989Z</time>
      </trkpt>
      <trkpt lat="49.79307" lon="3.35357">
        <ele>107.38</ele>
        <time>2020-10-17T08:46:55.511Z</time>
      </trkpt>
      <trkpt lat="49.79315" lon="3.35349">
        <ele>107.34</ele>
        <time>2020-10-17T08:46:59.608Z</time>
      </trkpt>
      <trkpt lat="49.79324" lon="3.35348">
        <ele>107.19</ele>
        <time>2020-10-17T08:47:05.028Z</time>
      </trkpt>
      <trkpt lat="49.79333" lon="3.35348">
        <ele>107</ele>
        <time>2020-10-17T08:47:10.236Z</time>
      </trkpt>
      <trkpt lat="49.79342" lon="3.3534">
        <ele>106.83</ele>
        <time>2020-10-17T08:47:15.131Z</time>
      </trkpt>
      <trkpt lat="49.7935" lon="3.35331">
        <ele>106.71</ele>
        <time>2020-10-17T08:47:19.999Z</time>
      </trkpt>
      <trkpt lat="49.79358" lon="3.35321">
        <ele>106.48</ele>
        <time>2020-10-17T08:47:24.999Z</time>
      </trkpt>
      <trkpt lat="49.79363" lon="3.35308">
        <ele>106.3</ele>
        <time>2020-10-17T08:47:31.574Z</time>
      </trkpt>
      <trkpt lat="49.79368" lon="3.35296">
        <ele>106.47</ele>
        <time>2020-10-17T08:47:37.999Z</time>
      </trkpt>
      <trkpt lat="49.79373" lon="3.35284">
        <ele>106.62</ele>
        <time>2020-10-17T08:47:43.930Z</time>
      </trkpt>
      <trkpt lat="49.79378" lon="3.35271">
        <ele>106.7</ele>
        <time>2020-10-17T08:47:50.695Z</time>
      </trkpt>
      <trkpt lat="49.79384" lon="3.3526">
        <ele>106.75</ele>
        <time>2020-10-17T08:47:56.816Z</time>
      </trkpt>
      <trkpt lat="49.7939" lon="3.35248">
        <ele>106.83</ele>
        <time>2020-10-17T08:48:02.070Z</time>
      </trkpt>
      <trkpt lat="49.79396" lon="3.35233">
        <ele>106.97</ele>
        <time>2020-10-17T08:48:06.753Z</time>
      </trkpt>
      <trkpt lat="49.79404" lon="3.35222">
        <ele>106.98</ele>
        <time>2020-10-17T08:48:11.294Z</time>
      </trkpt>
      <trkpt lat="49.79412" lon="3.35214">
        <ele>106.73</ele>
        <time>2020-10-17T08:48:17.289Z</time>
      </trkpt>
      <trkpt lat="49.79418" lon="3.35204">
        <ele>106.6</ele>
        <time>2020-10-17T08:48:22.852Z</time>
      </trkpt>
      <trkpt lat="49.79426" lon="3.35194">
        <ele>106.59</ele>
        <time>2020-10-17T08:48:28.546Z</time>
      </trkpt>
      <trkpt lat="49.79434" lon="3.35187">
        <ele>106.91</ele>
        <time>2020-10-17T08:48:34.999Z</time>
      </trkpt>
      <trkpt lat="49.79442" lon="3.3518">
        <ele>107.38</ele>
        <time>2020-10-17T08:48:40.999Z</time>
      </trkpt>
      <trkpt lat="49.7945" lon="3.35174">
        <ele>107.84</ele>
        <time>2020-10-17T08:48:47.164Z</time>
      </trkpt>
      <trkpt lat="49.79458" lon="3.35167">
        <ele>108.15</ele>
        <time>2020-10-17T08:48:53.555Z</time>
      </trkpt>
      <trkpt lat="49.79467" lon="3.35161">
        <ele>108.17</ele>
        <time>2020-10-17T08:49:01.428Z</time>
      </trkpt>
      <trkpt lat="49.79473" lon="3.3515">
        <ele>108.09</ele>
        <time>2020-10-17T08:49:08.728Z</time>
      </trkpt>
      <trkpt lat="49.79482" lon="3.35143">
        <ele>108.03</ele>
        <time>2020-10-17T08:49:17.193Z</time>
      </trkpt>
      <trkpt lat="49.79491" lon="3.35138">
        <ele>108.1</ele>
        <time>2020-10-17T08:49:21.536Z</time>
      </trkpt>
      <trkpt lat="49.79503" lon="3.35135">
        <ele>108.22</ele>
        <time>2020-10-17T08:49:26.125Z</time>
      </trkpt>
      <trkpt lat="49.79512" lon="3.35131">
        <ele>108.4</ele>
        <time>2020-10-17T08:49:30.949Z</time>
      </trkpt>
      <trkpt lat="49.79521" lon="3.35126">
        <ele>108.74</ele>
        <time>2020-10-17T08:49:36.310Z</time>
      </trkpt>
      <trkpt lat="49.79529" lon="3.35119">
        <ele>109.32</ele>
        <time>2020-10-17T08:49:42.353Z</time>
      </trkpt>
      <trkpt lat="49.79538" lon="3.35112">
        <ele>109.97</ele>
        <time>2020-10-17T08:49:48.375Z</time>
      </trkpt>
      <trkpt lat="49.79544" lon="3.35124">
        <ele>110.44</ele>
        <time>2020-10-17T08:49:54.388Z</time>
      </trkpt>
      <trkpt lat="49.79549" lon="3.35136">
        <ele>110.62</ele>
        <time>2020-10-17T08:50:00.818Z</time>
      </trkpt>
      <trkpt lat="49.7955" lon="3.35151">
        <ele>110.66</ele>
        <time>2020-10-17T08:50:05.452Z</time>
      </trkpt>
      <trkpt lat="49.7955" lon="3.35173">
        <ele>110.7</ele>
        <time>2020-10-17T08:50:09.999Z</time>
      </trkpt>
      <trkpt lat="49.79549" lon="3.3519">
        <ele>110.76</ele>
        <time>2020-10-17T08:50:14.128Z</time>
      </trkpt>
      <trkpt lat="49.79549" lon="3.35204">
        <ele>110.8</ele>
        <time>2020-10-17T08:50:18.999Z</time>
      </trkpt>
      <trkpt lat="49.79547" lon="3.35219">
        <ele>110.85</ele>
        <time>2020-10-17T08:50:24.451Z</time>
      </trkpt>
      <trkpt lat="49.79546" lon="3.35234">
        <ele>110.98</ele>
        <time>2020-10-17T08:50:30.194Z</time>
      </trkpt>
      <trkpt lat="49.79544" lon="3.35248">
        <ele>111.16</ele>
        <time>2020-10-17T08:50:36.239Z</time>
      </trkpt>
      <trkpt lat="49.79542" lon="3.35262">
        <ele>111.28</ele>
        <time>2020-10-17T08:50:41.806Z</time>
      </trkpt>
      <trkpt lat="49.79543" lon="3.35278">
        <ele>111.34</ele>
        <time>2020-10-17T08:50:48.410Z</time>
      </trkpt>
      <trkpt lat="49.79543" lon="3.35292">
        <ele>111.27</ele>
        <time>2020-10-17T08:50:54.285Z</time>
      </trkpt>
      <trkpt lat="49.79543" lon="3.35307">
        <ele>111.22</ele>
        <time>2020-10-17T08:51:00.838Z</time>
      </trkpt>
      <trkpt lat="49.79542" lon="3.35321">
        <ele>111.21</ele>
        <time>2020-10-17T08:51:06.450Z</time>
      </trkpt>
      <trkpt lat="49.79543" lon="3.35335">
        <ele>111.24</ele>
        <time>2020-10-17T08:51:12.550Z</time>
      </trkpt>
      <trkpt lat="49.79544" lon="3.3535">
        <ele>111.29</ele>
        <time>2020-10-17T08:51:18.195Z</time>
      </trkpt>
      <trkpt lat="49.79545" lon="3.35364">
        <ele>111.54</ele>
        <time>2020-10-17T08:51:23.999Z</time>
      </trkpt>
      <trkpt lat="49.79545" lon="3.35379">
        <ele>111.76</ele>
        <time>2020-10-17T08:51:29.334Z</time>
      </trkpt>
      <trkpt lat="49.79546" lon="3.35394">
        <ele>111.85</ele>
        <time>2020-10-17T08:51:34.635Z</time>
      </trkpt>
      <trkpt lat="49.79548" lon="3.35408">
        <ele>111.86</ele>
        <time>2020-10-17T08:51:39.290Z</time>
      </trkpt>
      <trkpt lat="49.7955" lon="3.35422">
        <ele>111.82</ele>
        <time>2020-10-17T08:51:44.999Z</time>
      </trkpt>
      <trkpt lat="49.79552" lon="3.35436">
        <ele>111.78</ele>
        <time>2020-10-17T08:51:50.655Z</time>
      </trkpt>
      <trkpt lat="49.79556" lon="3.35448">
        <ele>111.57</ele>
        <time>2020-10-17T08:51:56.394Z</time>
      </trkpt>
      <trkpt lat="49.79561" lon="3.35461">
        <ele>111.19</ele>
        <time>2020-10-17T08:52:03.568Z</time>
      </trkpt>
      <trkpt lat="49.79564" lon="3.35476">
        <ele>110.82</ele>
        <time>2020-10-17T08:52:09.290Z</time>
      </trkpt>
      <trkpt lat="49.79568" lon="3.35489">
        <ele>110.46</ele>
        <time>2020-10-17T08:52:15.566Z</time>
      </trkpt>
      <trkpt lat="49.79572" lon="3.35502">
        <ele>109.9</ele>
        <time>2020-10-17T08:52:22.395Z</time>
      </trkpt>
      <trkpt lat="49.79576" lon="3.35514">
        <ele>108.94</ele>
        <time>2020-10-17T08:52:29.999Z</time>
      </trkpt>
      <trkpt lat="49.79575" lon="3.35529">
        <ele>108.23</ele>
        <time>2020-10-17T08:52:35.449Z</time>
      </trkpt>
      <trkpt lat="49.79578" lon="3.35544">
        <ele>107.46</ele>
        <time>2020-10-17T08:52:41.369Z</time>
      </trkpt>
      <trkpt lat="49.79582" lon="3.35559">
        <ele>106.89</ele>
        <time>2020-10-17T08:52:45.755Z</time>
      </trkpt>
      <trkpt lat="49.79585" lon="3.35575">
        <ele>106.15</ele>
        <time>2020-10-17T08:52:50.154Z</time>
      </trkpt>
      <trkpt lat="49.7959" lon="3.35588">
        <ele>105.1</ele>
        <time>2020-10-17T08:52:56.091Z</time>
      </trkpt>
      <trkpt lat="49.79595" lon="3.356">
        <ele>103.91</ele>
        <time>2020-10-17T08:53:02.491Z</time>
      </trkpt>
      <trkpt lat="49.79599" lon="3.35613">
        <ele>102.54</ele>
        <time>2020-10-17T08:53:08.585Z</time>
      </trkpt>
      <trkpt lat="49.79604" lon="3.35625">
        <ele>101.21</ele>
        <time>2020-10-17T08:53:15.470Z</time>
      </trkpt>
      <trkpt lat="49.79606" lon="3.35639">
        <ele>99.54</ele>
        <time>2020-10-17T08:53:23.452Z</time>
      </trkpt>
      <trkpt lat="49.79609" lon="3.35653">
        <ele>98.34</ele>
        <time>2020-10-17T08:53:30.188Z</time>
      </trkpt>
      <trkpt lat="49.79613" lon="3.35666">
        <ele>97.24</ele>
        <time>2020-10-17T08:53:36.999Z</time>
      </trkpt>
      <trkpt lat="49.79616" lon="3.35679">
        <ele>96.34</ele>
        <time>2020-10-17T08:53:42.999Z</time>
      </trkpt>
      <trkpt lat="49.7962" lon="3.35694">
        <ele>95.54</ele>
        <time>2020-10-17T08:53:48.775Z</time>
      </trkpt>
      <trkpt lat="49.79622" lon="3.35708">
        <ele>94.66</ele>
        <time>2020-10-17T08:53:53.636Z</time>
      </trkpt>
      <trkpt lat="49.79624" lon="3.35722">
        <ele>93.57</ele>
        <time>2020-10-17T08:53:59.372Z</time>
      </trkpt>
      <trkpt lat="49.79628" lon="3.35736">
        <ele>92.38</ele>
        <time>2020-10-17T08:54:04.999Z</time>
      </trkpt>
      <trkpt lat="49.79631" lon="3.3575">
        <ele>91.41</ele>
        <time>2020-10-17T08:54:09.999Z</time>
      </trkpt>
      <trkpt lat="49.79634" lon="3.35766">
        <ele>90.66</ele>
        <time>2020-10-17T08:54:14.488Z</time>
      </trkpt>
      <trkpt lat="49.79635" lon="3.3578">
        <ele>89.54</ele>
        <time>2020-10-17T08:54:20.447Z</time>
      </trkpt>
      <trkpt lat="49.79637" lon="3.35794">
        <ele>88.56</ele>
        <time>2020-10-17T08:54:26.254Z</time>
      </trkpt>
      <trkpt lat="49.79641" lon="3.35808">
        <ele>87.63</ele>
        <time>2020-10-17T08:54:32.615Z</time>
      </trkpt>
      <trkpt lat="49.79644" lon="3.35821">
        <ele>86.68</ele>
        <time>2020-10-17T08:54:38.999Z</time>
      </trkpt>
      <trkpt lat="49.79648" lon="3.35835">
        <ele>85.98</ele>
        <time>2020-10-17T08:54:45.280Z</time>
      </trkpt>
      <trkpt lat="49.79651" lon="3.3585">
        <ele>85.3</ele>
        <time>2020-10-17T08:54:52.274Z</time>
      </trkpt>
      <trkpt lat="49.79658" lon="3.35861">
        <ele>84.78</ele>
        <time>2020-10-17T08:54:58.201Z</time>
      </trkpt>
      <trkpt lat="49.79664" lon="3.35871">
        <ele>84.54</ele>
        <time>2020-10-17T08:55:04.139Z</time>
      </trkpt>
      <trkpt lat="49.79672" lon="3.35883">
        <ele>84.52</ele>
        <time>2020-10-17T08:55:12.074Z</time>
      </trkpt>
      <trkpt lat="49.7968" lon="3.35891">
        <ele>84.54</ele>
        <time>2020-10-17T08:55:17.458Z</time>
      </trkpt>
      <trkpt lat="49.79688" lon="3.35898">
        <ele>84.28</ele>
        <time>2020-10-17T08:55:24.219Z</time>
      </trkpt>
      <trkpt lat="49.79698" lon="3.35906">
        <ele>84.12</ele>
        <time>2020-10-17T08:55:32.078Z</time>
      </trkpt>
      <trkpt lat="49.79705" lon="3.35915">
        <ele>84.07</ele>
        <time>2020-10-17T08:55:37.075Z</time>
      </trkpt>
      <trkpt lat="49.79712" lon="3.35923">
        <ele>84.1</ele>
        <time>2020-10-17T08:55:41.937Z</time>
      </trkpt>
      <trkpt lat="49.7972" lon="3.35932">
        <ele>84.01</ele>
        <time>2020-10-17T08:55:47.300Z</time>
      </trkpt>
      <trkpt lat="49.79728" lon="3.35939">
        <ele>83.79</ele>
        <time>2020-10-17T08:55:54.120Z</time>
      </trkpt>
      <trkpt lat="49.79736" lon="3.35947">
        <ele>83.82</ele>
        <time>2020-10-17T08:56:00.561Z</time>
      </trkpt>
      <trkpt lat="49.79744" lon="3.35955">
        <ele>84.13</ele>
        <time>2020-10-17T08:56:06.597Z</time>
      </trkpt>
      <trkpt lat="49.79753" lon="3.35961">
        <ele>84.59</ele>
        <time>2020-10-17T08:56:13.999Z</time>
      </trkpt>
      <trkpt lat="49.79761" lon="3.35966">
        <ele>84.88</ele>
        <time>2020-10-17T08:56:20.079Z</time>
      </trkpt>
      <trkpt lat="49.7977" lon="3.35971">
        <ele>85.19</ele>
        <time>2020-10-17T08:56:26.534Z</time>
      </trkpt>
      <trkpt lat="49.79779" lon="3.35971">
        <ele>85.53</ele>
        <time>2020-10-17T08:56:33.177Z</time>
      </trkpt>
      <trkpt lat="49.7979" lon="3.35967">
        <ele>85.87</ele>
        <time>2020-10-17T08:56:38.500Z</time>
      </trkpt>
      <trkpt lat="49.79799" lon="3.35965">
        <ele>86.1</ele>
        <time>2020-10-17T08:56:42.538Z</time>
      </trkpt>
      <trkpt lat="49.79808" lon="3.35958">
        <ele>86.39</ele>
        <time>2020-10-17T08:56:48.403Z</time>
      </trkpt>
      <trkpt lat="49.79813" lon="3.35947">
        <ele>86.86</ele>
        <time>2020-10-17T08:56:55.919Z</time>
      </trkpt>
      <trkpt lat="49.79817" lon="3.35933">
        <ele>87.47</ele>
        <time>2020-10-17T08:57:04.000Z</time>
      </trkpt>
      <trkpt lat="49.79822" lon="3.35921">
        <ele>87.79</ele>
        <time>2020-10-17T08:57:08.299Z</time>
      </trkpt>
      <trkpt lat="49.79828" lon="3.3591">
        <ele>88.11</ele>
        <time>2020-10-17T08:57:12.697Z</time>
      </trkpt>
      <trkpt lat="49.79839" lon="3.35908">
        <ele>88.57</ele>
        <time>2020-10-17T08:57:18.000Z</time>
      </trkpt>
      <trkpt lat="49.79847" lon="3.35902">
        <ele>88.91</ele>
        <time>2020-10-17T08:57:23.534Z</time>
      </trkpt>
      <trkpt lat="49.79853" lon="3.35891">
        <ele>89.15</ele>
        <time>2020-10-17T08:57:28.499Z</time>
      </trkpt>
      <trkpt lat="49.79859" lon="3.35879">
        <ele>89.34</ele>
        <time>2020-10-17T08:57:33.298Z</time>
      </trkpt>
      <trkpt lat="49.79866" lon="3.35868">
        <ele>89.49</ele>
        <time>2020-10-17T08:57:40.435Z</time>
      </trkpt>
      <trkpt lat="49.79871" lon="3.35857">
        <ele>89.66</ele>
        <time>2020-10-17T08:57:47.220Z</time>
      </trkpt>
      <trkpt lat="49.79879" lon="3.35848">
        <ele>89.87</ele>
        <time>2020-10-17T08:57:53.633Z</time>
      </trkpt>
      <trkpt lat="49.79885" lon="3.35837">
        <ele>90.01</ele>
        <time>2020-10-17T08:58:00.000Z</time>
      </trkpt>
      <trkpt lat="49.79892" lon="3.35825">
        <ele>90.16</ele>
        <time>2020-10-17T08:58:06.208Z</time>
      </trkpt>
      <trkpt lat="49.79901" lon="3.35824">
        <ele>90.25</ele>
        <time>2020-10-17T08:58:10.893Z</time>
      </trkpt>
      <trkpt lat="49.7991" lon="3.35817">
        <ele>90.19</ele>
        <time>2020-10-17T08:58:18.000Z</time>
      </trkpt>
      <trkpt lat="49.79918" lon="3.35811">
        <ele>90.05</ele>
        <time>2020-10-17T08:58:24.000Z</time>
      </trkpt>
      <trkpt lat="49.79926" lon="3.35802">
        <ele>89.95</ele>
        <time>2020-10-17T08:58:28.614Z</time>
      </trkpt>
      <trkpt lat="49.79932" lon="3.35792">
        <ele>89.78</ele>
        <time>2020-10-17T08:58:35.435Z</time>
      </trkpt>
      <trkpt lat="49.79941" lon="3.35783">
        <ele>89.65</ele>
        <time>2020-10-17T08:58:41.039Z</time>
      </trkpt>
      <trkpt lat="49.79948" lon="3.35773">
        <ele>89.55</ele>
        <time>2020-10-17T08:58:47.135Z</time>
      </trkpt>
      <trkpt lat="49.79955" lon="3.35764">
        <ele>89.6</ele>
        <time>2020-10-17T08:58:53.218Z</time>
      </trkpt>
      <trkpt lat="49.79962" lon="3.35755">
        <ele>89.7</ele>
        <time>2020-10-17T08:58:59.648Z</time>
      </trkpt>
      <trkpt lat="49.79972" lon="3.35754">
        <ele>89.79</ele>
        <time>2020-10-17T08:59:05.921Z</time>
      </trkpt>
      <trkpt lat="49.79979" lon="3.35746">
        <ele>89.88</ele>
        <time>2020-10-17T08:59:12.395Z</time>
      </trkpt>
      <trkpt lat="49.79988" lon="3.35744">
        <ele>90.03</ele>
        <time>2020-10-17T08:59:18.297Z</time>
      </trkpt>
      <trkpt lat="49.79992" lon="3.35759">
        <ele>90.04</ele>
        <time>2020-10-17T08:59:23.237Z</time>
      </trkpt>
      <trkpt lat="49.79993" lon="3.35774">
        <ele>89.91</ele>
        <time>2020-10-17T08:59:29.000Z</time>
      </trkpt>
      <trkpt lat="49.79993" lon="3.35794">
        <ele>89.8</ele>
        <time>2020-10-17T08:59:33.399Z</time>
      </trkpt>
      <trkpt lat="49.79994" lon="3.35809">
        <ele>89.7</ele>
        <time>2020-10-17T08:59:37.616Z</time>
      </trkpt>
      <trkpt lat="49.79993" lon="3.35823">
        <ele>89.63</ele>
        <time>2020-10-17T08:59:41.756Z</time>
      </trkpt>
      <trkpt lat="49.79991" lon="3.35837">
        <ele>89.62</ele>
        <time>2020-10-17T08:59:46.202Z</time>
      </trkpt>
      <trkpt lat="49.7999" lon="3.35851">
        <ele>89.65</ele>
        <time>2020-10-17T08:59:50.676Z</time>
      </trkpt>
      <trkpt lat="49.79989" lon="3.35866">
        <ele>89.64</ele>
        <time>2020-10-17T08:59:55.254Z</time>
      </trkpt>
      <trkpt lat="49.79988" lon="3.35881">
        <ele>89.57</ele>
        <time>2020-10-17T09:00:01.200Z</time>
      </trkpt>
      <trkpt lat="49.79988" lon="3.35896">
        <ele>89.59</ele>
        <time>2020-10-17T09:00:07.000Z</time>
      </trkpt>
      <trkpt lat="49.79987" lon="3.35909">
        <ele>89.59</ele>
        <time>2020-10-17T09:00:11.651Z</time>
      </trkpt>
      <trkpt lat="49.79987" lon="3.35924">
        <ele>89.61</ele>
        <time>2020-10-17T09:00:17.219Z</time>
      </trkpt>
      <trkpt lat="49.79986" lon="3.35938">
        <ele>89.55</ele>
        <time>2020-10-17T09:00:23.000Z</time>
      </trkpt>
      <trkpt lat="49.79988" lon="3.35952">
        <ele>89.42</ele>
        <time>2020-10-17T09:00:27.781Z</time>
      </trkpt>
      <trkpt lat="49.7999" lon="3.35966">
        <ele>89.31</ele>
        <time>2020-10-17T09:00:33.302Z</time>
      </trkpt>
      <trkpt lat="49.79994" lon="3.35981">
        <ele>89.17</ele>
        <time>2020-10-17T09:00:38.315Z</time>
      </trkpt>
      <trkpt lat="49.79999" lon="3.35993">
        <ele>89.03</ele>
        <time>2020-10-17T09:00:42.697Z</time>
      </trkpt>
      <trkpt lat="49.80005" lon="3.36004">
        <ele>88.85</ele>
        <time>2020-10-17T09:00:47.835Z</time>
      </trkpt>
      <trkpt lat="49.80013" lon="3.36015">
        <ele>88.8</ele>
        <time>2020-10-17T09:00:52.959Z</time>
      </trkpt>
      <trkpt lat="49.8002" lon="3.36024">
        <ele>88.8</ele>
        <time>2020-10-17T09:00:57.860Z</time>
      </trkpt>
      <trkpt lat="49.80028" lon="3.36032">
        <ele>88.84</ele>
        <time>2020-10-17T09:01:03.642Z</time>
      </trkpt>
      <trkpt lat="49.80035" lon="3.36043">
        <ele>89.03</ele>
        <time>2020-10-17T09:01:10.280Z</time>
      </trkpt>
      <trkpt lat="49.8004" lon="3.36055">
        <ele>89.23</ele>
        <time>2020-10-17T09:01:17.000Z</time>
      </trkpt>
      <trkpt lat="49.80045" lon="3.36067">
        <ele>89.46</ele>
        <time>2020-10-17T09:01:22.440Z</time>
      </trkpt>
      <trkpt lat="49.8005" lon="3.36081">
        <ele>89.72</ele>
        <time>2020-10-17T09:01:28.000Z</time>
      </trkpt>
      <trkpt lat="49.80055" lon="3.36092">
        <ele>89.9</ele>
        <time>2020-10-17T09:01:33.000Z</time>
      </trkpt>
      <trkpt lat="49.8006" lon="3.36105">
        <ele>90.19</ele>
        <time>2020-10-17T09:01:39.678Z</time>
      </trkpt>
      <trkpt lat="49.80066" lon="3.36116">
        <ele>90.55</ele>
        <time>2020-10-17T09:01:45.042Z</time>
      </trkpt>
      <trkpt lat="49.80072" lon="3.36131">
        <ele>90.95</ele>
        <time>2020-10-17T09:01:52.015Z</time>
      </trkpt>
      <trkpt lat="49.80075" lon="3.36144">
        <ele>91.35</ele>
        <time>2020-10-17T09:01:57.975Z</time>
      </trkpt>
      <trkpt lat="49.80081" lon="3.36157">
        <ele>91.53</ele>
        <time>2020-10-17T09:02:04.279Z</time>
      </trkpt>
      <trkpt lat="49.80086" lon="3.36169">
        <ele>91.46</ele>
        <time>2020-10-17T09:02:10.397Z</time>
      </trkpt>
      <trkpt lat="49.80091" lon="3.36181">
        <ele>91.26</ele>
        <time>2020-10-17T09:02:16.579Z</time>
      </trkpt>
      <trkpt lat="49.80095" lon="3.36195">
        <ele>91.06</ele>
        <time>2020-10-17T09:02:23.379Z</time>
      </trkpt>
      <trkpt lat="49.80092" lon="3.36209">
        <ele>91</ele>
        <time>2020-10-17T09:02:29.695Z</time>
      </trkpt>
      <trkpt lat="49.801" lon="3.362">
        <ele>91.21</ele>
        <time>2020-10-17T09:02:38.555Z</time>
      </trkpt>
      <trkpt lat="49.80108" lon="3.36194">
        <ele>91.86</ele>
        <time>2020-10-17T09:02:53.000Z</time>
      </trkpt>
      <trkpt lat="49.80116" lon="3.36185">
        <ele>103.71</ele>
        <time>2020-10-17T09:07:24.000Z</time>
      </trkpt>
      <trkpt lat="49.80122" lon="3.36172">
        <ele>103.64</ele>
        <time>2020-10-17T09:07:37.000Z</time>
      </trkpt>
      <trkpt lat="49.80129" lon="3.36162">
        <ele>103.83</ele>
        <time>2020-10-17T09:07:54.000Z</time>
      </trkpt>
      <trkpt lat="49.80138" lon="3.36155">
        <ele>104</ele>
        <time>2020-10-17T09:08:02.000Z</time>
      </trkpt>
      <trkpt lat="49.8015" lon="3.36148">
        <ele>103.99</ele>
        <time>2020-10-17T09:08:07.000Z</time>
      </trkpt>
      <trkpt lat="49.80163" lon="3.36141">
        <ele>103.85</ele>
        <time>2020-10-17T09:08:11.572Z</time>
      </trkpt>
      <trkpt lat="49.80173" lon="3.36136">
        <ele>103.75</ele>
        <time>2020-10-17T09:08:15.654Z</time>
      </trkpt>
      <trkpt lat="49.80182" lon="3.36131">
        <ele>103.76</ele>
        <time>2020-10-17T09:08:21.015Z</time>
      </trkpt>
      <trkpt lat="49.8019" lon="3.36124">
        <ele>103.94</ele>
        <time>2020-10-17T09:08:26.575Z</time>
      </trkpt>
      <trkpt lat="49.80198" lon="3.36116">
        <ele>104.37</ele>
        <time>2020-10-17T09:08:33.000Z</time>
      </trkpt>
      <trkpt lat="49.80205" lon="3.36107">
        <ele>104.76</ele>
        <time>2020-10-17T09:08:38.561Z</time>
      </trkpt>
      <trkpt lat="49.80213" lon="3.36099">
        <ele>105.1</ele>
        <time>2020-10-17T09:08:43.662Z</time>
      </trkpt>
      <trkpt lat="49.80219" lon="3.3609">
        <ele>105.36</ele>
        <time>2020-10-17T09:08:49.455Z</time>
      </trkpt>
      <trkpt lat="49.80226" lon="3.36079">
        <ele>105.61</ele>
        <time>2020-10-17T09:08:57.620Z</time>
      </trkpt>
      <trkpt lat="49.80234" lon="3.3607">
        <ele>105.56</ele>
        <time>2020-10-17T09:09:05.101Z</time>
      </trkpt>
      <trkpt lat="49.80241" lon="3.3606">
        <ele>105.62</ele>
        <time>2020-10-17T09:09:09.555Z</time>
      </trkpt>
      <trkpt lat="49.80247" lon="3.3605">
        <ele>105.78</ele>
        <time>2020-10-17T09:09:14.475Z</time>
      </trkpt>
      <trkpt lat="49.80254" lon="3.36039">
        <ele>106.01</ele>
        <time>2020-10-17T09:09:19.617Z</time>
      </trkpt>
      <trkpt lat="49.8026" lon="3.36028">
        <ele>106.31</ele>
        <time>2020-10-17T09:09:24.583Z</time>
      </trkpt>
      <trkpt lat="49.80266" lon="3.36017">
        <ele>106.68</ele>
        <time>2020-10-17T09:09:29.457Z</time>
      </trkpt>
      <trkpt lat="49.80272" lon="3.36005">
        <ele>107.27</ele>
        <time>2020-10-17T09:09:34.897Z</time>
      </trkpt>
      <trkpt lat="49.80277" lon="3.35992">
        <ele>108.06</ele>
        <time>2020-10-17T09:09:42.000Z</time>
      </trkpt>
      <trkpt lat="49.80283" lon="3.3598">
        <ele>108.68</ele>
        <time>2020-10-17T09:09:47.663Z</time>
      </trkpt>
      <trkpt lat="49.80289" lon="3.35969">
        <ele>109.32</ele>
        <time>2020-10-17T09:09:54.117Z</time>
      </trkpt>
      <trkpt lat="49.80294" lon="3.35958">
        <ele>109.63</ele>
        <time>2020-10-17T09:10:00.000Z</time>
      </trkpt>
      <trkpt lat="49.803" lon="3.35945">
        <ele>109.9</ele>
        <time>2020-10-17T09:10:06.211Z</time>
      </trkpt>
      <trkpt lat="49.80306" lon="3.35935">
        <ele>110.12</ele>
        <time>2020-10-17T09:10:13.000Z</time>
      </trkpt>
      <trkpt lat="49.80313" lon="3.35923">
        <ele>110.28</ele>
        <time>2020-10-17T09:10:19.740Z</time>
      </trkpt>
      <trkpt lat="49.80319" lon="3.35912">
        <ele>110.54</ele>
        <time>2020-10-17T09:10:26.101Z</time>
      </trkpt>
      <trkpt lat="49.80324" lon="3.359">
        <ele>110.92</ele>
        <time>2020-10-17T09:10:32.481Z</time>
      </trkpt>
      <trkpt lat="49.8033" lon="3.35888">
        <ele>111.01</ele>
        <time>2020-10-17T09:10:37.955Z</time>
      </trkpt>
      <trkpt lat="49.80336" lon="3.35878">
        <ele>111.04</ele>
        <time>2020-10-17T09:10:43.501Z</time>
      </trkpt>
      <trkpt lat="49.80342" lon="3.35865">
        <ele>111.16</ele>
        <time>2020-10-17T09:10:49.500Z</time>
      </trkpt>
      <trkpt lat="49.80346" lon="3.35851">
        <ele>111.5</ele>
        <time>2020-10-17T09:10:56.304Z</time>
      </trkpt>
      <trkpt lat="49.80351" lon="3.35839">
        <ele>112.05</ele>
        <time>2020-10-17T09:11:01.259Z</time>
      </trkpt>
      <trkpt lat="49.80354" lon="3.35825">
        <ele>112.72</ele>
        <time>2020-10-17T09:11:07.000Z</time>
      </trkpt>
      <trkpt lat="49.80358" lon="3.35813">
        <ele>113.27</ele>
        <time>2020-10-17T09:11:12.000Z</time>
      </trkpt>
      <trkpt lat="49.80362" lon="3.358">
        <ele>113.85</ele>
        <time>2020-10-17T09:11:18.252Z</time>
      </trkpt>
      <trkpt lat="49.80367" lon="3.35787">
        <ele>114.57</ele>
        <time>2020-10-17T09:11:24.417Z</time>
      </trkpt>
      <trkpt lat="49.80369" lon="3.35774">
        <ele>115.17</ele>
        <time>2020-10-17T09:11:31.666Z</time>
      </trkpt>
      <trkpt lat="49.80372" lon="3.35759">
        <ele>115.78</ele>
        <time>2020-10-17T09:11:39.000Z</time>
      </trkpt>
      <trkpt lat="49.80377" lon="3.35747">
        <ele>116.08</ele>
        <time>2020-10-17T09:11:44.439Z</time>
      </trkpt>
      <trkpt lat="49.80381" lon="3.35732">
        <ele>116.09</ele>
        <time>2020-10-17T09:11:50.494Z</time>
      </trkpt>
      <trkpt lat="49.80387" lon="3.3572">
        <ele>116.08</ele>
        <time>2020-10-17T09:11:55.455Z</time>
      </trkpt>
      <trkpt lat="49.80394" lon="3.3571">
        <ele>116.1</ele>
        <time>2020-10-17T09:12:00.138Z</time>
      </trkpt>
      <trkpt lat="49.80398" lon="3.35697">
        <ele>116.13</ele>
        <time>2020-10-17T09:12:06.439Z</time>
      </trkpt>
      <trkpt lat="49.80403" lon="3.35684">
        <ele>116.29</ele>
        <time>2020-10-17T09:12:12.939Z</time>
      </trkpt>
      <trkpt lat="49.80408" lon="3.35671">
        <ele>116.48</ele>
        <time>2020-10-17T09:12:19.385Z</time>
      </trkpt>
      <trkpt lat="49.80412" lon="3.35658">
        <ele>116.42</ele>
        <time>2020-10-17T09:12:25.498Z</time>
      </trkpt>
      <trkpt lat="49.80416" lon="3.35645">
        <ele>116.13</ele>
        <time>2020-10-17T09:12:33.000Z</time>
      </trkpt>
      <trkpt lat="49.80423" lon="3.35631">
        <ele>116.08</ele>
        <time>2020-10-17T09:12:39.020Z</time>
      </trkpt>
      <trkpt lat="49.80429" lon="3.35619">
        <ele>116</ele>
        <time>2020-10-17T09:12:45.117Z</time>
      </trkpt>
      <trkpt lat="49.80433" lon="3.35606">
        <ele>115.46</ele>
        <time>2020-10-17T09:12:51.597Z</time>
      </trkpt>
      <trkpt lat="49.80436" lon="3.35591">
        <ele>114.72</ele>
        <time>2020-10-17T09:12:59.462Z</time>
      </trkpt>
      <trkpt lat="49.80438" lon="3.35577">
        <ele>114.03</ele>
        <time>2020-10-17T09:13:07.555Z</time>
      </trkpt>
      <trkpt lat="49.80443" lon="3.35565">
        <ele>113.32</ele>
        <time>2020-10-17T09:13:15.000Z</time>
      </trkpt>
      <trkpt lat="49.80447" lon="3.35551">
        <ele>112.86</ele>
        <time>2020-10-17T09:13:21.000Z</time>
      </trkpt>
      <trkpt lat="49.80449" lon="3.35537">
        <ele>112.28</ele>
        <time>2020-10-17T09:13:27.293Z</time>
      </trkpt>
      <trkpt lat="49.80455" lon="3.35525">
        <ele>111.67</ele>
        <time>2020-10-17T09:13:33.678Z</time>
      </trkpt>
      <trkpt lat="49.80458" lon="3.35512">
        <ele>110.97</ele>
        <time>2020-10-17T09:13:40.000Z</time>
      </trkpt>
      <trkpt lat="49.80459" lon="3.35498">
        <ele>110.53</ele>
        <time>2020-10-17T09:13:45.650Z</time>
      </trkpt>
      <trkpt lat="49.80461" lon="3.35483">
        <ele>110.07</ele>
        <time>2020-10-17T09:13:52.555Z</time>
      </trkpt>
      <trkpt lat="49.80466" lon="3.3547">
        <ele>109.79</ele>
        <time>2020-10-17T09:13:57.537Z</time>
      </trkpt>
      <trkpt lat="49.80469" lon="3.35456">
        <ele>109.7</ele>
        <time>2020-10-17T09:14:02.000Z</time>
      </trkpt>
      <trkpt lat="49.80469" lon="3.35441">
        <ele>109.75</ele>
        <time>2020-10-17T09:14:06.154Z</time>
      </trkpt>
      <trkpt lat="49.80469" lon="3.35426">
        <ele>109.88</ele>
        <time>2020-10-17T09:14:10.218Z</time>
      </trkpt>
      <trkpt lat="49.80473" lon="3.3541">
        <ele>110.03</ele>
        <time>2020-10-17T09:14:14.280Z</time>
      </trkpt>
      <trkpt lat="49.80479" lon="3.35398">
        <ele>110.09</ele>
        <time>2020-10-17T09:14:19.000Z</time>
      </trkpt>
      <trkpt lat="49.80485" lon="3.35386">
        <ele>110.1</ele>
        <time>2020-10-17T09:14:24.397Z</time>
      </trkpt>
      <trkpt lat="49.80487" lon="3.35371">
        <ele>110.07</ele>
        <time>2020-10-17T09:14:30.532Z</time>
      </trkpt>
      <trkpt lat="49.8049" lon="3.35358">
        <ele>109.82</ele>
        <time>2020-10-17T09:14:37.463Z</time>
      </trkpt>
      <trkpt lat="49.80494" lon="3.35344">
        <ele>109.65</ele>
        <time>2020-10-17T09:14:44.745Z</time>
      </trkpt>
      <trkpt lat="49.80503" lon="3.35341">
        <ele>109.83</ele>
        <time>2020-10-17T09:14:50.080Z</time>
      </trkpt>
      <trkpt lat="49.80505" lon="3.35327">
        <ele>110.34</ele>
        <time>2020-10-17T09:14:57.000Z</time>
      </trkpt>
      <trkpt lat="49.80508" lon="3.3531">
        <ele>110.64</ele>
        <time>2020-10-17T09:15:02.361Z</time>
      </trkpt>
      <trkpt lat="49.80511" lon="3.35295">
        <ele>111.05</ele>
        <time>2020-10-17T09:15:06.521Z</time>
      </trkpt>
      <trkpt lat="49.80512" lon="3.35281">
        <ele>111.67</ele>
        <time>2020-10-17T09:15:11.062Z</time>
      </trkpt>
      <trkpt lat="49.80513" lon="3.35267">
        <ele>112.35</ele>
        <time>2020-10-17T09:15:17.000Z</time>
      </trkpt>
      <trkpt lat="49.80512" lon="3.35253">
        <ele>112.9</ele>
        <time>2020-10-17T09:15:24.032Z</time>
      </trkpt>
      <trkpt lat="49.80513" lon="3.35237">
        <ele>113.37</ele>
        <time>2020-10-17T09:15:29.997Z</time>
      </trkpt>
      <trkpt lat="49.80515" lon="3.35223">
        <ele>113.61</ele>
        <time>2020-10-17T09:15:35.317Z</time>
      </trkpt>
      <trkpt lat="49.80517" lon="3.35208">
        <ele>113.87</ele>
        <time>2020-10-17T09:15:43.000Z</time>
      </trkpt>
      <trkpt lat="49.80519" lon="3.35194">
        <ele>114.14</ele>
        <time>2020-10-17T09:15:50.000Z</time>
      </trkpt>
      <trkpt lat="49.8052" lon="3.35179">
        <ele>114.36</ele>
        <time>2020-10-17T09:15:56.000Z</time>
      </trkpt>
      <trkpt lat="49.8052" lon="3.35163">
        <ele>114.62</ele>
        <time>2020-10-17T09:16:02.032Z</time>
      </trkpt>
      <trkpt lat="49.8052" lon="3.35148">
        <ele>114.75</ele>
        <time>2020-10-17T09:16:07.900Z</time>
      </trkpt>
      <trkpt lat="49.80521" lon="3.35133">
        <ele>114.82</ele>
        <time>2020-10-17T09:16:14.157Z</time>
      </trkpt>
      <trkpt lat="49.80527" lon="3.35122">
        <ele>114.81</ele>
        <time>2020-10-17T09:16:19.077Z</time>
      </trkpt>
      <trkpt lat="49.80536" lon="3.3512">
        <ele>114.71</ele>
        <time>2020-10-17T09:16:24.559Z</time>
      </trkpt>
      <trkpt lat="49.80546" lon="3.35124">
        <ele>114.26</ele>
        <time>2020-10-17T09:16:32.357Z</time>
      </trkpt>
      <trkpt lat="49.80555" lon="3.3513">
        <ele>113.8</ele>
        <time>2020-10-17T09:16:38.013Z</time>
      </trkpt>
      <trkpt lat="49.80563" lon="3.35139">
        <ele>113.43</ele>
        <time>2020-10-17T09:16:42.522Z</time>
      </trkpt>
      <trkpt lat="49.8057" lon="3.35149">
        <ele>112.78</ele>
        <time>2020-10-17T09:16:49.015Z</time>
      </trkpt>
      <trkpt lat="49.80577" lon="3.35157">
        <ele>112.1</ele>
        <time>2020-10-17T09:16:56.340Z</time>
      </trkpt>
      <trkpt lat="49.80585" lon="3.35165">
        <ele>111.46</ele>
        <time>2020-10-17T09:17:04.301Z</time>
      </trkpt>
      <trkpt lat="49.80593" lon="3.35172">
        <ele>111.15</ele>
        <time>2020-10-17T09:17:10.535Z</time>
      </trkpt>
      <trkpt lat="49.80602" lon="3.35177">
        <ele>110.54</ele>
        <time>2020-10-17T09:17:17.000Z</time>
      </trkpt>
      <trkpt lat="49.80611" lon="3.35181">
        <ele>109.93</ele>
        <time>2020-10-17T09:17:22.579Z</time>
      </trkpt>
      <trkpt lat="49.8062" lon="3.35185">
        <ele>109.32</ele>
        <time>2020-10-17T09:17:29.014Z</time>
      </trkpt>
      <trkpt lat="49.80629" lon="3.35191">
        <ele>108.68</ele>
        <time>2020-10-17T09:17:35.094Z</time>
      </trkpt>
      <trkpt lat="49.80638" lon="3.35196">
        <ele>107.82</ele>
        <time>2020-10-17T09:17:41.337Z</time>
      </trkpt>
      <trkpt lat="49.80647" lon="3.35202">
        <ele>106.49</ele>
        <time>2020-10-17T09:17:53.000Z</time>
      </trkpt>
      <trkpt lat="49.80654" lon="3.3521">
        <ele>106.15</ele>
        <time>2020-10-17T09:17:57.285Z</time>
      </trkpt>
      <trkpt lat="49.80663" lon="3.35215">
        <ele>105.76</ele>
        <time>2020-10-17T09:18:02.000Z</time>
      </trkpt>
      <trkpt lat="49.80672" lon="3.35222">
        <ele>105.24</ele>
        <time>2020-10-17T09:18:08.355Z</time>
      </trkpt>
      <trkpt lat="49.80681" lon="3.35225">
        <ele>104.58</ele>
        <time>2020-10-17T09:18:22.000Z</time>
      </trkpt>
      <trkpt lat="49.80689" lon="3.35228">
        <ele>104.4</ele>
        <time>2020-10-17T09:18:27.324Z</time>
      </trkpt>
      <trkpt lat="49.80699" lon="3.35236">
        <ele>104.37</ele>
        <time>2020-10-17T09:18:32.683Z</time>
      </trkpt>
      <trkpt lat="49.80709" lon="3.35236">
        <ele>104.33</ele>
        <time>2020-10-17T09:18:37.279Z</time>
      </trkpt>
      <trkpt lat="49.80718" lon="3.35236">
        <ele>104.21</ele>
        <time>2020-10-17T09:18:42.000Z</time>
      </trkpt>
      <trkpt lat="49.80728" lon="3.35233">
        <ele>104.34</ele>
        <time>2020-10-17T09:18:46.355Z</time>
      </trkpt>
      <trkpt lat="49.80737" lon="3.35235">
        <ele>104.72</ele>
        <time>2020-10-17T09:18:51.415Z</time>
      </trkpt>
      <trkpt lat="49.80746" lon="3.35241">
        <ele>105</ele>
        <time>2020-10-17T09:18:56.415Z</time>
      </trkpt>
      <trkpt lat="49.80751" lon="3.35255">
        <ele>105.33</ele>
        <time>2020-10-17T09:19:03.094Z</time>
      </trkpt>
      <trkpt lat="49.8076" lon="3.35255">
        <ele>106.4</ele>
        <time>2020-10-17T09:19:12.735Z</time>
      </trkpt>
      <trkpt lat="49.80769" lon="3.3526">
        <ele>106.86</ele>
        <time>2020-10-17T09:19:17.501Z</time>
      </trkpt>
      <trkpt lat="49.80778" lon="3.35265">
        <ele>107.27</ele>
        <time>2020-10-17T09:19:21.611Z</time>
      </trkpt>
      <trkpt lat="49.80788" lon="3.35269">
        <ele>107.77</ele>
        <time>2020-10-17T09:19:26.059Z</time>
      </trkpt>
      <trkpt lat="49.80798" lon="3.3527">
        <ele>108.47</ele>
        <time>2020-10-17T09:19:32.000Z</time>
      </trkpt>
      <trkpt lat="49.80807" lon="3.35271">
        <ele>109.4</ele>
        <time>2020-10-17T09:19:37.000Z</time>
      </trkpt>
      <trkpt lat="49.80816" lon="3.35273">
        <ele>110.49</ele>
        <time>2020-10-17T09:19:42.000Z</time>
      </trkpt>
      <trkpt lat="49.80826" lon="3.35274">
        <ele>111.14</ele>
        <time>2020-10-17T09:19:46.482Z</time>
      </trkpt>
      <trkpt lat="49.80834" lon="3.35278">
        <ele>112.04</ele>
        <time>2020-10-17T09:19:55.139Z</time>
      </trkpt>
      <trkpt lat="49.80844" lon="3.35282">
        <ele>112.28</ele>
        <time>2020-10-17T09:20:04.322Z</time>
      </trkpt>
      <trkpt lat="49.8085" lon="3.35292">
        <ele>111.77</ele>
        <time>2020-10-17T09:20:11.475Z</time>
      </trkpt>
      <trkpt lat="49.80851" lon="3.35306">
        <ele>111.2</ele>
        <time>2020-10-17T09:20:16.280Z</time>
      </trkpt>
      <trkpt lat="49.80858" lon="3.35318">
        <ele>110.5</ele>
        <time>2020-10-17T09:20:21.482Z</time>
      </trkpt>
      <trkpt lat="49.80867" lon="3.35321">
        <ele>110.04</ele>
        <time>2020-10-17T09:20:26.035Z</time>
      </trkpt>
      <trkpt lat="49.80877" lon="3.35319">
        <ele>109.13</ele>
        <time>2020-10-17T09:20:34.999Z</time>
      </trkpt>
      <trkpt lat="49.80887" lon="3.35315">
        <ele>108.92</ele>
        <time>2020-10-17T09:20:42.276Z</time>
      </trkpt>
      <trkpt lat="49.80897" lon="3.35313">
        <ele>109.2</ele>
        <time>2020-10-17T09:20:47.100Z</time>
      </trkpt>
      <trkpt lat="49.80907" lon="3.35313">
        <ele>109.64</ele>
        <time>2020-10-17T09:20:52.057Z</time>
      </trkpt>
      <trkpt lat="49.80917" lon="3.35315">
        <ele>110.16</ele>
        <time>2020-10-17T09:20:58.554Z</time>
      </trkpt>
      <trkpt lat="49.80926" lon="3.35316">
        <ele>110.73</ele>
        <time>2020-10-17T09:21:03.835Z</time>
      </trkpt>
      <trkpt lat="49.80936" lon="3.35316">
        <ele>111.58</ele>
        <time>2020-10-17T09:21:12.379Z</time>
      </trkpt>
      <trkpt lat="49.80942" lon="3.35305">
        <ele>112.93</ele>
        <time>2020-10-17T09:21:18.000Z</time>
      </trkpt>
      <trkpt lat="49.80956" lon="3.35303">
        <ele>113.88</ele>
        <time>2020-10-17T09:21:22.378Z</time>
      </trkpt>
      <trkpt lat="49.80967" lon="3.3533">
        <ele>115</ele>
        <time>2020-10-17T09:21:27.000Z</time>
      </trkpt>
      <trkpt lat="49.8098" lon="3.35335">
        <ele>116.06</ele>
        <time>2020-10-17T09:21:31.668Z</time>
      </trkpt>
      <trkpt lat="49.80989" lon="3.35324">
        <ele>117.24</ele>
        <time>2020-10-17T09:21:36.000Z</time>
      </trkpt>
      <trkpt lat="49.80996" lon="3.35314">
        <ele>118.25</ele>
        <time>2020-10-17T09:21:40.652Z</time>
      </trkpt>
      <trkpt lat="49.81004" lon="3.35306">
        <ele>119.95</ele>
        <time>2020-10-17T09:21:47.000Z</time>
      </trkpt>
      <trkpt lat="49.81013" lon="3.35304">
        <ele>121.6</ele>
        <time>2020-10-17T09:21:53.055Z</time>
      </trkpt>
      <trkpt lat="49.81022" lon="3.35297">
        <ele>123.37</ele>
        <time>2020-10-17T09:22:00.620Z</time>
      </trkpt>
      <trkpt lat="49.81029" lon="3.35287">
        <ele>124.52</ele>
        <time>2020-10-17T09:22:07.441Z</time>
      </trkpt>
      <trkpt lat="49.81034" lon="3.35274">
        <ele>125.16</ele>
        <time>2020-10-17T09:22:12.823Z</time>
      </trkpt>
      <trkpt lat="49.81038" lon="3.35261">
        <ele>125.59</ele>
        <time>2020-10-17T09:22:18.280Z</time>
      </trkpt>
      <trkpt lat="49.81043" lon="3.35248">
        <ele>126.42</ele>
        <time>2020-10-17T09:22:27.577Z</time>
      </trkpt>
      <trkpt lat="49.81052" lon="3.35248">
        <ele>127</ele>
        <time>2020-10-17T09:22:34.000Z</time>
      </trkpt>
      <trkpt lat="49.81059" lon="3.35258">
        <ele>127.23</ele>
        <time>2020-10-17T09:22:40.000Z</time>
      </trkpt>
      <trkpt lat="49.81062" lon="3.35271">
        <ele>127.14</ele>
        <time>2020-10-17T09:22:46.640Z</time>
      </trkpt>
      <trkpt lat="49.81065" lon="3.35285">
        <ele>126.22</ele>
        <time>2020-10-17T09:22:57.295Z</time>
      </trkpt>
      <trkpt lat="49.81071" lon="3.35297">
        <ele>125.53</ele>
        <time>2020-10-17T09:23:02.335Z</time>
      </trkpt>
      <trkpt lat="49.81076" lon="3.35308">
        <ele>124.94</ele>
        <time>2020-10-17T09:23:06.480Z</time>
      </trkpt>
      <trkpt lat="49.81083" lon="3.35319">
        <ele>123.76</ele>
        <time>2020-10-17T09:23:13.000Z</time>
      </trkpt>
      <trkpt lat="49.8109" lon="3.35329">
        <ele>122.75</ele>
        <time>2020-10-17T09:23:19.000Z</time>
      </trkpt>
      <trkpt lat="49.81097" lon="3.3534">
        <ele>122.15</ele>
        <time>2020-10-17T09:23:24.000Z</time>
      </trkpt>
      <trkpt lat="49.81103" lon="3.35351">
        <ele>121.59</ele>
        <time>2020-10-17T09:23:29.342Z</time>
      </trkpt>
      <trkpt lat="49.81109" lon="3.35364">
        <ele>121.08</ele>
        <time>2020-10-17T09:23:34.104Z</time>
      </trkpt>
      <trkpt lat="49.81115" lon="3.35376">
        <ele>120.75</ele>
        <time>2020-10-17T09:23:38.355Z</time>
      </trkpt>
      <trkpt lat="49.81121" lon="3.35386">
        <ele>120.33</ele>
        <time>2020-10-17T09:23:43.596Z</time>
      </trkpt>
      <trkpt lat="49.81126" lon="3.35399">
        <ele>119.79</ele>
        <time>2020-10-17T09:23:50.000Z</time>
      </trkpt>
      <trkpt lat="49.81131" lon="3.3541">
        <ele>119.36</ele>
        <time>2020-10-17T09:23:56.402Z</time>
      </trkpt>
      <trkpt lat="49.81137" lon="3.35421">
        <ele>118.92</ele>
        <time>2020-10-17T09:24:04.656Z</time>
      </trkpt>
      <trkpt lat="49.81146" lon="3.35419">
        <ele>118.54</ele>
        <time>2020-10-17T09:24:12.637Z</time>
      </trkpt>
      <trkpt lat="49.81153" lon="3.35409">
        <ele>119.14</ele>
        <time>2020-10-17T09:24:20.700Z</time>
      </trkpt>
      <trkpt lat="49.8116" lon="3.35398">
        <ele>119.77</ele>
        <time>2020-10-17T09:24:25.000Z</time>
      </trkpt>
      <trkpt lat="49.81166" lon="3.35387">
        <ele>120.38</ele>
        <time>2020-10-17T09:24:29.482Z</time>
      </trkpt>
      <trkpt lat="49.8117" lon="3.35372">
        <ele>121.22</ele>
        <time>2020-10-17T09:24:34.391Z</time>
      </trkpt>
      <trkpt lat="49.81172" lon="3.35358">
        <ele>121.87</ele>
        <time>2020-10-17T09:24:39.000Z</time>
      </trkpt>
      <trkpt lat="49.81174" lon="3.35343">
        <ele>122.58</ele>
        <time>2020-10-17T09:24:45.000Z</time>
      </trkpt>
      <trkpt lat="49.81175" lon="3.35328">
        <ele>123.25</ele>
        <time>2020-10-17T09:24:50.517Z</time>
      </trkpt>
      <trkpt lat="49.81176" lon="3.35314">
        <ele>123.9</ele>
        <time>2020-10-17T09:24:55.919Z</time>
      </trkpt>
      <trkpt lat="49.8118" lon="3.35295">
        <ele>124.35</ele>
        <time>2020-10-17T09:25:00.940Z</time>
      </trkpt>
      <trkpt lat="49.81181" lon="3.35278">
        <ele>124.57</ele>
        <time>2020-10-17T09:25:04.982Z</time>
      </trkpt>
      <trkpt lat="49.81182" lon="3.35262">
        <ele>124.69</ele>
        <time>2020-10-17T09:25:10.555Z</time>
      </trkpt>
      <trkpt lat="49.81184" lon="3.35248">
        <ele>124.79</ele>
        <time>2020-10-17T09:25:17.000Z</time>
      </trkpt>
      <trkpt lat="49.81184" lon="3.35233">
        <ele>124.76</ele>
        <time>2020-10-17T09:25:24.402Z</time>
      </trkpt>
      <trkpt lat="49.81187" lon="3.35219">
        <ele>124.64</ele>
        <time>2020-10-17T09:25:31.402Z</time>
      </trkpt>
      <trkpt lat="49.81191" lon="3.35206">
        <ele>124.67</ele>
        <time>2020-10-17T09:25:37.397Z</time>
      </trkpt>
      <trkpt lat="49.81191" lon="3.3519">
        <ele>124.84</ele>
        <time>2020-10-17T09:25:44.361Z</time>
      </trkpt>
      <trkpt lat="49.81193" lon="3.35175">
        <ele>124.94</ele>
        <time>2020-10-17T09:25:50.361Z</time>
      </trkpt>
      <trkpt lat="49.81195" lon="3.35161">
        <ele>125.23</ele>
        <time>2020-10-17T09:25:55.395Z</time>
      </trkpt>
      <trkpt lat="49.81198" lon="3.35147">
        <ele>125.64</ele>
        <time>2020-10-17T09:26:00.376Z</time>
      </trkpt>
      <trkpt lat="49.812" lon="3.35133">
        <ele>126.1</ele>
        <time>2020-10-17T09:26:05.419Z</time>
      </trkpt>
      <trkpt lat="49.81203" lon="3.35119">
        <ele>126.56</ele>
        <time>2020-10-17T09:26:11.021Z</time>
      </trkpt>
      <trkpt lat="49.81203" lon="3.35104">
        <ele>115.8</ele>
        <time>2020-10-17T09:26:16.674Z</time>
      </trkpt>
      <trkpt lat="49.81203" lon="3.3509">
        <ele>115.75</ele>
        <time>2020-10-17T09:26:23.485Z</time>
      </trkpt>
      <trkpt lat="49.81204" lon="3.35075">
        <ele>115.75</ele>
        <time>2020-10-17T09:26:31.581Z</time>
      </trkpt>
      <trkpt lat="49.81205" lon="3.3506">
        <ele>115.75</ele>
        <time>2020-10-17T09:26:37.391Z</time>
      </trkpt>
      <trkpt lat="49.81206" lon="3.35045">
        <ele>115.75</ele>
        <time>2020-10-17T09:26:43.575Z</time>
      </trkpt>
      <trkpt lat="49.8121" lon="3.35032">
        <ele>115.75</ele>
        <time>2020-10-17T09:26:50.316Z</time>
      </trkpt>
      <trkpt lat="49.81212" lon="3.35018">
        <ele>115.75</ele>
        <time>2020-10-17T09:26:57.000Z</time>
      </trkpt>
      <trkpt lat="49.81216" lon="3.35004">
        <ele>115.75</ele>
        <time>2020-10-17T09:27:03.139Z</time>
      </trkpt>
      <trkpt lat="49.81222" lon="3.34993">
        <ele>115.75</ele>
        <time>2020-10-17T09:27:08.194Z</time>
      </trkpt>
      <trkpt lat="49.81224" lon="3.34978">
        <ele>124.85</ele>
        <time>2020-10-17T09:27:15.466Z</time>
      </trkpt>
      <trkpt lat="49.81226" lon="3.34965">
        <ele>124.86</ele>
        <time>2020-10-17T09:27:19.851Z</time>
      </trkpt>
      <trkpt lat="49.81232" lon="3.34952">
        <ele>124.73</ele>
        <time>2020-10-17T09:27:24.995Z</time>
      </trkpt>
      <trkpt lat="49.81241" lon="3.34948">
        <ele>124.71</ele>
        <time>2020-10-17T09:27:33.459Z</time>
      </trkpt>
      <trkpt lat="49.8125" lon="3.34952">
        <ele>124.38</ele>
        <time>2020-10-17T09:27:39.000Z</time>
      </trkpt>
      <trkpt lat="49.81261" lon="3.34956">
        <ele>124.07</ele>
        <time>2020-10-17T09:27:43.351Z</time>
      </trkpt>
      <trkpt lat="49.81276" lon="3.34966">
        <ele>123.54</ele>
        <time>2020-10-17T09:27:48.000Z</time>
      </trkpt>
      <trkpt lat="49.81286" lon="3.3497">
        <ele>123.07</ele>
        <time>2020-10-17T09:27:52.395Z</time>
      </trkpt>
      <trkpt lat="49.81294" lon="3.34976">
        <ele>122.22</ele>
        <time>2020-10-17T09:27:59.439Z</time>
      </trkpt>
      <trkpt lat="49.81303" lon="3.34981">
        <ele>121.64</ele>
        <time>2020-10-17T09:28:06.257Z</time>
      </trkpt>
      <trkpt lat="49.81312" lon="3.34986">
        <ele>121.22</ele>
        <time>2020-10-17T09:28:13.000Z</time>
      </trkpt>
      <trkpt lat="49.81321" lon="3.34992">
        <ele>120.82</ele>
        <time>2020-10-17T09:28:19.621Z</time>
      </trkpt>
      <trkpt lat="49.81331" lon="3.34999">
        <ele>120.55</ele>
        <time>2020-10-17T09:28:24.239Z</time>
      </trkpt>
      <trkpt lat="49.81339" lon="3.35003">
        <ele>120.28</ele>
        <time>2020-10-17T09:28:29.000Z</time>
      </trkpt>
      <trkpt lat="49.81349" lon="3.35007">
        <ele>119.99</ele>
        <time>2020-10-17T09:28:35.441Z</time>
      </trkpt>
      <trkpt lat="49.81358" lon="3.35012">
        <ele>119.82</ele>
        <time>2020-10-17T09:28:41.374Z</time>
      </trkpt>
      <trkpt lat="49.81367" lon="3.35015">
        <ele>119.76</ele>
        <time>2020-10-17T09:28:46.555Z</time>
      </trkpt>
      <trkpt lat="49.81376" lon="3.35018">
        <ele>119.71</ele>
        <time>2020-10-17T09:28:53.078Z</time>
      </trkpt>
      <trkpt lat="49.81384" lon="3.35022">
        <ele>119.72</ele>
        <time>2020-10-17T09:28:59.934Z</time>
      </trkpt>
      <trkpt lat="49.81393" lon="3.35028">
        <ele>119.84</ele>
        <time>2020-10-17T09:29:06.339Z</time>
      </trkpt>
      <trkpt lat="49.81401" lon="3.35033">
        <ele>120.07</ele>
        <time>2020-10-17T09:29:12.837Z</time>
      </trkpt>
      <trkpt lat="49.81411" lon="3.35038">
        <ele>120.19</ele>
        <time>2020-10-17T09:29:20.372Z</time>
      </trkpt>
      <trkpt lat="49.8142" lon="3.35043">
        <ele>120.32</ele>
        <time>2020-10-17T09:29:27.461Z</time>
      </trkpt>
      <trkpt lat="49.81429" lon="3.35046">
        <ele>120.49</ele>
        <time>2020-10-17T09:29:33.381Z</time>
      </trkpt>
      <trkpt lat="49.81438" lon="3.3505">
        <ele>120.68</ele>
        <time>2020-10-17T09:29:42.000Z</time>
      </trkpt>
      <trkpt lat="49.81447" lon="3.35051">
        <ele>121.04</ele>
        <time>2020-10-17T09:29:49.000Z</time>
      </trkpt>
      <trkpt lat="49.81456" lon="3.35052">
        <ele>121.69</ele>
        <time>2020-10-17T09:29:54.062Z</time>
      </trkpt>
      <trkpt lat="49.81465" lon="3.35054">
        <ele>122.39</ele>
        <time>2020-10-17T09:29:58.522Z</time>
      </trkpt>
      <trkpt lat="49.81476" lon="3.3506">
        <ele>123.27</ele>
        <time>2020-10-17T09:30:02.995Z</time>
      </trkpt>
      <trkpt lat="49.81485" lon="3.35063">
        <ele>124.01</ele>
        <time>2020-10-17T09:30:07.575Z</time>
      </trkpt>
      <trkpt lat="49.81494" lon="3.35066">
        <ele>124.79</ele>
        <time>2020-10-17T09:30:12.481Z</time>
      </trkpt>
      <trkpt lat="49.81503" lon="3.3507">
        <ele>125.32</ele>
        <time>2020-10-17T09:30:16.600Z</time>
      </trkpt>
      <trkpt lat="49.81512" lon="3.35074">
        <ele>125.8</ele>
        <time>2020-10-17T09:30:21.980Z</time>
      </trkpt>
      <trkpt lat="49.81521" lon="3.3508">
        <ele>126.4</ele>
        <time>2020-10-17T09:30:30.000Z</time>
      </trkpt>
      <trkpt lat="49.8153" lon="3.35082">
        <ele>126.89</ele>
        <time>2020-10-17T09:30:37.205Z</time>
      </trkpt>
      <trkpt lat="49.81539" lon="3.35084">
        <ele>127.25</ele>
        <time>2020-10-17T09:30:43.621Z</time>
      </trkpt>
      <trkpt lat="49.81547" lon="3.3509">
        <ele>127.67</ele>
        <time>2020-10-17T09:30:51.000Z</time>
      </trkpt>
      <trkpt lat="49.81557" lon="3.35091">
        <ele>127.84</ele>
        <time>2020-10-17T09:30:58.437Z</time>
      </trkpt>
      <trkpt lat="49.81566" lon="3.35094">
        <ele>127.69</ele>
        <time>2020-10-17T09:31:07.208Z</time>
      </trkpt>
      <trkpt lat="49.81575" lon="3.35089">
        <ele>127.29</ele>
        <time>2020-10-17T09:31:16.359Z</time>
      </trkpt>
      <trkpt lat="49.81584" lon="3.35094">
        <ele>127.15</ele>
        <time>2020-10-17T09:31:23.482Z</time>
      </trkpt>
      <trkpt lat="49.81593" lon="3.35097">
        <ele>127.05</ele>
        <time>2020-10-17T09:31:29.211Z</time>
      </trkpt>
      <trkpt lat="49.81603" lon="3.35103">
        <ele>126.92</ele>
        <time>2020-10-17T09:31:34.695Z</time>
      </trkpt>
      <trkpt lat="49.81613" lon="3.3511">
        <ele>126.81</ele>
        <time>2020-10-17T09:31:40.732Z</time>
      </trkpt>
      <trkpt lat="49.81622" lon="3.35114">
        <ele>126.81</ele>
        <time>2020-10-17T09:31:47.442Z</time>
      </trkpt>
      <trkpt lat="49.81631" lon="3.3512">
        <ele>126.72</ele>
        <time>2020-10-17T09:31:53.000Z</time>
      </trkpt>
      <trkpt lat="49.81639" lon="3.35125">
        <ele>126.71</ele>
        <time>2020-10-17T09:31:57.879Z</time>
      </trkpt>
      <trkpt lat="49.81648" lon="3.35129">
        <ele>126.78</ele>
        <time>2020-10-17T09:32:03.737Z</time>
      </trkpt>
      <trkpt lat="49.81657" lon="3.35128">
        <ele>126.77</ele>
        <time>2020-10-17T09:32:09.580Z</time>
      </trkpt>
      <trkpt lat="49.81666" lon="3.35134">
        <ele>126.7</ele>
        <time>2020-10-17T09:32:13.767Z</time>
      </trkpt>
      <trkpt lat="49.81675" lon="3.3514">
        <ele>126.68</ele>
        <time>2020-10-17T09:32:18.773Z</time>
      </trkpt>
      <trkpt lat="49.81684" lon="3.35144">
        <ele>126.73</ele>
        <time>2020-10-17T09:32:23.297Z</time>
      </trkpt>
      <trkpt lat="49.81694" lon="3.3515">
        <ele>126.8</ele>
        <time>2020-10-17T09:32:28.598Z</time>
      </trkpt>
      <trkpt lat="49.81703" lon="3.35153">
        <ele>126.82</ele>
        <time>2020-10-17T09:32:34.460Z</time>
      </trkpt>
      <trkpt lat="49.81712" lon="3.35157">
        <ele>127.18</ele>
        <time>2020-10-17T09:32:40.000Z</time>
      </trkpt>
      <trkpt lat="49.81725" lon="3.35163">
        <ele>128.02</ele>
        <time>2020-10-17T09:32:45.000Z</time>
      </trkpt>
      <trkpt lat="49.81739" lon="3.35172">
        <ele>128.9</ele>
        <time>2020-10-17T09:32:49.416Z</time>
      </trkpt>
      <trkpt lat="49.81749" lon="3.35177">
        <ele>129.66</ele>
        <time>2020-10-17T09:32:53.555Z</time>
      </trkpt>
      <trkpt lat="49.81759" lon="3.35183">
        <ele>130.67</ele>
        <time>2020-10-17T09:33:00.139Z</time>
      </trkpt>
      <trkpt lat="49.81768" lon="3.35187">
        <ele>131.4</ele>
        <time>2020-10-17T09:33:05.015Z</time>
      </trkpt>
      <trkpt lat="49.81777" lon="3.35193">
        <ele>132.13</ele>
        <time>2020-10-17T09:33:10.615Z</time>
      </trkpt>
      <trkpt lat="49.81786" lon="3.35189">
        <ele>133.19</ele>
        <time>2020-10-17T09:33:19.279Z</time>
      </trkpt>
      <trkpt lat="49.81792" lon="3.35178">
        <ele>133.75</ele>
        <time>2020-10-17T09:33:29.000Z</time>
      </trkpt>
      <trkpt lat="49.81794" lon="3.35163">
        <ele>133.81</ele>
        <time>2020-10-17T09:33:34.161Z</time>
      </trkpt>
      <trkpt lat="49.81797" lon="3.35149">
        <ele>133.83</ele>
        <time>2020-10-17T09:33:39.635Z</time>
      </trkpt>
      <trkpt lat="49.818" lon="3.35135">
        <ele>133.88</ele>
        <time>2020-10-17T09:33:45.439Z</time>
      </trkpt>
      <trkpt lat="49.81804" lon="3.35121">
        <ele>133.88</ele>
        <time>2020-10-17T09:33:52.000Z</time>
      </trkpt>
      <trkpt lat="49.81808" lon="3.35107">
        <ele>133.94</ele>
        <time>2020-10-17T09:33:57.571Z</time>
      </trkpt>
      <trkpt lat="49.81812" lon="3.35094">
        <ele>133.97</ele>
        <time>2020-10-17T09:34:03.482Z</time>
      </trkpt>
      <trkpt lat="49.81816" lon="3.3508">
        <ele>134</ele>
        <time>2020-10-17T09:34:09.040Z</time>
      </trkpt>
      <trkpt lat="49.8182" lon="3.35067">
        <ele>133.95</ele>
        <time>2020-10-17T09:34:15.034Z</time>
      </trkpt>
      <trkpt lat="49.81825" lon="3.35054">
        <ele>133.7</ele>
        <time>2020-10-17T09:34:21.817Z</time>
      </trkpt>
      <trkpt lat="49.81828" lon="3.35039">
        <ele>133.44</ele>
        <time>2020-10-17T09:34:29.000Z</time>
      </trkpt>
      <trkpt lat="49.81834" lon="3.35029">
        <ele>133.27</ele>
        <time>2020-10-17T09:34:34.281Z</time>
      </trkpt>
      <trkpt lat="49.81839" lon="3.35016">
        <ele>133.13</ele>
        <time>2020-10-17T09:34:41.000Z</time>
      </trkpt>
      <trkpt lat="49.81844" lon="3.35004">
        <ele>133.02</ele>
        <time>2020-10-17T09:34:46.495Z</time>
      </trkpt>
      <trkpt lat="49.81848" lon="3.34991">
        <ele>132.89</ele>
        <time>2020-10-17T09:34:52.282Z</time>
      </trkpt>
      <trkpt lat="49.81851" lon="3.34977">
        <ele>132.66</ele>
        <time>2020-10-17T09:34:58.302Z</time>
      </trkpt>
      <trkpt lat="49.81856" lon="3.34964">
        <ele>132.16</ele>
        <time>2020-10-17T09:35:05.521Z</time>
      </trkpt>
      <trkpt lat="49.8186" lon="3.34951">
        <ele>131.65</ele>
        <time>2020-10-17T09:35:11.462Z</time>
      </trkpt>
      <trkpt lat="49.81867" lon="3.3494">
        <ele>131.25</ele>
        <time>2020-10-17T09:35:16.451Z</time>
      </trkpt>
      <trkpt lat="49.81871" lon="3.34927">
        <ele>131.22</ele>
        <time>2020-10-17T09:35:21.696Z</time>
      </trkpt>
      <trkpt lat="49.81876" lon="3.34916">
        <ele>131.16</ele>
        <time>2020-10-17T09:35:26.555Z</time>
      </trkpt>
      <trkpt lat="49.81882" lon="3.34904">
        <ele>131.01</ele>
        <time>2020-10-17T09:35:31.556Z</time>
      </trkpt>
      <trkpt lat="49.81887" lon="3.34893">
        <ele>130.75</ele>
        <time>2020-10-17T09:35:37.417Z</time>
      </trkpt>
      <trkpt lat="49.81892" lon="3.34881">
        <ele>130.4</ele>
        <time>2020-10-17T09:35:44.012Z</time>
      </trkpt>
      <trkpt lat="49.81895" lon="3.34868">
        <ele>130.11</ele>
        <time>2020-10-17T09:35:50.355Z</time>
      </trkpt>
      <trkpt lat="49.81897" lon="3.34854">
        <ele>129.72</ele>
        <time>2020-10-17T09:35:57.205Z</time>
      </trkpt>
      <trkpt lat="49.81908" lon="3.34849">
        <ele>129.27</ele>
        <time>2020-10-17T09:36:04.117Z</time>
      </trkpt>
      <trkpt lat="49.81914" lon="3.34837">
        <ele>128.86</ele>
        <time>2020-10-17T09:36:09.294Z</time>
      </trkpt>
      <trkpt lat="49.81918" lon="3.34825">
        <ele>128.18</ele>
        <time>2020-10-17T09:36:16.959Z</time>
      </trkpt>
      <trkpt lat="49.81924" lon="3.34812">
        <ele>127.6</ele>
        <time>2020-10-17T09:36:23.000Z</time>
      </trkpt>
      <trkpt lat="49.81927" lon="3.34797">
        <ele>127.14</ele>
        <time>2020-10-17T09:36:28.000Z</time>
      </trkpt>
      <trkpt lat="49.81931" lon="3.34781">
        <ele>126.58</ele>
        <time>2020-10-17T09:36:33.000Z</time>
      </trkpt>
      <trkpt lat="49.81935" lon="3.34768">
        <ele>125.77</ele>
        <time>2020-10-17T09:36:39.499Z</time>
      </trkpt>
      <trkpt lat="49.81939" lon="3.34756">
        <ele>124.86</ele>
        <time>2020-10-17T09:36:46.140Z</time>
      </trkpt>
      <trkpt lat="49.81944" lon="3.34741">
        <ele>123.68</ele>
        <time>2020-10-17T09:36:54.663Z</time>
      </trkpt>
      <trkpt lat="49.81948" lon="3.34728">
        <ele>122.95</ele>
        <time>2020-10-17T09:37:01.573Z</time>
      </trkpt>
      <trkpt lat="49.81956" lon="3.34715">
        <ele>122.5</ele>
        <time>2020-10-17T09:37:05.884Z</time>
      </trkpt>
      <trkpt lat="49.81962" lon="3.34703">
        <ele>122.24</ele>
        <time>2020-10-17T09:37:10.000Z</time>
      </trkpt>
      <trkpt lat="49.81968" lon="3.34692">
        <ele>121.99</ele>
        <time>2020-10-17T09:37:14.401Z</time>
      </trkpt>
      <trkpt lat="49.81974" lon="3.34681">
        <ele>121.62</ele>
        <time>2020-10-17T09:37:22.000Z</time>
      </trkpt>
      <trkpt lat="49.81978" lon="3.34667">
        <ele>121.41</ele>
        <time>2020-10-17T09:37:28.644Z</time>
      </trkpt>
      <trkpt lat="49.81983" lon="3.34654">
        <ele>121.1</ele>
        <time>2020-10-17T09:37:34.364Z</time>
      </trkpt>
      <trkpt lat="49.81987" lon="3.34642">
        <ele>120.68</ele>
        <time>2020-10-17T09:37:40.015Z</time>
      </trkpt>
      <trkpt lat="49.81992" lon="3.34629">
        <ele>120.16</ele>
        <time>2020-10-17T09:37:47.537Z</time>
      </trkpt>
      <trkpt lat="49.81996" lon="3.34616">
        <ele>119.77</ele>
        <time>2020-10-17T09:37:52.458Z</time>
      </trkpt>
      <trkpt lat="49.82" lon="3.34604">
        <ele>119.4</ele>
        <time>2020-10-17T09:37:56.896Z</time>
      </trkpt>
      <trkpt lat="49.82004" lon="3.3459">
        <ele>119.13</ele>
        <time>2020-10-17T09:38:01.716Z</time>
      </trkpt>
      <trkpt lat="49.82009" lon="3.34577">
        <ele>118.92</ele>
        <time>2020-10-17T09:38:06.038Z</time>
      </trkpt>
      <trkpt lat="49.82014" lon="3.34564">
        <ele>118.72</ele>
        <time>2020-10-17T09:38:10.558Z</time>
      </trkpt>
      <trkpt lat="49.82019" lon="3.34553">
        <ele>118</ele>
        <time>2020-10-17T09:38:18.000Z</time>
      </trkpt>
      <trkpt lat="49.82023" lon="3.3454">
        <ele>117.26</ele>
        <time>2020-10-17T09:38:26.157Z</time>
      </trkpt>
      <trkpt lat="49.82028" lon="3.34526">
        <ele>117.08</ele>
        <time>2020-10-17T09:38:30.957Z</time>
      </trkpt>
      <trkpt lat="49.82034" lon="3.34514">
        <ele>117.08</ele>
        <time>2020-10-17T09:38:35.646Z</time>
      </trkpt>
      <trkpt lat="49.82042" lon="3.34504">
        <ele>117.07</ele>
        <time>2020-10-17T09:38:41.000Z</time>
      </trkpt>
      <trkpt lat="49.82053" lon="3.34499">
        <ele>117.11</ele>
        <time>2020-10-17T09:38:45.657Z</time>
      </trkpt>
      <trkpt lat="49.82061" lon="3.34489">
        <ele>117.1</ele>
        <time>2020-10-17T09:38:51.520Z</time>
      </trkpt>
      <trkpt lat="49.82069" lon="3.34477">
        <ele>117.16</ele>
        <time>2020-10-17T09:38:55.661Z</time>
      </trkpt>
      <trkpt lat="49.82079" lon="3.34461">
        <ele>117.17</ele>
        <time>2020-10-17T09:39:00.000Z</time>
      </trkpt>
      <trkpt lat="49.82088" lon="3.34449">
        <ele>117.21</ele>
        <time>2020-10-17T09:39:05.000Z</time>
      </trkpt>
      <trkpt lat="49.82096" lon="3.34442">
        <ele>117.21</ele>
        <time>2020-10-17T09:39:11.000Z</time>
      </trkpt>
      <trkpt lat="49.82105" lon="3.34443">
        <ele>117.1</ele>
        <time>2020-10-17T09:39:18.000Z</time>
      </trkpt>
      <trkpt lat="49.82115" lon="3.34446">
        <ele>116.81</ele>
        <time>2020-10-17T09:39:23.160Z</time>
      </trkpt>
      <trkpt lat="49.82124" lon="3.34449">
        <ele>116.28</ele>
        <time>2020-10-17T09:39:28.822Z</time>
      </trkpt>
      <trkpt lat="49.82132" lon="3.34453">
        <ele>115.79</ele>
        <time>2020-10-17T09:39:33.915Z</time>
      </trkpt>
      <trkpt lat="49.82142" lon="3.34457">
        <ele>115.34</ele>
        <time>2020-10-17T09:39:38.398Z</time>
      </trkpt>
      <trkpt lat="49.82151" lon="3.34459">
        <ele>114.69</ele>
        <time>2020-10-17T09:39:44.000Z</time>
      </trkpt>
      <trkpt lat="49.82162" lon="3.3446">
        <ele>113.88</ele>
        <time>2020-10-17T09:39:51.000Z</time>
      </trkpt>
      <trkpt lat="49.8217" lon="3.34464">
        <ele>113.08</ele>
        <time>2020-10-17T09:39:59.595Z</time>
      </trkpt>
      <trkpt lat="49.82179" lon="3.3447">
        <ele>112.23</ele>
        <time>2020-10-17T09:40:07.339Z</time>
      </trkpt>
      <trkpt lat="49.82188" lon="3.34476">
        <ele>111.63</ele>
        <time>2020-10-17T09:40:13.160Z</time>
      </trkpt>
      <trkpt lat="49.82197" lon="3.34478">
        <ele>111.01</ele>
        <time>2020-10-17T09:40:19.311Z</time>
      </trkpt>
      <trkpt lat="49.82202" lon="3.34464">
        <ele>110.43</ele>
        <time>2020-10-17T09:40:26.000Z</time>
      </trkpt>
      <trkpt lat="49.82211" lon="3.3446">
        <ele>109.25</ele>
        <time>2020-10-17T09:40:35.057Z</time>
      </trkpt>
      <trkpt lat="49.82222" lon="3.34461">
        <ele>108.13</ele>
        <time>2020-10-17T09:40:41.981Z</time>
      </trkpt>
      <trkpt lat="49.82232" lon="3.34463">
        <ele>107.53</ele>
        <time>2020-10-17T09:40:46.304Z</time>
      </trkpt>
      <trkpt lat="49.82241" lon="3.34466">
        <ele>106.81</ele>
        <time>2020-10-17T09:40:51.295Z</time>
      </trkpt>
      <trkpt lat="49.8225" lon="3.34469">
        <ele>105.84</ele>
        <time>2020-10-17T09:40:58.000Z</time>
      </trkpt>
      <trkpt lat="49.82259" lon="3.34472">
        <ele>105.24</ele>
        <time>2020-10-17T09:41:04.534Z</time>
      </trkpt>
      <trkpt lat="49.82269" lon="3.34474">
        <ele>104.96</ele>
        <time>2020-10-17T09:41:10.437Z</time>
      </trkpt>
      <trkpt lat="49.82279" lon="3.34473">
        <ele>104.9</ele>
        <time>2020-10-17T09:41:16.000Z</time>
      </trkpt>
      <trkpt lat="49.82288" lon="3.34474">
        <ele>104.9</ele>
        <time>2020-10-17T09:41:21.584Z</time>
      </trkpt>
      <trkpt lat="49.82298" lon="3.34475">
        <ele>104.85</ele>
        <time>2020-10-17T09:41:27.481Z</time>
      </trkpt>
      <trkpt lat="49.82307" lon="3.34474">
        <ele>104.76</ele>
        <time>2020-10-17T09:41:32.000Z</time>
      </trkpt>
      <trkpt lat="49.82317" lon="3.34473">
        <ele>104.73</ele>
        <time>2020-10-17T09:41:36.362Z</time>
      </trkpt>
      <trkpt lat="49.82329" lon="3.34474">
        <ele>104.77</ele>
        <time>2020-10-17T09:41:40.453Z</time>
      </trkpt>
      <trkpt lat="49.82338" lon="3.34477">
        <ele>104.87</ele>
        <time>2020-10-17T09:41:44.515Z</time>
      </trkpt>
      <trkpt lat="49.82347" lon="3.34483">
        <ele>105.03</ele>
        <time>2020-10-17T09:41:50.000Z</time>
      </trkpt>
      <trkpt lat="49.82351" lon="3.34498">
        <ele>105.29</ele>
        <time>2020-10-17T09:41:56.159Z</time>
      </trkpt>
      <trkpt lat="49.82358" lon="3.34518">
        <ele>105.47</ele>
        <time>2020-10-17T09:42:00.522Z</time>
      </trkpt>
      <trkpt lat="49.82365" lon="3.34528">
        <ele>105.62</ele>
        <time>2020-10-17T09:42:04.542Z</time>
      </trkpt>
      <trkpt lat="49.82373" lon="3.34538">
        <ele>105.92</ele>
        <time>2020-10-17T09:42:10.357Z</time>
      </trkpt>
      <trkpt lat="49.82382" lon="3.34547">
        <ele>106.38</ele>
        <time>2020-10-17T09:42:15.937Z</time>
      </trkpt>
      <trkpt lat="49.82392" lon="3.34555">
        <ele>106.74</ele>
        <time>2020-10-17T09:42:20.492Z</time>
      </trkpt>
      <trkpt lat="49.82403" lon="3.34562">
        <ele>107.08</ele>
        <time>2020-10-17T09:42:25.000Z</time>
      </trkpt>
      <trkpt lat="49.82415" lon="3.3457">
        <ele>107.31</ele>
        <time>2020-10-17T09:42:29.033Z</time>
      </trkpt>
      <trkpt lat="49.82427" lon="3.34579">
        <ele>107.52</ele>
        <time>2020-10-17T09:42:33.636Z</time>
      </trkpt>
      <trkpt lat="49.82436" lon="3.34585">
        <ele>107.72</ele>
        <time>2020-10-17T09:42:37.937Z</time>
      </trkpt>
      <trkpt lat="49.82445" lon="3.34587">
        <ele>107.83</ele>
        <time>2020-10-17T09:42:44.000Z</time>
      </trkpt>
      <trkpt lat="49.82455" lon="3.34591">
        <ele>107.72</ele>
        <time>2020-10-17T09:42:51.000Z</time>
      </trkpt>
      <trkpt lat="49.82462" lon="3.34598">
        <ele>107.43</ele>
        <time>2020-10-17T09:42:56.458Z</time>
      </trkpt>
      <trkpt lat="49.82471" lon="3.34604">
        <ele>106.53</ele>
        <time>2020-10-17T09:43:06.260Z</time>
      </trkpt>
      <trkpt lat="49.8248" lon="3.34608">
        <ele>105.76</ele>
        <time>2020-10-17T09:43:14.242Z</time>
      </trkpt>
      <trkpt lat="49.82489" lon="3.34611">
        <ele>105.35</ele>
        <time>2020-10-17T09:43:20.435Z</time>
      </trkpt>
      <trkpt lat="49.82498" lon="3.34613">
        <ele>105.07</ele>
        <time>2020-10-17T09:43:26.284Z</time>
      </trkpt>
      <trkpt lat="49.82508" lon="3.34616">
        <ele>104.69</ele>
        <time>2020-10-17T09:43:31.839Z</time>
      </trkpt>
      <trkpt lat="49.82519" lon="3.34618">
        <ele>104.53</ele>
        <time>2020-10-17T09:43:36.502Z</time>
      </trkpt>
      <trkpt lat="49.82528" lon="3.34621">
        <ele>104.44</ele>
        <time>2020-10-17T09:43:41.422Z</time>
      </trkpt>
      <trkpt lat="49.82537" lon="3.34623">
        <ele>104.45</ele>
        <time>2020-10-17T09:43:48.076Z</time>
      </trkpt>
      <trkpt lat="49.82547" lon="3.34625">
        <ele>104.39</ele>
        <time>2020-10-17T09:43:55.000Z</time>
      </trkpt>
      <trkpt lat="49.82556" lon="3.34631">
        <ele>104.22</ele>
        <time>2020-10-17T09:44:00.000Z</time>
      </trkpt>
      <trkpt lat="49.82563" lon="3.3464">
        <ele>104.06</ele>
        <time>2020-10-17T09:44:06.154Z</time>
      </trkpt>
      <trkpt lat="49.82573" lon="3.34638">
        <ele>104.05</ele>
        <time>2020-10-17T09:44:13.261Z</time>
      </trkpt>
      <trkpt lat="49.82581" lon="3.34649">
        <ele>104.23</ele>
        <time>2020-10-17T09:44:18.301Z</time>
      </trkpt>
      <trkpt lat="49.8259" lon="3.34656">
        <ele>104.58</ele>
        <time>2020-10-17T09:44:22.635Z</time>
      </trkpt>
      <trkpt lat="49.82595" lon="3.34669">
        <ele>105.36</ele>
        <time>2020-10-17T09:44:27.000Z</time>
      </trkpt>
      <trkpt lat="49.82602" lon="3.34686">
        <ele>106.14</ele>
        <time>2020-10-17T09:44:31.462Z</time>
      </trkpt>
      <trkpt lat="49.82603" lon="3.347">
        <ele>106.91</ele>
        <time>2020-10-17T09:44:36.359Z</time>
      </trkpt>
      <trkpt lat="49.82603" lon="3.34714">
        <ele>107.68</ele>
        <time>2020-10-17T09:44:41.658Z</time>
      </trkpt>
      <trkpt lat="49.82602" lon="3.34736">
        <ele>108.16</ele>
        <time>2020-10-17T09:44:46.054Z</time>
      </trkpt>
      <trkpt lat="49.82602" lon="3.34757">
        <ele>108.33</ele>
        <time>2020-10-17T09:44:50.275Z</time>
      </trkpt>
      <trkpt lat="49.82601" lon="3.34776">
        <ele>108.52</ele>
        <time>2020-10-17T09:44:55.000Z</time>
      </trkpt>
      <trkpt lat="49.82603" lon="3.34791">
        <ele>109.17</ele>
        <time>2020-10-17T09:45:09.000Z</time>
      </trkpt>
      <trkpt lat="49.82602" lon="3.34806">
        <ele>109.61</ele>
        <time>2020-10-17T09:45:13.522Z</time>
      </trkpt>
      <trkpt lat="49.82602" lon="3.34824">
        <ele>110.09</ele>
        <time>2020-10-17T09:45:18.000Z</time>
      </trkpt>
      <trkpt lat="49.82602" lon="3.34839">
        <ele>110.56</ele>
        <time>2020-10-17T09:45:23.000Z</time>
      </trkpt>
      <trkpt lat="49.82601" lon="3.34853">
        <ele>111.43</ele>
        <time>2020-10-17T09:45:28.834Z</time>
      </trkpt>
      <trkpt lat="49.826" lon="3.34868">
        <ele>111.85</ele>
        <time>2020-10-17T09:45:33.277Z</time>
      </trkpt>
      <trkpt lat="49.826" lon="3.34882">
        <ele>112.31</ele>
        <time>2020-10-17T09:45:39.362Z</time>
      </trkpt>
      <trkpt lat="49.82603" lon="3.34896">
        <ele>112.51</ele>
        <time>2020-10-17T09:45:44.461Z</time>
      </trkpt>
      <trkpt lat="49.82604" lon="3.34911">
        <ele>112.67</ele>
        <time>2020-10-17T09:45:49.955Z</time>
      </trkpt>
      <trkpt lat="49.82605" lon="3.34924">
        <ele>112.81</ele>
        <time>2020-10-17T09:45:54.055Z</time>
      </trkpt>
      <trkpt lat="49.82607" lon="3.3494">
        <ele>112.92</ele>
        <time>2020-10-17T09:45:58.541Z</time>
      </trkpt>
      <trkpt lat="49.8261" lon="3.34955">
        <ele>112.94</ele>
        <time>2020-10-17T09:46:03.574Z</time>
      </trkpt>
      <trkpt lat="49.82614" lon="3.34968">
        <ele>112.91</ele>
        <time>2020-10-17T09:46:11.000Z</time>
      </trkpt>
      <trkpt lat="49.82617" lon="3.34984">
        <ele>113.26</ele>
        <time>2020-10-17T09:46:16.657Z</time>
      </trkpt>
      <trkpt lat="49.82619" lon="3.34998">
        <ele>113.85</ele>
        <time>2020-10-17T09:46:22.696Z</time>
      </trkpt>
      <trkpt lat="49.8262" lon="3.35013">
        <ele>114.59</ele>
        <time>2020-10-17T09:46:29.000Z</time>
      </trkpt>
      <trkpt lat="49.82623" lon="3.35027">
        <ele>115.11</ele>
        <time>2020-10-17T09:46:34.317Z</time>
      </trkpt>
      <trkpt lat="49.82617" lon="3.35038">
        <ele>115.52</ele>
        <time>2020-10-17T09:46:42.000Z</time>
      </trkpt>
      <trkpt lat="49.8262" lon="3.35052">
        <ele>115.65</ele>
        <time>2020-10-17T09:46:49.000Z</time>
      </trkpt>
      <trkpt lat="49.82626" lon="3.35064">
        <ele>115.83</ele>
        <time>2020-10-17T09:46:54.000Z</time>
      </trkpt>
      <trkpt lat="49.82633" lon="3.35077">
        <ele>116.29</ele>
        <time>2020-10-17T09:46:59.000Z</time>
      </trkpt>
      <trkpt lat="49.82644" lon="3.35096">
        <ele>116.68</ele>
        <time>2020-10-17T09:47:03.355Z</time>
      </trkpt>
      <trkpt lat="49.82651" lon="3.35111">
        <ele>117.09</ele>
        <time>2020-10-17T09:47:07.474Z</time>
      </trkpt>
      <trkpt lat="49.82659" lon="3.3512">
        <ele>117.6</ele>
        <time>2020-10-17T09:47:12.216Z</time>
      </trkpt>
      <trkpt lat="49.82666" lon="3.3513">
        <ele>118.09</ele>
        <time>2020-10-17T09:47:17.495Z</time>
      </trkpt>
      <trkpt lat="49.82674" lon="3.35136">
        <ele>118.63</ele>
        <time>2020-10-17T09:47:24.000Z</time>
      </trkpt>
      <trkpt lat="49.82682" lon="3.35144">
        <ele>119.22</ele>
        <time>2020-10-17T09:47:31.000Z</time>
      </trkpt>
      <trkpt lat="49.82689" lon="3.35153">
        <ele>120.05</ele>
        <time>2020-10-17T09:47:39.459Z</time>
      </trkpt>
      <trkpt lat="49.82698" lon="3.35159">
        <ele>120.65</ele>
        <time>2020-10-17T09:47:46.000Z</time>
      </trkpt>
      <trkpt lat="49.82707" lon="3.35166">
        <ele>120.9</ele>
        <time>2020-10-17T09:47:52.421Z</time>
      </trkpt>
      <trkpt lat="49.82715" lon="3.35171">
        <ele>121.12</ele>
        <time>2020-10-17T09:47:59.595Z</time>
      </trkpt>
      <trkpt lat="49.82721" lon="3.35183">
        <ele>121.18</ele>
        <time>2020-10-17T09:48:05.400Z</time>
      </trkpt>
      <trkpt lat="49.82719" lon="3.352">
        <ele>121.26</ele>
        <time>2020-10-17T09:48:09.611Z</time>
      </trkpt>
      <trkpt lat="49.8272" lon="3.35214">
        <ele>121.47</ele>
        <time>2020-10-17T09:48:14.209Z</time>
      </trkpt>
      <trkpt lat="49.82727" lon="3.35225">
        <ele>121.78</ele>
        <time>2020-10-17T09:48:22.000Z</time>
      </trkpt>
      <trkpt lat="49.82733" lon="3.35235">
        <ele>121.96</ele>
        <time>2020-10-17T09:48:28.281Z</time>
      </trkpt>
      <trkpt lat="49.82739" lon="3.35246">
        <ele>122.07</ele>
        <time>2020-10-17T09:48:36.433Z</time>
      </trkpt>
      <trkpt lat="49.82747" lon="3.35258">
        <ele>122.15</ele>
        <time>2020-10-17T09:48:40.833Z</time>
      </trkpt>
      <trkpt lat="49.82754" lon="3.35268">
        <ele>122.5</ele>
        <time>2020-10-17T09:48:46.000Z</time>
      </trkpt>
      <trkpt lat="49.82761" lon="3.35278">
        <ele>122.97</ele>
        <time>2020-10-17T09:48:50.672Z</time>
      </trkpt>
      <trkpt lat="49.82768" lon="3.35288">
        <ele>123.98</ele>
        <time>2020-10-17T09:48:58.461Z</time>
      </trkpt>
      <trkpt lat="49.82775" lon="3.35299">
        <ele>124.57</ele>
        <time>2020-10-17T09:49:04.598Z</time>
      </trkpt>
      <trkpt lat="49.82781" lon="3.35312">
        <ele>125.14</ele>
        <time>2020-10-17T09:49:13.000Z</time>
      </trkpt>
      <trkpt lat="49.82786" lon="3.35325">
        <ele>125.2</ele>
        <time>2020-10-17T09:49:19.915Z</time>
      </trkpt>
      <trkpt lat="49.82794" lon="3.35337">
        <ele>125.42</ele>
        <time>2020-10-17T09:49:24.275Z</time>
      </trkpt>
      <trkpt lat="49.828" lon="3.35348">
        <ele>125.62</ele>
        <time>2020-10-17T09:49:29.380Z</time>
      </trkpt>
      <trkpt lat="49.82807" lon="3.35358">
        <ele>125.8</ele>
        <time>2020-10-17T09:49:35.441Z</time>
      </trkpt>
      <trkpt lat="49.82814" lon="3.35368">
        <ele>126.06</ele>
        <time>2020-10-17T09:49:41.000Z</time>
      </trkpt>
      <trkpt lat="49.82821" lon="3.35376">
        <ele>126.43</ele>
        <time>2020-10-17T09:49:47.138Z</time>
      </trkpt>
      <trkpt lat="49.8283" lon="3.35383">
        <ele>126.76</ele>
        <time>2020-10-17T09:49:54.000Z</time>
      </trkpt>
      <trkpt lat="49.82835" lon="3.35395">
        <ele>126.71</ele>
        <time>2020-10-17T09:50:01.000Z</time>
      </trkpt>
      <trkpt lat="49.8284" lon="3.35408">
        <ele>126.25</ele>
        <time>2020-10-17T09:50:08.515Z</time>
      </trkpt>
      <trkpt lat="49.82848" lon="3.35418">
        <ele>125.75</ele>
        <time>2020-10-17T09:50:16.000Z</time>
      </trkpt>
      <trkpt lat="49.82856" lon="3.35431">
        <ele>125.41</ele>
        <time>2020-10-17T09:50:21.000Z</time>
      </trkpt>
      <trkpt lat="49.82863" lon="3.3544">
        <ele>125.21</ele>
        <time>2020-10-17T09:50:25.578Z</time>
      </trkpt>
      <trkpt lat="49.8287" lon="3.3545">
        <ele>125.1</ele>
        <time>2020-10-17T09:50:33.561Z</time>
      </trkpt>
      <trkpt lat="49.82878" lon="3.35457">
        <ele>125.35</ele>
        <time>2020-10-17T09:50:40.252Z</time>
      </trkpt>
      <trkpt lat="49.82886" lon="3.35465">
        <ele>125.54</ele>
        <time>2020-10-17T09:50:45.595Z</time>
      </trkpt>
      <trkpt lat="49.82895" lon="3.35474">
        <ele>125.46</ele>
        <time>2020-10-17T09:50:50.000Z</time>
      </trkpt>
      <trkpt lat="49.82903" lon="3.35485">
        <ele>125.33</ele>
        <time>2020-10-17T09:50:54.294Z</time>
      </trkpt>
      <trkpt lat="49.8291" lon="3.35494">
        <ele>125.37</ele>
        <time>2020-10-17T09:51:01.119Z</time>
      </trkpt>
      <trkpt lat="49.82918" lon="3.35502">
        <ele>125.59</ele>
        <time>2020-10-17T09:51:08.000Z</time>
      </trkpt>
      <trkpt lat="49.82926" lon="3.35511">
        <ele>125.74</ele>
        <time>2020-10-17T09:51:14.000Z</time>
      </trkpt>
      <trkpt lat="49.82932" lon="3.3552">
        <ele>125.99</ele>
        <time>2020-10-17T09:51:19.557Z</time>
      </trkpt>
      <trkpt lat="49.82939" lon="3.3553">
        <ele>126.49</ele>
        <time>2020-10-17T09:51:25.339Z</time>
      </trkpt>
      <trkpt lat="49.82946" lon="3.3554">
        <ele>126.83</ele>
        <time>2020-10-17T09:51:32.642Z</time>
      </trkpt>
      <trkpt lat="49.82955" lon="3.35544">
        <ele>127.59</ele>
        <time>2020-10-17T09:51:39.542Z</time>
      </trkpt>
      <trkpt lat="49.82962" lon="3.35555">
        <ele>128.19</ele>
        <time>2020-10-17T09:51:44.415Z</time>
      </trkpt>
      <trkpt lat="49.82969" lon="3.35565">
        <ele>128.9</ele>
        <time>2020-10-17T09:51:50.000Z</time>
      </trkpt>
      <trkpt lat="49.82977" lon="3.35574">
        <ele>129.44</ele>
        <time>2020-10-17T09:51:55.479Z</time>
      </trkpt>
      <trkpt lat="49.82985" lon="3.35583">
        <ele>129.79</ele>
        <time>2020-10-17T09:52:01.659Z</time>
      </trkpt>
      <trkpt lat="49.82992" lon="3.35594">
        <ele>129.92</ele>
        <time>2020-10-17T09:52:08.495Z</time>
      </trkpt>
      <trkpt lat="49.82997" lon="3.35606">
        <ele>129.59</ele>
        <time>2020-10-17T09:52:14.000Z</time>
      </trkpt>
      <trkpt lat="49.82999" lon="3.3562">
        <ele>129.27</ele>
        <time>2020-10-17T09:52:18.946Z</time>
      </trkpt>
      <trkpt lat="49.83002" lon="3.35634">
        <ele>129.17</ele>
        <time>2020-10-17T09:52:26.000Z</time>
      </trkpt>
      <trkpt lat="49.83009" lon="3.35645">
        <ele>129.1</ele>
        <time>2020-10-17T09:52:33.541Z</time>
      </trkpt>
      <trkpt lat="49.83015" lon="3.35659">
        <ele>129.17</ele>
        <time>2020-10-17T09:52:38.000Z</time>
      </trkpt>
      <trkpt lat="49.83022" lon="3.3567">
        <ele>129.49</ele>
        <time>2020-10-17T09:52:44.382Z</time>
      </trkpt>
      <trkpt lat="49.83028" lon="3.3568">
        <ele>129.92</ele>
        <time>2020-10-17T09:52:51.614Z</time>
      </trkpt>
      <trkpt lat="49.83035" lon="3.35695">
        <ele>130.28</ele>
        <time>2020-10-17T09:52:56.021Z</time>
      </trkpt>
      <trkpt lat="49.83042" lon="3.35707">
        <ele>130.57</ele>
        <time>2020-10-17T09:53:00.444Z</time>
      </trkpt>
      <trkpt lat="49.83048" lon="3.35717">
        <ele>130.8</ele>
        <time>2020-10-17T09:53:07.000Z</time>
      </trkpt>
      <trkpt lat="49.83054" lon="3.35729">
        <ele>131.12</ele>
        <time>2020-10-17T09:53:13.094Z</time>
      </trkpt>
      <trkpt lat="49.83059" lon="3.3574">
        <ele>131.53</ele>
        <time>2020-10-17T09:53:19.394Z</time>
      </trkpt>
      <trkpt lat="49.83066" lon="3.35752">
        <ele>131.75</ele>
        <time>2020-10-17T09:53:26.000Z</time>
      </trkpt>
      <trkpt lat="49.83073" lon="3.35761">
        <ele>131.98</ele>
        <time>2020-10-17T09:53:32.581Z</time>
      </trkpt>
      <trkpt lat="49.8308" lon="3.35769">
        <ele>132.43</ele>
        <time>2020-10-17T09:53:38.421Z</time>
      </trkpt>
      <trkpt lat="49.83088" lon="3.35778">
        <ele>132.97</ele>
        <time>2020-10-17T09:53:43.822Z</time>
      </trkpt>
      <trkpt lat="49.83094" lon="3.3579">
        <ele>133.35</ele>
        <time>2020-10-17T09:53:49.693Z</time>
      </trkpt>
      <trkpt lat="49.83098" lon="3.35803">
        <ele>133.45</ele>
        <time>2020-10-17T09:53:55.000Z</time>
      </trkpt>
      <trkpt lat="49.83101" lon="3.35817">
        <ele>133.57</ele>
        <time>2020-10-17T09:54:00.494Z</time>
      </trkpt>
      <trkpt lat="49.83102" lon="3.35832">
        <ele>133.93</ele>
        <time>2020-10-17T09:54:06.235Z</time>
      </trkpt>
      <trkpt lat="49.83102" lon="3.35847">
        <ele>134.2</ele>
        <time>2020-10-17T09:54:11.998Z</time>
      </trkpt>
      <trkpt lat="49.83104" lon="3.35861">
        <ele>134.3</ele>
        <time>2020-10-17T09:54:17.972Z</time>
      </trkpt>
      <trkpt lat="49.83109" lon="3.35883">
        <ele>134.31</ele>
        <time>2020-10-17T09:54:22.000Z</time>
      </trkpt>
      <trkpt lat="49.83118" lon="3.35908">
        <ele>134.17</ele>
        <time>2020-10-17T09:54:26.220Z</time>
      </trkpt>
      <trkpt lat="49.83124" lon="3.35926">
        <ele>133.89</ele>
        <time>2020-10-17T09:54:31.000Z</time>
      </trkpt>
      <trkpt lat="49.83126" lon="3.35941">
        <ele>133.58</ele>
        <time>2020-10-17T09:54:35.193Z</time>
      </trkpt>
      <trkpt lat="49.83128" lon="3.35954">
        <ele>133.22</ele>
        <time>2020-10-17T09:54:39.433Z</time>
      </trkpt>
      <trkpt lat="49.83131" lon="3.35968">
        <ele>132.9</ele>
        <time>2020-10-17T09:54:43.577Z</time>
      </trkpt>
      <trkpt lat="49.83134" lon="3.35982">
        <ele>132.5</ele>
        <time>2020-10-17T09:54:47.817Z</time>
      </trkpt>
      <trkpt lat="49.83133" lon="3.35996">
        <ele>131.88</ele>
        <time>2020-10-17T09:54:54.995Z</time>
      </trkpt>
      <trkpt lat="49.83135" lon="3.3601">
        <ele>131.29</ele>
        <time>2020-10-17T09:55:02.760Z</time>
      </trkpt>
      <trkpt lat="49.83139" lon="3.36023">
        <ele>120.95</ele>
        <time>2020-10-17T09:55:10.000Z</time>
      </trkpt>
      <trkpt lat="49.83144" lon="3.36036">
        <ele>120.95</ele>
        <time>2020-10-17T09:55:15.215Z</time>
      </trkpt>
      <trkpt lat="49.83148" lon="3.3605">
        <ele>120.95</ele>
        <time>2020-10-17T09:55:22.318Z</time>
      </trkpt>
      <trkpt lat="49.83151" lon="3.36064">
        <ele>120.95</ele>
        <time>2020-10-17T09:55:28.578Z</time>
      </trkpt>
      <trkpt lat="49.83153" lon="3.36078">
        <ele>120.85</ele>
        <time>2020-10-17T09:55:34.659Z</time>
      </trkpt>
      <trkpt lat="49.83152" lon="3.36093">
        <ele>120.85</ele>
        <time>2020-10-17T09:55:41.000Z</time>
      </trkpt>
      <trkpt lat="49.83152" lon="3.36107">
        <ele>120.85</ele>
        <time>2020-10-17T09:55:47.000Z</time>
      </trkpt>
      <trkpt lat="49.83147" lon="3.36122">
        <ele>120.85</ele>
        <time>2020-10-17T09:55:52.779Z</time>
      </trkpt>
      <trkpt lat="49.83145" lon="3.36136">
        <ele>120.85</ele>
        <time>2020-10-17T09:55:58.384Z</time>
      </trkpt>
      <trkpt lat="49.83145" lon="3.3615">
        <ele>120.85</ele>
        <time>2020-10-17T09:56:04.299Z</time>
      </trkpt>
      <trkpt lat="49.83143" lon="3.36164">
        <ele>120.75</ele>
        <time>2020-10-17T09:56:10.000Z</time>
      </trkpt>
      <trkpt lat="49.83144" lon="3.36179">
        <ele>121.15</ele>
        <time>2020-10-17T09:56:16.000Z</time>
      </trkpt>
      <trkpt lat="49.83142" lon="3.36193">
        <ele>121.15</ele>
        <time>2020-10-17T09:56:22.000Z</time>
      </trkpt>
      <trkpt lat="49.83142" lon="3.36207">
        <ele>121.05</ele>
        <time>2020-10-17T09:56:28.000Z</time>
      </trkpt>
      <trkpt lat="49.83143" lon="3.36221">
        <ele>120.85</ele>
        <time>2020-10-17T09:56:33.644Z</time>
      </trkpt>
      <trkpt lat="49.83139" lon="3.36235">
        <ele>120.85</ele>
        <time>2020-10-17T09:56:39.097Z</time>
      </trkpt>
      <trkpt lat="49.83139" lon="3.3625">
        <ele>120.85</ele>
        <time>2020-10-17T09:56:46.061Z</time>
      </trkpt>
      <trkpt lat="49.83138" lon="3.36266">
        <ele>120.85</ele>
        <time>2020-10-17T09:56:52.519Z</time>
      </trkpt>
      <trkpt lat="49.83137" lon="3.36284">
        <ele>120.85</ele>
        <time>2020-10-17T09:56:56.974Z</time>
      </trkpt>
      <trkpt lat="49.83136" lon="3.363">
        <ele>120.85</ele>
        <time>2020-10-17T09:57:03.597Z</time>
      </trkpt>
      <trkpt lat="49.83132" lon="3.36313">
        <ele>120.85</ele>
        <time>2020-10-17T09:57:11.380Z</time>
      </trkpt>
      <trkpt lat="49.83132" lon="3.36327">
        <ele>120.85</ele>
        <time>2020-10-17T09:57:18.379Z</time>
      </trkpt>
      <trkpt lat="49.83131" lon="3.36341">
        <ele>120.85</ele>
        <time>2020-10-17T09:57:25.634Z</time>
      </trkpt>
      <trkpt lat="49.83131" lon="3.36356">
        <ele>132.61</ele>
        <time>2020-10-17T09:57:32.000Z</time>
      </trkpt>
      <trkpt lat="49.83129" lon="3.36371">
        <ele>132.53</ele>
        <time>2020-10-17T09:57:38.000Z</time>
      </trkpt>
      <trkpt lat="49.83129" lon="3.36387">
        <ele>132.36</ele>
        <time>2020-10-17T09:57:45.000Z</time>
      </trkpt>
      <trkpt lat="49.83123" lon="3.36399">
        <ele>131.98</ele>
        <time>2020-10-17T09:57:52.000Z</time>
      </trkpt>
      <trkpt lat="49.83123" lon="3.36413">
        <ele>131.72</ele>
        <time>2020-10-17T09:58:03.696Z</time>
      </trkpt>
      <trkpt lat="49.83123" lon="3.36428">
        <ele>131.62</ele>
        <time>2020-10-17T09:58:11.000Z</time>
      </trkpt>
      <trkpt lat="49.83123" lon="3.3645">
        <ele>131.73</ele>
        <time>2020-10-17T09:58:16.000Z</time>
      </trkpt>
      <trkpt lat="49.83121" lon="3.36471">
        <ele>131.81</ele>
        <time>2020-10-17T09:58:20.216Z</time>
      </trkpt>
      <trkpt lat="49.8312" lon="3.36486">
        <ele>131.81</ele>
        <time>2020-10-17T09:58:24.257Z</time>
      </trkpt>
      <trkpt lat="49.83119" lon="3.365">
        <ele>131.73</ele>
        <time>2020-10-17T09:58:29.957Z</time>
      </trkpt>
      <trkpt lat="49.83119" lon="3.36514">
        <ele>131.71</ele>
        <time>2020-10-17T09:58:34.602Z</time>
      </trkpt>
      <trkpt lat="49.83119" lon="3.3653">
        <ele>131.71</ele>
        <time>2020-10-17T09:58:40.000Z</time>
      </trkpt>
      <trkpt lat="49.83121" lon="3.36545">
        <ele>131.71</ele>
        <time>2020-10-17T09:58:45.434Z</time>
      </trkpt>
      <trkpt lat="49.83122" lon="3.36559">
        <ele>131.73</ele>
        <time>2020-10-17T09:58:52.558Z</time>
      </trkpt>
      <trkpt lat="49.83119" lon="3.36574">
        <ele>131.75</ele>
        <time>2020-10-17T09:59:00.000Z</time>
      </trkpt>
      <trkpt lat="49.83114" lon="3.36586">
        <ele>131.43</ele>
        <time>2020-10-17T09:59:08.000Z</time>
      </trkpt>
      <trkpt lat="49.83113" lon="3.36601">
        <ele>131.04</ele>
        <time>2020-10-17T09:59:15.391Z</time>
      </trkpt>
      <trkpt lat="49.83112" lon="3.36616">
        <ele>130.79</ele>
        <time>2020-10-17T09:59:20.000Z</time>
      </trkpt>
      <trkpt lat="49.83111" lon="3.36634">
        <ele>130.68</ele>
        <time>2020-10-17T09:59:24.658Z</time>
      </trkpt>
      <trkpt lat="49.83113" lon="3.3665">
        <ele>130.56</ele>
        <time>2020-10-17T09:59:29.000Z</time>
      </trkpt>
      <trkpt lat="49.83116" lon="3.36664">
        <ele>130.48</ele>
        <time>2020-10-17T09:59:33.394Z</time>
      </trkpt>
      <trkpt lat="49.8312" lon="3.36677">
        <ele>130.34</ele>
        <time>2020-10-17T09:59:40.038Z</time>
      </trkpt>
      <trkpt lat="49.83123" lon="3.36691">
        <ele>130.19</ele>
        <time>2020-10-17T09:59:47.000Z</time>
      </trkpt>
      <trkpt lat="49.83125" lon="3.36705">
        <ele>130.27</ele>
        <time>2020-10-17T09:59:53.000Z</time>
      </trkpt>
      <trkpt lat="49.83127" lon="3.3672">
        <ele>130.32</ele>
        <time>2020-10-17T10:00:00.000Z</time>
      </trkpt>
      <trkpt lat="49.83128" lon="3.36734">
        <ele>130.34</ele>
        <time>2020-10-17T10:00:05.572Z</time>
      </trkpt>
      <trkpt lat="49.8313" lon="3.36749">
        <ele>130.37</ele>
        <time>2020-10-17T10:00:11.548Z</time>
      </trkpt>
      <trkpt lat="49.83132" lon="3.36762">
        <ele>130.8</ele>
        <time>2020-10-17T10:00:17.475Z</time>
      </trkpt>
      <trkpt lat="49.83136" lon="3.36776">
        <ele>131.32</ele>
        <time>2020-10-17T10:00:23.437Z</time>
      </trkpt>
      <trkpt lat="49.83138" lon="3.36792">
        <ele>131.71</ele>
        <time>2020-10-17T10:00:30.000Z</time>
      </trkpt>
      <trkpt lat="49.8314" lon="3.36806">
        <ele>131.87</ele>
        <time>2020-10-17T10:00:35.639Z</time>
      </trkpt>
      <trkpt lat="49.83141" lon="3.3682">
        <ele>132.07</ele>
        <time>2020-10-17T10:00:42.000Z</time>
      </trkpt>
      <trkpt lat="49.83142" lon="3.36835">
        <ele>132.27</ele>
        <time>2020-10-17T10:00:47.034Z</time>
      </trkpt>
      <trkpt lat="49.83146" lon="3.36851">
        <ele>132.39</ele>
        <time>2020-10-17T10:00:51.412Z</time>
      </trkpt>
      <trkpt lat="49.83148" lon="3.36869">
        <ele>132.6</ele>
        <time>2020-10-17T10:00:56.000Z</time>
      </trkpt>
      <trkpt lat="49.83147" lon="3.36885">
        <ele>132.7</ele>
        <time>2020-10-17T10:01:00.501Z</time>
      </trkpt>
      <trkpt lat="49.83142" lon="3.36898">
        <ele>132.93</ele>
        <time>2020-10-17T10:01:10.000Z</time>
      </trkpt>
      <trkpt lat="49.83144" lon="3.36914">
        <ele>132.74</ele>
        <time>2020-10-17T10:01:16.000Z</time>
      </trkpt>
      <trkpt lat="49.83144" lon="3.36929">
        <ele>132.66</ele>
        <time>2020-10-17T10:01:22.000Z</time>
      </trkpt>
      <trkpt lat="49.83144" lon="3.36943">
        <ele>132.59</ele>
        <time>2020-10-17T10:01:26.375Z</time>
      </trkpt>
      <trkpt lat="49.83143" lon="3.3696">
        <ele>132.56</ele>
        <time>2020-10-17T10:01:30.377Z</time>
      </trkpt>
      <trkpt lat="49.83143" lon="3.36976">
        <ele>132.61</ele>
        <time>2020-10-17T10:01:36.577Z</time>
      </trkpt>
      <trkpt lat="49.83142" lon="3.3699">
        <ele>132.36</ele>
        <time>2020-10-17T10:01:43.022Z</time>
      </trkpt>
      <trkpt lat="49.83143" lon="3.37004">
        <ele>131.77</ele>
        <time>2020-10-17T10:01:48.655Z</time>
      </trkpt>
      <trkpt lat="49.83143" lon="3.37019">
        <ele>131.29</ele>
        <time>2020-10-17T10:01:55.000Z</time>
      </trkpt>
      <trkpt lat="49.83142" lon="3.37034">
        <ele>131.06</ele>
        <time>2020-10-17T10:02:00.661Z</time>
      </trkpt>
      <trkpt lat="49.83143" lon="3.3705">
        <ele>130.99</ele>
        <time>2020-10-17T10:02:06.314Z</time>
      </trkpt>
      <trkpt lat="49.83143" lon="3.37065">
        <ele>130.96</ele>
        <time>2020-10-17T10:02:11.513Z</time>
      </trkpt>
      <trkpt lat="49.83142" lon="3.37079">
        <ele>130.92</ele>
        <time>2020-10-17T10:02:18.034Z</time>
      </trkpt>
      <trkpt lat="49.83141" lon="3.37094">
        <ele>130.94</ele>
        <time>2020-10-17T10:02:23.623Z</time>
      </trkpt>
      <trkpt lat="49.83138" lon="3.37109">
        <ele>131.1</ele>
        <time>2020-10-17T10:02:29.300Z</time>
      </trkpt>
      <trkpt lat="49.83138" lon="3.37124">
        <ele>131.1</ele>
        <time>2020-10-17T10:02:34.522Z</time>
      </trkpt>
      <trkpt lat="49.83137" lon="3.37138">
        <ele>131.02</ele>
        <time>2020-10-17T10:02:39.535Z</time>
      </trkpt>
      <trkpt lat="49.83136" lon="3.37152">
        <ele>130.99</ele>
        <time>2020-10-17T10:02:44.095Z</time>
      </trkpt>
      <trkpt lat="49.83137" lon="3.37167">
        <ele>130.94</ele>
        <time>2020-10-17T10:02:48.518Z</time>
      </trkpt>
      <trkpt lat="49.83137" lon="3.37183">
        <ele>130.79</ele>
        <time>2020-10-17T10:02:54.000Z</time>
      </trkpt>
      <trkpt lat="49.83137" lon="3.37199">
        <ele>130.7</ele>
        <time>2020-10-17T10:02:58.374Z</time>
      </trkpt>
      <trkpt lat="49.83135" lon="3.37217">
        <ele>130.65</ele>
        <time>2020-10-17T10:03:04.000Z</time>
      </trkpt>
      <trkpt lat="49.83138" lon="3.37235">
        <ele>130.57</ele>
        <time>2020-10-17T10:03:08.055Z</time>
      </trkpt>
      <trkpt lat="49.83142" lon="3.37253">
        <ele>130.51</ele>
        <time>2020-10-17T10:03:12.562Z</time>
      </trkpt>
      <trkpt lat="49.83144" lon="3.37269">
        <ele>130.62</ele>
        <time>2020-10-17T10:03:19.431Z</time>
      </trkpt>
      <trkpt lat="49.83142" lon="3.37282">
        <ele>130.72</ele>
        <time>2020-10-17T10:03:24.117Z</time>
      </trkpt>
      <trkpt lat="49.83141" lon="3.37297">
        <ele>130.68</ele>
        <time>2020-10-17T10:03:29.482Z</time>
      </trkpt>
      <trkpt lat="49.83141" lon="3.37311">
        <ele>130.52</ele>
        <time>2020-10-17T10:03:33.684Z</time>
      </trkpt>
      <trkpt lat="49.83145" lon="3.37324">
        <ele>130.39</ele>
        <time>2020-10-17T10:03:39.397Z</time>
      </trkpt>
      <trkpt lat="49.83142" lon="3.37339">
        <ele>130.44</ele>
        <time>2020-10-17T10:03:47.000Z</time>
      </trkpt>
      <trkpt lat="49.83141" lon="3.37353">
        <ele>130.5</ele>
        <time>2020-10-17T10:03:53.000Z</time>
      </trkpt>
      <trkpt lat="49.83142" lon="3.37369">
        <ele>130.53</ele>
        <time>2020-10-17T10:03:58.594Z</time>
      </trkpt>
      <trkpt lat="49.83143" lon="3.37385">
        <ele>130.49</ele>
        <time>2020-10-17T10:04:04.000Z</time>
      </trkpt>
      <trkpt lat="49.83144" lon="3.37399">
        <ele>130.44</ele>
        <time>2020-10-17T10:04:10.651Z</time>
      </trkpt>
      <trkpt lat="49.83145" lon="3.37414">
        <ele>130.35</ele>
        <time>2020-10-17T10:04:18.061Z</time>
      </trkpt>
      <trkpt lat="49.83145" lon="3.3743">
        <ele>130.16</ele>
        <time>2020-10-17T10:04:25.000Z</time>
      </trkpt>
      <trkpt lat="49.83145" lon="3.37445">
        <ele>130.08</ele>
        <time>2020-10-17T10:04:30.451Z</time>
      </trkpt>
      <trkpt lat="49.83143" lon="3.37461">
        <ele>130.19</ele>
        <time>2020-10-17T10:04:35.241Z</time>
      </trkpt>
      <trkpt lat="49.83142" lon="3.37475">
        <ele>130.42</ele>
        <time>2020-10-17T10:04:39.978Z</time>
      </trkpt>
      <trkpt lat="49.83141" lon="3.37489">
        <ele>130.65</ele>
        <time>2020-10-17T10:04:44.579Z</time>
      </trkpt>
      <trkpt lat="49.8314" lon="3.37503">
        <ele>130.87</ele>
        <time>2020-10-17T10:04:49.539Z</time>
      </trkpt>
      <trkpt lat="49.83137" lon="3.37518">
        <ele>131.07</ele>
        <time>2020-10-17T10:04:55.154Z</time>
      </trkpt>
      <trkpt lat="49.83134" lon="3.37533">
        <ele>131.13</ele>
        <time>2020-10-17T10:05:01.639Z</time>
      </trkpt>
      <trkpt lat="49.83131" lon="3.37546">
        <ele>130.8</ele>
        <time>2020-10-17T10:05:08.000Z</time>
      </trkpt>
      <trkpt lat="49.83128" lon="3.3756">
        <ele>130.27</ele>
        <time>2020-10-17T10:05:13.577Z</time>
      </trkpt>
      <trkpt lat="49.83127" lon="3.37574">
        <ele>129.39</ele>
        <time>2020-10-17T10:05:21.000Z</time>
      </trkpt>
      <trkpt lat="49.83125" lon="3.37588">
        <ele>128.45</ele>
        <time>2020-10-17T10:05:28.375Z</time>
      </trkpt>
      <trkpt lat="49.83121" lon="3.37601">
        <ele>127.68</ele>
        <time>2020-10-17T10:05:35.000Z</time>
      </trkpt>
      <trkpt lat="49.83116" lon="3.37614">
        <ele>127.31</ele>
        <time>2020-10-17T10:05:40.102Z</time>
      </trkpt>
      <trkpt lat="49.83112" lon="3.37628">
        <ele>127.11</ele>
        <time>2020-10-17T10:05:46.000Z</time>
      </trkpt>
      <trkpt lat="49.83112" lon="3.37642">
        <ele>127.02</ele>
        <time>2020-10-17T10:05:51.135Z</time>
      </trkpt>
      <trkpt lat="49.83109" lon="3.37656">
        <ele>127.08</ele>
        <time>2020-10-17T10:05:56.441Z</time>
      </trkpt>
      <trkpt lat="49.83108" lon="3.3767">
        <ele>127.23</ele>
        <time>2020-10-17T10:06:01.377Z</time>
      </trkpt>
      <trkpt lat="49.83107" lon="3.37685">
        <ele>127.38</ele>
        <time>2020-10-17T10:06:06.197Z</time>
      </trkpt>
      <trkpt lat="49.83106" lon="3.377">
        <ele>127.52</ele>
        <time>2020-10-17T10:06:11.000Z</time>
      </trkpt>
      <trkpt lat="49.83104" lon="3.37714">
        <ele>127.49</ele>
        <time>2020-10-17T10:06:16.021Z</time>
      </trkpt>
      <trkpt lat="49.83102" lon="3.37729">
        <ele>127.28</ele>
        <time>2020-10-17T10:06:23.434Z</time>
      </trkpt>
      <trkpt lat="49.83101" lon="3.37744">
        <ele>127.02</ele>
        <time>2020-10-17T10:06:29.340Z</time>
      </trkpt>
      <trkpt lat="49.83099" lon="3.37759">
        <ele>126.53</ele>
        <time>2020-10-17T10:06:36.000Z</time>
      </trkpt>
      <trkpt lat="49.83099" lon="3.37773">
        <ele>126.06</ele>
        <time>2020-10-17T10:06:41.981Z</time>
      </trkpt>
      <trkpt lat="49.83095" lon="3.37786">
        <ele>125.8</ele>
        <time>2020-10-17T10:06:46.738Z</time>
      </trkpt>
      <trkpt lat="49.83094" lon="3.37801">
        <ele>125.72</ele>
        <time>2020-10-17T10:06:53.679Z</time>
      </trkpt>
      <trkpt lat="49.83091" lon="3.37816">
        <ele>125.74</ele>
        <time>2020-10-17T10:06:58.677Z</time>
      </trkpt>
      <trkpt lat="49.83088" lon="3.3783">
        <ele>125.81</ele>
        <time>2020-10-17T10:07:04.558Z</time>
      </trkpt>
      <trkpt lat="49.83087" lon="3.37844">
        <ele>125.79</ele>
        <time>2020-10-17T10:07:10.356Z</time>
      </trkpt>
      <trkpt lat="49.83087" lon="3.37859">
        <ele>125.7</ele>
        <time>2020-10-17T10:07:16.117Z</time>
      </trkpt>
      <trkpt lat="49.83084" lon="3.37873">
        <ele>125.52</ele>
        <time>2020-10-17T10:07:22.157Z</time>
      </trkpt>
      <trkpt lat="49.83079" lon="3.37886">
        <ele>125.28</ele>
        <time>2020-10-17T10:07:27.861Z</time>
      </trkpt>
      <trkpt lat="49.83078" lon="3.379">
        <ele>124.94</ele>
        <time>2020-10-17T10:07:34.095Z</time>
      </trkpt>
      <trkpt lat="49.83076" lon="3.37915">
        <ele>124.51</ele>
        <time>2020-10-17T10:07:40.000Z</time>
      </trkpt>
      <trkpt lat="49.83073" lon="3.37931">
        <ele>123.97</ele>
        <time>2020-10-17T10:07:46.000Z</time>
      </trkpt>
      <trkpt lat="49.8307" lon="3.37945">
        <ele>123.29</ele>
        <time>2020-10-17T10:07:53.000Z</time>
      </trkpt>
      <trkpt lat="49.83069" lon="3.37959">
        <ele>122.5</ele>
        <time>2020-10-17T10:08:00.000Z</time>
      </trkpt>
      <trkpt lat="49.83067" lon="3.37974">
        <ele>121.83</ele>
        <time>2020-10-17T10:08:07.358Z</time>
      </trkpt>
      <trkpt lat="49.83063" lon="3.37987">
        <ele>121.39</ele>
        <time>2020-10-17T10:08:13.000Z</time>
      </trkpt>
      <trkpt lat="49.8306" lon="3.38003">
        <ele>121.03</ele>
        <time>2020-10-17T10:08:19.000Z</time>
      </trkpt>
      <trkpt lat="49.8306" lon="3.38018">
        <ele>120.69</ele>
        <time>2020-10-17T10:08:24.415Z</time>
      </trkpt>
      <trkpt lat="49.83058" lon="3.38033">
        <ele>120.28</ele>
        <time>2020-10-17T10:08:29.659Z</time>
      </trkpt>
      <trkpt lat="49.83057" lon="3.38048">
        <ele>119.65</ele>
        <time>2020-10-17T10:08:36.655Z</time>
      </trkpt>
      <trkpt lat="49.83055" lon="3.38062">
        <ele>119.14</ele>
        <time>2020-10-17T10:08:43.000Z</time>
      </trkpt>
      <trkpt lat="49.83049" lon="3.38075">
        <ele>118.71</ele>
        <time>2020-10-17T10:08:49.497Z</time>
      </trkpt>
      <trkpt lat="49.83049" lon="3.3809">
        <ele>118.27</ele>
        <time>2020-10-17T10:08:55.819Z</time>
      </trkpt>
      <trkpt lat="49.83047" lon="3.38105">
        <ele>117.87</ele>
        <time>2020-10-17T10:09:01.641Z</time>
      </trkpt>
      <trkpt lat="49.83043" lon="3.38118">
        <ele>117.39</ele>
        <time>2020-10-17T10:09:07.562Z</time>
      </trkpt>
      <trkpt lat="49.83038" lon="3.38131">
        <ele>116.94</ele>
        <time>2020-10-17T10:09:12.700Z</time>
      </trkpt>
      <trkpt lat="49.83034" lon="3.38143">
        <ele>116.29</ele>
        <time>2020-10-17T10:09:18.645Z</time>
      </trkpt>
      <trkpt lat="49.8303" lon="3.38156">
        <ele>115.65</ele>
        <time>2020-10-17T10:09:24.620Z</time>
      </trkpt>
      <trkpt lat="49.83026" lon="3.3817">
        <ele>115.1</ele>
        <time>2020-10-17T10:09:32.000Z</time>
      </trkpt>
      <trkpt lat="49.83023" lon="3.38185">
        <ele>114.92</ele>
        <time>2020-10-17T10:09:37.596Z</time>
      </trkpt>
      <trkpt lat="49.8302" lon="3.38198">
        <ele>114.8</ele>
        <time>2020-10-17T10:09:43.000Z</time>
      </trkpt>
      <trkpt lat="49.83018" lon="3.38213">
        <ele>114.54</ele>
        <time>2020-10-17T10:09:49.000Z</time>
      </trkpt>
      <trkpt lat="49.83016" lon="3.38227">
        <ele>114.25</ele>
        <time>2020-10-17T10:09:55.401Z</time>
      </trkpt>
      <trkpt lat="49.83013" lon="3.38243">
        <ele>114</ele>
        <time>2020-10-17T10:10:01.595Z</time>
      </trkpt>
      <trkpt lat="49.83009" lon="3.38256">
        <ele>113.68</ele>
        <time>2020-10-17T10:10:07.000Z</time>
      </trkpt>
      <trkpt lat="49.83003" lon="3.38271">
        <ele>113.48</ele>
        <time>2020-10-17T10:10:13.138Z</time>
      </trkpt>
      <trkpt lat="49.82999" lon="3.38285">
        <ele>113.35</ele>
        <time>2020-10-17T10:10:19.000Z</time>
      </trkpt>
      <trkpt lat="49.82997" lon="3.383">
        <ele>113.17</ele>
        <time>2020-10-17T10:10:26.000Z</time>
      </trkpt>
      <trkpt lat="49.82994" lon="3.38315">
        <ele>112.99</ele>
        <time>2020-10-17T10:10:32.000Z</time>
      </trkpt>
      <trkpt lat="49.82991" lon="3.3833">
        <ele>112.74</ele>
        <time>2020-10-17T10:10:38.000Z</time>
      </trkpt>
      <trkpt lat="49.82987" lon="3.38343">
        <ele>112.46</ele>
        <time>2020-10-17T10:10:43.245Z</time>
      </trkpt>
      <trkpt lat="49.82985" lon="3.38357">
        <ele>112.16</ele>
        <time>2020-10-17T10:10:48.665Z</time>
      </trkpt>
      <trkpt lat="49.82981" lon="3.38371">
        <ele>111.76</ele>
        <time>2020-10-17T10:10:54.669Z</time>
      </trkpt>
      <trkpt lat="49.82978" lon="3.38385">
        <ele>111.34</ele>
        <time>2020-10-17T10:11:01.000Z</time>
      </trkpt>
      <trkpt lat="49.82975" lon="3.38399">
        <ele>111.09</ele>
        <time>2020-10-17T10:11:06.304Z</time>
      </trkpt>
      <trkpt lat="49.82971" lon="3.38414">
        <ele>111.04</ele>
        <time>2020-10-17T10:11:12.007Z</time>
      </trkpt>
      <trkpt lat="49.8297" lon="3.3843">
        <ele>111.16</ele>
        <time>2020-10-17T10:11:18.000Z</time>
      </trkpt>
      <trkpt lat="49.82967" lon="3.38445">
        <ele>111.28</ele>
        <time>2020-10-17T10:11:23.000Z</time>
      </trkpt>
      <trkpt lat="49.82964" lon="3.38461">
        <ele>111.4</ele>
        <time>2020-10-17T10:11:28.752Z</time>
      </trkpt>
      <trkpt lat="49.82963" lon="3.38476">
        <ele>111.71</ele>
        <time>2020-10-17T10:11:35.236Z</time>
      </trkpt>
      <trkpt lat="49.82959" lon="3.38489">
        <ele>112.03</ele>
        <time>2020-10-17T10:11:41.104Z</time>
      </trkpt>
      <trkpt lat="49.82954" lon="3.38502">
        <ele>112.33</ele>
        <time>2020-10-17T10:11:48.000Z</time>
      </trkpt>
      <trkpt lat="49.82948" lon="3.38512">
        <ele>112.63</ele>
        <time>2020-10-17T10:11:55.000Z</time>
      </trkpt>
      <trkpt lat="49.82946" lon="3.38526">
        <ele>112.97</ele>
        <time>2020-10-17T10:12:00.666Z</time>
      </trkpt>
      <trkpt lat="49.82942" lon="3.38538">
        <ele>113.23</ele>
        <time>2020-10-17T10:12:06.347Z</time>
      </trkpt>
      <trkpt lat="49.8294" lon="3.38553">
        <ele>113.24</ele>
        <time>2020-10-17T10:12:12.377Z</time>
      </trkpt>
      <trkpt lat="49.82938" lon="3.38567">
        <ele>113.03</ele>
        <time>2020-10-17T10:12:18.418Z</time>
      </trkpt>
      <trkpt lat="49.82938" lon="3.38583">
        <ele>112.88</ele>
        <time>2020-10-17T10:12:25.045Z</time>
      </trkpt>
      <trkpt lat="49.82934" lon="3.38596">
        <ele>112.69</ele>
        <time>2020-10-17T10:12:29.625Z</time>
      </trkpt>
      <trkpt lat="49.82929" lon="3.38609">
        <ele>112.44</ele>
        <time>2020-10-17T10:12:34.169Z</time>
      </trkpt>
      <trkpt lat="49.82925" lon="3.38622">
        <ele>112.08</ele>
        <time>2020-10-17T10:12:39.185Z</time>
      </trkpt>
      <trkpt lat="49.82922" lon="3.38635">
        <ele>111.54</ele>
        <time>2020-10-17T10:12:46.000Z</time>
      </trkpt>
      <trkpt lat="49.82919" lon="3.38651">
        <ele>111.05</ele>
        <time>2020-10-17T10:12:51.307Z</time>
      </trkpt>
      <trkpt lat="49.82916" lon="3.38666">
        <ele>110.53</ele>
        <time>2020-10-17T10:12:56.764Z</time>
      </trkpt>
      <trkpt lat="49.82914" lon="3.3868">
        <ele>110.07</ele>
        <time>2020-10-17T10:13:01.414Z</time>
      </trkpt>
      <trkpt lat="49.82912" lon="3.38693">
        <ele>109.74</ele>
        <time>2020-10-17T10:13:06.068Z</time>
      </trkpt>
      <trkpt lat="49.82909" lon="3.38708">
        <ele>109.39</ele>
        <time>2020-10-17T10:13:11.027Z</time>
      </trkpt>
      <trkpt lat="49.82907" lon="3.38723">
        <ele>109.01</ele>
        <time>2020-10-17T10:13:18.000Z</time>
      </trkpt>
      <trkpt lat="49.82906" lon="3.38738">
        <ele>108.74</ele>
        <time>2020-10-17T10:13:24.348Z</time>
      </trkpt>
      <trkpt lat="49.82904" lon="3.38752">
        <ele>108.53</ele>
        <time>2020-10-17T10:13:31.252Z</time>
      </trkpt>
      <trkpt lat="49.82903" lon="3.38766">
        <ele>108.32</ele>
        <time>2020-10-17T10:13:37.332Z</time>
      </trkpt>
      <trkpt lat="49.82901" lon="3.3878">
        <ele>108.13</ele>
        <time>2020-10-17T10:13:42.326Z</time>
      </trkpt>
      <trkpt lat="49.829" lon="3.38796">
        <ele>108</ele>
        <time>2020-10-17T10:13:47.269Z</time>
      </trkpt>
      <trkpt lat="49.82898" lon="3.38814">
        <ele>107.85</ele>
        <time>2020-10-17T10:13:52.769Z</time>
      </trkpt>
      <trkpt lat="49.82898" lon="3.38829">
        <ele>107.64</ele>
        <time>2020-10-17T10:13:58.132Z</time>
      </trkpt>
      <trkpt lat="49.82898" lon="3.38843">
        <ele>107.42</ele>
        <time>2020-10-17T10:14:03.266Z</time>
      </trkpt>
      <trkpt lat="49.82898" lon="3.38857">
        <ele>107.03</ele>
        <time>2020-10-17T10:14:09.465Z</time>
      </trkpt>
      <trkpt lat="49.82896" lon="3.38871">
        <ele>106.65</ele>
        <time>2020-10-17T10:14:16.192Z</time>
      </trkpt>
      <trkpt lat="49.82897" lon="3.38887">
        <ele>106.28</ele>
        <time>2020-10-17T10:14:23.445Z</time>
      </trkpt>
      <trkpt lat="49.82896" lon="3.38902">
        <ele>106.08</ele>
        <time>2020-10-17T10:14:29.135Z</time>
      </trkpt>
      <trkpt lat="49.82894" lon="3.38917">
        <ele>105.85</ele>
        <time>2020-10-17T10:14:34.849Z</time>
      </trkpt>
      <trkpt lat="49.82894" lon="3.3893">
        <ele>105.42</ele>
        <time>2020-10-17T10:14:41.000Z</time>
      </trkpt>
      <trkpt lat="49.82893" lon="3.38945">
        <ele>105.02</ele>
        <time>2020-10-17T10:14:47.000Z</time>
      </trkpt>
      <trkpt lat="49.82892" lon="3.38961">
        <ele>104.79</ele>
        <time>2020-10-17T10:14:52.791Z</time>
      </trkpt>
      <trkpt lat="49.82892" lon="3.38977">
        <ele>104.58</ele>
        <time>2020-10-17T10:14:58.310Z</time>
      </trkpt>
      <trkpt lat="49.82891" lon="3.38991">
        <ele>104.47</ele>
        <time>2020-10-17T10:15:03.350Z</time>
      </trkpt>
      <trkpt lat="49.82891" lon="3.39006">
        <ele>104.42</ele>
        <time>2020-10-17T10:15:08.981Z</time>
      </trkpt>
      <trkpt lat="49.8289" lon="3.3902">
        <ele>104.43</ele>
        <time>2020-10-17T10:15:14.327Z</time>
      </trkpt>
      <trkpt lat="49.8289" lon="3.39035">
        <ele>104.57</ele>
        <time>2020-10-17T10:15:20.708Z</time>
      </trkpt>
      <trkpt lat="49.82888" lon="3.39049">
        <ele>104.71</ele>
        <time>2020-10-17T10:15:27.309Z</time>
      </trkpt>
      <trkpt lat="49.82888" lon="3.39065">
        <ele>104.87</ele>
        <time>2020-10-17T10:15:34.000Z</time>
      </trkpt>
      <trkpt lat="49.82885" lon="3.3908">
        <ele>105.01</ele>
        <time>2020-10-17T10:15:39.926Z</time>
      </trkpt>
      <trkpt lat="49.82884" lon="3.39094">
        <ele>105.23</ele>
        <time>2020-10-17T10:15:45.927Z</time>
      </trkpt>
      <trkpt lat="49.82882" lon="3.39108">
        <ele>105.55</ele>
        <time>2020-10-17T10:15:52.000Z</time>
      </trkpt>
      <trkpt lat="49.8288" lon="3.39125">
        <ele>105.82</ele>
        <time>2020-10-17T10:15:58.000Z</time>
      </trkpt>
      <trkpt lat="49.8288" lon="3.39142">
        <ele>105.9</ele>
        <time>2020-10-17T10:16:03.852Z</time>
      </trkpt>
      <trkpt lat="49.82881" lon="3.39156">
        <ele>105.97</ele>
        <time>2020-10-17T10:16:09.291Z</time>
      </trkpt>
      <trkpt lat="49.8288" lon="3.39172">
        <ele>106.09</ele>
        <time>2020-10-17T10:16:14.670Z</time>
      </trkpt>
      <trkpt lat="49.8288" lon="3.39187">
        <ele>106.17</ele>
        <time>2020-10-17T10:16:20.113Z</time>
      </trkpt>
      <trkpt lat="49.8288" lon="3.39202">
        <ele>106.22</ele>
        <time>2020-10-17T10:16:24.709Z</time>
      </trkpt>
      <trkpt lat="49.82882" lon="3.39217">
        <ele>106.1</ele>
        <time>2020-10-17T10:16:30.529Z</time>
      </trkpt>
      <trkpt lat="49.82882" lon="3.39233">
        <ele>105.75</ele>
        <time>2020-10-17T10:16:38.366Z</time>
      </trkpt>
      <trkpt lat="49.82881" lon="3.39249">
        <ele>105.38</ele>
        <time>2020-10-17T10:16:46.000Z</time>
      </trkpt>
      <trkpt lat="49.8288" lon="3.39264">
        <ele>105.28</ele>
        <time>2020-10-17T10:16:52.230Z</time>
      </trkpt>
      <trkpt lat="49.82878" lon="3.39278">
        <ele>105.29</ele>
        <time>2020-10-17T10:16:58.841Z</time>
      </trkpt>
      <trkpt lat="49.82877" lon="3.39293">
        <ele>105.03</ele>
        <time>2020-10-17T10:17:06.000Z</time>
      </trkpt>
      <trkpt lat="49.82877" lon="3.39307">
        <ele>104.83</ele>
        <time>2020-10-17T10:17:15.000Z</time>
      </trkpt>
      <trkpt lat="49.8288" lon="3.3932">
        <ele>99.08</ele>
        <time>2020-10-17T10:20:00.000Z</time>
      </trkpt>
      <trkpt lat="49.82882" lon="3.39334">
        <ele>98.45</ele>
        <time>2020-10-17T10:20:13.000Z</time>
      </trkpt>
      <trkpt lat="49.82882" lon="3.39349">
        <ele>98.04</ele>
        <time>2020-10-17T10:20:30.000Z</time>
      </trkpt>
      <trkpt lat="49.82878" lon="3.39364">
        <ele>99.52</ele>
        <time>2020-10-17T10:21:25.000Z</time>
      </trkpt>
      <trkpt lat="49.82878" lon="3.39381">
        <ele>99.11</ele>
        <time>2020-10-17T10:21:32.000Z</time>
      </trkpt>
      <trkpt lat="49.82876" lon="3.39396">
        <ele>98.84</ele>
        <time>2020-10-17T10:21:36.486Z</time>
      </trkpt>
      <trkpt lat="49.82876" lon="3.39411">
        <ele>98.44</ele>
        <time>2020-10-17T10:21:42.547Z</time>
      </trkpt>
      <trkpt lat="49.82879" lon="3.39424">
        <ele>97.99</ele>
        <time>2020-10-17T10:21:52.681Z</time>
      </trkpt>
      <trkpt lat="49.8288" lon="3.39439">
        <ele>97.99</ele>
        <time>2020-10-17T10:22:01.000Z</time>
      </trkpt>
      <trkpt lat="49.8288" lon="3.39453">
        <ele>97.95</ele>
        <time>2020-10-17T10:22:07.971Z</time>
      </trkpt>
      <trkpt lat="49.8288" lon="3.39468">
        <ele>97.92</ele>
        <time>2020-10-17T10:22:14.287Z</time>
      </trkpt>
      <trkpt lat="49.8288" lon="3.39482">
        <ele>97.9</ele>
        <time>2020-10-17T10:22:19.781Z</time>
      </trkpt>
      <trkpt lat="49.82881" lon="3.39497">
        <ele>97.94</ele>
        <time>2020-10-17T10:22:26.311Z</time>
      </trkpt>
      <trkpt lat="49.82881" lon="3.39511">
        <ele>97.92</ele>
        <time>2020-10-17T10:22:32.185Z</time>
      </trkpt>
      <trkpt lat="49.82881" lon="3.39526">
        <ele>97.72</ele>
        <time>2020-10-17T10:22:38.000Z</time>
      </trkpt>
      <trkpt lat="49.82882" lon="3.39541">
        <ele>97.4</ele>
        <time>2020-10-17T10:22:43.000Z</time>
      </trkpt>
      <trkpt lat="49.82882" lon="3.39555">
        <ele>97.09</ele>
        <time>2020-10-17T10:22:49.000Z</time>
      </trkpt>
      <trkpt lat="49.82882" lon="3.3957">
        <ele>96.56</ele>
        <time>2020-10-17T10:22:54.549Z</time>
      </trkpt>
      <trkpt lat="49.82882" lon="3.39586">
        <ele>96.04</ele>
        <time>2020-10-17T10:23:00.623Z</time>
      </trkpt>
      <trkpt lat="49.82882" lon="3.39601">
        <ele>95.72</ele>
        <time>2020-10-17T10:23:06.748Z</time>
      </trkpt>
      <trkpt lat="49.82881" lon="3.39617">
        <ele>95.24</ele>
        <time>2020-10-17T10:23:13.000Z</time>
      </trkpt>
      <trkpt lat="49.82879" lon="3.39632">
        <ele>94.83</ele>
        <time>2020-10-17T10:23:17.050Z</time>
      </trkpt>
      <trkpt lat="49.82877" lon="3.39648">
        <ele>94.36</ele>
        <time>2020-10-17T10:23:23.000Z</time>
      </trkpt>
      <trkpt lat="49.82876" lon="3.39663">
        <ele>93.91</ele>
        <time>2020-10-17T10:23:27.651Z</time>
      </trkpt>
      <trkpt lat="49.82875" lon="3.39677">
        <ele>93.5</ele>
        <time>2020-10-17T10:23:32.471Z</time>
      </trkpt>
      <trkpt lat="49.82874" lon="3.39693">
        <ele>92.99</ele>
        <time>2020-10-17T10:23:38.266Z</time>
      </trkpt>
      <trkpt lat="49.82872" lon="3.39707">
        <ele>92.28</ele>
        <time>2020-10-17T10:23:44.166Z</time>
      </trkpt>
      <trkpt lat="49.8287" lon="3.39721">
        <ele>91.6</ele>
        <time>2020-10-17T10:23:49.667Z</time>
      </trkpt>
      <trkpt lat="49.82867" lon="3.39734">
        <ele>90.99</ele>
        <time>2020-10-17T10:23:55.112Z</time>
      </trkpt>
      <trkpt lat="49.82864" lon="3.39748">
        <ele>89.99</ele>
        <time>2020-10-17T10:24:02.000Z</time>
      </trkpt>
      <trkpt lat="49.82863" lon="3.39762">
        <ele>89.45</ele>
        <time>2020-10-17T10:24:08.000Z</time>
      </trkpt>
      <trkpt lat="49.82862" lon="3.39777">
        <ele>88.99</ele>
        <time>2020-10-17T10:24:13.969Z</time>
      </trkpt>
      <trkpt lat="49.82862" lon="3.39792">
        <ele>88.58</ele>
        <time>2020-10-17T10:24:20.744Z</time>
      </trkpt>
      <trkpt lat="49.8286" lon="3.39806">
        <ele>88.46</ele>
        <time>2020-10-17T10:24:28.000Z</time>
      </trkpt>
      <trkpt lat="49.82857" lon="3.39821">
        <ele>88.7</ele>
        <time>2020-10-17T10:24:35.731Z</time>
      </trkpt>
      <trkpt lat="49.82855" lon="3.39837">
        <ele>89.23</ele>
        <time>2020-10-17T10:24:44.000Z</time>
      </trkpt>
      <trkpt lat="49.82853" lon="3.3985">
        <ele>89.57</ele>
        <time>2020-10-17T10:24:50.000Z</time>
      </trkpt>
      <trkpt lat="49.82851" lon="3.39864">
        <ele>89.76</ele>
        <time>2020-10-17T10:24:55.004Z</time>
      </trkpt>
      <trkpt lat="49.82848" lon="3.39878">
        <ele>90.01</ele>
        <time>2020-10-17T10:25:00.769Z</time>
      </trkpt>
      <trkpt lat="49.82844" lon="3.39892">
        <ele>90.29</ele>
        <time>2020-10-17T10:25:07.092Z</time>
      </trkpt>
      <trkpt lat="49.8284" lon="3.39907">
        <ele>90.37</ele>
        <time>2020-10-17T10:25:13.309Z</time>
      </trkpt>
      <trkpt lat="49.82834" lon="3.39918">
        <ele>90.27</ele>
        <time>2020-10-17T10:25:19.853Z</time>
      </trkpt>
      <trkpt lat="49.8284" lon="3.39929">
        <ele>90.11</ele>
        <time>2020-10-17T10:25:27.186Z</time>
      </trkpt>
      <trkpt lat="49.82848" lon="3.39936">
        <ele>90.24</ele>
        <time>2020-10-17T10:25:32.000Z</time>
      </trkpt>
      <trkpt lat="49.8286" lon="3.39938">
        <ele>90.38</ele>
        <time>2020-10-17T10:25:37.000Z</time>
      </trkpt>
      <trkpt lat="49.82871" lon="3.39938">
        <ele>90.82</ele>
        <time>2020-10-17T10:25:43.000Z</time>
      </trkpt>
      <trkpt lat="49.8288" lon="3.39938">
        <ele>91.33</ele>
        <time>2020-10-17T10:25:47.090Z</time>
      </trkpt>
      <trkpt lat="49.82889" lon="3.39941">
        <ele>92.27</ele>
        <time>2020-10-17T10:25:52.546Z</time>
      </trkpt>
      <trkpt lat="49.82897" lon="3.39951">
        <ele>93.22</ele>
        <time>2020-10-17T10:25:59.125Z</time>
      </trkpt>
      <trkpt lat="49.829" lon="3.39964">
        <ele>93.76</ele>
        <time>2020-10-17T10:26:03.849Z</time>
      </trkpt>
      <trkpt lat="49.82905" lon="3.39978">
        <ele>94.31</ele>
        <time>2020-10-17T10:26:10.000Z</time>
      </trkpt>
      <trkpt lat="49.82908" lon="3.39992">
        <ele>95.1</ele>
        <time>2020-10-17T10:26:17.000Z</time>
      </trkpt>
      <trkpt lat="49.82912" lon="3.40005">
        <ele>95.64</ele>
        <time>2020-10-17T10:26:23.326Z</time>
      </trkpt>
      <trkpt lat="49.82915" lon="3.4002">
        <ele>96.02</ele>
        <time>2020-10-17T10:26:32.000Z</time>
      </trkpt>
      <trkpt lat="49.82919" lon="3.40033">
        <ele>96.06</ele>
        <time>2020-10-17T10:26:38.000Z</time>
      </trkpt>
      <trkpt lat="49.82923" lon="3.40049">
        <ele>95.99</ele>
        <time>2020-10-17T10:26:43.531Z</time>
      </trkpt>
      <trkpt lat="49.82925" lon="3.40064">
        <ele>95.91</ele>
        <time>2020-10-17T10:26:48.107Z</time>
      </trkpt>
      <trkpt lat="49.82927" lon="3.40078">
        <ele>95.82</ele>
        <time>2020-10-17T10:26:53.546Z</time>
      </trkpt>
      <trkpt lat="49.8292" lon="3.40086">
        <ele>95.29</ele>
        <time>2020-10-17T10:27:15.000Z</time>
      </trkpt>
      <trkpt lat="49.82919" lon="3.401">
        <ele>95.47</ele>
        <time>2020-10-17T10:29:02.000Z</time>
      </trkpt>
      <trkpt lat="49.8292" lon="3.40116">
        <ele>95.33</ele>
        <time>2020-10-17T10:29:13.000Z</time>
      </trkpt>
      <trkpt lat="49.82921" lon="3.40131">
        <ele>95.06</ele>
        <time>2020-10-17T10:29:22.000Z</time>
      </trkpt>
      <trkpt lat="49.82921" lon="3.40146">
        <ele>95.4</ele>
        <time>2020-10-17T10:29:31.000Z</time>
      </trkpt>
      <trkpt lat="49.82923" lon="3.40162">
        <ele>96.73</ele>
        <time>2020-10-17T10:29:41.000Z</time>
      </trkpt>
      <trkpt lat="49.82924" lon="3.40177">
        <ele>97.26</ele>
        <time>2020-10-17T10:29:45.692Z</time>
      </trkpt>
      <trkpt lat="49.82923" lon="3.40193">
        <ele>97.61</ele>
        <time>2020-10-17T10:29:50.151Z</time>
      </trkpt>
      <trkpt lat="49.82923" lon="3.40208">
        <ele>98.1</ele>
        <time>2020-10-17T10:29:54.784Z</time>
      </trkpt>
      <trkpt lat="49.82925" lon="3.40223">
        <ele>98.61</ele>
        <time>2020-10-17T10:29:59.607Z</time>
      </trkpt>
      <trkpt lat="49.82927" lon="3.40238">
        <ele>99.07</ele>
        <time>2020-10-17T10:30:06.000Z</time>
      </trkpt>
      <trkpt lat="49.8293" lon="3.40254">
        <ele>99.71</ele>
        <time>2020-10-17T10:30:14.214Z</time>
      </trkpt>
      <trkpt lat="49.82929" lon="3.40269">
        <ele>100.3</ele>
        <time>2020-10-17T10:30:21.000Z</time>
      </trkpt>
      <trkpt lat="49.82928" lon="3.40285">
        <ele>100.46</ele>
        <time>2020-10-17T10:30:27.292Z</time>
      </trkpt>
      <trkpt lat="49.82928" lon="3.40301">
        <ele>100.62</ele>
        <time>2020-10-17T10:30:33.648Z</time>
      </trkpt>
      <trkpt lat="49.82928" lon="3.40316">
        <ele>101.29</ele>
        <time>2020-10-17T10:30:41.000Z</time>
      </trkpt>
      <trkpt lat="49.82928" lon="3.40332">
        <ele>102.38</ele>
        <time>2020-10-17T10:30:49.807Z</time>
      </trkpt>
      <trkpt lat="49.82929" lon="3.40347">
        <ele>102.95</ele>
        <time>2020-10-17T10:30:54.832Z</time>
      </trkpt>
      <trkpt lat="49.8293" lon="3.40362">
        <ele>103.57</ele>
        <time>2020-10-17T10:31:00.806Z</time>
      </trkpt>
      <trkpt lat="49.82931" lon="3.40376">
        <ele>103.94</ele>
        <time>2020-10-17T10:31:06.245Z</time>
      </trkpt>
      <trkpt lat="49.82932" lon="3.40392">
        <ele>104.19</ele>
        <time>2020-10-17T10:31:10.328Z</time>
      </trkpt>
      <trkpt lat="49.82934" lon="3.40412">
        <ele>104.36</ele>
        <time>2020-10-17T10:31:14.330Z</time>
      </trkpt>
      <trkpt lat="49.82936" lon="3.40426">
        <ele>104.32</ele>
        <time>2020-10-17T10:31:19.248Z</time>
      </trkpt>
      <trkpt lat="49.82939" lon="3.4044">
        <ele>104.22</ele>
        <time>2020-10-17T10:31:26.201Z</time>
      </trkpt>
      <trkpt lat="49.82942" lon="3.40454">
        <ele>104.2</ele>
        <time>2020-10-17T10:31:32.770Z</time>
      </trkpt>
      <trkpt lat="49.82945" lon="3.40472">
        <ele>104.15</ele>
        <time>2020-10-17T10:31:38.000Z</time>
      </trkpt>
      <trkpt lat="49.82948" lon="3.40493">
        <ele>104.05</ele>
        <time>2020-10-17T10:31:43.000Z</time>
      </trkpt>
      <trkpt lat="49.8295" lon="3.40508">
        <ele>103.78</ele>
        <time>2020-10-17T10:31:51.000Z</time>
      </trkpt>
      <trkpt lat="49.8295" lon="3.40523">
        <ele>103.55</ele>
        <time>2020-10-17T10:31:57.846Z</time>
      </trkpt>
      <trkpt lat="49.8295" lon="3.40537">
        <ele>103.42</ele>
        <time>2020-10-17T10:32:03.807Z</time>
      </trkpt>
      <trkpt lat="49.8295" lon="3.40553">
        <ele>103.15</ele>
        <time>2020-10-17T10:32:11.000Z</time>
      </trkpt>
      <trkpt lat="49.82952" lon="3.40567">
        <ele>103.08</ele>
        <time>2020-10-17T10:32:15.325Z</time>
      </trkpt>
      <trkpt lat="49.82954" lon="3.40583">
        <ele>102.93</ele>
        <time>2020-10-17T10:32:22.000Z</time>
      </trkpt>
      <trkpt lat="49.82955" lon="3.40597">
        <ele>102.76</ele>
        <time>2020-10-17T10:32:27.885Z</time>
      </trkpt>
      <trkpt lat="49.82957" lon="3.40612">
        <ele>102.65</ele>
        <time>2020-10-17T10:32:35.086Z</time>
      </trkpt>
      <trkpt lat="49.82959" lon="3.40627">
        <ele>102.47</ele>
        <time>2020-10-17T10:32:41.000Z</time>
      </trkpt>
      <trkpt lat="49.82961" lon="3.40642">
        <ele>102.24</ele>
        <time>2020-10-17T10:32:45.725Z</time>
      </trkpt>
      <trkpt lat="49.82961" lon="3.40657">
        <ele>101.95</ele>
        <time>2020-10-17T10:32:52.769Z</time>
      </trkpt>
      <trkpt lat="49.82963" lon="3.40672">
        <ele>101.74</ele>
        <time>2020-10-17T10:32:57.810Z</time>
      </trkpt>
      <trkpt lat="49.82963" lon="3.40687">
        <ele>101.61</ele>
        <time>2020-10-17T10:33:03.654Z</time>
      </trkpt>
      <trkpt lat="49.82963" lon="3.40702">
        <ele>101.62</ele>
        <time>2020-10-17T10:33:08.552Z</time>
      </trkpt>
      <trkpt lat="49.82964" lon="3.40718">
        <ele>101.62</ele>
        <time>2020-10-17T10:33:13.605Z</time>
      </trkpt>
      <trkpt lat="49.82964" lon="3.40733">
        <ele>101.57</ele>
        <time>2020-10-17T10:33:21.000Z</time>
      </trkpt>
      <trkpt lat="49.82963" lon="3.40749">
        <ele>101.25</ele>
        <time>2020-10-17T10:33:28.000Z</time>
      </trkpt>
      <trkpt lat="49.82964" lon="3.40763">
        <ele>101.06</ele>
        <time>2020-10-17T10:33:33.000Z</time>
      </trkpt>
      <trkpt lat="49.82964" lon="3.40777">
        <ele>100.78</ele>
        <time>2020-10-17T10:33:38.000Z</time>
      </trkpt>
      <trkpt lat="49.82964" lon="3.40793">
        <ele>100.63</ele>
        <time>2020-10-17T10:33:43.148Z</time>
      </trkpt>
      <trkpt lat="49.82964" lon="3.40807">
        <ele>100.55</ele>
        <time>2020-10-17T10:33:50.134Z</time>
      </trkpt>
      <trkpt lat="49.82963" lon="3.40824">
        <ele>100.2</ele>
        <time>2020-10-17T10:33:58.000Z</time>
      </trkpt>
      <trkpt lat="49.82963" lon="3.40838">
        <ele>99.83</ele>
        <time>2020-10-17T10:34:03.000Z</time>
      </trkpt>
      <trkpt lat="49.82963" lon="3.40856">
        <ele>99.47</ele>
        <time>2020-10-17T10:34:07.182Z</time>
      </trkpt>
      <trkpt lat="49.82962" lon="3.40875">
        <ele>99.11</ele>
        <time>2020-10-17T10:34:11.928Z</time>
      </trkpt>
      <trkpt lat="49.82962" lon="3.40891">
        <ele>98.55</ele>
        <time>2020-10-17T10:34:16.248Z</time>
      </trkpt>
      <trkpt lat="49.82963" lon="3.40905">
        <ele>97.85</ele>
        <time>2020-10-17T10:34:21.072Z</time>
      </trkpt>
      <trkpt lat="49.82964" lon="3.40921">
        <ele>96.99</ele>
        <time>2020-10-17T10:34:28.000Z</time>
      </trkpt>
      <trkpt lat="49.82966" lon="3.40936">
        <ele>96.39</ele>
        <time>2020-10-17T10:34:35.000Z</time>
      </trkpt>
      <trkpt lat="49.82966" lon="3.40951">
        <ele>96.12</ele>
        <time>2020-10-17T10:34:42.134Z</time>
      </trkpt>
      <trkpt lat="49.82967" lon="3.40967">
        <ele>95.75</ele>
        <time>2020-10-17T10:34:50.000Z</time>
      </trkpt>
      <trkpt lat="49.82967" lon="3.40981">
        <ele>95.51</ele>
        <time>2020-10-17T10:34:55.771Z</time>
      </trkpt>
      <trkpt lat="49.82966" lon="3.40998">
        <ele>95.53</ele>
        <time>2020-10-17T10:35:00.210Z</time>
      </trkpt>
      <trkpt lat="49.82964" lon="3.41012">
        <ele>95.76</ele>
        <time>2020-10-17T10:35:04.306Z</time>
      </trkpt>
      <trkpt lat="49.82963" lon="3.41027">
        <ele>96.4</ele>
        <time>2020-10-17T10:35:11.195Z</time>
      </trkpt>
      <trkpt lat="49.82963" lon="3.41042">
        <ele>97.13</ele>
        <time>2020-10-17T10:35:17.645Z</time>
      </trkpt>
      <trkpt lat="49.82961" lon="3.41058">
        <ele>97.98</ele>
        <time>2020-10-17T10:35:25.000Z</time>
      </trkpt>
      <trkpt lat="49.82957" lon="3.41073">
        <ele>98.65</ele>
        <time>2020-10-17T10:35:30.632Z</time>
      </trkpt>
      <trkpt lat="49.82955" lon="3.41088">
        <ele>99.43</ele>
        <time>2020-10-17T10:35:38.000Z</time>
      </trkpt>
      <trkpt lat="49.82953" lon="3.41102">
        <ele>100.07</ele>
        <time>2020-10-17T10:35:44.000Z</time>
      </trkpt>
      <trkpt lat="49.82951" lon="3.41117">
        <ele>100.65</ele>
        <time>2020-10-17T10:35:49.641Z</time>
      </trkpt>
      <trkpt lat="49.8295" lon="3.41132">
        <ele>101.19</ele>
        <time>2020-10-17T10:35:56.265Z</time>
      </trkpt>
      <trkpt lat="49.82948" lon="3.41146">
        <ele>101.59</ele>
        <time>2020-10-17T10:36:01.928Z</time>
      </trkpt>
      <trkpt lat="49.82948" lon="3.41162">
        <ele>101.84</ele>
        <time>2020-10-17T10:36:07.000Z</time>
      </trkpt>
      <trkpt lat="49.82945" lon="3.41176">
        <ele>102.12</ele>
        <time>2020-10-17T10:36:12.169Z</time>
      </trkpt>
      <trkpt lat="49.82942" lon="3.41189">
        <ele>102.32</ele>
        <time>2020-10-17T10:36:19.000Z</time>
      </trkpt>
      <trkpt lat="49.8294" lon="3.41203">
        <ele>102.44</ele>
        <time>2020-10-17T10:36:23.867Z</time>
      </trkpt>
      <trkpt lat="49.82937" lon="3.41217">
        <ele>102.47</ele>
        <time>2020-10-17T10:36:29.000Z</time>
      </trkpt>
      <trkpt lat="49.82932" lon="3.41232">
        <ele>102.28</ele>
        <time>2020-10-17T10:36:34.000Z</time>
      </trkpt>
      <trkpt lat="49.8293" lon="3.41247">
        <ele>102.03</ele>
        <time>2020-10-17T10:36:39.439Z</time>
      </trkpt>
      <trkpt lat="49.82926" lon="3.41261">
        <ele>101.87</ele>
        <time>2020-10-17T10:36:45.790Z</time>
      </trkpt>
      <trkpt lat="49.82924" lon="3.41275">
        <ele>101.9</ele>
        <time>2020-10-17T10:36:51.934Z</time>
      </trkpt>
      <trkpt lat="49.82925" lon="3.41291">
        <ele>101.94</ele>
        <time>2020-10-17T10:36:59.265Z</time>
      </trkpt>
      <trkpt lat="49.82925" lon="3.41306">
        <ele>101.89</ele>
        <time>2020-10-17T10:37:07.000Z</time>
      </trkpt>
      <trkpt lat="49.82925" lon="3.41321">
        <ele>101.63</ele>
        <time>2020-10-17T10:37:14.000Z</time>
      </trkpt>
      <trkpt lat="49.82923" lon="3.41338">
        <ele>101.42</ele>
        <time>2020-10-17T10:37:19.603Z</time>
      </trkpt>
      <trkpt lat="49.82922" lon="3.41355">
        <ele>101.53</ele>
        <time>2020-10-17T10:37:24.447Z</time>
      </trkpt>
      <trkpt lat="49.82922" lon="3.41376">
        <ele>101.59</ele>
        <time>2020-10-17T10:37:29.009Z</time>
      </trkpt>
      <trkpt lat="49.82924" lon="3.41396">
        <ele>101.52</ele>
        <time>2020-10-17T10:37:34.000Z</time>
      </trkpt>
      <trkpt lat="49.82925" lon="3.41411">
        <ele>101.38</ele>
        <time>2020-10-17T10:37:39.000Z</time>
      </trkpt>
      <trkpt lat="49.82926" lon="3.41425">
        <ele>101.12</ele>
        <time>2020-10-17T10:37:45.000Z</time>
      </trkpt>
      <trkpt lat="49.82927" lon="3.4144">
        <ele>100.85</ele>
        <time>2020-10-17T10:37:51.149Z</time>
      </trkpt>
      <trkpt lat="49.8293" lon="3.41454">
        <ele>100.72</ele>
        <time>2020-10-17T10:37:57.431Z</time>
      </trkpt>
      <trkpt lat="49.82932" lon="3.41469">
        <ele>100.7</ele>
        <time>2020-10-17T10:38:04.016Z</time>
      </trkpt>
      <trkpt lat="49.82936" lon="3.41481">
        <ele>100.94</ele>
        <time>2020-10-17T10:38:11.428Z</time>
      </trkpt>
      <trkpt lat="49.82937" lon="3.41496">
        <ele>101.24</ele>
        <time>2020-10-17T10:38:16.583Z</time>
      </trkpt>
      <trkpt lat="49.82936" lon="3.4151">
        <ele>101.62</ele>
        <time>2020-10-17T10:38:22.868Z</time>
      </trkpt>
      <trkpt lat="49.82936" lon="3.41524">
        <ele>102.01</ele>
        <time>2020-10-17T10:38:29.224Z</time>
      </trkpt>
      <trkpt lat="49.82936" lon="3.41538">
        <ele>102.39</ele>
        <time>2020-10-17T10:38:35.000Z</time>
      </trkpt>
      <trkpt lat="49.82936" lon="3.41552">
        <ele>102.65</ele>
        <time>2020-10-17T10:38:39.091Z</time>
      </trkpt>
      <trkpt lat="49.82936" lon="3.4157">
        <ele>102.82</ele>
        <time>2020-10-17T10:38:43.784Z</time>
      </trkpt>
      <trkpt lat="49.82936" lon="3.41588">
        <ele>102.91</ele>
        <time>2020-10-17T10:38:47.883Z</time>
      </trkpt>
      <trkpt lat="49.82935" lon="3.41603">
        <ele>102.95</ele>
        <time>2020-10-17T10:38:54.000Z</time>
      </trkpt>
      <trkpt lat="49.82934" lon="3.41617">
        <ele>102.86</ele>
        <time>2020-10-17T10:39:01.271Z</time>
      </trkpt>
      <trkpt lat="49.82935" lon="3.41632">
        <ele>102.65</ele>
        <time>2020-10-17T10:39:09.000Z</time>
      </trkpt>
      <trkpt lat="49.82936" lon="3.41645">
        <ele>102.71</ele>
        <time>2020-10-17T10:39:14.000Z</time>
      </trkpt>
      <trkpt lat="49.82938" lon="3.41661">
        <ele>102.81</ele>
        <time>2020-10-17T10:39:18.236Z</time>
      </trkpt>
      <trkpt lat="49.82938" lon="3.41676">
        <ele>102.98</ele>
        <time>2020-10-17T10:39:22.710Z</time>
      </trkpt>
      <trkpt lat="49.82937" lon="3.4169">
        <ele>103.14</ele>
        <time>2020-10-17T10:39:27.569Z</time>
      </trkpt>
      <trkpt lat="49.82936" lon="3.41704">
        <ele>103.26</ele>
        <time>2020-10-17T10:39:35.000Z</time>
      </trkpt>
      <trkpt lat="49.82936" lon="3.41719">
        <ele>103.36</ele>
        <time>2020-10-17T10:39:42.000Z</time>
      </trkpt>
      <trkpt lat="49.82935" lon="3.41735">
        <ele>103.33</ele>
        <time>2020-10-17T10:39:49.000Z</time>
      </trkpt>
      <trkpt lat="49.82935" lon="3.41749">
        <ele>103.42</ele>
        <time>2020-10-17T10:39:53.629Z</time>
      </trkpt>
      <trkpt lat="49.82935" lon="3.41763">
        <ele>103.54</ele>
        <time>2020-10-17T10:39:59.345Z</time>
      </trkpt>
      <trkpt lat="49.82935" lon="3.41778">
        <ele>103.76</ele>
        <time>2020-10-17T10:40:06.287Z</time>
      </trkpt>
      <trkpt lat="49.82935" lon="3.41792">
        <ele>104.09</ele>
        <time>2020-10-17T10:40:14.000Z</time>
      </trkpt>
      <trkpt lat="49.82935" lon="3.41807">
        <ele>104.28</ele>
        <time>2020-10-17T10:40:18.868Z</time>
      </trkpt>
      <trkpt lat="49.82934" lon="3.41824">
        <ele>104.44</ele>
        <time>2020-10-17T10:40:23.071Z</time>
      </trkpt>
      <trkpt lat="49.82932" lon="3.41838">
        <ele>104.62</ele>
        <time>2020-10-17T10:40:28.000Z</time>
      </trkpt>
      <trkpt lat="49.82932" lon="3.41853">
        <ele>104.88</ele>
        <time>2020-10-17T10:40:33.589Z</time>
      </trkpt>
      <trkpt lat="49.82931" lon="3.41868">
        <ele>105.35</ele>
        <time>2020-10-17T10:40:41.000Z</time>
      </trkpt>
      <trkpt lat="49.8293" lon="3.41882">
        <ele>105.8</ele>
        <time>2020-10-17T10:40:47.000Z</time>
      </trkpt>
      <trkpt lat="49.8293" lon="3.41897">
        <ele>106.18</ele>
        <time>2020-10-17T10:40:52.285Z</time>
      </trkpt>
      <trkpt lat="49.82925" lon="3.4191">
        <ele>106.8</ele>
        <time>2020-10-17T10:41:00.265Z</time>
      </trkpt>
      <trkpt lat="49.82926" lon="3.41925">
        <ele>107.19</ele>
        <time>2020-10-17T10:41:08.309Z</time>
      </trkpt>
      <trkpt lat="49.82925" lon="3.41941">
        <ele>107.42</ele>
        <time>2020-10-17T10:41:14.132Z</time>
      </trkpt>
      <trkpt lat="49.82925" lon="3.41958">
        <ele>107.52</ele>
        <time>2020-10-17T10:41:18.229Z</time>
      </trkpt>
      <trkpt lat="49.82925" lon="3.41977">
        <ele>107.65</ele>
        <time>2020-10-17T10:41:22.595Z</time>
      </trkpt>
      <trkpt lat="49.82925" lon="3.41994">
        <ele>107.74</ele>
        <time>2020-10-17T10:41:27.625Z</time>
      </trkpt>
      <trkpt lat="49.82925" lon="3.42008">
        <ele>107.74</ele>
        <time>2020-10-17T10:41:32.766Z</time>
      </trkpt>
      <trkpt lat="49.82925" lon="3.42022">
        <ele>107.7</ele>
        <time>2020-10-17T10:41:39.000Z</time>
      </trkpt>
      <trkpt lat="49.82924" lon="3.42039">
        <ele>107.65</ele>
        <time>2020-10-17T10:41:46.000Z</time>
      </trkpt>
      <trkpt lat="49.82922" lon="3.42054">
        <ele>107.7</ele>
        <time>2020-10-17T10:41:51.631Z</time>
      </trkpt>
      <trkpt lat="49.82921" lon="3.42068">
        <ele>107.92</ele>
        <time>2020-10-17T10:41:57.811Z</time>
      </trkpt>
      <trkpt lat="49.82923" lon="3.42083">
        <ele>108.53</ele>
        <time>2020-10-17T10:42:05.488Z</time>
      </trkpt>
      <trkpt lat="49.82921" lon="3.42098">
        <ele>109.19</ele>
        <time>2020-10-17T10:42:13.000Z</time>
      </trkpt>
      <trkpt lat="49.82921" lon="3.42112">
        <ele>109.62</ele>
        <time>2020-10-17T10:42:20.000Z</time>
      </trkpt>
      <trkpt lat="49.82922" lon="3.42127">
        <ele>109.8</ele>
        <time>2020-10-17T10:42:28.000Z</time>
      </trkpt>
      <trkpt lat="49.82921" lon="3.42142">
        <ele>109.75</ele>
        <time>2020-10-17T10:42:34.000Z</time>
      </trkpt>
      <trkpt lat="49.82923" lon="3.42156">
        <ele>109.65</ele>
        <time>2020-10-17T10:42:40.047Z</time>
      </trkpt>
      <trkpt lat="49.82923" lon="3.4217">
        <ele>109.62</ele>
        <time>2020-10-17T10:42:46.250Z</time>
      </trkpt>
      <trkpt lat="49.82925" lon="3.42184">
        <ele>109.31</ele>
        <time>2020-10-17T10:42:53.999Z</time>
      </trkpt>
      <trkpt lat="49.82926" lon="3.42199">
        <ele>109.08</ele>
        <time>2020-10-17T10:43:02.004Z</time>
      </trkpt>
      <trkpt lat="49.82928" lon="3.42213">
        <ele>108.72</ele>
        <time>2020-10-17T10:43:09.327Z</time>
      </trkpt>
      <trkpt lat="49.82929" lon="3.42227">
        <ele>108.21</ele>
        <time>2020-10-17T10:43:15.088Z</time>
      </trkpt>
      <trkpt lat="49.82931" lon="3.42242">
        <ele>107.7</ele>
        <time>2020-10-17T10:43:20.999Z</time>
      </trkpt>
      <trkpt lat="49.82933" lon="3.42257">
        <ele>107.29</ele>
        <time>2020-10-17T10:43:25.999Z</time>
      </trkpt>
      <trkpt lat="49.82935" lon="3.42272">
        <ele>106.79</ele>
        <time>2020-10-17T10:43:31.999Z</time>
      </trkpt>
      <trkpt lat="49.82936" lon="3.42288">
        <ele>105.25</ele>
        <time>2020-10-17T10:43:39.536Z</time>
      </trkpt>
      <trkpt lat="49.82932" lon="3.42301">
        <ele>103.84</ele>
        <time>2020-10-17T10:43:45.769Z</time>
      </trkpt>
      <trkpt lat="49.82934" lon="3.42316">
        <ele>101.86</ele>
        <time>2020-10-17T10:43:53.999Z</time>
      </trkpt>
      <trkpt lat="49.82937" lon="3.42329">
        <ele>100.55</ele>
        <time>2020-10-17T10:44:00.058Z</time>
      </trkpt>
      <trkpt lat="49.8294" lon="3.42344">
        <ele>99.35</ele>
        <time>2020-10-17T10:44:06.999Z</time>
      </trkpt>
      <trkpt lat="49.82943" lon="3.42357">
        <ele>98.66</ele>
        <time>2020-10-17T10:44:12.470Z</time>
      </trkpt>
      <trkpt lat="49.82944" lon="3.42373">
        <ele>97.96</ele>
        <time>2020-10-17T10:44:18.612Z</time>
      </trkpt>
      <trkpt lat="49.82947" lon="3.42388">
        <ele>97.41</ele>
        <time>2020-10-17T10:44:23.629Z</time>
      </trkpt>
      <trkpt lat="49.8295" lon="3.42408">
        <ele>96.8</ele>
        <time>2020-10-17T10:44:27.999Z</time>
      </trkpt>
      <trkpt lat="49.8295" lon="3.4243">
        <ele>96.12</ele>
        <time>2020-10-17T10:44:32.270Z</time>
      </trkpt>
      <trkpt lat="49.82949" lon="3.42444">
        <ele>95.49</ele>
        <time>2020-10-17T10:44:36.449Z</time>
      </trkpt>
      <trkpt lat="49.82949" lon="3.42458">
        <ele>94.49</ele>
        <time>2020-10-17T10:44:44.254Z</time>
      </trkpt>
      <trkpt lat="49.82945" lon="3.42471">
        <ele>93.91</ele>
        <time>2020-10-17T10:44:51.074Z</time>
      </trkpt>
      <trkpt lat="49.82948" lon="3.42487">
        <ele>93.11</ele>
        <time>2020-10-17T10:44:58.999Z</time>
      </trkpt>
      <trkpt lat="49.82952" lon="3.425">
        <ele>92.6</ele>
        <time>2020-10-17T10:45:03.230Z</time>
      </trkpt>
      <trkpt lat="49.82956" lon="3.42518">
        <ele>92.11</ele>
        <time>2020-10-17T10:45:07.999Z</time>
      </trkpt>
      <trkpt lat="49.82962" lon="3.42536">
        <ele>91.6</ele>
        <time>2020-10-17T10:45:12.999Z</time>
      </trkpt>
      <trkpt lat="49.8297" lon="3.42549">
        <ele>91.07</ele>
        <time>2020-10-17T10:45:17.493Z</time>
      </trkpt>
      <trkpt lat="49.8298" lon="3.42557">
        <ele>90.24</ele>
        <time>2020-10-17T10:45:21.866Z</time>
      </trkpt>
      <trkpt lat="49.82987" lon="3.42566">
        <ele>89.56</ele>
        <time>2020-10-17T10:45:26.490Z</time>
      </trkpt>
      <trkpt lat="49.82995" lon="3.42573">
        <ele>89.02</ele>
        <time>2020-10-17T10:45:31.368Z</time>
      </trkpt>
      <trkpt lat="49.83003" lon="3.42582">
        <ele>88.11</ele>
        <time>2020-10-17T10:45:40.571Z</time>
      </trkpt>
      <trkpt lat="49.8301" lon="3.42592">
        <ele>87.4</ele>
        <time>2020-10-17T10:45:49.255Z</time>
      </trkpt>
      <trkpt lat="49.8302" lon="3.42598">
        <ele>87.49</ele>
        <time>2020-10-17T10:45:56.411Z</time>
      </trkpt>
      <trkpt lat="49.83028" lon="3.42604">
        <ele>88.16</ele>
        <time>2020-10-17T10:46:02.913Z</time>
      </trkpt>
      <trkpt lat="49.83034" lon="3.42616">
        <ele>88.63</ele>
        <time>2020-10-17T10:46:09.351Z</time>
      </trkpt>
      <trkpt lat="49.83039" lon="3.42628">
        <ele>88.75</ele>
        <time>2020-10-17T10:46:13.714Z</time>
      </trkpt>
      <trkpt lat="49.83045" lon="3.4264">
        <ele>88.45</ele>
        <time>2020-10-17T10:46:18.999Z</time>
      </trkpt>
      <trkpt lat="49.83051" lon="3.4265">
        <ele>87.93</ele>
        <time>2020-10-17T10:46:25.066Z</time>
      </trkpt>
      <trkpt lat="49.83057" lon="3.42663">
        <ele>86.63</ele>
        <time>2020-10-17T10:46:33.999Z</time>
      </trkpt>
      <trkpt lat="49.83063" lon="3.42674">
        <ele>85.67</ele>
        <time>2020-10-17T10:46:39.474Z</time>
      </trkpt>
      <trkpt lat="49.83069" lon="3.42686">
        <ele>84.84</ele>
        <time>2020-10-17T10:46:47.052Z</time>
      </trkpt>
      <trkpt lat="49.83073" lon="3.42703">
        <ele>84.58</ele>
        <time>2020-10-17T10:46:52.454Z</time>
      </trkpt>
      <trkpt lat="49.83071" lon="3.42718">
        <ele>84.61</ele>
        <time>2020-10-17T10:46:57.313Z</time>
      </trkpt>
      <trkpt lat="49.83068" lon="3.42732">
        <ele>84.87</ele>
        <time>2020-10-17T10:47:03.048Z</time>
      </trkpt>
      <trkpt lat="49.83064" lon="3.42745">
        <ele>84.85</ele>
        <time>2020-10-17T10:47:09.309Z</time>
      </trkpt>
      <trkpt lat="49.83058" lon="3.42756">
        <ele>84.76</ele>
        <time>2020-10-17T10:47:14.971Z</time>
      </trkpt>
      <trkpt lat="49.83051" lon="3.42767">
        <ele>84.71</ele>
        <time>2020-10-17T10:47:20.092Z</time>
      </trkpt>
      <trkpt lat="49.83045" lon="3.42777">
        <ele>85</ele>
        <time>2020-10-17T10:47:24.830Z</time>
      </trkpt>
      <trkpt lat="49.83039" lon="3.42789">
        <ele>85.61</ele>
        <time>2020-10-17T10:47:29.247Z</time>
      </trkpt>
      <trkpt lat="49.83031" lon="3.42804">
        <ele>86.13</ele>
        <time>2020-10-17T10:47:33.999Z</time>
      </trkpt>
      <trkpt lat="49.83024" lon="3.42816">
        <ele>86.39</ele>
        <time>2020-10-17T10:47:38.472Z</time>
      </trkpt>
      <trkpt lat="49.83017" lon="3.42825">
        <ele>86.83</ele>
        <time>2020-10-17T10:47:45.999Z</time>
      </trkpt>
      <trkpt lat="49.83009" lon="3.42834">
        <ele>75.08</ele>
        <time>2020-10-17T10:47:53.999Z</time>
      </trkpt>
      <trkpt lat="49.83003" lon="3.42846">
        <ele>75.08</ele>
        <time>2020-10-17T10:48:00.713Z</time>
      </trkpt>
      <trkpt lat="49.82997" lon="3.42858">
        <ele>75.08</ele>
        <time>2020-10-17T10:48:07.229Z</time>
      </trkpt>
      <trkpt lat="49.82988" lon="3.42858">
        <ele>76.73</ele>
        <time>2020-10-17T10:48:14.314Z</time>
      </trkpt>
      <trkpt lat="49.82979" lon="3.42861">
        <ele>77.28</ele>
        <time>2020-10-17T10:48:20.999Z</time>
      </trkpt>
      <trkpt lat="49.82968" lon="3.4286">
        <ele>77.28</ele>
        <time>2020-10-17T10:48:25.999Z</time>
      </trkpt>
      <trkpt lat="49.82958" lon="3.42855">
        <ele>77.28</ele>
        <time>2020-10-17T10:48:31.337Z</time>
      </trkpt>
      <trkpt lat="49.82949" lon="3.42853">
        <ele>77.28</ele>
        <time>2020-10-17T10:48:37.276Z</time>
      </trkpt>
      <trkpt lat="49.82939" lon="3.42857">
        <ele>77.28</ele>
        <time>2020-10-17T10:48:43.999Z</time>
      </trkpt>
      <trkpt lat="49.8293" lon="3.42864">
        <ele>77.28</ele>
        <time>2020-10-17T10:48:48.337Z</time>
      </trkpt>
      <trkpt lat="49.82921" lon="3.42873">
        <ele>77.28</ele>
        <time>2020-10-17T10:48:52.789Z</time>
      </trkpt>
      <trkpt lat="49.82913" lon="3.42884">
        <ele>77.28</ele>
        <time>2020-10-17T10:48:57.193Z</time>
      </trkpt>
      <trkpt lat="49.82906" lon="3.42897">
        <ele>77.28</ele>
        <time>2020-10-17T10:49:01.393Z</time>
      </trkpt>
      <trkpt lat="49.82901" lon="3.4291">
        <ele>77.28</ele>
        <time>2020-10-17T10:49:05.451Z</time>
      </trkpt>
      <trkpt lat="49.82895" lon="3.42923">
        <ele>77.28</ele>
        <time>2020-10-17T10:49:12.999Z</time>
      </trkpt>
      <trkpt lat="49.82888" lon="3.42938">
        <ele>79.72</ele>
        <time>2020-10-17T10:49:17.549Z</time>
      </trkpt>
      <trkpt lat="49.82882" lon="3.42951">
        <ele>79.88</ele>
        <time>2020-10-17T10:49:21.951Z</time>
      </trkpt>
      <trkpt lat="49.82875" lon="3.42962">
        <ele>80.47</ele>
        <time>2020-10-17T10:49:28.999Z</time>
      </trkpt>
      <trkpt lat="49.82868" lon="3.42971">
        <ele>80.96</ele>
        <time>2020-10-17T10:49:34.999Z</time>
      </trkpt>
      <trkpt lat="49.82861" lon="3.42982">
        <ele>80.86</ele>
        <time>2020-10-17T10:49:40.449Z</time>
      </trkpt>
      <trkpt lat="49.82855" lon="3.42995">
        <ele>79.79</ele>
        <time>2020-10-17T10:49:46.994Z</time>
      </trkpt>
      <trkpt lat="49.82849" lon="3.43007">
        <ele>79.84</ele>
        <time>2020-10-17T10:49:51.614Z</time>
      </trkpt>
      <trkpt lat="49.8284" lon="3.43018">
        <ele>79.68</ele>
        <time>2020-10-17T10:49:55.999Z</time>
      </trkpt>
      <trkpt lat="49.82833" lon="3.43029">
        <ele>79.29</ele>
        <time>2020-10-17T10:50:00.606Z</time>
      </trkpt>
      <trkpt lat="49.82826" lon="3.43039">
        <ele>78.39</ele>
        <time>2020-10-17T10:50:07.892Z</time>
      </trkpt>
      <trkpt lat="49.82822" lon="3.43052">
        <ele>77.38</ele>
        <time>2020-10-17T10:50:14.531Z</time>
      </trkpt>
      <trkpt lat="49.82815" lon="3.43063">
        <ele>76.29</ele>
        <time>2020-10-17T10:50:20.666Z</time>
      </trkpt>
      <trkpt lat="49.82809" lon="3.43074">
        <ele>75.42</ele>
        <time>2020-10-17T10:50:26.009Z</time>
      </trkpt>
      <trkpt lat="49.82803" lon="3.43086">
        <ele>74.64</ele>
        <time>2020-10-17T10:50:30.294Z</time>
      </trkpt>
      <trkpt lat="49.82796" lon="3.43098">
        <ele>73.69</ele>
        <time>2020-10-17T10:50:34.415Z</time>
      </trkpt>
      <trkpt lat="49.82788" lon="3.43111">
        <ele>72.29</ele>
        <time>2020-10-17T10:50:39.728Z</time>
      </trkpt>
      <trkpt lat="49.82782" lon="3.43122">
        <ele>71.3</ele>
        <time>2020-10-17T10:50:44.267Z</time>
      </trkpt>
      <trkpt lat="49.82777" lon="3.43135">
        <ele>69.85</ele>
        <time>2020-10-17T10:50:50.999Z</time>
      </trkpt>
      <trkpt lat="49.82771" lon="3.43146">
        <ele>68.86</ele>
        <time>2020-10-17T10:50:57.999Z</time>
      </trkpt>
      <trkpt lat="49.82767" lon="3.43158">
        <ele>68.02</ele>
        <time>2020-10-17T10:51:03.709Z</time>
      </trkpt>
      <trkpt lat="49.82763" lon="3.43171">
        <ele>67.33</ele>
        <time>2020-10-17T10:51:09.834Z</time>
      </trkpt>
      <trkpt lat="49.82766" lon="3.43184">
        <ele>67.12</ele>
        <time>2020-10-17T10:51:17.287Z</time>
      </trkpt>
      <trkpt lat="49.82771" lon="3.43196">
        <ele>67.82</ele>
        <time>2020-10-17T10:51:25.536Z</time>
      </trkpt>
      <trkpt lat="49.82772" lon="3.4321">
        <ele>68.61</ele>
        <time>2020-10-17T10:51:33.312Z</time>
      </trkpt>
      <trkpt lat="49.82778" lon="3.43199">
        <ele>77.44</ele>
        <time>2020-10-17T10:53:59.999Z</time>
      </trkpt>
      <trkpt lat="49.82774" lon="3.43213">
        <ele>79.29</ele>
        <time>2020-10-17T10:54:26.522Z</time>
      </trkpt>
      <trkpt lat="49.82775" lon="3.4323">
        <ele>79.87</ele>
        <time>2020-10-17T10:54:32.999Z</time>
      </trkpt>
      <trkpt lat="49.82776" lon="3.43214">
        <ele>73.38</ele>
        <time>2020-10-17T10:56:34.393Z</time>
      </trkpt>
      <trkpt lat="49.82771" lon="3.43227">
        <ele>67.81</ele>
        <time>2020-10-17T10:57:16.509Z</time>
      </trkpt>
      <trkpt lat="49.82768" lon="3.43213">
        <ele>68.61</ele>
        <time>2020-10-17T10:57:30.999Z</time>
      </trkpt>
      <trkpt lat="49.82771" lon="3.432">
        <ele>69.47</ele>
        <time>2020-10-17T10:57:44.999Z</time>
      </trkpt>
      <trkpt lat="49.82777" lon="3.4319">
        <ele>72.01</ele>
        <time>2020-10-17T11:01:47.999Z</time>
      </trkpt>
      <trkpt lat="49.82786" lon="3.43182">
        <ele>74.76</ele>
        <time>2020-10-17T11:04:23.999Z</time>
      </trkpt>
      <trkpt lat="49.82786" lon="3.43167">
        <ele>73.38</ele>
        <time>2020-10-17T11:04:52.999Z</time>
      </trkpt>
      <trkpt lat="49.8278" lon="3.43178">
        <ele>73.38</ele>
        <time>2020-10-17T11:05:51.214Z</time>
      </trkpt>
      <trkpt lat="49.82779" lon="3.43194">
        <ele>73.38</ele>
        <time>2020-10-17T11:05:59.999Z</time>
      </trkpt>
      <trkpt lat="49.82779" lon="3.43201">
        <ele>73.38</ele>
        <time>2020-10-17T11:06:04.999Z</time>
      </trkpt>
      <trkpt lat="49.82764" lon="3.43214">
        <ele>84.5</ele>
        <time>2020-10-17T12:28:18.999Z</time>
      </trkpt>
      <trkpt lat="49.82761" lon="3.43199">
        <ele>90.64</ele>
        <time>2020-10-17T12:29:28.999Z</time>
      </trkpt>
      <trkpt lat="49.82767" lon="3.43188">
        <ele>91.93</ele>
        <time>2020-10-17T12:29:35.999Z</time>
      </trkpt>
      <trkpt lat="49.82779" lon="3.43193">
        <ele>93.82</ele>
        <time>2020-10-17T12:29:44.346Z</time>
      </trkpt>
      <trkpt lat="49.82789" lon="3.43198">
        <ele>94.91</ele>
        <time>2020-10-17T12:29:49.456Z</time>
      </trkpt>
      <trkpt lat="49.82798" lon="3.43201">
        <ele>95.65</ele>
        <time>2020-10-17T12:29:55.159Z</time>
      </trkpt>
      <trkpt lat="49.82808" lon="3.43205">
        <ele>96.18</ele>
        <time>2020-10-17T12:30:01.937Z</time>
      </trkpt>
      <trkpt lat="49.82817" lon="3.43211">
        <ele>96.43</ele>
        <time>2020-10-17T12:30:10.560Z</time>
      </trkpt>
      <trkpt lat="49.82824" lon="3.43219">
        <ele>96.35</ele>
        <time>2020-10-17T12:30:17.014Z</time>
      </trkpt>
      <trkpt lat="49.82831" lon="3.4323">
        <ele>96.17</ele>
        <time>2020-10-17T12:30:23.497Z</time>
      </trkpt>
      <trkpt lat="49.82834" lon="3.43244">
        <ele>95.88</ele>
        <time>2020-10-17T12:30:31.078Z</time>
      </trkpt>
      <trkpt lat="49.82835" lon="3.43259">
        <ele>95.34</ele>
        <time>2020-10-17T12:30:38.999Z</time>
      </trkpt>
      <trkpt lat="49.82839" lon="3.43272">
        <ele>94.63</ele>
        <time>2020-10-17T12:30:45.461Z</time>
      </trkpt>
      <trkpt lat="49.82842" lon="3.43286">
        <ele>93.71</ele>
        <time>2020-10-17T12:30:52.898Z</time>
      </trkpt>
      <trkpt lat="49.82843" lon="3.433">
        <ele>92.92</ele>
        <time>2020-10-17T12:30:59.580Z</time>
      </trkpt>
      <trkpt lat="49.82844" lon="3.43316">
        <ele>92.32</ele>
        <time>2020-10-17T12:31:05.478Z</time>
      </trkpt>
      <trkpt lat="49.82845" lon="3.43331">
        <ele>91.69</ele>
        <time>2020-10-17T12:31:10.876Z</time>
      </trkpt>
      <trkpt lat="49.82845" lon="3.43345">
        <ele>90.9</ele>
        <time>2020-10-17T12:31:17.999Z</time>
      </trkpt>
      <trkpt lat="49.82845" lon="3.43359">
        <ele>90.22</ele>
        <time>2020-10-17T12:31:23.682Z</time>
      </trkpt>
      <trkpt lat="49.82845" lon="3.43373">
        <ele>89.21</ele>
        <time>2020-10-17T12:31:30.455Z</time>
      </trkpt>
      <trkpt lat="49.82846" lon="3.43388">
        <ele>88.04</ele>
        <time>2020-10-17T12:31:38.319Z</time>
      </trkpt>
      <trkpt lat="49.82846" lon="3.43402">
        <ele>87.4</ele>
        <time>2020-10-17T12:31:44.574Z</time>
      </trkpt>
      <trkpt lat="49.82849" lon="3.43416">
        <ele>87</ele>
        <time>2020-10-17T12:31:50.594Z</time>
      </trkpt>
      <trkpt lat="49.82851" lon="3.43432">
        <ele>86.84</ele>
        <time>2020-10-17T12:31:56.236Z</time>
      </trkpt>
      <trkpt lat="49.82853" lon="3.43445">
        <ele>87.03</ele>
        <time>2020-10-17T12:32:01.795Z</time>
      </trkpt>
      <trkpt lat="49.82857" lon="3.43458">
        <ele>87.34</ele>
        <time>2020-10-17T12:32:07.558Z</time>
      </trkpt>
      <trkpt lat="49.82859" lon="3.43472">
        <ele>88.08</ele>
        <time>2020-10-17T12:32:13.677Z</time>
      </trkpt>
      <trkpt lat="49.82859" lon="3.43486">
        <ele>89.17</ele>
        <time>2020-10-17T12:32:18.919Z</time>
      </trkpt>
      <trkpt lat="49.82859" lon="3.435">
        <ele>90.23</ele>
        <time>2020-10-17T12:32:24.459Z</time>
      </trkpt>
      <trkpt lat="49.82857" lon="3.43515">
        <ele>91.36</ele>
        <time>2020-10-17T12:32:30.655Z</time>
      </trkpt>
      <trkpt lat="49.82856" lon="3.43529">
        <ele>92.14</ele>
        <time>2020-10-17T12:32:37.396Z</time>
      </trkpt>
      <trkpt lat="49.82854" lon="3.43544">
        <ele>92.77</ele>
        <time>2020-10-17T12:32:44.999Z</time>
      </trkpt>
      <trkpt lat="49.82852" lon="3.43558">
        <ele>93.27</ele>
        <time>2020-10-17T12:32:50.877Z</time>
      </trkpt>
      <trkpt lat="49.8285" lon="3.43572">
        <ele>93.73</ele>
        <time>2020-10-17T12:32:56.483Z</time>
      </trkpt>
      <trkpt lat="49.82847" lon="3.43585">
        <ele>94.26</ele>
        <time>2020-10-17T12:33:02.999Z</time>
      </trkpt>
      <trkpt lat="49.82846" lon="3.436">
        <ele>94.43</ele>
        <time>2020-10-17T12:33:09.978Z</time>
      </trkpt>
      <trkpt lat="49.82844" lon="3.43614">
        <ele>94.44</ele>
        <time>2020-10-17T12:33:16.159Z</time>
      </trkpt>
      <trkpt lat="49.82841" lon="3.43629">
        <ele>94.65</ele>
        <time>2020-10-17T12:33:21.999Z</time>
      </trkpt>
      <trkpt lat="49.82838" lon="3.43643">
        <ele>94.89</ele>
        <time>2020-10-17T12:33:26.936Z</time>
      </trkpt>
      <trkpt lat="49.82836" lon="3.43656">
        <ele>95.16</ele>
        <time>2020-10-17T12:33:33.999Z</time>
      </trkpt>
      <trkpt lat="49.82834" lon="3.4367">
        <ele>95.52</ele>
        <time>2020-10-17T12:33:39.375Z</time>
      </trkpt>
      <trkpt lat="49.82833" lon="3.43685">
        <ele>96.13</ele>
        <time>2020-10-17T12:33:46.636Z</time>
      </trkpt>
      <trkpt lat="49.82834" lon="3.437">
        <ele>96.67</ele>
        <time>2020-10-17T12:33:53.999Z</time>
      </trkpt>
      <trkpt lat="49.82836" lon="3.43714">
        <ele>96.66</ele>
        <time>2020-10-17T12:34:00.999Z</time>
      </trkpt>
      <trkpt lat="49.82839" lon="3.43729">
        <ele>96.27</ele>
        <time>2020-10-17T12:34:07.801Z</time>
      </trkpt>
      <trkpt lat="49.82841" lon="3.43743">
        <ele>96.01</ele>
        <time>2020-10-17T12:34:12.661Z</time>
      </trkpt>
      <trkpt lat="49.82845" lon="3.4376">
        <ele>95.77</ele>
        <time>2020-10-17T12:34:17.297Z</time>
      </trkpt>
      <trkpt lat="49.82848" lon="3.43777">
        <ele>95.46</ele>
        <time>2020-10-17T12:34:21.638Z</time>
      </trkpt>
      <trkpt lat="49.82851" lon="3.43792">
        <ele>94.86</ele>
        <time>2020-10-17T12:34:26.638Z</time>
      </trkpt>
      <trkpt lat="49.82853" lon="3.43806">
        <ele>93.9</ele>
        <time>2020-10-17T12:34:31.073Z</time>
      </trkpt>
      <trkpt lat="49.82854" lon="3.4382">
        <ele>92.51</ele>
        <time>2020-10-17T12:34:37.235Z</time>
      </trkpt>
      <trkpt lat="49.82856" lon="3.43835">
        <ele>90.94</ele>
        <time>2020-10-17T12:34:44.019Z</time>
      </trkpt>
      <trkpt lat="49.8286" lon="3.43849">
        <ele>89.67</ele>
        <time>2020-10-17T12:34:50.658Z</time>
      </trkpt>
      <trkpt lat="49.82862" lon="3.43863">
        <ele>88.66</ele>
        <time>2020-10-17T12:34:56.296Z</time>
      </trkpt>
      <trkpt lat="49.82867" lon="3.43875">
        <ele>87.86</ele>
        <time>2020-10-17T12:35:02.454Z</time>
      </trkpt>
      <trkpt lat="49.82873" lon="3.43886">
        <ele>87.06</ele>
        <time>2020-10-17T12:35:09.117Z</time>
      </trkpt>
      <trkpt lat="49.82879" lon="3.43898">
        <ele>86.24</ele>
        <time>2020-10-17T12:35:15.921Z</time>
      </trkpt>
      <trkpt lat="49.82883" lon="3.4391">
        <ele>85.72</ele>
        <time>2020-10-17T12:35:21.694Z</time>
      </trkpt>
      <trkpt lat="49.82888" lon="3.43922">
        <ele>85.12</ele>
        <time>2020-10-17T12:35:28.500Z</time>
      </trkpt>
      <trkpt lat="49.82893" lon="3.43937">
        <ele>84.39</ele>
        <time>2020-10-17T12:35:35.780Z</time>
      </trkpt>
      <trkpt lat="49.82895" lon="3.43951">
        <ele>83.66</ele>
        <time>2020-10-17T12:35:43.016Z</time>
      </trkpt>
      <trkpt lat="49.82898" lon="3.43965">
        <ele>83.13</ele>
        <time>2020-10-17T12:35:50.456Z</time>
      </trkpt>
      <trkpt lat="49.82903" lon="3.43978">
        <ele>82.56</ele>
        <time>2020-10-17T12:35:57.164Z</time>
      </trkpt>
      <trkpt lat="49.82906" lon="3.43991">
        <ele>82.1</ele>
        <time>2020-10-17T12:36:03.399Z</time>
      </trkpt>
      <trkpt lat="49.82911" lon="3.44004">
        <ele>81.51</ele>
        <time>2020-10-17T12:36:10.999Z</time>
      </trkpt>
      <trkpt lat="49.82915" lon="3.44017">
        <ele>81.19</ele>
        <time>2020-10-17T12:36:17.556Z</time>
      </trkpt>
      <trkpt lat="49.82919" lon="3.4403">
        <ele>81.07</ele>
        <time>2020-10-17T12:36:23.999Z</time>
      </trkpt>
      <trkpt lat="49.82923" lon="3.44042">
        <ele>81.05</ele>
        <time>2020-10-17T12:36:29.942Z</time>
      </trkpt>
      <trkpt lat="49.82928" lon="3.44055">
        <ele>81.12</ele>
        <time>2020-10-17T12:36:36.536Z</time>
      </trkpt>
      <trkpt lat="49.82931" lon="3.44069">
        <ele>81.49</ele>
        <time>2020-10-17T12:36:42.655Z</time>
      </trkpt>
      <trkpt lat="49.82934" lon="3.44083">
        <ele>81.87</ele>
        <time>2020-10-17T12:36:48.999Z</time>
      </trkpt>
      <trkpt lat="49.82937" lon="3.44097">
        <ele>82.04</ele>
        <time>2020-10-17T12:36:54.501Z</time>
      </trkpt>
      <trkpt lat="49.82938" lon="3.44111">
        <ele>82.01</ele>
        <time>2020-10-17T12:37:00.417Z</time>
      </trkpt>
      <trkpt lat="49.82937" lon="3.44126">
        <ele>81.99</ele>
        <time>2020-10-17T12:37:05.438Z</time>
      </trkpt>
      <trkpt lat="49.82937" lon="3.4414">
        <ele>81.99</ele>
        <time>2020-10-17T12:37:11.167Z</time>
      </trkpt>
      <trkpt lat="49.82938" lon="3.44156">
        <ele>82.36</ele>
        <time>2020-10-17T12:37:17.999Z</time>
      </trkpt>
      <trkpt lat="49.82938" lon="3.4417">
        <ele>82.52</ele>
        <time>2020-10-17T12:37:23.398Z</time>
      </trkpt>
      <trkpt lat="49.82937" lon="3.44186">
        <ele>82.83</ele>
        <time>2020-10-17T12:37:29.999Z</time>
      </trkpt>
      <trkpt lat="49.82939" lon="3.442">
        <ele>83.35</ele>
        <time>2020-10-17T12:37:35.896Z</time>
      </trkpt>
      <trkpt lat="49.82941" lon="3.44213">
        <ele>83.83</ele>
        <time>2020-10-17T12:37:42.093Z</time>
      </trkpt>
      <trkpt lat="49.82942" lon="3.44228">
        <ele>84.29</ele>
        <time>2020-10-17T12:37:48.338Z</time>
      </trkpt>
      <trkpt lat="49.82943" lon="3.44242">
        <ele>84.76</ele>
        <time>2020-10-17T12:37:54.999Z</time>
      </trkpt>
      <trkpt lat="49.82943" lon="3.44256">
        <ele>85.11</ele>
        <time>2020-10-17T12:38:00.561Z</time>
      </trkpt>
      <trkpt lat="49.82944" lon="3.44272">
        <ele>85.59</ele>
        <time>2020-10-17T12:38:07.373Z</time>
      </trkpt>
      <trkpt lat="49.82944" lon="3.44286">
        <ele>85.95</ele>
        <time>2020-10-17T12:38:13.556Z</time>
      </trkpt>
      <trkpt lat="49.82945" lon="3.443">
        <ele>86.13</ele>
        <time>2020-10-17T12:38:19.241Z</time>
      </trkpt>
      <trkpt lat="49.82948" lon="3.44315">
        <ele>86.32</ele>
        <time>2020-10-17T12:38:25.636Z</time>
      </trkpt>
      <trkpt lat="49.82949" lon="3.4433">
        <ele>86.5</ele>
        <time>2020-10-17T12:38:31.457Z</time>
      </trkpt>
      <trkpt lat="49.82952" lon="3.44343">
        <ele>86.7</ele>
        <time>2020-10-17T12:38:38.999Z</time>
      </trkpt>
      <trkpt lat="49.82953" lon="3.44357">
        <ele>86.84</ele>
        <time>2020-10-17T12:38:45.436Z</time>
      </trkpt>
      <trkpt lat="49.82953" lon="3.44372">
        <ele>86.96</ele>
        <time>2020-10-17T12:38:51.201Z</time>
      </trkpt>
      <trkpt lat="49.82952" lon="3.44387">
        <ele>87.05</ele>
        <time>2020-10-17T12:38:57.382Z</time>
      </trkpt>
      <trkpt lat="49.82951" lon="3.44402">
        <ele>86.95</ele>
        <time>2020-10-17T12:39:03.636Z</time>
      </trkpt>
      <trkpt lat="49.82952" lon="3.44416">
        <ele>86.96</ele>
        <time>2020-10-17T12:39:09.999Z</time>
      </trkpt>
      <trkpt lat="49.82952" lon="3.4443">
        <ele>87.06</ele>
        <time>2020-10-17T12:39:15.999Z</time>
      </trkpt>
      <trkpt lat="49.82953" lon="3.44445">
        <ele>87.18</ele>
        <time>2020-10-17T12:39:21.933Z</time>
      </trkpt>
      <trkpt lat="49.82954" lon="3.44459">
        <ele>87.27</ele>
        <time>2020-10-17T12:39:28.276Z</time>
      </trkpt>
      <trkpt lat="49.82955" lon="3.44474">
        <ele>87.28</ele>
        <time>2020-10-17T12:39:34.693Z</time>
      </trkpt>
      <trkpt lat="49.82956" lon="3.44488">
        <ele>87.39</ele>
        <time>2020-10-17T12:39:41.496Z</time>
      </trkpt>
      <trkpt lat="49.82956" lon="3.44503">
        <ele>87.65</ele>
        <time>2020-10-17T12:39:48.999Z</time>
      </trkpt>
      <trkpt lat="49.82956" lon="3.44517">
        <ele>87.87</ele>
        <time>2020-10-17T12:39:54.521Z</time>
      </trkpt>
      <trkpt lat="49.82955" lon="3.44532">
        <ele>88.14</ele>
        <time>2020-10-17T12:40:00.184Z</time>
      </trkpt>
      <trkpt lat="49.82957" lon="3.44547">
        <ele>88.66</ele>
        <time>2020-10-17T12:40:06.534Z</time>
      </trkpt>
      <trkpt lat="49.82958" lon="3.44561">
        <ele>89.25</ele>
        <time>2020-10-17T12:40:12.999Z</time>
      </trkpt>
      <trkpt lat="49.8296" lon="3.44576">
        <ele>89.71</ele>
        <time>2020-10-17T12:40:19.116Z</time>
      </trkpt>
      <trkpt lat="49.82964" lon="3.44589">
        <ele>90.03</ele>
        <time>2020-10-17T12:40:25.404Z</time>
      </trkpt>
      <trkpt lat="49.82967" lon="3.44603">
        <ele>90.11</ele>
        <time>2020-10-17T12:40:31.657Z</time>
      </trkpt>
      <trkpt lat="49.8297" lon="3.44617">
        <ele>90.12</ele>
        <time>2020-10-17T12:40:39.495Z</time>
      </trkpt>
      <trkpt lat="49.82974" lon="3.44631">
        <ele>90.02</ele>
        <time>2020-10-17T12:40:45.999Z</time>
      </trkpt>
      <trkpt lat="49.82977" lon="3.44645">
        <ele>89.93</ele>
        <time>2020-10-17T12:40:51.999Z</time>
      </trkpt>
      <trkpt lat="49.82978" lon="3.4466">
        <ele>90.01</ele>
        <time>2020-10-17T12:40:57.174Z</time>
      </trkpt>
      <trkpt lat="49.82977" lon="3.44675">
        <ele>90.16</ele>
        <time>2020-10-17T12:41:01.994Z</time>
      </trkpt>
      <trkpt lat="49.82979" lon="3.4469">
        <ele>90.43</ele>
        <time>2020-10-17T12:41:07.996Z</time>
      </trkpt>
      <trkpt lat="49.8298" lon="3.44704">
        <ele>90.73</ele>
        <time>2020-10-17T12:41:13.878Z</time>
      </trkpt>
      <trkpt lat="49.82986" lon="3.44717">
        <ele>90.98</ele>
        <time>2020-10-17T12:41:20.753Z</time>
      </trkpt>
      <trkpt lat="49.82991" lon="3.44729">
        <ele>90.87</ele>
        <time>2020-10-17T12:41:27.356Z</time>
      </trkpt>
      <trkpt lat="49.82994" lon="3.44743">
        <ele>90.67</ele>
        <time>2020-10-17T12:41:33.700Z</time>
      </trkpt>
      <trkpt lat="49.82995" lon="3.44758">
        <ele>90.59</ele>
        <time>2020-10-17T12:41:38.923Z</time>
      </trkpt>
      <trkpt lat="49.82994" lon="3.44773">
        <ele>90.68</ele>
        <time>2020-10-17T12:41:44.256Z</time>
      </trkpt>
      <trkpt lat="49.82993" lon="3.44787">
        <ele>90.77</ele>
        <time>2020-10-17T12:41:49.053Z</time>
      </trkpt>
      <trkpt lat="49.82993" lon="3.44802">
        <ele>90.85</ele>
        <time>2020-10-17T12:41:54.393Z</time>
      </trkpt>
      <trkpt lat="49.82994" lon="3.44818">
        <ele>91.14</ele>
        <time>2020-10-17T12:42:00.999Z</time>
      </trkpt>
      <trkpt lat="49.82995" lon="3.44833">
        <ele>91.44</ele>
        <time>2020-10-17T12:42:06.458Z</time>
      </trkpt>
      <trkpt lat="49.82999" lon="3.44846">
        <ele>91.78</ele>
        <time>2020-10-17T12:42:13.203Z</time>
      </trkpt>
      <trkpt lat="49.83003" lon="3.4486">
        <ele>91.97</ele>
        <time>2020-10-17T12:42:19.496Z</time>
      </trkpt>
      <trkpt lat="49.83004" lon="3.44876">
        <ele>92.2</ele>
        <time>2020-10-17T12:42:26.156Z</time>
      </trkpt>
      <trkpt lat="49.83" lon="3.44889">
        <ele>92.3</ele>
        <time>2020-10-17T12:42:32.416Z</time>
      </trkpt>
      <trkpt lat="49.83" lon="3.44904">
        <ele>92.01</ele>
        <time>2020-10-17T12:42:38.533Z</time>
      </trkpt>
      <trkpt lat="49.83001" lon="3.44918">
        <ele>91.64</ele>
        <time>2020-10-17T12:42:45.696Z</time>
      </trkpt>
      <trkpt lat="49.83002" lon="3.44934">
        <ele>91.3</ele>
        <time>2020-10-17T12:42:52.354Z</time>
      </trkpt>
      <trkpt lat="49.83004" lon="3.44948">
        <ele>90.97</ele>
        <time>2020-10-17T12:42:59.087Z</time>
      </trkpt>
      <trkpt lat="49.83006" lon="3.44962">
        <ele>90.6</ele>
        <time>2020-10-17T12:43:05.216Z</time>
      </trkpt>
      <trkpt lat="49.83009" lon="3.44976">
        <ele>89.98</ele>
        <time>2020-10-17T12:43:12.358Z</time>
      </trkpt>
      <trkpt lat="49.8301" lon="3.44992">
        <ele>89.52</ele>
        <time>2020-10-17T12:43:19.366Z</time>
      </trkpt>
      <trkpt lat="49.83009" lon="3.45006">
        <ele>89.35</ele>
        <time>2020-10-17T12:43:24.116Z</time>
      </trkpt>
      <trkpt lat="49.83009" lon="3.45021">
        <ele>89.06</ele>
        <time>2020-10-17T12:43:30.097Z</time>
      </trkpt>
      <trkpt lat="49.8301" lon="3.45036">
        <ele>88.6</ele>
        <time>2020-10-17T12:43:36.642Z</time>
      </trkpt>
      <trkpt lat="49.83007" lon="3.4505">
        <ele>88.2</ele>
        <time>2020-10-17T12:43:41.977Z</time>
      </trkpt>
      <trkpt lat="49.83005" lon="3.45064">
        <ele>87.84</ele>
        <time>2020-10-17T12:43:47.999Z</time>
      </trkpt>
      <trkpt lat="49.83003" lon="3.4508">
        <ele>87.41</ele>
        <time>2020-10-17T12:43:53.579Z</time>
      </trkpt>
      <trkpt lat="49.82998" lon="3.45093">
        <ele>86.66</ele>
        <time>2020-10-17T12:44:00.136Z</time>
      </trkpt>
      <trkpt lat="49.82999" lon="3.45108">
        <ele>85.9</ele>
        <time>2020-10-17T12:44:06.295Z</time>
      </trkpt>
      <trkpt lat="49.83" lon="3.45123">
        <ele>84.97</ele>
        <time>2020-10-17T12:44:14.619Z</time>
      </trkpt>
      <trkpt lat="49.83001" lon="3.45137">
        <ele>84.38</ele>
        <time>2020-10-17T12:44:20.819Z</time>
      </trkpt>
      <trkpt lat="49.83003" lon="3.45151">
        <ele>84.14</ele>
        <time>2020-10-17T12:44:26.999Z</time>
      </trkpt>
      <trkpt lat="49.83007" lon="3.45164">
        <ele>84.17</ele>
        <time>2020-10-17T12:44:32.661Z</time>
      </trkpt>
      <trkpt lat="49.83009" lon="3.45179">
        <ele>84.42</ele>
        <time>2020-10-17T12:44:38.195Z</time>
      </trkpt>
      <trkpt lat="49.8301" lon="3.45193">
        <ele>84.69</ele>
        <time>2020-10-17T12:44:42.879Z</time>
      </trkpt>
      <trkpt lat="49.8301" lon="3.45208">
        <ele>84.94</ele>
        <time>2020-10-17T12:44:47.883Z</time>
      </trkpt>
      <trkpt lat="49.83012" lon="3.45222">
        <ele>85.49</ele>
        <time>2020-10-17T12:44:53.394Z</time>
      </trkpt>
      <trkpt lat="49.83006" lon="3.45234">
        <ele>87.38</ele>
        <time>2020-10-17T12:44:58.999Z</time>
      </trkpt>
      <trkpt lat="49.82997" lon="3.45238">
        <ele>89.1</ele>
        <time>2020-10-17T12:45:03.557Z</time>
      </trkpt>
      <trkpt lat="49.82986" lon="3.45229">
        <ele>90.94</ele>
        <time>2020-10-17T12:45:08.275Z</time>
      </trkpt>
      <trkpt lat="49.82977" lon="3.45217">
        <ele>92.49</ele>
        <time>2020-10-17T12:45:12.456Z</time>
      </trkpt>
      <trkpt lat="49.8297" lon="3.45208">
        <ele>94.14</ele>
        <time>2020-10-17T12:45:16.897Z</time>
      </trkpt>
      <trkpt lat="49.82964" lon="3.45197">
        <ele>97.71</ele>
        <time>2020-10-17T12:45:30.673Z</time>
      </trkpt>
      <trkpt lat="49.82961" lon="3.45184">
        <ele>98.29</ele>
        <time>2020-10-17T12:45:36.999Z</time>
      </trkpt>
      <trkpt lat="49.82957" lon="3.45171">
        <ele>98.51</ele>
        <time>2020-10-17T12:45:43.598Z</time>
      </trkpt>
      <trkpt lat="49.82951" lon="3.4516">
        <ele>98.63</ele>
        <time>2020-10-17T12:45:49.324Z</time>
      </trkpt>
      <trkpt lat="49.82945" lon="3.45149">
        <ele>99.12</ele>
        <time>2020-10-17T12:45:56.896Z</time>
      </trkpt>
      <trkpt lat="49.82939" lon="3.45137">
        <ele>99.25</ele>
        <time>2020-10-17T12:46:03.999Z</time>
      </trkpt>
      <trkpt lat="49.82932" lon="3.45128">
        <ele>99.32</ele>
        <time>2020-10-17T12:46:09.467Z</time>
      </trkpt>
      <trkpt lat="49.82925" lon="3.45119">
        <ele>99.73</ele>
        <time>2020-10-17T12:46:16.755Z</time>
      </trkpt>
      <trkpt lat="49.82919" lon="3.45108">
        <ele>100.8</ele>
        <time>2020-10-17T12:46:23.899Z</time>
      </trkpt>
      <trkpt lat="49.82912" lon="3.45098">
        <ele>102.01</ele>
        <time>2020-10-17T12:46:31.155Z</time>
      </trkpt>
      <trkpt lat="49.82905" lon="3.45089">
        <ele>103.12</ele>
        <time>2020-10-17T12:46:37.778Z</time>
      </trkpt>
      <trkpt lat="49.829" lon="3.45077">
        <ele>104.33</ele>
        <time>2020-10-17T12:46:44.446Z</time>
      </trkpt>
      <trkpt lat="49.82895" lon="3.45065">
        <ele>105.49</ele>
        <time>2020-10-17T12:46:51.617Z</time>
      </trkpt>
      <trkpt lat="49.82888" lon="3.45055">
        <ele>106.5</ele>
        <time>2020-10-17T12:46:57.476Z</time>
      </trkpt>
      <trkpt lat="49.82881" lon="3.45043">
        <ele>107.2</ele>
        <time>2020-10-17T12:47:01.613Z</time>
      </trkpt>
      <trkpt lat="49.82875" lon="3.45031">
        <ele>107.95</ele>
        <time>2020-10-17T12:47:05.737Z</time>
      </trkpt>
      <trkpt lat="49.82869" lon="3.4502">
        <ele>109.12</ele>
        <time>2020-10-17T12:47:12.676Z</time>
      </trkpt>
      <trkpt lat="49.82862" lon="3.4501">
        <ele>110.05</ele>
        <time>2020-10-17T12:47:19.659Z</time>
      </trkpt>
      <trkpt lat="49.82855" lon="3.45001">
        <ele>110.96</ele>
        <time>2020-10-17T12:47:26.000Z</time>
      </trkpt>
      <trkpt lat="49.8285" lon="3.44989">
        <ele>111.71</ele>
        <time>2020-10-17T12:47:31.999Z</time>
      </trkpt>
      <trkpt lat="49.82844" lon="3.44978">
        <ele>112.45</ele>
        <time>2020-10-17T12:47:38.999Z</time>
      </trkpt>
      <trkpt lat="49.82837" lon="3.44969">
        <ele>113.03</ele>
        <time>2020-10-17T12:47:46.498Z</time>
      </trkpt>
      <trkpt lat="49.82831" lon="3.44958">
        <ele>113.48</ele>
        <time>2020-10-17T12:47:52.696Z</time>
      </trkpt>
      <trkpt lat="49.82823" lon="3.4495">
        <ele>113.92</ele>
        <time>2020-10-17T12:47:58.736Z</time>
      </trkpt>
      <trkpt lat="49.82815" lon="3.44944">
        <ele>114.36</ele>
        <time>2020-10-17T12:48:03.816Z</time>
      </trkpt>
      <trkpt lat="49.82807" lon="3.44936">
        <ele>115</ele>
        <time>2020-10-17T12:48:09.443Z</time>
      </trkpt>
      <trkpt lat="49.82798" lon="3.44929">
        <ele>115.7</ele>
        <time>2020-10-17T12:48:14.999Z</time>
      </trkpt>
      <trkpt lat="49.82788" lon="3.44922">
        <ele>116.4</ele>
        <time>2020-10-17T12:48:21.755Z</time>
      </trkpt>
      <trkpt lat="49.8278" lon="3.44913">
        <ele>117.15</ele>
        <time>2020-10-17T12:48:27.999Z</time>
      </trkpt>
      <trkpt lat="49.82771" lon="3.44908">
        <ele>117.72</ele>
        <time>2020-10-17T12:48:34.679Z</time>
      </trkpt>
      <trkpt lat="49.82764" lon="3.449">
        <ele>118.26</ele>
        <time>2020-10-17T12:48:40.513Z</time>
      </trkpt>
      <trkpt lat="49.82756" lon="3.44891">
        <ele>118.81</ele>
        <time>2020-10-17T12:48:46.477Z</time>
      </trkpt>
      <trkpt lat="49.82748" lon="3.44884">
        <ele>119.45</ele>
        <time>2020-10-17T12:48:53.999Z</time>
      </trkpt>
      <trkpt lat="49.82739" lon="3.44876">
        <ele>120.04</ele>
        <time>2020-10-17T12:49:00.478Z</time>
      </trkpt>
      <trkpt lat="49.82732" lon="3.44867">
        <ele>120.54</ele>
        <time>2020-10-17T12:49:06.775Z</time>
      </trkpt>
      <trkpt lat="49.82722" lon="3.44862">
        <ele>121.07</ele>
        <time>2020-10-17T12:49:13.459Z</time>
      </trkpt>
      <trkpt lat="49.82713" lon="3.44859">
        <ele>121.56</ele>
        <time>2020-10-17T12:49:19.478Z</time>
      </trkpt>
      <trkpt lat="49.82704" lon="3.44851">
        <ele>122.02</ele>
        <time>2020-10-17T12:49:25.135Z</time>
      </trkpt>
      <trkpt lat="49.82695" lon="3.44845">
        <ele>122.48</ele>
        <time>2020-10-17T12:49:30.699Z</time>
      </trkpt>
      <trkpt lat="49.82687" lon="3.44836">
        <ele>122.99</ele>
        <time>2020-10-17T12:49:35.999Z</time>
      </trkpt>
      <trkpt lat="49.82679" lon="3.44829">
        <ele>123.37</ele>
        <time>2020-10-17T12:49:41.464Z</time>
      </trkpt>
      <trkpt lat="49.82671" lon="3.44821">
        <ele>123.68</ele>
        <time>2020-10-17T12:49:46.622Z</time>
      </trkpt>
      <trkpt lat="49.82663" lon="3.44813">
        <ele>123.91</ele>
        <time>2020-10-17T12:49:51.717Z</time>
      </trkpt>
      <trkpt lat="49.82656" lon="3.44803">
        <ele>124.07</ele>
        <time>2020-10-17T12:49:58.355Z</time>
      </trkpt>
      <trkpt lat="49.82646" lon="3.44796">
        <ele>124.2</ele>
        <time>2020-10-17T12:50:04.658Z</time>
      </trkpt>
      <trkpt lat="49.82639" lon="3.44788">
        <ele>124.22</ele>
        <time>2020-10-17T12:50:09.121Z</time>
      </trkpt>
      <trkpt lat="49.82632" lon="3.44779">
        <ele>124.2</ele>
        <time>2020-10-17T12:50:15.280Z</time>
      </trkpt>
      <trkpt lat="49.82624" lon="3.44772">
        <ele>124.23</ele>
        <time>2020-10-17T12:50:22.316Z</time>
      </trkpt>
      <trkpt lat="49.82618" lon="3.44761">
        <ele>124.29</ele>
        <time>2020-10-17T12:50:28.321Z</time>
      </trkpt>
      <trkpt lat="49.82611" lon="3.44752">
        <ele>124.37</ele>
        <time>2020-10-17T12:50:37.999Z</time>
      </trkpt>
      <trkpt lat="49.82602" lon="3.44744">
        <ele>124.42</ele>
        <time>2020-10-17T12:50:43.516Z</time>
      </trkpt>
      <trkpt lat="49.82593" lon="3.44737">
        <ele>124.46</ele>
        <time>2020-10-17T12:50:48.157Z</time>
      </trkpt>
      <trkpt lat="49.82585" lon="3.4473">
        <ele>124.52</ele>
        <time>2020-10-17T12:50:53.100Z</time>
      </trkpt>
      <trkpt lat="49.82576" lon="3.44723">
        <ele>124.46</ele>
        <time>2020-10-17T12:50:58.196Z</time>
      </trkpt>
      <trkpt lat="49.82567" lon="3.44717">
        <ele>124.31</ele>
        <time>2020-10-17T12:51:03.956Z</time>
      </trkpt>
      <trkpt lat="49.82558" lon="3.4471">
        <ele>124.22</ele>
        <time>2020-10-17T12:51:10.162Z</time>
      </trkpt>
      <trkpt lat="49.8255" lon="3.44704">
        <ele>124.02</ele>
        <time>2020-10-17T12:51:15.999Z</time>
      </trkpt>
      <trkpt lat="49.82541" lon="3.44699">
        <ele>123.73</ele>
        <time>2020-10-17T12:51:22.517Z</time>
      </trkpt>
      <trkpt lat="49.82532" lon="3.44694">
        <ele>123.55</ele>
        <time>2020-10-17T12:51:26.738Z</time>
      </trkpt>
      <trkpt lat="49.82524" lon="3.44686">
        <ele>123.36</ele>
        <time>2020-10-17T12:51:31.999Z</time>
      </trkpt>
      <trkpt lat="49.82518" lon="3.44677">
        <ele>123.19</ele>
        <time>2020-10-17T12:51:37.893Z</time>
      </trkpt>
      <trkpt lat="49.82509" lon="3.44669">
        <ele>122.99</ele>
        <time>2020-10-17T12:51:44.596Z</time>
      </trkpt>
      <trkpt lat="49.82501" lon="3.44663">
        <ele>122.79</ele>
        <time>2020-10-17T12:51:51.376Z</time>
      </trkpt>
      <trkpt lat="49.82492" lon="3.44658">
        <ele>122.57</ele>
        <time>2020-10-17T12:51:59.662Z</time>
      </trkpt>
      <trkpt lat="49.82484" lon="3.44652">
        <ele>122.33</ele>
        <time>2020-10-17T12:52:05.999Z</time>
      </trkpt>
      <trkpt lat="49.82474" lon="3.44646">
        <ele>122.21</ele>
        <time>2020-10-17T12:52:12.737Z</time>
      </trkpt>
      <trkpt lat="49.82466" lon="3.44638">
        <ele>122.13</ele>
        <time>2020-10-17T12:52:17.999Z</time>
      </trkpt>
      <trkpt lat="49.82459" lon="3.4463">
        <ele>122.13</ele>
        <time>2020-10-17T12:52:23.401Z</time>
      </trkpt>
      <trkpt lat="49.82451" lon="3.44622">
        <ele>122.28</ele>
        <time>2020-10-17T12:52:29.447Z</time>
      </trkpt>
      <trkpt lat="49.82443" lon="3.44615">
        <ele>122.39</ele>
        <time>2020-10-17T12:52:35.557Z</time>
      </trkpt>
      <trkpt lat="49.82435" lon="3.44607">
        <ele>122.37</ele>
        <time>2020-10-17T12:52:41.800Z</time>
      </trkpt>
      <trkpt lat="49.82427" lon="3.44599">
        <ele>122.3</ele>
        <time>2020-10-17T12:52:47.482Z</time>
      </trkpt>
      <trkpt lat="49.8242" lon="3.44588">
        <ele>122.01</ele>
        <time>2020-10-17T12:52:53.598Z</time>
      </trkpt>
      <trkpt lat="49.82414" lon="3.44578">
        <ele>121.72</ele>
        <time>2020-10-17T12:52:59.222Z</time>
      </trkpt>
      <trkpt lat="49.82406" lon="3.44572">
        <ele>121.17</ele>
        <time>2020-10-17T12:53:05.999Z</time>
      </trkpt>
      <trkpt lat="49.82398" lon="3.44564">
        <ele>120.76</ele>
        <time>2020-10-17T12:53:10.516Z</time>
      </trkpt>
      <trkpt lat="49.8239" lon="3.44555">
        <ele>120.49</ele>
        <time>2020-10-17T12:53:15.579Z</time>
      </trkpt>
      <trkpt lat="49.82383" lon="3.44547">
        <ele>120.19</ele>
        <time>2020-10-17T12:53:21.260Z</time>
      </trkpt>
      <trkpt lat="49.82375" lon="3.44539">
        <ele>119.97</ele>
        <time>2020-10-17T12:53:26.540Z</time>
      </trkpt>
      <trkpt lat="49.82367" lon="3.4453">
        <ele>119.75</ele>
        <time>2020-10-17T12:53:32.999Z</time>
      </trkpt>
      <trkpt lat="49.82361" lon="3.44518">
        <ele>119.53</ele>
        <time>2020-10-17T12:53:38.737Z</time>
      </trkpt>
      <trkpt lat="49.82358" lon="3.44504">
        <ele>119.07</ele>
        <time>2020-10-17T12:53:44.940Z</time>
      </trkpt>
      <trkpt lat="49.82351" lon="3.44495">
        <ele>118.63</ele>
        <time>2020-10-17T12:53:51.764Z</time>
      </trkpt>
      <trkpt lat="49.82345" lon="3.44482">
        <ele>118.11</ele>
        <time>2020-10-17T12:53:58.999Z</time>
      </trkpt>
      <trkpt lat="49.82336" lon="3.4448">
        <ele>117.65</ele>
        <time>2020-10-17T12:54:05.155Z</time>
      </trkpt>
      <trkpt lat="49.82327" lon="3.44471">
        <ele>117.33</ele>
        <time>2020-10-17T12:54:10.315Z</time>
      </trkpt>
      <trkpt lat="49.82317" lon="3.44459">
        <ele>117.01</ele>
        <time>2020-10-17T12:54:14.999Z</time>
      </trkpt>
      <trkpt lat="49.82308" lon="3.44435">
        <ele>116.33</ele>
        <time>2020-10-17T12:54:19.696Z</time>
      </trkpt>
      <trkpt lat="49.82301" lon="3.4442">
        <ele>115.55</ele>
        <time>2020-10-17T12:54:24.661Z</time>
      </trkpt>
      <trkpt lat="49.82293" lon="3.44411">
        <ele>114.92</ele>
        <time>2020-10-17T12:54:30.999Z</time>
      </trkpt>
      <trkpt lat="49.82284" lon="3.44404">
        <ele>114.61</ele>
        <time>2020-10-17T12:54:38.416Z</time>
      </trkpt>
      <trkpt lat="49.82276" lon="3.44395">
        <ele>114.56</ele>
        <time>2020-10-17T12:54:43.742Z</time>
      </trkpt>
      <trkpt lat="49.82269" lon="3.44388">
        <ele>114.94</ele>
        <time>2020-10-17T12:54:52.241Z</time>
      </trkpt>
      <trkpt lat="49.82262" lon="3.44378">
        <ele>115.5</ele>
        <time>2020-10-17T12:55:00.276Z</time>
      </trkpt>
      <trkpt lat="49.82255" lon="3.44367">
        <ele>116.03</ele>
        <time>2020-10-17T12:55:08.999Z</time>
      </trkpt>
      <trkpt lat="49.82247" lon="3.44361">
        <ele>116.27</ele>
        <time>2020-10-17T12:55:15.396Z</time>
      </trkpt>
      <trkpt lat="49.82238" lon="3.44357">
        <ele>116.51</ele>
        <time>2020-10-17T12:55:21.718Z</time>
      </trkpt>
      <trkpt lat="49.82237" lon="3.44343">
        <ele>116.82</ele>
        <time>2020-10-17T12:55:26.759Z</time>
      </trkpt>
      <trkpt lat="49.82243" lon="3.44333">
        <ele>116.67</ele>
        <time>2020-10-17T12:55:32.200Z</time>
      </trkpt>
      <trkpt lat="49.82251" lon="3.44321">
        <ele>116.44</ele>
        <time>2020-10-17T12:55:36.401Z</time>
      </trkpt>
      <trkpt lat="49.82258" lon="3.4431">
        <ele>116.13</ele>
        <time>2020-10-17T12:55:40.446Z</time>
      </trkpt>
      <trkpt lat="49.82265" lon="3.443">
        <ele>115.48</ele>
        <time>2020-10-17T12:55:47.758Z</time>
      </trkpt>
      <trkpt lat="49.82273" lon="3.44286">
        <ele>114.95</ele>
        <time>2020-10-17T12:55:51.999Z</time>
      </trkpt>
      <trkpt lat="49.82277" lon="3.44273">
        <ele>113.68</ele>
        <time>2020-10-17T12:56:00.704Z</time>
      </trkpt>
      <trkpt lat="49.82272" lon="3.4426">
        <ele>112.28</ele>
        <time>2020-10-17T12:56:08.536Z</time>
      </trkpt>
      <trkpt lat="49.82268" lon="3.44248">
        <ele>111.3</ele>
        <time>2020-10-17T12:56:14.999Z</time>
      </trkpt>
      <trkpt lat="49.82263" lon="3.44234">
        <ele>110.9</ele>
        <time>2020-10-17T12:56:19.196Z</time>
      </trkpt>
      <trkpt lat="49.82257" lon="3.44222">
        <ele>110.36</ele>
        <time>2020-10-17T12:56:24.736Z</time>
      </trkpt>
      <trkpt lat="49.82252" lon="3.44209">
        <ele>109.41</ele>
        <time>2020-10-17T12:56:31.584Z</time>
      </trkpt>
      <trkpt lat="49.82246" lon="3.44196">
        <ele>108.63</ele>
        <time>2020-10-17T12:56:37.999Z</time>
      </trkpt>
      <trkpt lat="49.82242" lon="3.44184">
        <ele>107.62</ele>
        <time>2020-10-17T12:56:43.996Z</time>
      </trkpt>
      <trkpt lat="49.82237" lon="3.44171">
        <ele>106.84</ele>
        <time>2020-10-17T12:56:50.338Z</time>
      </trkpt>
      <trkpt lat="49.82231" lon="3.44159">
        <ele>106.29</ele>
        <time>2020-10-17T12:56:57.815Z</time>
      </trkpt>
      <trkpt lat="49.82226" lon="3.44146">
        <ele>105.83</ele>
        <time>2020-10-17T12:57:05.293Z</time>
      </trkpt>
      <trkpt lat="49.82223" lon="3.44132">
        <ele>105.54</ele>
        <time>2020-10-17T12:57:11.500Z</time>
      </trkpt>
      <trkpt lat="49.82218" lon="3.44118">
        <ele>105.27</ele>
        <time>2020-10-17T12:57:18.353Z</time>
      </trkpt>
      <trkpt lat="49.82213" lon="3.44107">
        <ele>104.91</ele>
        <time>2020-10-17T12:57:24.577Z</time>
      </trkpt>
      <trkpt lat="49.82209" lon="3.44093">
        <ele>104.42</ele>
        <time>2020-10-17T12:57:30.999Z</time>
      </trkpt>
      <trkpt lat="49.82204" lon="3.44081">
        <ele>104.03</ele>
        <time>2020-10-17T12:57:36.116Z</time>
      </trkpt>
      <trkpt lat="49.82201" lon="3.44068">
        <ele>103.56</ele>
        <time>2020-10-17T12:57:41.999Z</time>
      </trkpt>
      <trkpt lat="49.82197" lon="3.44054">
        <ele>103.05</ele>
        <time>2020-10-17T12:57:48.999Z</time>
      </trkpt>
      <trkpt lat="49.8219" lon="3.44043">
        <ele>102.8</ele>
        <time>2020-10-17T12:57:55.473Z</time>
      </trkpt>
      <trkpt lat="49.82184" lon="3.4403">
        <ele>102.64</ele>
        <time>2020-10-17T12:58:01.635Z</time>
      </trkpt>
      <trkpt lat="49.8218" lon="3.44017">
        <ele>102.34</ele>
        <time>2020-10-17T12:58:07.061Z</time>
      </trkpt>
      <trkpt lat="49.82175" lon="3.44005">
        <ele>102.05</ele>
        <time>2020-10-17T12:58:13.999Z</time>
      </trkpt>
      <trkpt lat="49.82171" lon="3.43992">
        <ele>101.93</ele>
        <time>2020-10-17T12:58:19.296Z</time>
      </trkpt>
      <trkpt lat="49.82167" lon="3.43979">
        <ele>101.5</ele>
        <time>2020-10-17T12:58:26.156Z</time>
      </trkpt>
      <trkpt lat="49.82164" lon="3.43965">
        <ele>100.92</ele>
        <time>2020-10-17T12:58:32.475Z</time>
      </trkpt>
      <trkpt lat="49.82158" lon="3.43954">
        <ele>100.46</ele>
        <time>2020-10-17T12:58:38.999Z</time>
      </trkpt>
      <trkpt lat="49.82152" lon="3.43942">
        <ele>99.99</ele>
        <time>2020-10-17T12:58:45.999Z</time>
      </trkpt>
      <trkpt lat="49.8215" lon="3.43927">
        <ele>99.66</ele>
        <time>2020-10-17T12:58:51.696Z</time>
      </trkpt>
      <trkpt lat="49.82147" lon="3.43914">
        <ele>99.31</ele>
        <time>2020-10-17T12:58:57.456Z</time>
      </trkpt>
      <trkpt lat="49.8214" lon="3.43903">
        <ele>99.1</ele>
        <time>2020-10-17T12:59:04.178Z</time>
      </trkpt>
      <trkpt lat="49.82135" lon="3.4389">
        <ele>98.92</ele>
        <time>2020-10-17T12:59:09.999Z</time>
      </trkpt>
      <trkpt lat="49.8213" lon="3.43876">
        <ele>98.74</ele>
        <time>2020-10-17T12:59:15.638Z</time>
      </trkpt>
      <trkpt lat="49.82126" lon="3.43863">
        <ele>98.58</ele>
        <time>2020-10-17T12:59:21.353Z</time>
      </trkpt>
      <trkpt lat="49.82121" lon="3.4385">
        <ele>98.27</ele>
        <time>2020-10-17T12:59:27.243Z</time>
      </trkpt>
      <trkpt lat="49.82116" lon="3.43839">
        <ele>98.02</ele>
        <time>2020-10-17T12:59:33.481Z</time>
      </trkpt>
      <trkpt lat="49.82114" lon="3.43824">
        <ele>97.94</ele>
        <time>2020-10-17T12:59:39.654Z</time>
      </trkpt>
      <trkpt lat="49.82108" lon="3.43813">
        <ele>98.01</ele>
        <time>2020-10-17T12:59:45.999Z</time>
      </trkpt>
      <trkpt lat="49.82102" lon="3.43801">
        <ele>97.71</ele>
        <time>2020-10-17T12:59:52.256Z</time>
      </trkpt>
      <trkpt lat="49.82095" lon="3.43791">
        <ele>97.1</ele>
        <time>2020-10-17T12:59:58.999Z</time>
      </trkpt>
      <trkpt lat="49.82091" lon="3.43778">
        <ele>96.84</ele>
        <time>2020-10-17T13:00:05.999Z</time>
      </trkpt>
      <trkpt lat="49.82087" lon="3.43764">
        <ele>96.56</ele>
        <time>2020-10-17T13:00:12.275Z</time>
      </trkpt>
      <trkpt lat="49.82086" lon="3.4375">
        <ele>96.49</ele>
        <time>2020-10-17T13:00:17.557Z</time>
      </trkpt>
      <trkpt lat="49.82081" lon="3.43738">
        <ele>96.54</ele>
        <time>2020-10-17T13:00:24.176Z</time>
      </trkpt>
      <trkpt lat="49.82076" lon="3.43725">
        <ele>96.81</ele>
        <time>2020-10-17T13:00:30.679Z</time>
      </trkpt>
      <trkpt lat="49.82073" lon="3.4371">
        <ele>97.19</ele>
        <time>2020-10-17T13:00:36.999Z</time>
      </trkpt>
      <trkpt lat="49.82069" lon="3.43698">
        <ele>97.33</ele>
        <time>2020-10-17T13:00:42.897Z</time>
      </trkpt>
      <trkpt lat="49.82065" lon="3.43685">
        <ele>97.53</ele>
        <time>2020-10-17T13:00:49.376Z</time>
      </trkpt>
      <trkpt lat="49.8206" lon="3.43672">
        <ele>97.66</ele>
        <time>2020-10-17T13:00:55.441Z</time>
      </trkpt>
      <trkpt lat="49.82055" lon="3.43659">
        <ele>97.82</ele>
        <time>2020-10-17T13:01:01.457Z</time>
      </trkpt>
      <trkpt lat="49.82047" lon="3.43651">
        <ele>97.94</ele>
        <time>2020-10-17T13:01:08.539Z</time>
      </trkpt>
      <trkpt lat="49.8204" lon="3.4364">
        <ele>98.38</ele>
        <time>2020-10-17T13:01:14.618Z</time>
      </trkpt>
      <trkpt lat="49.82035" lon="3.43627">
        <ele>98.85</ele>
        <time>2020-10-17T13:01:19.775Z</time>
      </trkpt>
      <trkpt lat="49.82031" lon="3.43614">
        <ele>99.38</ele>
        <time>2020-10-17T13:01:24.276Z</time>
      </trkpt>
      <trkpt lat="49.82026" lon="3.43601">
        <ele>100.13</ele>
        <time>2020-10-17T13:01:30.999Z</time>
      </trkpt>
      <trkpt lat="49.82022" lon="3.43587">
        <ele>100.65</ele>
        <time>2020-10-17T13:01:36.556Z</time>
      </trkpt>
      <trkpt lat="49.82019" lon="3.43574">
        <ele>100.98</ele>
        <time>2020-10-17T13:01:43.356Z</time>
      </trkpt>
      <trkpt lat="49.82017" lon="3.43559">
        <ele>101.05</ele>
        <time>2020-10-17T13:01:49.999Z</time>
      </trkpt>
      <trkpt lat="49.82013" lon="3.43545">
        <ele>100.73</ele>
        <time>2020-10-17T13:01:56.140Z</time>
      </trkpt>
      <trkpt lat="49.8201" lon="3.43532">
        <ele>100.12</ele>
        <time>2020-10-17T13:02:02.999Z</time>
      </trkpt>
      <trkpt lat="49.82005" lon="3.4352">
        <ele>99.69</ele>
        <time>2020-10-17T13:02:08.999Z</time>
      </trkpt>
      <trkpt lat="49.82" lon="3.43507">
        <ele>99.3</ele>
        <time>2020-10-17T13:02:15.121Z</time>
      </trkpt>
      <trkpt lat="49.81995" lon="3.43494">
        <ele>98.9</ele>
        <time>2020-10-17T13:02:21.656Z</time>
      </trkpt>
      <trkpt lat="49.8199" lon="3.43482">
        <ele>98.65</ele>
        <time>2020-10-17T13:02:27.656Z</time>
      </trkpt>
      <trkpt lat="49.81984" lon="3.4347">
        <ele>98.57</ele>
        <time>2020-10-17T13:02:33.518Z</time>
      </trkpt>
      <trkpt lat="49.81977" lon="3.43459">
        <ele>98.64</ele>
        <time>2020-10-17T13:02:39.467Z</time>
      </trkpt>
      <trkpt lat="49.81969" lon="3.43453">
        <ele>98.95</ele>
        <time>2020-10-17T13:02:44.999Z</time>
      </trkpt>
      <trkpt lat="49.8196" lon="3.43449">
        <ele>99.47</ele>
        <time>2020-10-17T13:02:49.999Z</time>
      </trkpt>
      <trkpt lat="49.81951" lon="3.43448">
        <ele>99.99</ele>
        <time>2020-10-17T13:02:55.178Z</time>
      </trkpt>
      <trkpt lat="49.81941" lon="3.43453">
        <ele>100.8</ele>
        <time>2020-10-17T13:03:01.378Z</time>
      </trkpt>
      <trkpt lat="49.8193" lon="3.43457">
        <ele>101.4</ele>
        <time>2020-10-17T13:03:05.999Z</time>
      </trkpt>
      <trkpt lat="49.81917" lon="3.43464">
        <ele>101.85</ele>
        <time>2020-10-17T13:03:10.673Z</time>
      </trkpt>
      <trkpt lat="49.81906" lon="3.43466">
        <ele>102.19</ele>
        <time>2020-10-17T13:03:15.036Z</time>
      </trkpt>
      <trkpt lat="49.81897" lon="3.43464">
        <ele>102.43</ele>
        <time>2020-10-17T13:03:21.597Z</time>
      </trkpt>
      <trkpt lat="49.81888" lon="3.43465">
        <ele>102.71</ele>
        <time>2020-10-17T13:03:30.234Z</time>
      </trkpt>
      <trkpt lat="49.81879" lon="3.43469">
        <ele>103.29</ele>
        <time>2020-10-17T13:03:36.999Z</time>
      </trkpt>
      <trkpt lat="49.81869" lon="3.4347">
        <ele>103.57</ele>
        <time>2020-10-17T13:03:43.580Z</time>
      </trkpt>
      <trkpt lat="49.8186" lon="3.43469">
        <ele>103.66</ele>
        <time>2020-10-17T13:03:49.680Z</time>
      </trkpt>
      <trkpt lat="49.81851" lon="3.43473">
        <ele>103.7</ele>
        <time>2020-10-17T13:03:56.154Z</time>
      </trkpt>
      <trkpt lat="49.81842" lon="3.43477">
        <ele>103.82</ele>
        <time>2020-10-17T13:04:02.227Z</time>
      </trkpt>
      <trkpt lat="49.81832" lon="3.43479">
        <ele>104.04</ele>
        <time>2020-10-17T13:04:08.999Z</time>
      </trkpt>
      <trkpt lat="49.81822" lon="3.4348">
        <ele>104.19</ele>
        <time>2020-10-17T13:04:14.999Z</time>
      </trkpt>
      <trkpt lat="49.81813" lon="3.43483">
        <ele>104.42</ele>
        <time>2020-10-17T13:04:20.749Z</time>
      </trkpt>
      <trkpt lat="49.81803" lon="3.43486">
        <ele>104.44</ele>
        <time>2020-10-17T13:04:28.999Z</time>
      </trkpt>
      <trkpt lat="49.81794" lon="3.4349">
        <ele>104.34</ele>
        <time>2020-10-17T13:04:35.470Z</time>
      </trkpt>
      <trkpt lat="49.81785" lon="3.43495">
        <ele>104.31</ele>
        <time>2020-10-17T13:04:42.232Z</time>
      </trkpt>
      <trkpt lat="49.81776" lon="3.43497">
        <ele>104.19</ele>
        <time>2020-10-17T13:04:48.999Z</time>
      </trkpt>
      <trkpt lat="49.81767" lon="3.43501">
        <ele>103.98</ele>
        <time>2020-10-17T13:04:54.168Z</time>
      </trkpt>
      <trkpt lat="49.81758" lon="3.43506">
        <ele>103.09</ele>
        <time>2020-10-17T13:05:01.189Z</time>
      </trkpt>
      <trkpt lat="49.81749" lon="3.4351">
        <ele>101.81</ele>
        <time>2020-10-17T13:05:07.999Z</time>
      </trkpt>
      <trkpt lat="49.81739" lon="3.43512">
        <ele>100.57</ele>
        <time>2020-10-17T13:05:12.372Z</time>
      </trkpt>
      <trkpt lat="49.8173" lon="3.43514">
        <ele>99.06</ele>
        <time>2020-10-17T13:05:18.507Z</time>
      </trkpt>
      <trkpt lat="49.81721" lon="3.43516">
        <ele>98.22</ele>
        <time>2020-10-17T13:05:24.245Z</time>
      </trkpt>
      <trkpt lat="49.81711" lon="3.43519">
        <ele>97.25</ele>
        <time>2020-10-17T13:05:30.247Z</time>
      </trkpt>
      <trkpt lat="49.81702" lon="3.43524">
        <ele>96.62</ele>
        <time>2020-10-17T13:05:36.999Z</time>
      </trkpt>
      <trkpt lat="49.81693" lon="3.43528">
        <ele>96.24</ele>
        <time>2020-10-17T13:05:42.999Z</time>
      </trkpt>
      <trkpt lat="49.81683" lon="3.43534">
        <ele>96.21</ele>
        <time>2020-10-17T13:05:48.607Z</time>
      </trkpt>
      <trkpt lat="49.81674" lon="3.43539">
        <ele>96.33</ele>
        <time>2020-10-17T13:05:54.951Z</time>
      </trkpt>
      <trkpt lat="49.81665" lon="3.43544">
        <ele>96.39</ele>
        <time>2020-10-17T13:06:01.532Z</time>
      </trkpt>
      <trkpt lat="49.81655" lon="3.43548">
        <ele>96.64</ele>
        <time>2020-10-17T13:06:07.727Z</time>
      </trkpt>
      <trkpt lat="49.81647" lon="3.43554">
        <ele>96.81</ele>
        <time>2020-10-17T13:06:14.999Z</time>
      </trkpt>
      <trkpt lat="49.81637" lon="3.43561">
        <ele>97.07</ele>
        <time>2020-10-17T13:06:20.590Z</time>
      </trkpt>
      <trkpt lat="49.81629" lon="3.43569">
        <ele>97.19</ele>
        <time>2020-10-17T13:06:27.999Z</time>
      </trkpt>
      <trkpt lat="49.8162" lon="3.43572">
        <ele>97.23</ele>
        <time>2020-10-17T13:06:33.189Z</time>
      </trkpt>
      <trkpt lat="49.8161" lon="3.43578">
        <ele>96.87</ele>
        <time>2020-10-17T13:06:40.610Z</time>
      </trkpt>
      <trkpt lat="49.81602" lon="3.43587">
        <ele>96.56</ele>
        <time>2020-10-17T13:06:48.999Z</time>
      </trkpt>
      <trkpt lat="49.81593" lon="3.43592">
        <ele>96.41</ele>
        <time>2020-10-17T13:06:54.999Z</time>
      </trkpt>
      <trkpt lat="49.81584" lon="3.43596">
        <ele>96.07</ele>
        <time>2020-10-17T13:07:00.629Z</time>
      </trkpt>
      <trkpt lat="49.81575" lon="3.436">
        <ele>95.61</ele>
        <time>2020-10-17T13:07:07.999Z</time>
      </trkpt>
      <trkpt lat="49.81565" lon="3.43604">
        <ele>95.39</ele>
        <time>2020-10-17T13:07:13.999Z</time>
      </trkpt>
      <trkpt lat="49.81556" lon="3.4361">
        <ele>95.44</ele>
        <time>2020-10-17T13:07:19.531Z</time>
      </trkpt>
      <trkpt lat="49.81547" lon="3.43617">
        <ele>95.43</ele>
        <time>2020-10-17T13:07:25.999Z</time>
      </trkpt>
      <trkpt lat="49.81538" lon="3.43623">
        <ele>95.01</ele>
        <time>2020-10-17T13:07:31.999Z</time>
      </trkpt>
      <trkpt lat="49.81529" lon="3.43627">
        <ele>94.64</ele>
        <time>2020-10-17T13:07:37.150Z</time>
      </trkpt>
      <trkpt lat="49.8152" lon="3.43631">
        <ele>94.46</ele>
        <time>2020-10-17T13:07:42.806Z</time>
      </trkpt>
      <trkpt lat="49.81511" lon="3.43634">
        <ele>94.45</ele>
        <time>2020-10-17T13:07:48.999Z</time>
      </trkpt>
      <trkpt lat="49.81502" lon="3.43639">
        <ele>94.51</ele>
        <time>2020-10-17T13:07:54.611Z</time>
      </trkpt>
      <trkpt lat="49.81493" lon="3.43646">
        <ele>94.46</ele>
        <time>2020-10-17T13:08:01.328Z</time>
      </trkpt>
      <trkpt lat="49.81483" lon="3.43652">
        <ele>94.54</ele>
        <time>2020-10-17T13:08:07.408Z</time>
      </trkpt>
      <trkpt lat="49.81472" lon="3.43658">
        <ele>94.63</ele>
        <time>2020-10-17T13:08:14.048Z</time>
      </trkpt>
      <trkpt lat="49.81464" lon="3.43663">
        <ele>94.74</ele>
        <time>2020-10-17T13:08:19.672Z</time>
      </trkpt>
      <trkpt lat="49.81455" lon="3.43669">
        <ele>94.79</ele>
        <time>2020-10-17T13:08:25.767Z</time>
      </trkpt>
      <trkpt lat="49.81445" lon="3.43672">
        <ele>94.92</ele>
        <time>2020-10-17T13:08:32.507Z</time>
      </trkpt>
      <trkpt lat="49.81437" lon="3.43678">
        <ele>94.97</ele>
        <time>2020-10-17T13:08:39.009Z</time>
      </trkpt>
      <trkpt lat="49.81428" lon="3.43684">
        <ele>94.47</ele>
        <time>2020-10-17T13:08:46.084Z</time>
      </trkpt>
      <trkpt lat="49.81418" lon="3.43685">
        <ele>93.84</ele>
        <time>2020-10-17T13:08:53.999Z</time>
      </trkpt>
      <trkpt lat="49.81408" lon="3.43692">
        <ele>93.38</ele>
        <time>2020-10-17T13:09:00.999Z</time>
      </trkpt>
      <trkpt lat="49.81398" lon="3.43697">
        <ele>93.03</ele>
        <time>2020-10-17T13:09:06.999Z</time>
      </trkpt>
      <trkpt lat="49.81389" lon="3.43698">
        <ele>92.54</ele>
        <time>2020-10-17T13:09:11.688Z</time>
      </trkpt>
      <trkpt lat="49.81378" lon="3.43695">
        <ele>91.79</ele>
        <time>2020-10-17T13:09:18.009Z</time>
      </trkpt>
      <trkpt lat="49.81369" lon="3.43688">
        <ele>90.91</ele>
        <time>2020-10-17T13:09:24.029Z</time>
      </trkpt>
      <trkpt lat="49.81361" lon="3.43678">
        <ele>89.9</ele>
        <time>2020-10-17T13:09:30.844Z</time>
      </trkpt>
      <trkpt lat="49.81352" lon="3.43669">
        <ele>89.16</ele>
        <time>2020-10-17T13:09:37.104Z</time>
      </trkpt>
      <trkpt lat="49.81342" lon="3.43667">
        <ele>88.52</ele>
        <time>2020-10-17T13:09:43.999Z</time>
      </trkpt>
      <trkpt lat="49.81334" lon="3.43661">
        <ele>88.18</ele>
        <time>2020-10-17T13:09:48.212Z</time>
      </trkpt>
      <trkpt lat="49.81324" lon="3.43657">
        <ele>87.82</ele>
        <time>2020-10-17T13:09:54.865Z</time>
      </trkpt>
      <trkpt lat="49.81315" lon="3.43652">
        <ele>87.44</ele>
        <time>2020-10-17T13:10:01.052Z</time>
      </trkpt>
      <trkpt lat="49.81306" lon="3.43648">
        <ele>87.22</ele>
        <time>2020-10-17T13:10:06.757Z</time>
      </trkpt>
      <trkpt lat="49.81297" lon="3.43644">
        <ele>86.98</ele>
        <time>2020-10-17T13:10:12.633Z</time>
      </trkpt>
      <trkpt lat="49.81287" lon="3.4364">
        <ele>86.54</ele>
        <time>2020-10-17T13:10:19.999Z</time>
      </trkpt>
      <trkpt lat="49.81278" lon="3.43638">
        <ele>86.14</ele>
        <time>2020-10-17T13:10:25.999Z</time>
      </trkpt>
      <trkpt lat="49.81268" lon="3.43638">
        <ele>85.86</ele>
        <time>2020-10-17T13:10:32.224Z</time>
      </trkpt>
      <trkpt lat="49.81259" lon="3.43637">
        <ele>85.32</ele>
        <time>2020-10-17T13:10:39.999Z</time>
      </trkpt>
      <trkpt lat="49.81249" lon="3.43634">
        <ele>84.81</ele>
        <time>2020-10-17T13:10:46.532Z</time>
      </trkpt>
      <trkpt lat="49.81239" lon="3.43628">
        <ele>84.25</ele>
        <time>2020-10-17T13:10:53.999Z</time>
      </trkpt>
      <trkpt lat="49.81231" lon="3.43625">
        <ele>84.17</ele>
        <time>2020-10-17T13:11:00.999Z</time>
      </trkpt>
      <trkpt lat="49.8122" lon="3.43623">
        <ele>84.52</ele>
        <time>2020-10-17T13:11:07.999Z</time>
      </trkpt>
      <trkpt lat="49.8121" lon="3.43621">
        <ele>84.73</ele>
        <time>2020-10-17T13:11:13.270Z</time>
      </trkpt>
      <trkpt lat="49.81201" lon="3.43615">
        <ele>84.99</ele>
        <time>2020-10-17T13:11:18.647Z</time>
      </trkpt>
      <trkpt lat="49.81192" lon="3.43608">
        <ele>85.18</ele>
        <time>2020-10-17T13:11:25.999Z</time>
      </trkpt>
      <trkpt lat="49.81183" lon="3.436">
        <ele>85.25</ele>
        <time>2020-10-17T13:11:31.569Z</time>
      </trkpt>
      <trkpt lat="49.81173" lon="3.43595">
        <ele>85.39</ele>
        <time>2020-10-17T13:11:38.999Z</time>
      </trkpt>
      <trkpt lat="49.81163" lon="3.43594">
        <ele>85.57</ele>
        <time>2020-10-17T13:11:44.449Z</time>
      </trkpt>
      <trkpt lat="49.81153" lon="3.43592">
        <ele>85.62</ele>
        <time>2020-10-17T13:11:50.671Z</time>
      </trkpt>
      <trkpt lat="49.81144" lon="3.4359">
        <ele>85.51</ele>
        <time>2020-10-17T13:11:57.999Z</time>
      </trkpt>
      <trkpt lat="49.81134" lon="3.43589">
        <ele>85.45</ele>
        <time>2020-10-17T13:12:05.009Z</time>
      </trkpt>
      <trkpt lat="49.81125" lon="3.43585">
        <ele>85.35</ele>
        <time>2020-10-17T13:12:11.764Z</time>
      </trkpt>
      <trkpt lat="49.81116" lon="3.4358">
        <ele>85.16</ele>
        <time>2020-10-17T13:12:18.489Z</time>
      </trkpt>
      <trkpt lat="49.81106" lon="3.43577">
        <ele>85.03</ele>
        <time>2020-10-17T13:12:26.130Z</time>
      </trkpt>
      <trkpt lat="49.81097" lon="3.43578">
        <ele>85.3</ele>
        <time>2020-10-17T13:12:32.667Z</time>
      </trkpt>
      <trkpt lat="49.81088" lon="3.43573">
        <ele>85.44</ele>
        <time>2020-10-17T13:12:38.630Z</time>
      </trkpt>
      <trkpt lat="49.8108" lon="3.43568">
        <ele>85.45</ele>
        <time>2020-10-17T13:12:44.484Z</time>
      </trkpt>
      <trkpt lat="49.81072" lon="3.4356">
        <ele>85.43</ele>
        <time>2020-10-17T13:12:50.943Z</time>
      </trkpt>
      <trkpt lat="49.81063" lon="3.43555">
        <ele>85.35</ele>
        <time>2020-10-17T13:12:57.032Z</time>
      </trkpt>
      <trkpt lat="49.81054" lon="3.43551">
        <ele>85.53</ele>
        <time>2020-10-17T13:13:03.544Z</time>
      </trkpt>
      <trkpt lat="49.81044" lon="3.43548">
        <ele>85.58</ele>
        <time>2020-10-17T13:13:09.347Z</time>
      </trkpt>
      <trkpt lat="49.81034" lon="3.43545">
        <ele>85.21</ele>
        <time>2020-10-17T13:13:16.709Z</time>
      </trkpt>
      <trkpt lat="49.81025" lon="3.43544">
        <ele>84.77</ele>
        <time>2020-10-17T13:13:23.148Z</time>
      </trkpt>
      <trkpt lat="49.81015" lon="3.43543">
        <ele>84.25</ele>
        <time>2020-10-17T13:13:29.509Z</time>
      </trkpt>
      <trkpt lat="49.81007" lon="3.43541">
        <ele>83.79</ele>
        <time>2020-10-17T13:13:36.266Z</time>
      </trkpt>
      <trkpt lat="49.80998" lon="3.4354">
        <ele>83.34</ele>
        <time>2020-10-17T13:13:43.389Z</time>
      </trkpt>
      <trkpt lat="49.80989" lon="3.43536">
        <ele>83.14</ele>
        <time>2020-10-17T13:13:50.999Z</time>
      </trkpt>
      <trkpt lat="49.8098" lon="3.43532">
        <ele>83.18</ele>
        <time>2020-10-17T13:13:55.727Z</time>
      </trkpt>
      <trkpt lat="49.80971" lon="3.43529">
        <ele>83.52</ele>
        <time>2020-10-17T13:14:01.999Z</time>
      </trkpt>
      <trkpt lat="49.80962" lon="3.43529">
        <ele>84.17</ele>
        <time>2020-10-17T13:14:07.491Z</time>
      </trkpt>
      <trkpt lat="49.80953" lon="3.43527">
        <ele>84.62</ele>
        <time>2020-10-17T13:14:13.999Z</time>
      </trkpt>
      <trkpt lat="49.80943" lon="3.43523">
        <ele>84.91</ele>
        <time>2020-10-17T13:14:19.448Z</time>
      </trkpt>
      <trkpt lat="49.80934" lon="3.43521">
        <ele>85.07</ele>
        <time>2020-10-17T13:14:25.669Z</time>
      </trkpt>
      <trkpt lat="49.80925" lon="3.43519">
        <ele>85.21</ele>
        <time>2020-10-17T13:14:31.999Z</time>
      </trkpt>
      <trkpt lat="49.80915" lon="3.43516">
        <ele>85.38</ele>
        <time>2020-10-17T13:14:38.584Z</time>
      </trkpt>
      <trkpt lat="49.80905" lon="3.43517">
        <ele>85.6</ele>
        <time>2020-10-17T13:14:44.964Z</time>
      </trkpt>
      <trkpt lat="49.80896" lon="3.4352">
        <ele>85.84</ele>
        <time>2020-10-17T13:14:51.999Z</time>
      </trkpt>
      <trkpt lat="49.80887" lon="3.43519">
        <ele>86.53</ele>
        <time>2020-10-17T13:14:58.999Z</time>
      </trkpt>
      <trkpt lat="49.80877" lon="3.43519">
        <ele>87.52</ele>
        <time>2020-10-17T13:15:05.284Z</time>
      </trkpt>
      <trkpt lat="49.80868" lon="3.43515">
        <ele>88.2</ele>
        <time>2020-10-17T13:15:09.964Z</time>
      </trkpt>
      <trkpt lat="49.80859" lon="3.43507">
        <ele>88.82</ele>
        <time>2020-10-17T13:15:14.999Z</time>
      </trkpt>
      <trkpt lat="49.8085" lon="3.43504">
        <ele>89.5</ele>
        <time>2020-10-17T13:15:20.031Z</time>
      </trkpt>
      <trkpt lat="49.8084" lon="3.435">
        <ele>90.36</ele>
        <time>2020-10-17T13:15:26.999Z</time>
      </trkpt>
      <trkpt lat="49.80831" lon="3.43493">
        <ele>91.08</ele>
        <time>2020-10-17T13:15:33.727Z</time>
      </trkpt>
      <trkpt lat="49.80823" lon="3.43488">
        <ele>91.7</ele>
        <time>2020-10-17T13:15:39.604Z</time>
      </trkpt>
      <trkpt lat="49.80814" lon="3.43482">
        <ele>92.25</ele>
        <time>2020-10-17T13:15:45.987Z</time>
      </trkpt>
      <trkpt lat="49.80805" lon="3.43477">
        <ele>92.85</ele>
        <time>2020-10-17T13:15:52.872Z</time>
      </trkpt>
      <trkpt lat="49.80795" lon="3.43475">
        <ele>93.67</ele>
        <time>2020-10-17T13:15:59.669Z</time>
      </trkpt>
      <trkpt lat="49.80786" lon="3.43471">
        <ele>94.22</ele>
        <time>2020-10-17T13:16:07.211Z</time>
      </trkpt>
      <trkpt lat="49.80779" lon="3.43461">
        <ele>94.77</ele>
        <time>2020-10-17T13:16:15.231Z</time>
      </trkpt>
      <trkpt lat="49.8077" lon="3.43456">
        <ele>95.06</ele>
        <time>2020-10-17T13:16:21.771Z</time>
      </trkpt>
      <trkpt lat="49.80761" lon="3.43454">
        <ele>95.29</ele>
        <time>2020-10-17T13:16:28.185Z</time>
      </trkpt>
      <trkpt lat="49.80751" lon="3.43459">
        <ele>95.59</ele>
        <time>2020-10-17T13:16:34.608Z</time>
      </trkpt>
      <trkpt lat="49.80742" lon="3.43463">
        <ele>95.84</ele>
        <time>2020-10-17T13:16:40.411Z</time>
      </trkpt>
      <trkpt lat="49.80733" lon="3.43468">
        <ele>96.71</ele>
        <time>2020-10-17T13:16:47.964Z</time>
      </trkpt>
      <trkpt lat="49.80724" lon="3.43466">
        <ele>97.82</ele>
        <time>2020-10-17T13:16:54.999Z</time>
      </trkpt>
      <trkpt lat="49.80715" lon="3.43464">
        <ele>99.06</ele>
        <time>2020-10-17T13:17:02.999Z</time>
      </trkpt>
      <trkpt lat="49.80713" lon="3.43449">
        <ele>79.36</ele>
        <time>2020-10-17T13:17:56.999Z</time>
      </trkpt>
      <trkpt lat="49.80707" lon="3.43466">
        <ele>79.36</ele>
        <time>2020-10-17T13:18:14.724Z</time>
      </trkpt>
      <trkpt lat="49.80701" lon="3.43479">
        <ele>79.36</ele>
        <time>2020-10-17T13:18:19.999Z</time>
      </trkpt>
      <trkpt lat="49.80695" lon="3.43491">
        <ele>79.36</ele>
        <time>2020-10-17T13:18:26.489Z</time>
      </trkpt>
      <trkpt lat="49.80688" lon="3.43501">
        <ele>79.36</ele>
        <time>2020-10-17T13:18:31.670Z</time>
      </trkpt>
      <trkpt lat="49.80682" lon="3.4351">
        <ele>79.36</ele>
        <time>2020-10-17T13:18:38.999Z</time>
      </trkpt>
      <trkpt lat="49.80674" lon="3.43518">
        <ele>79.36</ele>
        <time>2020-10-17T13:18:46.650Z</time>
      </trkpt>
      <trkpt lat="49.80664" lon="3.43523">
        <ele>79.36</ele>
        <time>2020-10-17T13:18:55.907Z</time>
      </trkpt>
      <trkpt lat="49.80656" lon="3.43529">
        <ele>92.72</ele>
        <time>2020-10-17T13:19:02.668Z</time>
      </trkpt>
      <trkpt lat="49.80647" lon="3.43534">
        <ele>91.76</ele>
        <time>2020-10-17T13:19:09.587Z</time>
      </trkpt>
      <trkpt lat="49.80637" lon="3.43542">
        <ele>82.86</ele>
        <time>2020-10-17T13:19:16.132Z</time>
      </trkpt>
      <trkpt lat="49.80629" lon="3.43549">
        <ele>82.86</ele>
        <time>2020-10-17T13:19:22.724Z</time>
      </trkpt>
      <trkpt lat="49.8062" lon="3.43552">
        <ele>82.86</ele>
        <time>2020-10-17T13:19:30.588Z</time>
      </trkpt>
      <trkpt lat="49.8061" lon="3.43552">
        <ele>82.86</ele>
        <time>2020-10-17T13:19:36.469Z</time>
      </trkpt>
      <trkpt lat="49.806" lon="3.43554">
        <ele>82.86</ele>
        <time>2020-10-17T13:19:43.429Z</time>
      </trkpt>
      <trkpt lat="49.80591" lon="3.43556">
        <ele>82.86</ele>
        <time>2020-10-17T13:19:48.771Z</time>
      </trkpt>
      <trkpt lat="49.80582" lon="3.4356">
        <ele>74.86</ele>
        <time>2020-10-17T13:19:54.104Z</time>
      </trkpt>
      <trkpt lat="49.80572" lon="3.43565">
        <ele>74.86</ele>
        <time>2020-10-17T13:20:00.999Z</time>
      </trkpt>
      <trkpt lat="49.80563" lon="3.43569">
        <ele>74.86</ele>
        <time>2020-10-17T13:20:06.507Z</time>
      </trkpt>
      <trkpt lat="49.80553" lon="3.43573">
        <ele>74.86</ele>
        <time>2020-10-17T13:20:11.094Z</time>
      </trkpt>
      <trkpt lat="49.80541" lon="3.4358">
        <ele>74.86</ele>
        <time>2020-10-17T13:20:15.999Z</time>
      </trkpt>
      <trkpt lat="49.80526" lon="3.43589">
        <ele>74.86</ele>
        <time>2020-10-17T13:20:20.247Z</time>
      </trkpt>
      <trkpt lat="49.80518" lon="3.43594">
        <ele>74.86</ele>
        <time>2020-10-17T13:20:24.999Z</time>
      </trkpt>
      <trkpt lat="49.80509" lon="3.436">
        <ele>74.86</ele>
        <time>2020-10-17T13:20:32.065Z</time>
      </trkpt>
      <trkpt lat="49.80501" lon="3.43606">
        <ele>74.86</ele>
        <time>2020-10-17T13:20:42.611Z</time>
      </trkpt>
      <trkpt lat="49.80491" lon="3.436">
        <ele>74.66</ele>
        <time>2020-10-17T13:20:52.506Z</time>
      </trkpt>
      <trkpt lat="49.80484" lon="3.4359">
        <ele>74.86</ele>
        <time>2020-10-17T13:20:57.530Z</time>
      </trkpt>
      <trkpt lat="49.80475" lon="3.43594">
        <ele>75.98</ele>
        <time>2020-10-17T13:21:06.704Z</time>
      </trkpt>
      <trkpt lat="49.80471" lon="3.43607">
        <ele>76.06</ele>
        <time>2020-10-17T13:21:14.687Z</time>
      </trkpt>
      <trkpt lat="49.80469" lon="3.43621">
        <ele>76.06</ele>
        <time>2020-10-17T13:21:20.999Z</time>
      </trkpt>
      <trkpt lat="49.80465" lon="3.43637">
        <ele>76.06</ele>
        <time>2020-10-17T13:21:25.129Z</time>
      </trkpt>
      <trkpt lat="49.80463" lon="3.43652">
        <ele>76.06</ele>
        <time>2020-10-17T13:21:30.999Z</time>
      </trkpt>
      <trkpt lat="49.80461" lon="3.43666">
        <ele>76.06</ele>
        <time>2020-10-17T13:21:37.999Z</time>
      </trkpt>
      <trkpt lat="49.80458" lon="3.4368">
        <ele>76.06</ele>
        <time>2020-10-17T13:21:44.132Z</time>
      </trkpt>
      <trkpt lat="49.80453" lon="3.43693">
        <ele>76.06</ele>
        <time>2020-10-17T13:21:50.999Z</time>
      </trkpt>
      <trkpt lat="49.8045" lon="3.43708">
        <ele>76.06</ele>
        <time>2020-10-17T13:21:55.610Z</time>
      </trkpt>
      <trkpt lat="49.80447" lon="3.43722">
        <ele>76.06</ele>
        <time>2020-10-17T13:22:01.999Z</time>
      </trkpt>
      <trkpt lat="49.80445" lon="3.43736">
        <ele>79.19</ele>
        <time>2020-10-17T13:22:09.166Z</time>
      </trkpt>
      <trkpt lat="49.8044" lon="3.43749">
        <ele>77.39</ele>
        <time>2020-10-17T13:22:17.999Z</time>
      </trkpt>
      <trkpt lat="49.80435" lon="3.43761">
        <ele>76.19</ele>
        <time>2020-10-17T13:22:23.999Z</time>
      </trkpt>
      <trkpt lat="49.80431" lon="3.43775">
        <ele>74.91</ele>
        <time>2020-10-17T13:22:30.651Z</time>
      </trkpt>
      <trkpt lat="49.80424" lon="3.43785">
        <ele>74.59</ele>
        <time>2020-10-17T13:22:41.647Z</time>
      </trkpt>
      <trkpt lat="49.80416" lon="3.43792">
        <ele>74.31</ele>
        <time>2020-10-17T13:22:50.912Z</time>
      </trkpt>
      <trkpt lat="49.80411" lon="3.43805">
        <ele>74.44</ele>
        <time>2020-10-17T13:22:59.999Z</time>
      </trkpt>
      <trkpt lat="49.80406" lon="3.43821">
        <ele>74.99</ele>
        <time>2020-10-17T13:23:05.339Z</time>
      </trkpt>
      <trkpt lat="49.80403" lon="3.43834">
        <ele>75.84</ele>
        <time>2020-10-17T13:23:10.747Z</time>
      </trkpt>
      <trkpt lat="49.80394" lon="3.43837">
        <ele>76.86</ele>
        <time>2020-10-17T13:23:15.987Z</time>
      </trkpt>
      <trkpt lat="49.80382" lon="3.43838">
        <ele>77.65</ele>
        <time>2020-10-17T13:23:20.231Z</time>
      </trkpt>
      <trkpt lat="49.80369" lon="3.43838">
        <ele>78.8</ele>
        <time>2020-10-17T13:23:24.999Z</time>
      </trkpt>
      <trkpt lat="49.80358" lon="3.43837">
        <ele>80.1</ele>
        <time>2020-10-17T13:23:29.999Z</time>
      </trkpt>
      <trkpt lat="49.80348" lon="3.43834">
        <ele>81.55</ele>
        <time>2020-10-17T13:23:34.999Z</time>
      </trkpt>
      <trkpt lat="49.80333" lon="3.43826">
        <ele>82.26</ele>
        <time>2020-10-17T13:23:39.999Z</time>
      </trkpt>
      <trkpt lat="49.80325" lon="3.43815">
        <ele>81.74</ele>
        <time>2020-10-17T13:23:44.296Z</time>
      </trkpt>
      <trkpt lat="49.8032" lon="3.43804">
        <ele>79.19</ele>
        <time>2020-10-17T13:23:56.787Z</time>
      </trkpt>
      <trkpt lat="49.8031" lon="3.43803">
        <ele>78.07</ele>
        <time>2020-10-17T13:24:04.540Z</time>
      </trkpt>
      <trkpt lat="49.80301" lon="3.43804">
        <ele>77.64</ele>
        <time>2020-10-17T13:24:10.999Z</time>
      </trkpt>
      <trkpt lat="49.80295" lon="3.43818">
        <ele>77.35</ele>
        <time>2020-10-17T13:24:16.999Z</time>
      </trkpt>
      <trkpt lat="49.80288" lon="3.43833">
        <ele>77.23</ele>
        <time>2020-10-17T13:24:21.472Z</time>
      </trkpt>
      <trkpt lat="49.8028" lon="3.43847">
        <ele>77.19</ele>
        <time>2020-10-17T13:24:26.847Z</time>
      </trkpt>
      <trkpt lat="49.80274" lon="3.4386">
        <ele>77.28</ele>
        <time>2020-10-17T13:24:32.646Z</time>
      </trkpt>
      <trkpt lat="49.80267" lon="3.43869">
        <ele>77.36</ele>
        <time>2020-10-17T13:24:37.530Z</time>
      </trkpt>
      <trkpt lat="49.80257" lon="3.43876">
        <ele>77.55</ele>
        <time>2020-10-17T13:24:42.369Z</time>
      </trkpt>
      <trkpt lat="49.80249" lon="3.43881">
        <ele>77.8</ele>
        <time>2020-10-17T13:24:47.999Z</time>
      </trkpt>
      <trkpt lat="49.80239" lon="3.43883">
        <ele>78.5</ele>
        <time>2020-10-17T13:24:52.999Z</time>
      </trkpt>
      <trkpt lat="49.80228" lon="3.4388">
        <ele>79.32</ele>
        <time>2020-10-17T13:24:57.999Z</time>
      </trkpt>
      <trkpt lat="49.80218" lon="3.43878">
        <ele>79.86</ele>
        <time>2020-10-17T13:25:02.999Z</time>
      </trkpt>
      <trkpt lat="49.80208" lon="3.43874">
        <ele>80.28</ele>
        <time>2020-10-17T13:25:07.999Z</time>
      </trkpt>
      <trkpt lat="49.80199" lon="3.43865">
        <ele>80.33</ele>
        <time>2020-10-17T13:25:13.007Z</time>
      </trkpt>
      <trkpt lat="49.8019" lon="3.4386">
        <ele>80.21</ele>
        <time>2020-10-17T13:25:18.427Z</time>
      </trkpt>
      <trkpt lat="49.80182" lon="3.4385">
        <ele>80.32</ele>
        <time>2020-10-17T13:25:23.473Z</time>
      </trkpt>
      <trkpt lat="49.80177" lon="3.43837">
        <ele>80.74</ele>
        <time>2020-10-17T13:25:28.512Z</time>
      </trkpt>
      <trkpt lat="49.80172" lon="3.43824">
        <ele>81.38</ele>
        <time>2020-10-17T13:25:33.999Z</time>
      </trkpt>
      <trkpt lat="49.80169" lon="3.4381">
        <ele>82.34</ele>
        <time>2020-10-17T13:25:38.999Z</time>
      </trkpt>
      <trkpt lat="49.80169" lon="3.43793">
        <ele>83.45</ele>
        <time>2020-10-17T13:25:43.999Z</time>
      </trkpt>
      <trkpt lat="49.80167" lon="3.43778">
        <ele>84.56</ele>
        <time>2020-10-17T13:25:49.515Z</time>
      </trkpt>
      <trkpt lat="49.8016" lon="3.43766">
        <ele>85.54</ele>
        <time>2020-10-17T13:25:56.475Z</time>
      </trkpt>
      <trkpt lat="49.80155" lon="3.43754">
        <ele>86.51</ele>
        <time>2020-10-17T13:26:03.999Z</time>
      </trkpt>
      <trkpt lat="49.80149" lon="3.43742">
        <ele>86.81</ele>
        <time>2020-10-17T13:26:11.999Z</time>
      </trkpt>
      <trkpt lat="49.80142" lon="3.4373">
        <ele>86.36</ele>
        <time>2020-10-17T13:26:19.999Z</time>
      </trkpt>
      <trkpt lat="49.80133" lon="3.43724">
        <ele>85.77</ele>
        <time>2020-10-17T13:26:27.189Z</time>
      </trkpt>
      <trkpt lat="49.80125" lon="3.43728">
        <ele>84.42</ele>
        <time>2020-10-17T13:26:35.999Z</time>
      </trkpt>
      <trkpt lat="49.80116" lon="3.43732">
        <ele>83.14</ele>
        <time>2020-10-17T13:26:41.999Z</time>
      </trkpt>
      <trkpt lat="49.80106" lon="3.43729">
        <ele>81.93</ele>
        <time>2020-10-17T13:26:47.087Z</time>
      </trkpt>
      <trkpt lat="49.80098" lon="3.43719">
        <ele>81.32</ele>
        <time>2020-10-17T13:26:51.465Z</time>
      </trkpt>
      <trkpt lat="49.80091" lon="3.43708">
        <ele>81.12</ele>
        <time>2020-10-17T13:26:55.627Z</time>
      </trkpt>
      <trkpt lat="49.80086" lon="3.43693">
        <ele>81.23</ele>
        <time>2020-10-17T13:27:01.999Z</time>
      </trkpt>
      <trkpt lat="49.80083" lon="3.4368">
        <ele>81.42</ele>
        <time>2020-10-17T13:27:06.999Z</time>
      </trkpt>
      <trkpt lat="49.80081" lon="3.43666">
        <ele>81.68</ele>
        <time>2020-10-17T13:27:12.999Z</time>
      </trkpt>
      <trkpt lat="49.80077" lon="3.43653">
        <ele>81.92</ele>
        <time>2020-10-17T13:27:17.706Z</time>
      </trkpt>
      <trkpt lat="49.80072" lon="3.43641">
        <ele>82.15</ele>
        <time>2020-10-17T13:27:23.527Z</time>
      </trkpt>
      <trkpt lat="49.80067" lon="3.43627">
        <ele>82.34</ele>
        <time>2020-10-17T13:27:30.063Z</time>
      </trkpt>
      <trkpt lat="49.80061" lon="3.43614">
        <ele>82.6</ele>
        <time>2020-10-17T13:27:36.999Z</time>
      </trkpt>
      <trkpt lat="49.80056" lon="3.43603">
        <ele>82.7</ele>
        <time>2020-10-17T13:27:41.999Z</time>
      </trkpt>
      <trkpt lat="49.80051" lon="3.43591">
        <ele>82.74</ele>
        <time>2020-10-17T13:27:46.669Z</time>
      </trkpt>
      <trkpt lat="49.80045" lon="3.4358">
        <ele>82.81</ele>
        <time>2020-10-17T13:27:52.049Z</time>
      </trkpt>
      <trkpt lat="49.8004" lon="3.43566">
        <ele>83.04</ele>
        <time>2020-10-17T13:27:58.999Z</time>
      </trkpt>
      <trkpt lat="49.80037" lon="3.43553">
        <ele>83.1</ele>
        <time>2020-10-17T13:28:03.910Z</time>
      </trkpt>
      <trkpt lat="49.80031" lon="3.4354">
        <ele>83.15</ele>
        <time>2020-10-17T13:28:11.442Z</time>
      </trkpt>
      <trkpt lat="49.80025" lon="3.43528">
        <ele>82.88</ele>
        <time>2020-10-17T13:28:19.545Z</time>
      </trkpt>
      <trkpt lat="49.80023" lon="3.43513">
        <ele>82.86</ele>
        <time>2020-10-17T13:28:27.999Z</time>
      </trkpt>
      <trkpt lat="49.8002" lon="3.43499">
        <ele>83.12</ele>
        <time>2020-10-17T13:28:32.043Z</time>
      </trkpt>
      <trkpt lat="49.80017" lon="3.43485">
        <ele>83.47</ele>
        <time>2020-10-17T13:28:37.107Z</time>
      </trkpt>
      <trkpt lat="49.80012" lon="3.43473">
        <ele>84.19</ele>
        <time>2020-10-17T13:28:48.999Z</time>
      </trkpt>
      <trkpt lat="49.80003" lon="3.43467">
        <ele>84.28</ele>
        <time>2020-10-17T13:28:55.905Z</time>
      </trkpt>
      <trkpt lat="49.79995" lon="3.4346">
        <ele>83.8</ele>
        <time>2020-10-17T13:29:04.999Z</time>
      </trkpt>
      <trkpt lat="49.79985" lon="3.43456">
        <ele>83</ele>
        <time>2020-10-17T13:29:09.786Z</time>
      </trkpt>
      <trkpt lat="49.79976" lon="3.43451">
        <ele>82</ele>
        <time>2020-10-17T13:29:14.585Z</time>
      </trkpt>
      <trkpt lat="49.79967" lon="3.43446">
        <ele>80.77</ele>
        <time>2020-10-17T13:29:19.630Z</time>
      </trkpt>
      <trkpt lat="49.79958" lon="3.43439">
        <ele>79.84</ele>
        <time>2020-10-17T13:29:25.071Z</time>
      </trkpt>
      <trkpt lat="49.7995" lon="3.43426">
        <ele>79.32</ele>
        <time>2020-10-17T13:29:30.510Z</time>
      </trkpt>
      <trkpt lat="49.79941" lon="3.43413">
        <ele>79.13</ele>
        <time>2020-10-17T13:29:37.043Z</time>
      </trkpt>
      <trkpt lat="49.79934" lon="3.43403">
        <ele>79.18</ele>
        <time>2020-10-17T13:29:43.806Z</time>
      </trkpt>
      <trkpt lat="49.79925" lon="3.43395">
        <ele>79.29</ele>
        <time>2020-10-17T13:29:50.999Z</time>
      </trkpt>
      <trkpt lat="49.79916" lon="3.43386">
        <ele>79.45</ele>
        <time>2020-10-17T13:29:56.646Z</time>
      </trkpt>
      <trkpt lat="49.79909" lon="3.43377">
        <ele>79.34</ele>
        <time>2020-10-17T13:30:03.999Z</time>
      </trkpt>
      <trkpt lat="49.79903" lon="3.43365">
        <ele>79.51</ele>
        <time>2020-10-17T13:30:08.725Z</time>
      </trkpt>
      <trkpt lat="49.79899" lon="3.4335">
        <ele>79.85</ele>
        <time>2020-10-17T13:30:14.486Z</time>
      </trkpt>
      <trkpt lat="49.79893" lon="3.43336">
        <ele>80.49</ele>
        <time>2020-10-17T13:30:20.999Z</time>
      </trkpt>
      <trkpt lat="49.79887" lon="3.43323">
        <ele>81.16</ele>
        <time>2020-10-17T13:30:25.423Z</time>
      </trkpt>
      <trkpt lat="49.79881" lon="3.43308">
        <ele>81.88</ele>
        <time>2020-10-17T13:30:30.464Z</time>
      </trkpt>
      <trkpt lat="49.79879" lon="3.4329">
        <ele>82.44</ele>
        <time>2020-10-17T13:30:35.070Z</time>
      </trkpt>
      <trkpt lat="49.7988" lon="3.43274">
        <ele>83.13</ele>
        <time>2020-10-17T13:30:39.250Z</time>
      </trkpt>
      <trkpt lat="49.79881" lon="3.4326">
        <ele>83.65</ele>
        <time>2020-10-17T13:30:44.323Z</time>
      </trkpt>
      <trkpt lat="49.79883" lon="3.43245">
        <ele>84.28</ele>
        <time>2020-10-17T13:30:50.406Z</time>
      </trkpt>
      <trkpt lat="49.79885" lon="3.43231">
        <ele>84.78</ele>
        <time>2020-10-17T13:30:55.568Z</time>
      </trkpt>
      <trkpt lat="49.79886" lon="3.43217">
        <ele>85.37</ele>
        <time>2020-10-17T13:31:00.525Z</time>
      </trkpt>
      <trkpt lat="49.79889" lon="3.43203">
        <ele>85.76</ele>
        <time>2020-10-17T13:31:05.462Z</time>
      </trkpt>
      <trkpt lat="49.79896" lon="3.43194">
        <ele>85.98</ele>
        <time>2020-10-17T13:31:10.968Z</time>
      </trkpt>
      <trkpt lat="49.79891" lon="3.43182">
        <ele>85.48</ele>
        <time>2020-10-17T13:31:18.999Z</time>
      </trkpt>
      <trkpt lat="49.79885" lon="3.4317">
        <ele>85.1</ele>
        <time>2020-10-17T13:31:26.999Z</time>
      </trkpt>
      <trkpt lat="49.79877" lon="3.43159">
        <ele>84.72</ele>
        <time>2020-10-17T13:31:32.505Z</time>
      </trkpt>
      <trkpt lat="49.7987" lon="3.43149">
        <ele>84.54</ele>
        <time>2020-10-17T13:31:36.809Z</time>
      </trkpt>
      <trkpt lat="49.79864" lon="3.43138">
        <ele>84.58</ele>
        <time>2020-10-17T13:31:42.708Z</time>
      </trkpt>
      <trkpt lat="49.79858" lon="3.43124">
        <ele>85.07</ele>
        <time>2020-10-17T13:31:48.486Z</time>
      </trkpt>
      <trkpt lat="49.79851" lon="3.43113">
        <ele>85.47</ele>
        <time>2020-10-17T13:31:56.999Z</time>
      </trkpt>
      <trkpt lat="49.79844" lon="3.43102">
        <ele>85.53</ele>
        <time>2020-10-17T13:32:03.630Z</time>
      </trkpt>
      <trkpt lat="49.79838" lon="3.43091">
        <ele>85.64</ele>
        <time>2020-10-17T13:32:09.526Z</time>
      </trkpt>
      <trkpt lat="49.79833" lon="3.43079">
        <ele>85.76</ele>
        <time>2020-10-17T13:32:16.999Z</time>
      </trkpt>
      <trkpt lat="49.79827" lon="3.43067">
        <ele>85.83</ele>
        <time>2020-10-17T13:32:22.943Z</time>
      </trkpt>
      <trkpt lat="49.79823" lon="3.43054">
        <ele>85.83</ele>
        <time>2020-10-17T13:32:28.368Z</time>
      </trkpt>
      <trkpt lat="49.79818" lon="3.43038">
        <ele>85.98</ele>
        <time>2020-10-17T13:32:34.406Z</time>
      </trkpt>
      <trkpt lat="49.79814" lon="3.43025">
        <ele>86.12</ele>
        <time>2020-10-17T13:32:39.887Z</time>
      </trkpt>
      <trkpt lat="49.79808" lon="3.43013">
        <ele>86.4</ele>
        <time>2020-10-17T13:32:46.863Z</time>
      </trkpt>
      <trkpt lat="49.79803" lon="3.43001">
        <ele>86.45</ele>
        <time>2020-10-17T13:32:54.999Z</time>
      </trkpt>
      <trkpt lat="49.79796" lon="3.4299">
        <ele>86.5</ele>
        <time>2020-10-17T13:33:02.794Z</time>
      </trkpt>
      <trkpt lat="49.79794" lon="3.42977">
        <ele>86.69</ele>
        <time>2020-10-17T13:33:08.369Z</time>
      </trkpt>
      <trkpt lat="49.79793" lon="3.42961">
        <ele>86.64</ele>
        <time>2020-10-17T13:33:15.999Z</time>
      </trkpt>
      <trkpt lat="49.79796" lon="3.42944">
        <ele>86.63</ele>
        <time>2020-10-17T13:33:20.999Z</time>
      </trkpt>
      <trkpt lat="49.79796" lon="3.42929">
        <ele>86.57</ele>
        <time>2020-10-17T13:33:26.999Z</time>
      </trkpt>
      <trkpt lat="49.79792" lon="3.42914">
        <ele>86.58</ele>
        <time>2020-10-17T13:33:33.542Z</time>
      </trkpt>
      <trkpt lat="49.79786" lon="3.42902">
        <ele>86.5</ele>
        <time>2020-10-17T13:33:39.963Z</time>
      </trkpt>
      <trkpt lat="49.79779" lon="3.42892">
        <ele>86.49</ele>
        <time>2020-10-17T13:33:46.999Z</time>
      </trkpt>
      <trkpt lat="49.79773" lon="3.42881">
        <ele>86.74</ele>
        <time>2020-10-17T13:33:52.643Z</time>
      </trkpt>
      <trkpt lat="49.79765" lon="3.42871">
        <ele>86.81</ele>
        <time>2020-10-17T13:33:58.563Z</time>
      </trkpt>
      <trkpt lat="49.7976" lon="3.42858">
        <ele>86.66</ele>
        <time>2020-10-17T13:34:04.783Z</time>
      </trkpt>
      <trkpt lat="49.79753" lon="3.42847">
        <ele>86.37</ele>
        <time>2020-10-17T13:34:11.428Z</time>
      </trkpt>
      <trkpt lat="49.79747" lon="3.42834">
        <ele>86.03</ele>
        <time>2020-10-17T13:34:17.342Z</time>
      </trkpt>
      <trkpt lat="49.79744" lon="3.42821">
        <ele>85.81</ele>
        <time>2020-10-17T13:34:23.999Z</time>
      </trkpt>
      <trkpt lat="49.79744" lon="3.42806">
        <ele>85.55</ele>
        <time>2020-10-17T13:34:29.999Z</time>
      </trkpt>
      <trkpt lat="49.79742" lon="3.4279">
        <ele>85.25</ele>
        <time>2020-10-17T13:34:36.445Z</time>
      </trkpt>
      <trkpt lat="49.79746" lon="3.42777">
        <ele>85.08</ele>
        <time>2020-10-17T13:34:42.307Z</time>
      </trkpt>
      <trkpt lat="49.79754" lon="3.42769">
        <ele>84.4</ele>
        <time>2020-10-17T13:34:49.999Z</time>
      </trkpt>
      <trkpt lat="49.79764" lon="3.42763">
        <ele>83.12</ele>
        <time>2020-10-17T13:34:56.999Z</time>
      </trkpt>
      <trkpt lat="49.79773" lon="3.42755">
        <ele>82.34</ele>
        <time>2020-10-17T13:35:01.999Z</time>
      </trkpt>
      <trkpt lat="49.79781" lon="3.42759">
        <ele>82.03</ele>
        <time>2020-10-17T13:35:45.999Z</time>
      </trkpt>
      <trkpt lat="49.79785" lon="3.42745">
        <ele>83.67</ele>
        <time>2020-10-17T13:35:53.925Z</time>
      </trkpt>
      <trkpt lat="49.79791" lon="3.42733">
        <ele>71.97</ele>
        <time>2020-10-17T13:35:59.382Z</time>
      </trkpt>
      <trkpt lat="49.79798" lon="3.42721">
        <ele>71.96</ele>
        <time>2020-10-17T13:36:04.417Z</time>
      </trkpt>
      <trkpt lat="49.79806" lon="3.4271">
        <ele>71.96</ele>
        <time>2020-10-17T13:36:12.999Z</time>
      </trkpt>
      <trkpt lat="49.79813" lon="3.427">
        <ele>70.96</ele>
        <time>2020-10-17T13:36:37.999Z</time>
      </trkpt>
      <trkpt lat="49.7982" lon="3.42687">
        <ele>71.06</ele>
        <time>2020-10-17T13:36:45.627Z</time>
      </trkpt>
      <trkpt lat="49.79827" lon="3.42676">
        <ele>71.06</ele>
        <time>2020-10-17T13:36:52.005Z</time>
      </trkpt>
      <trkpt lat="49.79833" lon="3.42666">
        <ele>71.06</ele>
        <time>2020-10-17T13:36:56.999Z</time>
      </trkpt>
      <trkpt lat="49.79841" lon="3.42655">
        <ele>71.06</ele>
        <time>2020-10-17T13:37:02.999Z</time>
      </trkpt>
      <trkpt lat="49.79849" lon="3.42646">
        <ele>71.06</ele>
        <time>2020-10-17T13:37:08.483Z</time>
      </trkpt>
      <trkpt lat="49.79857" lon="3.42639">
        <ele>71.06</ele>
        <time>2020-10-17T13:37:15.999Z</time>
      </trkpt>
      <trkpt lat="49.7985" lon="3.42651">
        <ele>70.46</ele>
        <time>2020-10-17T13:38:09.850Z</time>
      </trkpt>
      <trkpt lat="49.79841" lon="3.42649">
        <ele>70.46</ele>
        <time>2020-10-17T13:38:15.109Z</time>
      </trkpt>
      <trkpt lat="49.79828" lon="3.42656">
        <ele>70.46</ele>
        <time>2020-10-17T13:38:19.343Z</time>
      </trkpt>
      <trkpt lat="49.79821" lon="3.42676">
        <ele>70.46</ele>
        <time>2020-10-17T13:38:23.999Z</time>
      </trkpt>
      <trkpt lat="49.79819" lon="3.42691">
        <ele>70.46</ele>
        <time>2020-10-17T13:38:28.999Z</time>
      </trkpt>
      <trkpt lat="49.79811" lon="3.42712">
        <ele>70.46</ele>
        <time>2020-10-17T13:38:33.999Z</time>
      </trkpt>
      <trkpt lat="49.79801" lon="3.42731">
        <ele>70.46</ele>
        <time>2020-10-17T13:38:38.999Z</time>
      </trkpt>
      <trkpt lat="49.79807" lon="3.4272">
        <ele>70.96</ele>
        <time>2020-10-17T13:38:58.706Z</time>
      </trkpt>
      <trkpt lat="49.79817" lon="3.42711">
        <ele>70.96</ele>
        <time>2020-10-17T13:39:04.871Z</time>
      </trkpt>
      <trkpt lat="49.79823" lon="3.42695">
        <ele>70.96</ele>
        <time>2020-10-17T13:39:09.999Z</time>
      </trkpt>
      <trkpt lat="49.79839" lon="3.42671">
        <ele>70.96</ele>
        <time>2020-10-17T13:39:14.999Z</time>
      </trkpt>
      <trkpt lat="49.79853" lon="3.42649">
        <ele>70.96</ele>
        <time>2020-10-17T13:39:19.999Z</time>
      </trkpt>
      <trkpt lat="49.7986" lon="3.42633">
        <ele>70.96</ele>
        <time>2020-10-17T13:39:24.999Z</time>
      </trkpt>
      <trkpt lat="49.79861" lon="3.42617">
        <ele>70.67</ele>
        <time>2020-10-17T13:39:35.999Z</time>
      </trkpt>
      <trkpt lat="49.79865" lon="3.42605">
        <ele>70.67</ele>
        <time>2020-10-17T13:39:45.476Z</time>
      </trkpt>
      <trkpt lat="49.7987" lon="3.42591">
        <ele>70.67</ele>
        <time>2020-10-17T13:39:51.408Z</time>
      </trkpt>
      <trkpt lat="49.79873" lon="3.42576">
        <ele>70.67</ele>
        <time>2020-10-17T13:39:58.930Z</time>
      </trkpt>
      <trkpt lat="49.79874" lon="3.4256">
        <ele>70.67</ele>
        <time>2020-10-17T13:40:03.999Z</time>
      </trkpt>
      <trkpt lat="49.79874" lon="3.42546">
        <ele>70.67</ele>
        <time>2020-10-17T13:40:08.999Z</time>
      </trkpt>
      <trkpt lat="49.79876" lon="3.42531">
        <ele>70.67</ele>
        <time>2020-10-17T13:40:14.949Z</time>
      </trkpt>
      <trkpt lat="49.79881" lon="3.42519">
        <ele>70.67</ele>
        <time>2020-10-17T13:40:21.524Z</time>
      </trkpt>
      <trkpt lat="49.79885" lon="3.42506">
        <ele>71.04</ele>
        <time>2020-10-17T13:40:28.999Z</time>
      </trkpt>
      <trkpt lat="49.79873" lon="3.42506">
        <ele>70.97</ele>
        <time>2020-10-17T13:40:38.999Z</time>
      </trkpt>
      <trkpt lat="49.79864" lon="3.425">
        <ele>70.97</ele>
        <time>2020-10-17T13:40:45.864Z</time>
      </trkpt>
      <trkpt lat="49.79854" lon="3.42499">
        <ele>70.97</ele>
        <time>2020-10-17T13:40:52.999Z</time>
      </trkpt>
      <trkpt lat="49.79845" lon="3.42499">
        <ele>70.97</ele>
        <time>2020-10-17T13:40:57.999Z</time>
      </trkpt>
      <trkpt lat="49.79835" lon="3.42499">
        <ele>70.97</ele>
        <time>2020-10-17T13:41:02.425Z</time>
      </trkpt>
      <trkpt lat="49.79825" lon="3.42497">
        <ele>70.97</ele>
        <time>2020-10-17T13:41:09.388Z</time>
      </trkpt>
      <trkpt lat="49.79816" lon="3.42496">
        <ele>70.97</ele>
        <time>2020-10-17T13:41:16.999Z</time>
      </trkpt>
      <trkpt lat="49.79807" lon="3.42493">
        <ele>70.97</ele>
        <time>2020-10-17T13:41:22.999Z</time>
      </trkpt>
      <trkpt lat="49.79798" lon="3.42489">
        <ele>70.97</ele>
        <time>2020-10-17T13:41:28.999Z</time>
      </trkpt>
      <trkpt lat="49.79789" lon="3.42484">
        <ele>70.97</ele>
        <time>2020-10-17T13:41:34.999Z</time>
      </trkpt>
      <trkpt lat="49.79778" lon="3.42478">
        <ele>80.81</ele>
        <time>2020-10-17T13:41:41.999Z</time>
      </trkpt>
      <trkpt lat="49.7977" lon="3.42471">
        <ele>80.04</ele>
        <time>2020-10-17T13:41:47.999Z</time>
      </trkpt>
      <trkpt lat="49.7976" lon="3.42463">
        <ele>79.06</ele>
        <time>2020-10-17T13:41:54.999Z</time>
      </trkpt>
      <trkpt lat="49.79751" lon="3.42457">
        <ele>78.79</ele>
        <time>2020-10-17T13:42:01.307Z</time>
      </trkpt>
      <trkpt lat="49.79741" lon="3.42452">
        <ele>79.33</ele>
        <time>2020-10-17T13:42:07.505Z</time>
      </trkpt>
      <trkpt lat="49.79733" lon="3.42443">
        <ele>79.86</ele>
        <time>2020-10-17T13:42:12.585Z</time>
      </trkpt>
      <trkpt lat="49.79725" lon="3.42435">
        <ele>80.19</ele>
        <time>2020-10-17T13:42:17.526Z</time>
      </trkpt>
      <trkpt lat="49.79717" lon="3.42429">
        <ele>80.42</ele>
        <time>2020-10-17T13:42:24.086Z</time>
      </trkpt>
      <trkpt lat="49.79708" lon="3.42424">
        <ele>80.43</ele>
        <time>2020-10-17T13:42:31.071Z</time>
      </trkpt>
      <trkpt lat="49.79698" lon="3.42418">
        <ele>80.39</ele>
        <time>2020-10-17T13:42:38.999Z</time>
      </trkpt>
      <trkpt lat="49.79689" lon="3.42413">
        <ele>80.52</ele>
        <time>2020-10-17T13:42:45.999Z</time>
      </trkpt>
      <trkpt lat="49.79681" lon="3.42407">
        <ele>80.54</ele>
        <time>2020-10-17T13:42:50.824Z</time>
      </trkpt>
      <trkpt lat="49.79672" lon="3.424">
        <ele>80.47</ele>
        <time>2020-10-17T13:42:56.784Z</time>
      </trkpt>
      <trkpt lat="49.79664" lon="3.42393">
        <ele>80.25</ele>
        <time>2020-10-17T13:43:03.350Z</time>
      </trkpt>
      <trkpt lat="49.79654" lon="3.42388">
        <ele>80.14</ele>
        <time>2020-10-17T13:43:10.999Z</time>
      </trkpt>
      <trkpt lat="49.79645" lon="3.42386">
        <ele>80.36</ele>
        <time>2020-10-17T13:43:15.927Z</time>
      </trkpt>
      <trkpt lat="49.79636" lon="3.42381">
        <ele>80.8</ele>
        <time>2020-10-17T13:43:22.527Z</time>
      </trkpt>
      <trkpt lat="49.79628" lon="3.42374">
        <ele>81.4</ele>
        <time>2020-10-17T13:43:29.611Z</time>
      </trkpt>
      <trkpt lat="49.7962" lon="3.42367">
        <ele>82</ele>
        <time>2020-10-17T13:43:36.999Z</time>
      </trkpt>
      <trkpt lat="49.79612" lon="3.42357">
        <ele>82.53</ele>
        <time>2020-10-17T13:43:41.999Z</time>
      </trkpt>
      <trkpt lat="49.79604" lon="3.42348">
        <ele>82.91</ele>
        <time>2020-10-17T13:43:46.999Z</time>
      </trkpt>
      <trkpt lat="49.79596" lon="3.42341">
        <ele>83.16</ele>
        <time>2020-10-17T13:43:52.943Z</time>
      </trkpt>
      <trkpt lat="49.79588" lon="3.42334">
        <ele>83.27</ele>
        <time>2020-10-17T13:43:59.999Z</time>
      </trkpt>
      <trkpt lat="49.79578" lon="3.42328">
        <ele>83.75</ele>
        <time>2020-10-17T13:44:06.999Z</time>
      </trkpt>
      <trkpt lat="49.7957" lon="3.4232">
        <ele>84.48</ele>
        <time>2020-10-17T13:44:12.999Z</time>
      </trkpt>
      <trkpt lat="49.79561" lon="3.42315">
        <ele>85.3</ele>
        <time>2020-10-17T13:44:18.999Z</time>
      </trkpt>
      <trkpt lat="49.79554" lon="3.42307">
        <ele>85.9</ele>
        <time>2020-10-17T13:44:23.427Z</time>
      </trkpt>
      <trkpt lat="49.79544" lon="3.42301">
        <ele>86.23</ele>
        <time>2020-10-17T13:44:30.999Z</time>
      </trkpt>
      <trkpt lat="49.79535" lon="3.42298">
        <ele>86.61</ele>
        <time>2020-10-17T13:44:37.999Z</time>
      </trkpt>
      <trkpt lat="49.79525" lon="3.42295">
        <ele>87.87</ele>
        <time>2020-10-17T13:44:45.503Z</time>
      </trkpt>
      <trkpt lat="49.79516" lon="3.42289">
        <ele>88.83</ele>
        <time>2020-10-17T13:44:52.522Z</time>
      </trkpt>
      <trkpt lat="49.79508" lon="3.42277">
        <ele>89.2</ele>
        <time>2020-10-17T13:44:59.546Z</time>
      </trkpt>
      <trkpt lat="49.79501" lon="3.42268">
        <ele>89.56</ele>
        <time>2020-10-17T13:45:05.665Z</time>
      </trkpt>
      <trkpt lat="49.79492" lon="3.42262">
        <ele>90.33</ele>
        <time>2020-10-17T13:45:12.999Z</time>
      </trkpt>
      <trkpt lat="49.79483" lon="3.42261">
        <ele>91.12</ele>
        <time>2020-10-17T13:45:19.866Z</time>
      </trkpt>
      <trkpt lat="49.79473" lon="3.42258">
        <ele>91.84</ele>
        <time>2020-10-17T13:45:26.665Z</time>
      </trkpt>
      <trkpt lat="49.79464" lon="3.42251">
        <ele>92.43</ele>
        <time>2020-10-17T13:45:31.833Z</time>
      </trkpt>
      <trkpt lat="49.79458" lon="3.42241">
        <ele>92.92</ele>
        <time>2020-10-17T13:45:35.966Z</time>
      </trkpt>
      <trkpt lat="49.7945" lon="3.42232">
        <ele>93.4</ele>
        <time>2020-10-17T13:45:41.045Z</time>
      </trkpt>
      <trkpt lat="49.79444" lon="3.42221">
        <ele>93.59</ele>
        <time>2020-10-17T13:45:45.999Z</time>
      </trkpt>
      <trkpt lat="49.79437" lon="3.4221">
        <ele>93.47</ele>
        <time>2020-10-17T13:45:50.999Z</time>
      </trkpt>
      <trkpt lat="49.79429" lon="3.42204">
        <ele>93.38</ele>
        <time>2020-10-17T13:45:56.326Z</time>
      </trkpt>
      <trkpt lat="49.79421" lon="3.42196">
        <ele>93.5</ele>
        <time>2020-10-17T13:46:02.448Z</time>
      </trkpt>
      <trkpt lat="49.79414" lon="3.42185">
        <ele>93.65</ele>
        <time>2020-10-17T13:46:08.643Z</time>
      </trkpt>
      <trkpt lat="49.79406" lon="3.42177">
        <ele>94.06</ele>
        <time>2020-10-17T13:46:14.999Z</time>
      </trkpt>
      <trkpt lat="49.79398" lon="3.4217">
        <ele>94.68</ele>
        <time>2020-10-17T13:46:19.632Z</time>
      </trkpt>
      <trkpt lat="49.7939" lon="3.42161">
        <ele>95.83</ele>
        <time>2020-10-17T13:46:26.304Z</time>
      </trkpt>
      <trkpt lat="49.79382" lon="3.42154">
        <ele>97.01</ele>
        <time>2020-10-17T13:46:33.999Z</time>
      </trkpt>
      <trkpt lat="49.79374" lon="3.42147">
        <ele>97.66</ele>
        <time>2020-10-17T13:46:40.999Z</time>
      </trkpt>
      <trkpt lat="49.79366" lon="3.42138">
        <ele>98.01</ele>
        <time>2020-10-17T13:46:46.449Z</time>
      </trkpt>
      <trkpt lat="49.79359" lon="3.42129">
        <ele>98.53</ele>
        <time>2020-10-17T13:46:51.915Z</time>
      </trkpt>
      <trkpt lat="49.79352" lon="3.4212">
        <ele>99.27</ele>
        <time>2020-10-17T13:46:57.564Z</time>
      </trkpt>
      <trkpt lat="49.79344" lon="3.42111">
        <ele>100.05</ele>
        <time>2020-10-17T13:47:03.949Z</time>
      </trkpt>
      <trkpt lat="49.79335" lon="3.42101">
        <ele>100.95</ele>
        <time>2020-10-17T13:47:10.569Z</time>
      </trkpt>
      <trkpt lat="49.79326" lon="3.42093">
        <ele>101.57</ele>
        <time>2020-10-17T13:47:17.999Z</time>
      </trkpt>
      <trkpt lat="49.7932" lon="3.42082">
        <ele>101.62</ele>
        <time>2020-10-17T13:47:23.087Z</time>
      </trkpt>
      <trkpt lat="49.79312" lon="3.42075">
        <ele>101.49</ele>
        <time>2020-10-17T13:47:28.389Z</time>
      </trkpt>
      <trkpt lat="49.79304" lon="3.42066">
        <ele>101.29</ele>
        <time>2020-10-17T13:47:33.885Z</time>
      </trkpt>
      <trkpt lat="49.79298" lon="3.42056">
        <ele>101.01</ele>
        <time>2020-10-17T13:47:41.228Z</time>
      </trkpt>
      <trkpt lat="49.7929" lon="3.42047">
        <ele>101.68</ele>
        <time>2020-10-17T13:47:49.114Z</time>
      </trkpt>
      <trkpt lat="49.79282" lon="3.4204">
        <ele>102.59</ele>
        <time>2020-10-17T13:47:56.087Z</time>
      </trkpt>
      <trkpt lat="49.79275" lon="3.42029">
        <ele>77.87</ele>
        <time>2020-10-17T13:48:02.999Z</time>
      </trkpt>
      <trkpt lat="49.7927" lon="3.42016">
        <ele>77.87</ele>
        <time>2020-10-17T13:48:07.999Z</time>
      </trkpt>
      <trkpt lat="49.79262" lon="3.42007">
        <ele>77.87</ele>
        <time>2020-10-17T13:48:13.326Z</time>
      </trkpt>
      <trkpt lat="49.79256" lon="3.41996">
        <ele>77.87</ele>
        <time>2020-10-17T13:48:19.406Z</time>
      </trkpt>
      <trkpt lat="49.79249" lon="3.41985">
        <ele>77.87</ele>
        <time>2020-10-17T13:48:26.999Z</time>
      </trkpt>
      <trkpt lat="49.79241" lon="3.41977">
        <ele>77.87</ele>
        <time>2020-10-17T13:48:32.603Z</time>
      </trkpt>
      <trkpt lat="49.79233" lon="3.41967">
        <ele>83.87</ele>
        <time>2020-10-17T13:48:39.104Z</time>
      </trkpt>
      <trkpt lat="49.79226" lon="3.41958">
        <ele>83.87</ele>
        <time>2020-10-17T13:48:45.423Z</time>
      </trkpt>
      <trkpt lat="49.79217" lon="3.41949">
        <ele>83.87</ele>
        <time>2020-10-17T13:48:52.999Z</time>
      </trkpt>
      <trkpt lat="49.7921" lon="3.41939">
        <ele>83.87</ele>
        <time>2020-10-17T13:48:57.590Z</time>
      </trkpt>
      <trkpt lat="49.79202" lon="3.41931">
        <ele>83.87</ele>
        <time>2020-10-17T13:49:04.485Z</time>
      </trkpt>
      <trkpt lat="49.79197" lon="3.41918">
        <ele>80.87</ele>
        <time>2020-10-17T13:49:12.999Z</time>
      </trkpt>
      <trkpt lat="49.79189" lon="3.4191">
        <ele>81.37</ele>
        <time>2020-10-17T13:49:19.999Z</time>
      </trkpt>
      <trkpt lat="49.79181" lon="3.41903">
        <ele>81.37</ele>
        <time>2020-10-17T13:49:24.384Z</time>
      </trkpt>
      <trkpt lat="49.79175" lon="3.41891">
        <ele>81.37</ele>
        <time>2020-10-17T13:49:30.999Z</time>
      </trkpt>
      <trkpt lat="49.79166" lon="3.41884">
        <ele>80.87</ele>
        <time>2020-10-17T13:49:37.999Z</time>
      </trkpt>
      <trkpt lat="49.79158" lon="3.41876">
        <ele>80.87</ele>
        <time>2020-10-17T13:49:44.999Z</time>
      </trkpt>
      <trkpt lat="49.79154" lon="3.41862">
        <ele>80.87</ele>
        <time>2020-10-17T13:49:49.406Z</time>
      </trkpt>
      <trkpt lat="49.79147" lon="3.4185">
        <ele>80.87</ele>
        <time>2020-10-17T13:49:55.626Z</time>
      </trkpt>
      <trkpt lat="49.79142" lon="3.41838">
        <ele>80.87</ele>
        <time>2020-10-17T13:50:01.888Z</time>
      </trkpt>
      <trkpt lat="49.79136" lon="3.41828">
        <ele>80.87</ele>
        <time>2020-10-17T13:50:08.999Z</time>
      </trkpt>
      <trkpt lat="49.7913" lon="3.41815">
        <ele>80.87</ele>
        <time>2020-10-17T13:50:15.423Z</time>
      </trkpt>
      <trkpt lat="49.79124" lon="3.41804">
        <ele>80.87</ele>
        <time>2020-10-17T13:50:22.999Z</time>
      </trkpt>
      <trkpt lat="49.79119" lon="3.41791">
        <ele>80.87</ele>
        <time>2020-10-17T13:50:28.999Z</time>
      </trkpt>
      <trkpt lat="49.79114" lon="3.41775">
        <ele>103.77</ele>
        <time>2020-10-17T13:50:34.628Z</time>
      </trkpt>
      <trkpt lat="49.79109" lon="3.41763">
        <ele>103.8</ele>
        <time>2020-10-17T13:50:40.890Z</time>
      </trkpt>
      <trkpt lat="49.79106" lon="3.41748">
        <ele>73.05</ele>
        <time>2020-10-17T13:50:49.749Z</time>
      </trkpt>
      <trkpt lat="49.79103" lon="3.41733">
        <ele>72.57</ele>
        <time>2020-10-17T13:50:57.999Z</time>
      </trkpt>
      <trkpt lat="49.79098" lon="3.41719">
        <ele>72.57</ele>
        <time>2020-10-17T13:51:04.999Z</time>
      </trkpt>
      <trkpt lat="49.79093" lon="3.41703">
        <ele>72.57</ele>
        <time>2020-10-17T13:51:11.966Z</time>
      </trkpt>
      <trkpt lat="49.7909" lon="3.4169">
        <ele>72.57</ele>
        <time>2020-10-17T13:51:18.999Z</time>
      </trkpt>
      <trkpt lat="49.79089" lon="3.41675">
        <ele>72.57</ele>
        <time>2020-10-17T13:51:24.999Z</time>
      </trkpt>
      <trkpt lat="49.79088" lon="3.41658">
        <ele>72.57</ele>
        <time>2020-10-17T13:51:30.665Z</time>
      </trkpt>
      <trkpt lat="49.79088" lon="3.41644">
        <ele>72.57</ele>
        <time>2020-10-17T13:51:37.350Z</time>
      </trkpt>
      <trkpt lat="49.79086" lon="3.4163">
        <ele>72.57</ele>
        <time>2020-10-17T13:51:44.023Z</time>
      </trkpt>
      <trkpt lat="49.79085" lon="3.41616">
        <ele>72.57</ele>
        <time>2020-10-17T13:51:50.045Z</time>
      </trkpt>
      <trkpt lat="49.79085" lon="3.41601">
        <ele>72.57</ele>
        <time>2020-10-17T13:51:56.050Z</time>
      </trkpt>
      <trkpt lat="49.79086" lon="3.41586">
        <ele>103.91</ele>
        <time>2020-10-17T13:52:00.583Z</time>
      </trkpt>
      <trkpt lat="49.79085" lon="3.41572">
        <ele>103.64</ele>
        <time>2020-10-17T13:52:06.999Z</time>
      </trkpt>
      <trkpt lat="49.79084" lon="3.41557">
        <ele>103.39</ele>
        <time>2020-10-17T13:52:11.703Z</time>
      </trkpt>
      <trkpt lat="49.79084" lon="3.41541">
        <ele>103.1</ele>
        <time>2020-10-17T13:52:17.830Z</time>
      </trkpt>
      <trkpt lat="49.79084" lon="3.41527">
        <ele>102.94</ele>
        <time>2020-10-17T13:52:24.999Z</time>
      </trkpt>
      <trkpt lat="49.79083" lon="3.41513">
        <ele>102.98</ele>
        <time>2020-10-17T13:52:31.999Z</time>
      </trkpt>
      <trkpt lat="49.79081" lon="3.41498">
        <ele>102.79</ele>
        <time>2020-10-17T13:52:37.909Z</time>
      </trkpt>
      <trkpt lat="49.79077" lon="3.41483">
        <ele>102.59</ele>
        <time>2020-10-17T13:52:44.588Z</time>
      </trkpt>
      <trkpt lat="49.79072" lon="3.4147">
        <ele>102.07</ele>
        <time>2020-10-17T13:52:52.999Z</time>
      </trkpt>
      <trkpt lat="49.79067" lon="3.41458">
        <ele>101.61</ele>
        <time>2020-10-17T13:52:59.045Z</time>
      </trkpt>
      <trkpt lat="49.79061" lon="3.41445">
        <ele>101.33</ele>
        <time>2020-10-17T13:53:05.670Z</time>
      </trkpt>
      <trkpt lat="49.79055" lon="3.41433">
        <ele>101.13</ele>
        <time>2020-10-17T13:53:10.869Z</time>
      </trkpt>
      <trkpt lat="49.7905" lon="3.41423">
        <ele>100.87</ele>
        <time>2020-10-17T13:53:17.007Z</time>
      </trkpt>
      <trkpt lat="49.79042" lon="3.41412">
        <ele>100.85</ele>
        <time>2020-10-17T13:53:23.823Z</time>
      </trkpt>
      <trkpt lat="49.79035" lon="3.41402">
        <ele>100.59</ele>
        <time>2020-10-17T13:53:32.999Z</time>
      </trkpt>
      <trkpt lat="49.7903" lon="3.41387">
        <ele>100.14</ele>
        <time>2020-10-17T13:53:39.303Z</time>
      </trkpt>
      <trkpt lat="49.79025" lon="3.41376">
        <ele>99.85</ele>
        <time>2020-10-17T13:53:45.529Z</time>
      </trkpt>
      <trkpt lat="49.79018" lon="3.41365">
        <ele>99.63</ele>
        <time>2020-10-17T13:53:51.817Z</time>
      </trkpt>
      <trkpt lat="49.79013" lon="3.41352">
        <ele>99.25</ele>
        <time>2020-10-17T13:53:58.999Z</time>
      </trkpt>
      <trkpt lat="49.79007" lon="3.41342">
        <ele>98.92</ele>
        <time>2020-10-17T13:54:04.066Z</time>
      </trkpt>
      <trkpt lat="49.79001" lon="3.41329">
        <ele>98.41</ele>
        <time>2020-10-17T13:54:10.929Z</time>
      </trkpt>
      <trkpt lat="49.78994" lon="3.41319">
        <ele>97.87</ele>
        <time>2020-10-17T13:54:17.748Z</time>
      </trkpt>
      <trkpt lat="49.78987" lon="3.41308">
        <ele>97.59</ele>
        <time>2020-10-17T13:54:24.049Z</time>
      </trkpt>
      <trkpt lat="49.78989" lon="3.41294">
        <ele>97.17</ele>
        <time>2020-10-17T13:54:33.003Z</time>
      </trkpt>
      <trkpt lat="49.78983" lon="3.41283">
        <ele>97.14</ele>
        <time>2020-10-17T13:54:43.999Z</time>
      </trkpt>
      <trkpt lat="49.78977" lon="3.41269">
        <ele>97.29</ele>
        <time>2020-10-17T13:54:49.687Z</time>
      </trkpt>
      <trkpt lat="49.7897" lon="3.41255">
        <ele>97.24</ele>
        <time>2020-10-17T13:54:54.999Z</time>
      </trkpt>
      <trkpt lat="49.78964" lon="3.41242">
        <ele>97.18</ele>
        <time>2020-10-17T13:54:59.063Z</time>
      </trkpt>
      <trkpt lat="49.78957" lon="3.41231">
        <ele>97.12</ele>
        <time>2020-10-17T13:55:04.867Z</time>
      </trkpt>
      <trkpt lat="49.7895" lon="3.41221">
        <ele>97.08</ele>
        <time>2020-10-17T13:55:12.122Z</time>
      </trkpt>
      <trkpt lat="49.78942" lon="3.41209">
        <ele>97.25</ele>
        <time>2020-10-17T13:55:19.306Z</time>
      </trkpt>
      <trkpt lat="49.78937" lon="3.41197">
        <ele>97.39</ele>
        <time>2020-10-17T13:55:24.366Z</time>
      </trkpt>
      <trkpt lat="49.78931" lon="3.41185">
        <ele>97.68</ele>
        <time>2020-10-17T13:55:30.089Z</time>
      </trkpt>
      <trkpt lat="49.78924" lon="3.41172">
        <ele>98.07</ele>
        <time>2020-10-17T13:55:37.999Z</time>
      </trkpt>
      <trkpt lat="49.78918" lon="3.41161">
        <ele>98.53</ele>
        <time>2020-10-17T13:55:43.409Z</time>
      </trkpt>
      <trkpt lat="49.78912" lon="3.41149">
        <ele>99.05</ele>
        <time>2020-10-17T13:55:50.082Z</time>
      </trkpt>
      <trkpt lat="49.78906" lon="3.41139">
        <ele>99.72</ele>
        <time>2020-10-17T13:55:56.543Z</time>
      </trkpt>
      <trkpt lat="49.78901" lon="3.41126">
        <ele>100.64</ele>
        <time>2020-10-17T13:56:04.367Z</time>
      </trkpt>
      <trkpt lat="49.78897" lon="3.41113">
        <ele>100.98</ele>
        <time>2020-10-17T13:56:09.690Z</time>
      </trkpt>
      <trkpt lat="49.78894" lon="3.411">
        <ele>101.16</ele>
        <time>2020-10-17T13:56:14.999Z</time>
      </trkpt>
      <trkpt lat="49.78888" lon="3.41086">
        <ele>101.6</ele>
        <time>2020-10-17T13:56:20.443Z</time>
      </trkpt>
      <trkpt lat="49.78881" lon="3.41073">
        <ele>102.16</ele>
        <time>2020-10-17T13:56:27.488Z</time>
      </trkpt>
      <trkpt lat="49.78875" lon="3.41063">
        <ele>102.75</ele>
        <time>2020-10-17T13:56:34.999Z</time>
      </trkpt>
      <trkpt lat="49.78866" lon="3.41051">
        <ele>103.38</ele>
        <time>2020-10-17T13:56:42.765Z</time>
      </trkpt>
      <trkpt lat="49.78861" lon="3.41038">
        <ele>103.96</ele>
        <time>2020-10-17T13:56:50.999Z</time>
      </trkpt>
      <trkpt lat="49.78855" lon="3.41027">
        <ele>104.28</ele>
        <time>2020-10-17T13:56:55.649Z</time>
      </trkpt>
      <trkpt lat="49.7885" lon="3.41015">
        <ele>104.65</ele>
        <time>2020-10-17T13:57:01.999Z</time>
      </trkpt>
      <trkpt lat="49.78846" lon="3.41002">
        <ele>104.99</ele>
        <time>2020-10-17T13:57:07.999Z</time>
      </trkpt>
      <trkpt lat="49.78841" lon="3.4099">
        <ele>105.43</ele>
        <time>2020-10-17T13:57:13.999Z</time>
      </trkpt>
      <trkpt lat="49.78836" lon="3.40978">
        <ele>105.84</ele>
        <time>2020-10-17T13:57:19.426Z</time>
      </trkpt>
      <trkpt lat="49.78831" lon="3.40966">
        <ele>106.09</ele>
        <time>2020-10-17T13:57:25.663Z</time>
      </trkpt>
      <trkpt lat="49.78825" lon="3.40954">
        <ele>106.23</ele>
        <time>2020-10-17T13:57:32.999Z</time>
      </trkpt>
      <trkpt lat="49.78819" lon="3.40943">
        <ele>106.28</ele>
        <time>2020-10-17T13:57:38.999Z</time>
      </trkpt>
      <trkpt lat="49.78812" lon="3.40933">
        <ele>106.37</ele>
        <time>2020-10-17T13:57:44.999Z</time>
      </trkpt>
      <trkpt lat="49.78804" lon="3.40922">
        <ele>106.42</ele>
        <time>2020-10-17T13:57:50.626Z</time>
      </trkpt>
      <trkpt lat="49.78796" lon="3.40912">
        <ele>106.19</ele>
        <time>2020-10-17T13:57:58.999Z</time>
      </trkpt>
      <trkpt lat="49.78788" lon="3.40903">
        <ele>105.85</ele>
        <time>2020-10-17T13:58:05.863Z</time>
      </trkpt>
      <trkpt lat="49.7878" lon="3.40894">
        <ele>105.68</ele>
        <time>2020-10-17T13:58:12.566Z</time>
      </trkpt>
      <trkpt lat="49.78773" lon="3.40883">
        <ele>105.53</ele>
        <time>2020-10-17T13:58:18.705Z</time>
      </trkpt>
      <trkpt lat="49.78765" lon="3.40874">
        <ele>105.28</ele>
        <time>2020-10-17T13:58:25.110Z</time>
      </trkpt>
      <trkpt lat="49.78757" lon="3.40866">
        <ele>105.01</ele>
        <time>2020-10-17T13:58:32.999Z</time>
      </trkpt>
      <trkpt lat="49.78749" lon="3.40859">
        <ele>104.55</ele>
        <time>2020-10-17T13:58:39.944Z</time>
      </trkpt>
      <trkpt lat="49.78742" lon="3.40846">
        <ele>104.27</ele>
        <time>2020-10-17T13:58:47.609Z</time>
      </trkpt>
      <trkpt lat="49.78734" lon="3.40838">
        <ele>104.25</ele>
        <time>2020-10-17T13:58:54.999Z</time>
      </trkpt>
      <trkpt lat="49.78728" lon="3.40827">
        <ele>104.39</ele>
        <time>2020-10-17T13:58:59.303Z</time>
      </trkpt>
      <trkpt lat="49.78721" lon="3.40819">
        <ele>104.67</ele>
        <time>2020-10-17T13:59:05.404Z</time>
      </trkpt>
      <trkpt lat="49.78712" lon="3.4081">
        <ele>105.09</ele>
        <time>2020-10-17T13:59:12.030Z</time>
      </trkpt>
      <trkpt lat="49.78705" lon="3.408">
        <ele>105.59</ele>
        <time>2020-10-17T13:59:18.999Z</time>
      </trkpt>
      <trkpt lat="49.78699" lon="3.4079">
        <ele>105.91</ele>
        <time>2020-10-17T13:59:23.584Z</time>
      </trkpt>
      <trkpt lat="49.78691" lon="3.40779">
        <ele>106.25</ele>
        <time>2020-10-17T13:59:30.999Z</time>
      </trkpt>
      <trkpt lat="49.78685" lon="3.40767">
        <ele>106.82</ele>
        <time>2020-10-17T13:59:36.999Z</time>
      </trkpt>
      <trkpt lat="49.78678" lon="3.40754">
        <ele>107.26</ele>
        <time>2020-10-17T13:59:42.651Z</time>
      </trkpt>
      <trkpt lat="49.78672" lon="3.40742">
        <ele>106.91</ele>
        <time>2020-10-17T13:59:49.999Z</time>
      </trkpt>
      <trkpt lat="49.78668" lon="3.40726">
        <ele>106.68</ele>
        <time>2020-10-17T13:59:55.725Z</time>
      </trkpt>
      <trkpt lat="49.78663" lon="3.40713">
        <ele>106.63</ele>
        <time>2020-10-17T14:00:01.830Z</time>
      </trkpt>
      <trkpt lat="49.78659" lon="3.40701">
        <ele>106.59</ele>
        <time>2020-10-17T14:00:08.884Z</time>
      </trkpt>
      <trkpt lat="49.78653" lon="3.4069">
        <ele>106.58</ele>
        <time>2020-10-17T14:00:15.025Z</time>
      </trkpt>
      <trkpt lat="49.78647" lon="3.40679">
        <ele>106.29</ele>
        <time>2020-10-17T14:00:21.548Z</time>
      </trkpt>
      <trkpt lat="49.7864" lon="3.4067">
        <ele>106.24</ele>
        <time>2020-10-17T14:00:27.432Z</time>
      </trkpt>
      <trkpt lat="49.78632" lon="3.40661">
        <ele>106.5</ele>
        <time>2020-10-17T14:00:32.818Z</time>
      </trkpt>
      <trkpt lat="49.78623" lon="3.40653">
        <ele>106.86</ele>
        <time>2020-10-17T14:00:40.999Z</time>
      </trkpt>
      <trkpt lat="49.78614" lon="3.40648">
        <ele>106.93</ele>
        <time>2020-10-17T14:00:47.287Z</time>
      </trkpt>
      <trkpt lat="49.78605" lon="3.40649">
        <ele>106.26</ele>
        <time>2020-10-17T14:00:55.999Z</time>
      </trkpt>
      <trkpt lat="49.78595" lon="3.40653">
        <ele>105.04</ele>
        <time>2020-10-17T14:01:02.999Z</time>
      </trkpt>
      <trkpt lat="49.78585" lon="3.40655">
        <ele>104.71</ele>
        <time>2020-10-17T14:01:09.999Z</time>
      </trkpt>
      <trkpt lat="49.78576" lon="3.40654">
        <ele>79.25</ele>
        <time>2020-10-17T14:01:15.487Z</time>
      </trkpt>
      <trkpt lat="49.78571" lon="3.40642">
        <ele>77.58</ele>
        <time>2020-10-17T14:01:21.430Z</time>
      </trkpt>
      <trkpt lat="49.78564" lon="3.40633">
        <ele>77.88</ele>
        <time>2020-10-17T14:01:27.999Z</time>
      </trkpt>
      <trkpt lat="49.78557" lon="3.40623">
        <ele>77.88</ele>
        <time>2020-10-17T14:01:33.065Z</time>
      </trkpt>
      <trkpt lat="49.78548" lon="3.40612">
        <ele>77.88</ele>
        <time>2020-10-17T14:01:40.489Z</time>
      </trkpt>
      <trkpt lat="49.78539" lon="3.40608">
        <ele>77.88</ele>
        <time>2020-10-17T14:01:45.591Z</time>
      </trkpt>
      <trkpt lat="49.78533" lon="3.40598">
        <ele>77.88</ele>
        <time>2020-10-17T14:01:55.999Z</time>
      </trkpt>
      <trkpt lat="49.78539" lon="3.40587">
        <ele>77.98</ele>
        <time>2020-10-17T14:02:09.999Z</time>
      </trkpt>
      <trkpt lat="49.7854" lon="3.4059">
        <ele>77.98</ele>
        <time>2020-10-17T14:02:59.999Z</time>
      </trkpt>
    </trkseg>
  </trk>
</gpx>